<?xml version="1.0" encoding="UTF-8" standalone="no" ?>
<gpx xmlns="http://www.topografix.com/GPX/1/1" xmlns:xsi="http://www.w3.org/2001/XMLSchema-instance" xsi:schemaLocation="http://www.topografix.com/GPX/1/1 http://www.topografix.com/GPX/1/1/gpx.xsd" version="1.1" creator="VisuGPX - https://www.visugpx.com">
  <metadata>
    <name>Pornichet 19/06/2022</name>
    <desc><![CDATA[Sortie dimanche 19 juin 2022]]></desc>
  </metadata>
  <trk>
    <name><![CDATA[Pornichet Cyclisme]]></name>
    <trkseg>
      <trkpt lat="47.26379" lon="-2.31564">
        <ele>49</ele>
        <time>2022-06-19T07:01:36.000Z</time>
      </trkpt>
      <trkpt lat="47.2638" lon="-2.31578">
        <ele>49</ele>
        <time>2022-06-19T07:01:39.000Z</time>
      </trkpt>
      <trkpt lat="47.2638" lon="-2.31582">
        <ele>48.599998474121</ele>
        <time>2022-06-19T07:01:40.000Z</time>
      </trkpt>
      <trkpt lat="47.26382" lon="-2.31605">
        <ele>48.599998474121</ele>
        <time>2022-06-19T07:01:44.000Z</time>
      </trkpt>
      <trkpt lat="47.26382" lon="-2.31616">
        <ele>48.599998474121</ele>
        <time>2022-06-19T07:01:46.000Z</time>
      </trkpt>
      <trkpt lat="47.26384" lon="-2.31638">
        <ele>48.599998474121</ele>
        <time>2022-06-19T07:01:50.000Z</time>
      </trkpt>
      <trkpt lat="47.26383" lon="-2.31645">
        <ele>48.599998474121</ele>
        <time>2022-06-19T07:01:52.000Z</time>
      </trkpt>
      <trkpt lat="47.2638" lon="-2.31646">
        <ele>48.599998474121</ele>
        <time>2022-06-19T07:01:53.000Z</time>
      </trkpt>
      <trkpt lat="47.26366" lon="-2.31653">
        <ele>48.599998474121</ele>
        <time>2022-06-19T07:01:57.000Z</time>
      </trkpt>
      <trkpt lat="47.26362" lon="-2.31655">
        <ele>48.599998474121</ele>
        <time>2022-06-19T07:01:58.000Z</time>
      </trkpt>
      <trkpt lat="47.26353" lon="-2.3166">
        <ele>48.200000762939</ele>
        <time>2022-06-19T07:02:00.000Z</time>
      </trkpt>
      <trkpt lat="47.26349" lon="-2.31663">
        <ele>47.799999237061</ele>
        <time>2022-06-19T07:02:01.000Z</time>
      </trkpt>
      <trkpt lat="47.26345" lon="-2.31666">
        <ele>47.400001525879</ele>
        <time>2022-06-19T07:02:02.000Z</time>
      </trkpt>
      <trkpt lat="47.26341" lon="-2.31669">
        <ele>47</ele>
        <time>2022-06-19T07:02:03.000Z</time>
      </trkpt>
      <trkpt lat="47.26336" lon="-2.31672">
        <ele>46.599998474121</ele>
        <time>2022-06-19T07:02:04.000Z</time>
      </trkpt>
      <trkpt lat="47.26331" lon="-2.31675">
        <ele>46.599998474121</ele>
        <time>2022-06-19T07:02:05.000Z</time>
      </trkpt>
      <trkpt lat="47.26298" lon="-2.31691">
        <ele>46.200000762939</ele>
        <time>2022-06-19T07:02:11.000Z</time>
      </trkpt>
      <trkpt lat="47.26292" lon="-2.31694">
        <ele>45.799999237061</ele>
        <time>2022-06-19T07:02:12.000Z</time>
      </trkpt>
      <trkpt lat="47.26288" lon="-2.31699">
        <ele>45.400001525879</ele>
        <time>2022-06-19T07:02:13.000Z</time>
      </trkpt>
      <trkpt lat="47.26284" lon="-2.31705">
        <ele>45</ele>
        <time>2022-06-19T07:02:14.000Z</time>
      </trkpt>
      <trkpt lat="47.26281" lon="-2.3171">
        <ele>44.599998474121</ele>
        <time>2022-06-19T07:02:15.000Z</time>
      </trkpt>
      <trkpt lat="47.26279" lon="-2.31727">
        <ele>44.599998474121</ele>
        <time>2022-06-19T07:02:18.000Z</time>
      </trkpt>
      <trkpt lat="47.2628" lon="-2.31733">
        <ele>44.599998474121</ele>
        <time>2022-06-19T07:02:19.000Z</time>
      </trkpt>
      <trkpt lat="47.26284" lon="-2.31771">
        <ele>44.599998474121</ele>
        <time>2022-06-19T07:02:25.000Z</time>
      </trkpt>
      <trkpt lat="47.26281" lon="-2.31808">
        <ele>44.599998474121</ele>
        <time>2022-06-19T07:02:31.000Z</time>
      </trkpt>
      <trkpt lat="47.2628" lon="-2.31813">
        <ele>44.599998474121</ele>
        <time>2022-06-19T07:02:34.000Z</time>
      </trkpt>
      <trkpt lat="47.2628" lon="-2.31813">
        <ele>44.599998474121</ele>
        <time>2022-06-19T07:02:35.000Z</time>
      </trkpt>
      <trkpt lat="47.26283" lon="-2.31841">
        <ele>44.599998474121</ele>
        <time>2022-06-19T07:03:44.000Z</time>
      </trkpt>
      <trkpt lat="47.26284" lon="-2.31851">
        <ele>44.599998474121</ele>
        <time>2022-06-19T07:03:46.000Z</time>
      </trkpt>
      <trkpt lat="47.26283" lon="-2.31856">
        <ele>44.599998474121</ele>
        <time>2022-06-19T07:03:47.000Z</time>
      </trkpt>
      <trkpt lat="47.26278" lon="-2.3187">
        <ele>44.599998474121</ele>
        <time>2022-06-19T07:03:50.000Z</time>
      </trkpt>
      <trkpt lat="47.26273" lon="-2.31879">
        <ele>44.599998474121</ele>
        <time>2022-06-19T07:03:52.000Z</time>
      </trkpt>
      <trkpt lat="47.26265" lon="-2.31895">
        <ele>44.599998474121</ele>
        <time>2022-06-19T07:03:55.000Z</time>
      </trkpt>
      <trkpt lat="47.26252" lon="-2.31932">
        <ele>44.599998474121</ele>
        <time>2022-06-19T07:04:02.000Z</time>
      </trkpt>
      <trkpt lat="47.26243" lon="-2.31958">
        <ele>44.599998474121</ele>
        <time>2022-06-19T07:04:07.000Z</time>
      </trkpt>
      <trkpt lat="47.2624" lon="-2.31961">
        <ele>44.599998474121</ele>
        <time>2022-06-19T07:04:08.000Z</time>
      </trkpt>
      <trkpt lat="47.26233" lon="-2.31962">
        <ele>44.599998474121</ele>
        <time>2022-06-19T07:04:10.000Z</time>
      </trkpt>
      <trkpt lat="47.26223" lon="-2.31971">
        <ele>44.599998474121</ele>
        <time>2022-06-19T07:04:13.000Z</time>
      </trkpt>
      <trkpt lat="47.26219" lon="-2.31975">
        <ele>44.599998474121</ele>
        <time>2022-06-19T07:04:14.000Z</time>
      </trkpt>
      <trkpt lat="47.262" lon="-2.31991">
        <ele>44.599998474121</ele>
        <time>2022-06-19T07:04:19.000Z</time>
      </trkpt>
      <trkpt lat="47.26198" lon="-2.31995">
        <ele>44.599998474121</ele>
        <time>2022-06-19T07:04:20.000Z</time>
      </trkpt>
      <trkpt lat="47.26195" lon="-2.32007">
        <ele>44.599998474121</ele>
        <time>2022-06-19T07:04:23.000Z</time>
      </trkpt>
      <trkpt lat="47.26194" lon="-2.32011">
        <ele>44.599998474121</ele>
        <time>2022-06-19T07:04:25.000Z</time>
      </trkpt>
      <trkpt lat="47.2619" lon="-2.32011">
        <ele>44.599998474121</ele>
        <time>2022-06-19T07:04:26.000Z</time>
      </trkpt>
      <trkpt lat="47.26187" lon="-2.32011">
        <ele>44.599998474121</ele>
        <time>2022-06-19T07:04:27.000Z</time>
      </trkpt>
      <trkpt lat="47.26166" lon="-2.32016">
        <ele>44.599998474121</ele>
        <time>2022-06-19T07:04:32.000Z</time>
      </trkpt>
      <trkpt lat="47.26159" lon="-2.32024">
        <ele>44.599998474121</ele>
        <time>2022-06-19T07:04:34.000Z</time>
      </trkpt>
      <trkpt lat="47.26153" lon="-2.32036">
        <ele>44.599998474121</ele>
        <time>2022-06-19T07:04:36.000Z</time>
      </trkpt>
      <trkpt lat="47.26147" lon="-2.32057">
        <ele>44.599998474121</ele>
        <time>2022-06-19T07:04:39.000Z</time>
      </trkpt>
      <trkpt lat="47.26141" lon="-2.32079">
        <ele>44.599998474121</ele>
        <time>2022-06-19T07:04:42.000Z</time>
      </trkpt>
      <trkpt lat="47.26127" lon="-2.32122">
        <ele>44.599998474121</ele>
        <time>2022-06-19T07:04:48.000Z</time>
      </trkpt>
      <trkpt lat="47.26116" lon="-2.32155">
        <ele>44.599998474121</ele>
        <time>2022-06-19T07:04:53.000Z</time>
      </trkpt>
      <trkpt lat="47.26114" lon="-2.32161">
        <ele>44.599998474121</ele>
        <time>2022-06-19T07:04:54.000Z</time>
      </trkpt>
      <trkpt lat="47.26106" lon="-2.3218">
        <ele>44.599998474121</ele>
        <time>2022-06-19T07:04:58.000Z</time>
      </trkpt>
      <trkpt lat="47.261" lon="-2.32191">
        <ele>44.599998474121</ele>
        <time>2022-06-19T07:05:03.000Z</time>
      </trkpt>
      <trkpt lat="47.26097" lon="-2.32202">
        <ele>44.599998474121</ele>
        <time>2022-06-19T07:05:09.000Z</time>
      </trkpt>
      <trkpt lat="47.26089" lon="-2.32221">
        <ele>44.599998474121</ele>
        <time>2022-06-19T07:05:13.000Z</time>
      </trkpt>
      <trkpt lat="47.26086" lon="-2.32226">
        <ele>44.599998474121</ele>
        <time>2022-06-19T07:05:14.000Z</time>
      </trkpt>
      <trkpt lat="47.26078" lon="-2.32236">
        <ele>44.599998474121</ele>
        <time>2022-06-19T07:05:16.000Z</time>
      </trkpt>
      <trkpt lat="47.2607" lon="-2.32246">
        <ele>44.599998474121</ele>
        <time>2022-06-19T07:05:18.000Z</time>
      </trkpt>
      <trkpt lat="47.26053" lon="-2.32267">
        <ele>44.599998474121</ele>
        <time>2022-06-19T07:05:22.000Z</time>
      </trkpt>
      <trkpt lat="47.26037" lon="-2.32281">
        <ele>44.599998474121</ele>
        <time>2022-06-19T07:05:25.000Z</time>
      </trkpt>
      <trkpt lat="47.26007" lon="-2.32317">
        <ele>44.599998474121</ele>
        <time>2022-06-19T07:05:32.000Z</time>
      </trkpt>
      <trkpt lat="47.25974" lon="-2.3236">
        <ele>44.599998474121</ele>
        <time>2022-06-19T07:05:40.000Z</time>
      </trkpt>
      <trkpt lat="47.25941" lon="-2.32404">
        <ele>44.599998474121</ele>
        <time>2022-06-19T07:05:48.000Z</time>
      </trkpt>
      <trkpt lat="47.25906" lon="-2.32452">
        <ele>44.599998474121</ele>
        <time>2022-06-19T07:05:57.000Z</time>
      </trkpt>
      <trkpt lat="47.25894" lon="-2.32466">
        <ele>44.599998474121</ele>
        <time>2022-06-19T07:06:00.000Z</time>
      </trkpt>
      <trkpt lat="47.25885" lon="-2.32473">
        <ele>44.599998474121</ele>
        <time>2022-06-19T07:06:02.000Z</time>
      </trkpt>
      <trkpt lat="47.25871" lon="-2.32479">
        <ele>44.599998474121</ele>
        <time>2022-06-19T07:06:05.000Z</time>
      </trkpt>
      <trkpt lat="47.2586" lon="-2.32481">
        <ele>44.599998474121</ele>
        <time>2022-06-19T07:06:07.000Z</time>
      </trkpt>
      <trkpt lat="47.25855" lon="-2.32481">
        <ele>44.599998474121</ele>
        <time>2022-06-19T07:06:08.000Z</time>
      </trkpt>
      <trkpt lat="47.25833" lon="-2.32476">
        <ele>44.599998474121</ele>
        <time>2022-06-19T07:06:12.000Z</time>
      </trkpt>
      <trkpt lat="47.25828" lon="-2.32474">
        <ele>44.599998474121</ele>
        <time>2022-06-19T07:06:13.000Z</time>
      </trkpt>
      <trkpt lat="47.25808" lon="-2.32461">
        <ele>44.599998474121</ele>
        <time>2022-06-19T07:06:17.000Z</time>
      </trkpt>
      <trkpt lat="47.25803" lon="-2.3246">
        <ele>44.599998474121</ele>
        <time>2022-06-19T07:06:18.000Z</time>
      </trkpt>
      <trkpt lat="47.25785" lon="-2.32459">
        <ele>44.599998474121</ele>
        <time>2022-06-19T07:06:22.000Z</time>
      </trkpt>
      <trkpt lat="47.25773" lon="-2.32446">
        <ele>44.599998474121</ele>
        <time>2022-06-19T07:06:25.000Z</time>
      </trkpt>
      <trkpt lat="47.25758" lon="-2.32427">
        <ele>44.599998474121</ele>
        <time>2022-06-19T07:06:29.000Z</time>
      </trkpt>
      <trkpt lat="47.25747" lon="-2.32426">
        <ele>44.599998474121</ele>
        <time>2022-06-19T07:06:31.000Z</time>
      </trkpt>
      <trkpt lat="47.25723" lon="-2.32425">
        <ele>44.599998474121</ele>
        <time>2022-06-19T07:06:35.000Z</time>
      </trkpt>
      <trkpt lat="47.25676" lon="-2.32421">
        <ele>44.599998474121</ele>
        <time>2022-06-19T07:06:43.000Z</time>
      </trkpt>
      <trkpt lat="47.25666" lon="-2.32421">
        <ele>44.599998474121</ele>
        <time>2022-06-19T07:06:45.000Z</time>
      </trkpt>
      <trkpt lat="47.2566" lon="-2.32432">
        <ele>44.599998474121</ele>
        <time>2022-06-19T07:06:47.000Z</time>
      </trkpt>
      <trkpt lat="47.25662" lon="-2.32454">
        <ele>44.599998474121</ele>
        <time>2022-06-19T07:06:50.000Z</time>
      </trkpt>
      <trkpt lat="47.25673" lon="-2.32487">
        <ele>44.599998474121</ele>
        <time>2022-06-19T07:06:55.000Z</time>
      </trkpt>
      <trkpt lat="47.25675" lon="-2.32493">
        <ele>44.599998474121</ele>
        <time>2022-06-19T07:06:56.000Z</time>
      </trkpt>
      <trkpt lat="47.25691" lon="-2.32542">
        <ele>44.599998474121</ele>
        <time>2022-06-19T07:07:04.000Z</time>
      </trkpt>
      <trkpt lat="47.25696" lon="-2.32559">
        <ele>44.599998474121</ele>
        <time>2022-06-19T07:07:07.000Z</time>
      </trkpt>
      <trkpt lat="47.25704" lon="-2.32587">
        <ele>45</ele>
        <time>2022-06-19T07:07:12.000Z</time>
      </trkpt>
      <trkpt lat="47.25706" lon="-2.32593">
        <ele>45.400001525879</ele>
        <time>2022-06-19T07:07:13.000Z</time>
      </trkpt>
      <trkpt lat="47.25707" lon="-2.326">
        <ele>45.799999237061</ele>
        <time>2022-06-19T07:07:14.000Z</time>
      </trkpt>
      <trkpt lat="47.25708" lon="-2.32606">
        <ele>46.400001525879</ele>
        <time>2022-06-19T07:07:15.000Z</time>
      </trkpt>
      <trkpt lat="47.25708" lon="-2.32613">
        <ele>46.799999237061</ele>
        <time>2022-06-19T07:07:16.000Z</time>
      </trkpt>
      <trkpt lat="47.25708" lon="-2.32619">
        <ele>46.799999237061</ele>
        <time>2022-06-19T07:07:17.000Z</time>
      </trkpt>
      <trkpt lat="47.25697" lon="-2.32629">
        <ele>46.799999237061</ele>
        <time>2022-06-19T07:07:20.000Z</time>
      </trkpt>
      <trkpt lat="47.25693" lon="-2.32631">
        <ele>46.799999237061</ele>
        <time>2022-06-19T07:07:21.000Z</time>
      </trkpt>
      <trkpt lat="47.25654" lon="-2.32647">
        <ele>46.799999237061</ele>
        <time>2022-06-19T07:07:30.000Z</time>
      </trkpt>
      <trkpt lat="47.2565" lon="-2.32648">
        <ele>47.200000762939</ele>
        <time>2022-06-19T07:07:31.000Z</time>
      </trkpt>
      <trkpt lat="47.25646" lon="-2.3265">
        <ele>47.599998474121</ele>
        <time>2022-06-19T07:07:32.000Z</time>
      </trkpt>
      <trkpt lat="47.25642" lon="-2.32651">
        <ele>48</ele>
        <time>2022-06-19T07:07:33.000Z</time>
      </trkpt>
      <trkpt lat="47.25637" lon="-2.32653">
        <ele>48.400001525879</ele>
        <time>2022-06-19T07:07:34.000Z</time>
      </trkpt>
      <trkpt lat="47.25633" lon="-2.32655">
        <ele>48.799999237061</ele>
        <time>2022-06-19T07:07:35.000Z</time>
      </trkpt>
      <trkpt lat="47.25616" lon="-2.32663">
        <ele>48.799999237061</ele>
        <time>2022-06-19T07:07:39.000Z</time>
      </trkpt>
      <trkpt lat="47.25585" lon="-2.32678">
        <ele>48.799999237061</ele>
        <time>2022-06-19T07:07:46.000Z</time>
      </trkpt>
      <trkpt lat="47.2555" lon="-2.32694">
        <ele>48.799999237061</ele>
        <time>2022-06-19T07:07:53.000Z</time>
      </trkpt>
      <trkpt lat="47.25539" lon="-2.32699">
        <ele>48.799999237061</ele>
        <time>2022-06-19T07:07:55.000Z</time>
      </trkpt>
      <trkpt lat="47.25523" lon="-2.32703">
        <ele>48.799999237061</ele>
        <time>2022-06-19T07:07:58.000Z</time>
      </trkpt>
      <trkpt lat="47.25518" lon="-2.32703">
        <ele>48.799999237061</ele>
        <time>2022-06-19T07:07:59.000Z</time>
      </trkpt>
      <trkpt lat="47.25491" lon="-2.32707">
        <ele>48.799999237061</ele>
        <time>2022-06-19T07:08:04.000Z</time>
      </trkpt>
      <trkpt lat="47.25486" lon="-2.32709">
        <ele>48.799999237061</ele>
        <time>2022-06-19T07:08:05.000Z</time>
      </trkpt>
      <trkpt lat="47.2547" lon="-2.32723">
        <ele>48.799999237061</ele>
        <time>2022-06-19T07:08:09.000Z</time>
      </trkpt>
      <trkpt lat="47.25465" lon="-2.32731">
        <ele>48.799999237061</ele>
        <time>2022-06-19T07:08:11.000Z</time>
      </trkpt>
      <trkpt lat="47.25457" lon="-2.32739">
        <ele>48.799999237061</ele>
        <time>2022-06-19T07:08:14.000Z</time>
      </trkpt>
      <trkpt lat="47.25444" lon="-2.32756">
        <ele>48.799999237061</ele>
        <time>2022-06-19T07:08:20.000Z</time>
      </trkpt>
      <trkpt lat="47.25436" lon="-2.32773">
        <ele>48.799999237061</ele>
        <time>2022-06-19T07:08:25.000Z</time>
      </trkpt>
      <trkpt lat="47.25434" lon="-2.32779">
        <ele>48.799999237061</ele>
        <time>2022-06-19T07:08:26.000Z</time>
      </trkpt>
      <trkpt lat="47.25425" lon="-2.32798">
        <ele>48.400001525879</ele>
        <time>2022-06-19T07:08:29.000Z</time>
      </trkpt>
      <trkpt lat="47.25421" lon="-2.32805">
        <ele>48</ele>
        <time>2022-06-19T07:08:30.000Z</time>
      </trkpt>
      <trkpt lat="47.25417" lon="-2.32812">
        <ele>47.599998474121</ele>
        <time>2022-06-19T07:08:31.000Z</time>
      </trkpt>
      <trkpt lat="47.25412" lon="-2.32818">
        <ele>47.200000762939</ele>
        <time>2022-06-19T07:08:32.000Z</time>
      </trkpt>
      <trkpt lat="47.25407" lon="-2.32825">
        <ele>46.799999237061</ele>
        <time>2022-06-19T07:08:33.000Z</time>
      </trkpt>
      <trkpt lat="47.25402" lon="-2.32831">
        <ele>46.799999237061</ele>
        <time>2022-06-19T07:08:34.000Z</time>
      </trkpt>
      <trkpt lat="47.25357" lon="-2.32879">
        <ele>46.799999237061</ele>
        <time>2022-06-19T07:08:42.000Z</time>
      </trkpt>
      <trkpt lat="47.25351" lon="-2.32884">
        <ele>46.799999237061</ele>
        <time>2022-06-19T07:08:43.000Z</time>
      </trkpt>
      <trkpt lat="47.25313" lon="-2.32922">
        <ele>46.400001525879</ele>
        <time>2022-06-19T07:08:50.000Z</time>
      </trkpt>
      <trkpt lat="47.2531" lon="-2.3293">
        <ele>46</ele>
        <time>2022-06-19T07:08:51.000Z</time>
      </trkpt>
      <trkpt lat="47.25309" lon="-2.32939">
        <ele>45.599998474121</ele>
        <time>2022-06-19T07:08:52.000Z</time>
      </trkpt>
      <trkpt lat="47.2531" lon="-2.32948">
        <ele>45</ele>
        <time>2022-06-19T07:08:53.000Z</time>
      </trkpt>
      <trkpt lat="47.25311" lon="-2.32957">
        <ele>44.599998474121</ele>
        <time>2022-06-19T07:08:54.000Z</time>
      </trkpt>
      <trkpt lat="47.25319" lon="-2.3298">
        <ele>44.599998474121</ele>
        <time>2022-06-19T07:08:57.000Z</time>
      </trkpt>
      <trkpt lat="47.25322" lon="-2.32988">
        <ele>44.599998474121</ele>
        <time>2022-06-19T07:08:58.000Z</time>
      </trkpt>
      <trkpt lat="47.25343" lon="-2.3304">
        <ele>44.599998474121</ele>
        <time>2022-06-19T07:09:05.000Z</time>
      </trkpt>
      <trkpt lat="47.25358" lon="-2.3308">
        <ele>44.599998474121</ele>
        <time>2022-06-19T07:09:11.000Z</time>
      </trkpt>
      <trkpt lat="47.25367" lon="-2.33104">
        <ele>44.599998474121</ele>
        <time>2022-06-19T07:09:16.000Z</time>
      </trkpt>
      <trkpt lat="47.25367" lon="-2.33105">
        <ele>44.200000762939</ele>
        <time>2022-06-19T07:09:18.000Z</time>
      </trkpt>
      <trkpt lat="47.25371" lon="-2.33108">
        <ele>42.400001525879</ele>
        <time>2022-06-19T07:10:31.000Z</time>
      </trkpt>
      <trkpt lat="47.25372" lon="-2.3311">
        <ele>42</ele>
        <time>2022-06-19T07:10:32.000Z</time>
      </trkpt>
      <trkpt lat="47.25373" lon="-2.33112">
        <ele>41.599998474121</ele>
        <time>2022-06-19T07:10:33.000Z</time>
      </trkpt>
      <trkpt lat="47.25374" lon="-2.33114">
        <ele>41.200000762939</ele>
        <time>2022-06-19T07:10:34.000Z</time>
      </trkpt>
      <trkpt lat="47.25375" lon="-2.33117">
        <ele>40.799999237061</ele>
        <time>2022-06-19T07:10:35.000Z</time>
      </trkpt>
      <trkpt lat="47.25376" lon="-2.3312">
        <ele>40.400001525879</ele>
        <time>2022-06-19T07:10:36.000Z</time>
      </trkpt>
      <trkpt lat="47.25378" lon="-2.33125">
        <ele>40.400001525879</ele>
        <time>2022-06-19T07:10:38.000Z</time>
      </trkpt>
      <trkpt lat="47.25386" lon="-2.33139">
        <ele>40.400001525879</ele>
        <time>2022-06-19T07:10:44.000Z</time>
      </trkpt>
      <trkpt lat="47.25388" lon="-2.33138">
        <ele>40.400001525879</ele>
        <time>2022-06-19T07:10:45.000Z</time>
      </trkpt>
      <trkpt lat="47.25401" lon="-2.33129">
        <ele>40.400001525879</ele>
        <time>2022-06-19T07:10:50.000Z</time>
      </trkpt>
      <trkpt lat="47.25417" lon="-2.33121">
        <ele>40.400001525879</ele>
        <time>2022-06-19T07:10:55.000Z</time>
      </trkpt>
      <trkpt lat="47.25443" lon="-2.33109">
        <ele>40.400001525879</ele>
        <time>2022-06-19T07:11:02.000Z</time>
      </trkpt>
      <trkpt lat="47.2547" lon="-2.33096">
        <ele>40.400001525879</ele>
        <time>2022-06-19T07:11:09.000Z</time>
      </trkpt>
      <trkpt lat="47.25485" lon="-2.33082">
        <ele>40.400001525879</ele>
        <time>2022-06-19T07:11:14.000Z</time>
      </trkpt>
      <trkpt lat="47.25508" lon="-2.33057">
        <ele>40.400001525879</ele>
        <time>2022-06-19T07:11:21.000Z</time>
      </trkpt>
      <trkpt lat="47.25511" lon="-2.33053">
        <ele>40.400001525879</ele>
        <time>2022-06-19T07:11:22.000Z</time>
      </trkpt>
      <trkpt lat="47.25522" lon="-2.33044">
        <ele>40.400001525879</ele>
        <time>2022-06-19T07:11:25.000Z</time>
      </trkpt>
      <trkpt lat="47.25526" lon="-2.33042">
        <ele>40.400001525879</ele>
        <time>2022-06-19T07:11:26.000Z</time>
      </trkpt>
      <trkpt lat="47.2553" lon="-2.3304">
        <ele>40.400001525879</ele>
        <time>2022-06-19T07:11:27.000Z</time>
      </trkpt>
      <trkpt lat="47.25548" lon="-2.33035">
        <ele>40.400001525879</ele>
        <time>2022-06-19T07:11:31.000Z</time>
      </trkpt>
      <trkpt lat="47.25572" lon="-2.33029">
        <ele>40.400001525879</ele>
        <time>2022-06-19T07:11:37.000Z</time>
      </trkpt>
      <trkpt lat="47.25576" lon="-2.33029">
        <ele>40.400001525879</ele>
        <time>2022-06-19T07:11:38.000Z</time>
      </trkpt>
      <trkpt lat="47.25593" lon="-2.33026">
        <ele>40.400001525879</ele>
        <time>2022-06-19T07:11:42.000Z</time>
      </trkpt>
      <trkpt lat="47.25598" lon="-2.33026">
        <ele>40.400001525879</ele>
        <time>2022-06-19T07:11:43.000Z</time>
      </trkpt>
      <trkpt lat="47.25606" lon="-2.33024">
        <ele>40.400001525879</ele>
        <time>2022-06-19T07:11:45.000Z</time>
      </trkpt>
      <trkpt lat="47.25611" lon="-2.33016">
        <ele>40.400001525879</ele>
        <time>2022-06-19T07:11:47.000Z</time>
      </trkpt>
      <trkpt lat="47.25612" lon="-2.32998">
        <ele>40.400001525879</ele>
        <time>2022-06-19T07:11:50.000Z</time>
      </trkpt>
      <trkpt lat="47.2561" lon="-2.32986">
        <ele>40.400001525879</ele>
        <time>2022-06-19T07:11:52.000Z</time>
      </trkpt>
      <trkpt lat="47.25606" lon="-2.32967">
        <ele>40.400001525879</ele>
        <time>2022-06-19T07:11:55.000Z</time>
      </trkpt>
      <trkpt lat="47.25605" lon="-2.32961">
        <ele>40.799999237061</ele>
        <time>2022-06-19T07:11:56.000Z</time>
      </trkpt>
      <trkpt lat="47.25605" lon="-2.32955">
        <ele>41.200000762939</ele>
        <time>2022-06-19T07:11:57.000Z</time>
      </trkpt>
      <trkpt lat="47.25604" lon="-2.32949">
        <ele>41.599998474121</ele>
        <time>2022-06-19T07:11:58.000Z</time>
      </trkpt>
      <trkpt lat="47.25603" lon="-2.32944">
        <ele>42</ele>
        <time>2022-06-19T07:11:59.000Z</time>
      </trkpt>
      <trkpt lat="47.25602" lon="-2.32938">
        <ele>42.400001525879</ele>
        <time>2022-06-19T07:12:00.000Z</time>
      </trkpt>
      <trkpt lat="47.25597" lon="-2.32917">
        <ele>42.400001525879</ele>
        <time>2022-06-19T07:12:04.000Z</time>
      </trkpt>
      <trkpt lat="47.25591" lon="-2.32871">
        <ele>42.400001525879</ele>
        <time>2022-06-19T07:12:12.000Z</time>
      </trkpt>
      <trkpt lat="47.25586" lon="-2.32833">
        <ele>42.400001525879</ele>
        <time>2022-06-19T07:12:18.000Z</time>
      </trkpt>
      <trkpt lat="47.25586" lon="-2.32827">
        <ele>42.400001525879</ele>
        <time>2022-06-19T07:12:19.000Z</time>
      </trkpt>
      <trkpt lat="47.2559" lon="-2.32807">
        <ele>42.400001525879</ele>
        <time>2022-06-19T07:12:22.000Z</time>
      </trkpt>
      <trkpt lat="47.25593" lon="-2.32794">
        <ele>42.400001525879</ele>
        <time>2022-06-19T07:12:24.000Z</time>
      </trkpt>
      <trkpt lat="47.25597" lon="-2.32748">
        <ele>42.400001525879</ele>
        <time>2022-06-19T07:12:31.000Z</time>
      </trkpt>
      <trkpt lat="47.25599" lon="-2.32702">
        <ele>42.400001525879</ele>
        <time>2022-06-19T07:12:38.000Z</time>
      </trkpt>
      <trkpt lat="47.25602" lon="-2.32665">
        <ele>42.400001525879</ele>
        <time>2022-06-19T07:12:45.000Z</time>
      </trkpt>
      <trkpt lat="47.25604" lon="-2.32662">
        <ele>42.400001525879</ele>
        <time>2022-06-19T07:12:46.000Z</time>
      </trkpt>
      <trkpt lat="47.25612" lon="-2.32657">
        <ele>42.400001525879</ele>
        <time>2022-06-19T07:12:48.000Z</time>
      </trkpt>
      <trkpt lat="47.25638" lon="-2.32645">
        <ele>42.400001525879</ele>
        <time>2022-06-19T07:12:54.000Z</time>
      </trkpt>
      <trkpt lat="47.25674" lon="-2.32631">
        <ele>42</ele>
        <time>2022-06-19T07:13:01.000Z</time>
      </trkpt>
      <trkpt lat="47.25679" lon="-2.32628">
        <ele>41.599998474121</ele>
        <time>2022-06-19T07:13:02.000Z</time>
      </trkpt>
      <trkpt lat="47.25685" lon="-2.32626">
        <ele>41.200000762939</ele>
        <time>2022-06-19T07:13:03.000Z</time>
      </trkpt>
      <trkpt lat="47.2569" lon="-2.32623">
        <ele>40.799999237061</ele>
        <time>2022-06-19T07:13:04.000Z</time>
      </trkpt>
      <trkpt lat="47.25695" lon="-2.32622">
        <ele>40.400001525879</ele>
        <time>2022-06-19T07:13:05.000Z</time>
      </trkpt>
      <trkpt lat="47.25703" lon="-2.32616">
        <ele>40.400001525879</ele>
        <time>2022-06-19T07:13:07.000Z</time>
      </trkpt>
      <trkpt lat="47.25706" lon="-2.32612">
        <ele>40.400001525879</ele>
        <time>2022-06-19T07:13:08.000Z</time>
      </trkpt>
      <trkpt lat="47.25705" lon="-2.32595">
        <ele>40</ele>
        <time>2022-06-19T07:13:11.000Z</time>
      </trkpt>
      <trkpt lat="47.25703" lon="-2.32588">
        <ele>39.599998474121</ele>
        <time>2022-06-19T07:13:12.000Z</time>
      </trkpt>
      <trkpt lat="47.25702" lon="-2.32582">
        <ele>39.200000762939</ele>
        <time>2022-06-19T07:13:13.000Z</time>
      </trkpt>
      <trkpt lat="47.257" lon="-2.32575">
        <ele>38.799999237061</ele>
        <time>2022-06-19T07:13:14.000Z</time>
      </trkpt>
      <trkpt lat="47.25697" lon="-2.32568">
        <ele>38.400001525879</ele>
        <time>2022-06-19T07:13:15.000Z</time>
      </trkpt>
      <trkpt lat="47.2569" lon="-2.32546">
        <ele>38.400001525879</ele>
        <time>2022-06-19T07:13:18.000Z</time>
      </trkpt>
      <trkpt lat="47.25678" lon="-2.32508">
        <ele>38.400001525879</ele>
        <time>2022-06-19T07:13:23.000Z</time>
      </trkpt>
      <trkpt lat="47.25674" lon="-2.32493">
        <ele>37.799999237061</ele>
        <time>2022-06-19T07:13:25.000Z</time>
      </trkpt>
      <trkpt lat="47.25672" lon="-2.32485">
        <ele>37.400001525879</ele>
        <time>2022-06-19T07:13:26.000Z</time>
      </trkpt>
      <trkpt lat="47.2567" lon="-2.32477">
        <ele>36.799999237061</ele>
        <time>2022-06-19T07:13:27.000Z</time>
      </trkpt>
      <trkpt lat="47.25668" lon="-2.32469">
        <ele>36.200000762939</ele>
        <time>2022-06-19T07:13:28.000Z</time>
      </trkpt>
      <trkpt lat="47.25665" lon="-2.32461">
        <ele>35.799999237061</ele>
        <time>2022-06-19T07:13:29.000Z</time>
      </trkpt>
      <trkpt lat="47.25661" lon="-2.32443">
        <ele>35.799999237061</ele>
        <time>2022-06-19T07:13:31.000Z</time>
      </trkpt>
      <trkpt lat="47.25659" lon="-2.32421">
        <ele>35.400001525879</ele>
        <time>2022-06-19T07:13:34.000Z</time>
      </trkpt>
      <trkpt lat="47.25661" lon="-2.32415">
        <ele>35</ele>
        <time>2022-06-19T07:13:35.000Z</time>
      </trkpt>
      <trkpt lat="47.25665" lon="-2.32413">
        <ele>34.599998474121</ele>
        <time>2022-06-19T07:13:36.000Z</time>
      </trkpt>
      <trkpt lat="47.25669" lon="-2.32412">
        <ele>34.200000762939</ele>
        <time>2022-06-19T07:13:37.000Z</time>
      </trkpt>
      <trkpt lat="47.25673" lon="-2.32415">
        <ele>33.799999237061</ele>
        <time>2022-06-19T07:13:38.000Z</time>
      </trkpt>
      <trkpt lat="47.25679" lon="-2.32418">
        <ele>33.799999237061</ele>
        <time>2022-06-19T07:13:39.000Z</time>
      </trkpt>
      <trkpt lat="47.25684" lon="-2.3242">
        <ele>33.799999237061</ele>
        <time>2022-06-19T07:13:40.000Z</time>
      </trkpt>
      <trkpt lat="47.25696" lon="-2.32422">
        <ele>33.799999237061</ele>
        <time>2022-06-19T07:13:42.000Z</time>
      </trkpt>
      <trkpt lat="47.25737" lon="-2.32423">
        <ele>33.799999237061</ele>
        <time>2022-06-19T07:13:49.000Z</time>
      </trkpt>
      <trkpt lat="47.25754" lon="-2.32423">
        <ele>33.799999237061</ele>
        <time>2022-06-19T07:13:52.000Z</time>
      </trkpt>
      <trkpt lat="47.25768" lon="-2.32415">
        <ele>33.799999237061</ele>
        <time>2022-06-19T07:13:55.000Z</time>
      </trkpt>
      <trkpt lat="47.25773" lon="-2.32414">
        <ele>33.799999237061</ele>
        <time>2022-06-19T07:13:56.000Z</time>
      </trkpt>
      <trkpt lat="47.25782" lon="-2.3242">
        <ele>33.799999237061</ele>
        <time>2022-06-19T07:13:58.000Z</time>
      </trkpt>
      <trkpt lat="47.25792" lon="-2.32441">
        <ele>33.799999237061</ele>
        <time>2022-06-19T07:14:01.000Z</time>
      </trkpt>
      <trkpt lat="47.25796" lon="-2.32447">
        <ele>33.799999237061</ele>
        <time>2022-06-19T07:14:02.000Z</time>
      </trkpt>
      <trkpt lat="47.25801" lon="-2.32453">
        <ele>33.799999237061</ele>
        <time>2022-06-19T07:14:03.000Z</time>
      </trkpt>
      <trkpt lat="47.25816" lon="-2.32464">
        <ele>33.799999237061</ele>
        <time>2022-06-19T07:14:06.000Z</time>
      </trkpt>
      <trkpt lat="47.25837" lon="-2.32475">
        <ele>33.799999237061</ele>
        <time>2022-06-19T07:14:10.000Z</time>
      </trkpt>
      <trkpt lat="47.25846" lon="-2.32477">
        <ele>33.799999237061</ele>
        <time>2022-06-19T07:14:12.000Z</time>
      </trkpt>
      <trkpt lat="47.25855" lon="-2.32477">
        <ele>33.799999237061</ele>
        <time>2022-06-19T07:14:14.000Z</time>
      </trkpt>
      <trkpt lat="47.25875" lon="-2.32473">
        <ele>33.799999237061</ele>
        <time>2022-06-19T07:14:18.000Z</time>
      </trkpt>
      <trkpt lat="47.25886" lon="-2.3247">
        <ele>33.799999237061</ele>
        <time>2022-06-19T07:14:20.000Z</time>
      </trkpt>
      <trkpt lat="47.259" lon="-2.32457">
        <ele>33.799999237061</ele>
        <time>2022-06-19T07:14:23.000Z</time>
      </trkpt>
      <trkpt lat="47.25904" lon="-2.32451">
        <ele>33.799999237061</ele>
        <time>2022-06-19T07:14:24.000Z</time>
      </trkpt>
      <trkpt lat="47.2593" lon="-2.32417">
        <ele>33.799999237061</ele>
        <time>2022-06-19T07:14:30.000Z</time>
      </trkpt>
      <trkpt lat="47.25934" lon="-2.32411">
        <ele>33.200000762939</ele>
        <time>2022-06-19T07:14:31.000Z</time>
      </trkpt>
      <trkpt lat="47.25939" lon="-2.32405">
        <ele>32.799999237061</ele>
        <time>2022-06-19T07:14:32.000Z</time>
      </trkpt>
      <trkpt lat="47.25943" lon="-2.32399">
        <ele>32.400001525879</ele>
        <time>2022-06-19T07:14:33.000Z</time>
      </trkpt>
      <trkpt lat="47.25947" lon="-2.32394">
        <ele>32</ele>
        <time>2022-06-19T07:14:34.000Z</time>
      </trkpt>
      <trkpt lat="47.25951" lon="-2.32389">
        <ele>31.60000038147</ele>
        <time>2022-06-19T07:14:35.000Z</time>
      </trkpt>
      <trkpt lat="47.2596" lon="-2.32379">
        <ele>31.60000038147</ele>
        <time>2022-06-19T07:14:37.000Z</time>
      </trkpt>
      <trkpt lat="47.25994" lon="-2.32335">
        <ele>31.60000038147</ele>
        <time>2022-06-19T07:14:45.000Z</time>
      </trkpt>
      <trkpt lat="47.2602" lon="-2.32305">
        <ele>31.60000038147</ele>
        <time>2022-06-19T07:14:51.000Z</time>
      </trkpt>
      <trkpt lat="47.26052" lon="-2.32267">
        <ele>31.60000038147</ele>
        <time>2022-06-19T07:14:59.000Z</time>
      </trkpt>
      <trkpt lat="47.26061" lon="-2.32259">
        <ele>31.60000038147</ele>
        <time>2022-06-19T07:15:01.000Z</time>
      </trkpt>
      <trkpt lat="47.26069" lon="-2.3225">
        <ele>31.60000038147</ele>
        <time>2022-06-19T07:15:03.000Z</time>
      </trkpt>
      <trkpt lat="47.26076" lon="-2.32241">
        <ele>31.60000038147</ele>
        <time>2022-06-19T07:15:05.000Z</time>
      </trkpt>
      <trkpt lat="47.26091" lon="-2.32219">
        <ele>31.60000038147</ele>
        <time>2022-06-19T07:15:09.000Z</time>
      </trkpt>
      <trkpt lat="47.26111" lon="-2.3218">
        <ele>31.60000038147</ele>
        <time>2022-06-19T07:15:15.000Z</time>
      </trkpt>
      <trkpt lat="47.26126" lon="-2.32138">
        <ele>31.60000038147</ele>
        <time>2022-06-19T07:15:21.000Z</time>
      </trkpt>
      <trkpt lat="47.26137" lon="-2.32094">
        <ele>31.60000038147</ele>
        <time>2022-06-19T07:15:27.000Z</time>
      </trkpt>
      <trkpt lat="47.26154" lon="-2.32035">
        <ele>31.60000038147</ele>
        <time>2022-06-19T07:15:35.000Z</time>
      </trkpt>
      <trkpt lat="47.26157" lon="-2.3203">
        <ele>31.60000038147</ele>
        <time>2022-06-19T07:15:36.000Z</time>
      </trkpt>
      <trkpt lat="47.26166" lon="-2.32022">
        <ele>31.60000038147</ele>
        <time>2022-06-19T07:15:39.000Z</time>
      </trkpt>
      <trkpt lat="47.26177" lon="-2.32024">
        <ele>31.60000038147</ele>
        <time>2022-06-19T07:15:42.000Z</time>
      </trkpt>
      <trkpt lat="47.2618" lon="-2.32024">
        <ele>31.60000038147</ele>
        <time>2022-06-19T07:15:43.000Z</time>
      </trkpt>
      <trkpt lat="47.26191" lon="-2.32026">
        <ele>31.60000038147</ele>
        <time>2022-06-19T07:15:47.000Z</time>
      </trkpt>
      <trkpt lat="47.26193" lon="-2.32024">
        <ele>31.200000762939</ele>
        <time>2022-06-19T07:15:48.000Z</time>
      </trkpt>
      <trkpt lat="47.26194" lon="-2.32021">
        <ele>30.799999237061</ele>
        <time>2022-06-19T07:15:49.000Z</time>
      </trkpt>
      <trkpt lat="47.26195" lon="-2.32018">
        <ele>30.200000762939</ele>
        <time>2022-06-19T07:15:50.000Z</time>
      </trkpt>
      <trkpt lat="47.26196" lon="-2.32015">
        <ele>29.799999237061</ele>
        <time>2022-06-19T07:15:51.000Z</time>
      </trkpt>
      <trkpt lat="47.26196" lon="-2.32013">
        <ele>29.39999961853</ele>
        <time>2022-06-19T07:15:52.000Z</time>
      </trkpt>
      <trkpt lat="47.26197" lon="-2.32011">
        <ele>29.39999961853</ele>
        <time>2022-06-19T07:15:53.000Z</time>
      </trkpt>
      <trkpt lat="47.26204" lon="-2.32004">
        <ele>29.39999961853</ele>
        <time>2022-06-19T07:15:57.000Z</time>
      </trkpt>
      <trkpt lat="47.26217" lon="-2.31985">
        <ele>29.39999961853</ele>
        <time>2022-06-19T07:16:04.000Z</time>
      </trkpt>
      <trkpt lat="47.26221" lon="-2.31982">
        <ele>29.39999961853</ele>
        <time>2022-06-19T07:16:06.000Z</time>
      </trkpt>
      <trkpt lat="47.26225" lon="-2.31982">
        <ele>29.39999961853</ele>
        <time>2022-06-19T07:16:08.000Z</time>
      </trkpt>
      <trkpt lat="47.26233" lon="-2.31969">
        <ele>29.39999961853</ele>
        <time>2022-06-19T07:16:12.000Z</time>
      </trkpt>
      <trkpt lat="47.26243" lon="-2.31945">
        <ele>29.39999961853</ele>
        <time>2022-06-19T07:16:17.000Z</time>
      </trkpt>
      <trkpt lat="47.26257" lon="-2.31919">
        <ele>29.39999961853</ele>
        <time>2022-06-19T07:16:23.000Z</time>
      </trkpt>
      <trkpt lat="47.26275" lon="-2.31904">
        <ele>29.39999961853</ele>
        <time>2022-06-19T07:16:27.000Z</time>
      </trkpt>
      <trkpt lat="47.26287" lon="-2.31896">
        <ele>29.39999961853</ele>
        <time>2022-06-19T07:16:32.000Z</time>
      </trkpt>
      <trkpt lat="47.26289" lon="-2.31896">
        <ele>29.39999961853</ele>
        <time>2022-06-19T07:16:33.000Z</time>
      </trkpt>
      <trkpt lat="47.26292" lon="-2.31902">
        <ele>29.39999961853</ele>
        <time>2022-06-19T07:16:47.000Z</time>
      </trkpt>
      <trkpt lat="47.26293" lon="-2.3191">
        <ele>29.39999961853</ele>
        <time>2022-06-19T07:16:49.000Z</time>
      </trkpt>
      <trkpt lat="47.263" lon="-2.31929">
        <ele>29.39999961853</ele>
        <time>2022-06-19T07:16:54.000Z</time>
      </trkpt>
      <trkpt lat="47.26311" lon="-2.31929">
        <ele>29.39999961853</ele>
        <time>2022-06-19T07:16:58.000Z</time>
      </trkpt>
      <trkpt lat="47.26317" lon="-2.31927">
        <ele>29.39999961853</ele>
        <time>2022-06-19T07:17:00.000Z</time>
      </trkpt>
      <trkpt lat="47.26328" lon="-2.31928">
        <ele>29.39999961853</ele>
        <time>2022-06-19T07:17:03.000Z</time>
      </trkpt>
      <trkpt lat="47.26334" lon="-2.31933">
        <ele>29.39999961853</ele>
        <time>2022-06-19T07:17:05.000Z</time>
      </trkpt>
      <trkpt lat="47.2634" lon="-2.31943">
        <ele>29.39999961853</ele>
        <time>2022-06-19T07:17:07.000Z</time>
      </trkpt>
      <trkpt lat="47.26357" lon="-2.31976">
        <ele>29.39999961853</ele>
        <time>2022-06-19T07:17:14.000Z</time>
      </trkpt>
      <trkpt lat="47.26369" lon="-2.31986">
        <ele>29.39999961853</ele>
        <time>2022-06-19T07:17:18.000Z</time>
      </trkpt>
      <trkpt lat="47.26377" lon="-2.31986">
        <ele>30</ele>
        <time>2022-06-19T07:17:20.000Z</time>
      </trkpt>
      <trkpt lat="47.26381" lon="-2.31987">
        <ele>30.39999961853</ele>
        <time>2022-06-19T07:17:21.000Z</time>
      </trkpt>
      <trkpt lat="47.26385" lon="-2.31987">
        <ele>31.200000762939</ele>
        <time>2022-06-19T07:17:22.000Z</time>
      </trkpt>
      <trkpt lat="47.26389" lon="-2.31987">
        <ele>31.60000038147</ele>
        <time>2022-06-19T07:17:23.000Z</time>
      </trkpt>
      <trkpt lat="47.26402" lon="-2.31992">
        <ele>31.60000038147</ele>
        <time>2022-06-19T07:17:26.000Z</time>
      </trkpt>
      <trkpt lat="47.26417" lon="-2.31996">
        <ele>32</ele>
        <time>2022-06-19T07:17:30.000Z</time>
      </trkpt>
      <trkpt lat="47.2642" lon="-2.31997">
        <ele>32.400001525879</ele>
        <time>2022-06-19T07:17:31.000Z</time>
      </trkpt>
      <trkpt lat="47.26423" lon="-2.31997">
        <ele>32.799999237061</ele>
        <time>2022-06-19T07:17:32.000Z</time>
      </trkpt>
      <trkpt lat="47.26428" lon="-2.31998">
        <ele>33.400001525879</ele>
        <time>2022-06-19T07:17:33.000Z</time>
      </trkpt>
      <trkpt lat="47.26433" lon="-2.31998">
        <ele>33.799999237061</ele>
        <time>2022-06-19T07:17:34.000Z</time>
      </trkpt>
      <trkpt lat="47.26453" lon="-2.32">
        <ele>34.200000762939</ele>
        <time>2022-06-19T07:17:39.000Z</time>
      </trkpt>
      <trkpt lat="47.26456" lon="-2.31999">
        <ele>34.599998474121</ele>
        <time>2022-06-19T07:17:40.000Z</time>
      </trkpt>
      <trkpt lat="47.26459" lon="-2.31999">
        <ele>35</ele>
        <time>2022-06-19T07:17:41.000Z</time>
      </trkpt>
      <trkpt lat="47.26461" lon="-2.31999">
        <ele>35.400001525879</ele>
        <time>2022-06-19T07:17:42.000Z</time>
      </trkpt>
      <trkpt lat="47.26464" lon="-2.31999">
        <ele>35.799999237061</ele>
        <time>2022-06-19T07:17:43.000Z</time>
      </trkpt>
      <trkpt lat="47.26471" lon="-2.31998">
        <ele>35.799999237061</ele>
        <time>2022-06-19T07:17:45.000Z</time>
      </trkpt>
      <trkpt lat="47.26489" lon="-2.31998">
        <ele>36.200000762939</ele>
        <time>2022-06-19T07:17:50.000Z</time>
      </trkpt>
      <trkpt lat="47.26492" lon="-2.31998">
        <ele>36.599998474121</ele>
        <time>2022-06-19T07:17:51.000Z</time>
      </trkpt>
      <trkpt lat="47.26495" lon="-2.31997">
        <ele>37.200000762939</ele>
        <time>2022-06-19T07:17:52.000Z</time>
      </trkpt>
      <trkpt lat="47.26498" lon="-2.31996">
        <ele>37.599998474121</ele>
        <time>2022-06-19T07:17:53.000Z</time>
      </trkpt>
      <trkpt lat="47.26501" lon="-2.31996">
        <ele>38</ele>
        <time>2022-06-19T07:17:54.000Z</time>
      </trkpt>
      <trkpt lat="47.26503" lon="-2.31996">
        <ele>38</ele>
        <time>2022-06-19T07:17:55.000Z</time>
      </trkpt>
      <trkpt lat="47.26509" lon="-2.31996">
        <ele>38.400001525879</ele>
        <time>2022-06-19T07:17:57.000Z</time>
      </trkpt>
      <trkpt lat="47.26513" lon="-2.31998">
        <ele>38.799999237061</ele>
        <time>2022-06-19T07:17:58.000Z</time>
      </trkpt>
      <trkpt lat="47.26516" lon="-2.31999">
        <ele>39.200000762939</ele>
        <time>2022-06-19T07:17:59.000Z</time>
      </trkpt>
      <trkpt lat="47.26519" lon="-2.32">
        <ele>39.599998474121</ele>
        <time>2022-06-19T07:18:00.000Z</time>
      </trkpt>
      <trkpt lat="47.26521" lon="-2.32003">
        <ele>40.200000762939</ele>
        <time>2022-06-19T07:18:01.000Z</time>
      </trkpt>
      <trkpt lat="47.26535" lon="-2.32017">
        <ele>40.200000762939</ele>
        <time>2022-06-19T07:18:07.000Z</time>
      </trkpt>
      <trkpt lat="47.2654" lon="-2.32034">
        <ele>40.200000762939</ele>
        <time>2022-06-19T07:18:12.000Z</time>
      </trkpt>
      <trkpt lat="47.26543" lon="-2.32035">
        <ele>40.599998474121</ele>
        <time>2022-06-19T07:18:13.000Z</time>
      </trkpt>
      <trkpt lat="47.26546" lon="-2.32035">
        <ele>41</ele>
        <time>2022-06-19T07:18:14.000Z</time>
      </trkpt>
      <trkpt lat="47.26549" lon="-2.32034">
        <ele>41.400001525879</ele>
        <time>2022-06-19T07:18:15.000Z</time>
      </trkpt>
      <trkpt lat="47.26552" lon="-2.32033">
        <ele>41.799999237061</ele>
        <time>2022-06-19T07:18:16.000Z</time>
      </trkpt>
      <trkpt lat="47.26555" lon="-2.32032">
        <ele>42.200000762939</ele>
        <time>2022-06-19T07:18:17.000Z</time>
      </trkpt>
      <trkpt lat="47.26564" lon="-2.3203">
        <ele>42.200000762939</ele>
        <time>2022-06-19T07:18:21.000Z</time>
      </trkpt>
      <trkpt lat="47.2658" lon="-2.32024">
        <ele>42.200000762939</ele>
        <time>2022-06-19T07:18:27.000Z</time>
      </trkpt>
      <trkpt lat="47.26608" lon="-2.32015">
        <ele>42.200000762939</ele>
        <time>2022-06-19T07:18:34.000Z</time>
      </trkpt>
      <trkpt lat="47.26619" lon="-2.32011">
        <ele>42.799999237061</ele>
        <time>2022-06-19T07:18:37.000Z</time>
      </trkpt>
      <trkpt lat="47.26622" lon="-2.3201">
        <ele>43.200000762939</ele>
        <time>2022-06-19T07:18:38.000Z</time>
      </trkpt>
      <trkpt lat="47.26625" lon="-2.32008">
        <ele>43.599998474121</ele>
        <time>2022-06-19T07:18:39.000Z</time>
      </trkpt>
      <trkpt lat="47.26628" lon="-2.32008">
        <ele>44</ele>
        <time>2022-06-19T07:18:40.000Z</time>
      </trkpt>
      <trkpt lat="47.2663" lon="-2.32007">
        <ele>44.400001525879</ele>
        <time>2022-06-19T07:18:41.000Z</time>
      </trkpt>
      <trkpt lat="47.2664" lon="-2.32005">
        <ele>44.400001525879</ele>
        <time>2022-06-19T07:18:47.000Z</time>
      </trkpt>
      <trkpt lat="47.26641" lon="-2.32008">
        <ele>44.400001525879</ele>
        <time>2022-06-19T07:19:27.000Z</time>
      </trkpt>
      <trkpt lat="47.26644" lon="-2.32017">
        <ele>44.400001525879</ele>
        <time>2022-06-19T07:19:29.000Z</time>
      </trkpt>
      <trkpt lat="47.26654" lon="-2.32044">
        <ele>44.400001525879</ele>
        <time>2022-06-19T07:19:34.000Z</time>
      </trkpt>
      <trkpt lat="47.26668" lon="-2.32099">
        <ele>44.400001525879</ele>
        <time>2022-06-19T07:19:43.000Z</time>
      </trkpt>
      <trkpt lat="47.26669" lon="-2.32105">
        <ele>44</ele>
        <time>2022-06-19T07:19:44.000Z</time>
      </trkpt>
      <trkpt lat="47.2667" lon="-2.32111">
        <ele>43.599998474121</ele>
        <time>2022-06-19T07:19:45.000Z</time>
      </trkpt>
      <trkpt lat="47.26671" lon="-2.32118">
        <ele>43.200000762939</ele>
        <time>2022-06-19T07:19:46.000Z</time>
      </trkpt>
      <trkpt lat="47.26674" lon="-2.32122">
        <ele>42.799999237061</ele>
        <time>2022-06-19T07:19:47.000Z</time>
      </trkpt>
      <trkpt lat="47.26677" lon="-2.32124">
        <ele>42.400001525879</ele>
        <time>2022-06-19T07:19:48.000Z</time>
      </trkpt>
      <trkpt lat="47.26683" lon="-2.32114">
        <ele>42.400001525879</ele>
        <time>2022-06-19T07:19:51.000Z</time>
      </trkpt>
      <trkpt lat="47.26684" lon="-2.32103">
        <ele>42.400001525879</ele>
        <time>2022-06-19T07:19:53.000Z</time>
      </trkpt>
      <trkpt lat="47.26683" lon="-2.32097">
        <ele>42.400001525879</ele>
        <time>2022-06-19T07:19:54.000Z</time>
      </trkpt>
      <trkpt lat="47.26683" lon="-2.32084">
        <ele>42.400001525879</ele>
        <time>2022-06-19T07:19:56.000Z</time>
      </trkpt>
      <trkpt lat="47.26686" lon="-2.32034">
        <ele>42.400001525879</ele>
        <time>2022-06-19T07:20:04.000Z</time>
      </trkpt>
      <trkpt lat="47.26696" lon="-2.32012">
        <ele>42.400001525879</ele>
        <time>2022-06-19T07:20:09.000Z</time>
      </trkpt>
      <trkpt lat="47.26711" lon="-2.31998">
        <ele>41.799999237061</ele>
        <time>2022-06-19T07:20:14.000Z</time>
      </trkpt>
      <trkpt lat="47.26715" lon="-2.31995">
        <ele>41</ele>
        <time>2022-06-19T07:20:15.000Z</time>
      </trkpt>
      <trkpt lat="47.26719" lon="-2.31993">
        <ele>40.599998474121</ele>
        <time>2022-06-19T07:20:16.000Z</time>
      </trkpt>
      <trkpt lat="47.26723" lon="-2.3199">
        <ele>40.200000762939</ele>
        <time>2022-06-19T07:20:17.000Z</time>
      </trkpt>
      <trkpt lat="47.2674" lon="-2.31976">
        <ele>40.200000762939</ele>
        <time>2022-06-19T07:20:21.000Z</time>
      </trkpt>
      <trkpt lat="47.26743" lon="-2.31972">
        <ele>40.200000762939</ele>
        <time>2022-06-19T07:20:22.000Z</time>
      </trkpt>
      <trkpt lat="47.2675" lon="-2.31961">
        <ele>39.799999237061</ele>
        <time>2022-06-19T07:20:24.000Z</time>
      </trkpt>
      <trkpt lat="47.26753" lon="-2.31954">
        <ele>39.400001525879</ele>
        <time>2022-06-19T07:20:25.000Z</time>
      </trkpt>
      <trkpt lat="47.26756" lon="-2.3195">
        <ele>39</ele>
        <time>2022-06-19T07:20:26.000Z</time>
      </trkpt>
      <trkpt lat="47.2676" lon="-2.31949">
        <ele>38.599998474121</ele>
        <time>2022-06-19T07:20:27.000Z</time>
      </trkpt>
      <trkpt lat="47.26763" lon="-2.3195">
        <ele>38.200000762939</ele>
        <time>2022-06-19T07:20:28.000Z</time>
      </trkpt>
      <trkpt lat="47.26772" lon="-2.31963">
        <ele>38.200000762939</ele>
        <time>2022-06-19T07:20:31.000Z</time>
      </trkpt>
      <trkpt lat="47.2679" lon="-2.31993">
        <ele>37.799999237061</ele>
        <time>2022-06-19T07:20:36.000Z</time>
      </trkpt>
      <trkpt lat="47.26794" lon="-2.32">
        <ele>37.200000762939</ele>
        <time>2022-06-19T07:20:37.000Z</time>
      </trkpt>
      <trkpt lat="47.26798" lon="-2.32007">
        <ele>36.799999237061</ele>
        <time>2022-06-19T07:20:38.000Z</time>
      </trkpt>
      <trkpt lat="47.26802" lon="-2.32015">
        <ele>36.400001525879</ele>
        <time>2022-06-19T07:20:39.000Z</time>
      </trkpt>
      <trkpt lat="47.26805" lon="-2.32022">
        <ele>36</ele>
        <time>2022-06-19T07:20:40.000Z</time>
      </trkpt>
      <trkpt lat="47.26814" lon="-2.32046">
        <ele>35.599998474121</ele>
        <time>2022-06-19T07:20:43.000Z</time>
      </trkpt>
      <trkpt lat="47.26816" lon="-2.32055">
        <ele>35.200000762939</ele>
        <time>2022-06-19T07:20:44.000Z</time>
      </trkpt>
      <trkpt lat="47.26818" lon="-2.32062">
        <ele>34.799999237061</ele>
        <time>2022-06-19T07:20:45.000Z</time>
      </trkpt>
      <trkpt lat="47.2682" lon="-2.32071">
        <ele>34.400001525879</ele>
        <time>2022-06-19T07:20:46.000Z</time>
      </trkpt>
      <trkpt lat="47.26822" lon="-2.32079">
        <ele>34</ele>
        <time>2022-06-19T07:20:47.000Z</time>
      </trkpt>
      <trkpt lat="47.26824" lon="-2.32087">
        <ele>34</ele>
        <time>2022-06-19T07:20:48.000Z</time>
      </trkpt>
      <trkpt lat="47.26836" lon="-2.3213">
        <ele>34</ele>
        <time>2022-06-19T07:20:53.000Z</time>
      </trkpt>
      <trkpt lat="47.26849" lon="-2.32174">
        <ele>33.599998474121</ele>
        <time>2022-06-19T07:20:58.000Z</time>
      </trkpt>
      <trkpt lat="47.26852" lon="-2.32183">
        <ele>33.200000762939</ele>
        <time>2022-06-19T07:20:59.000Z</time>
      </trkpt>
      <trkpt lat="47.26856" lon="-2.32191">
        <ele>32.799999237061</ele>
        <time>2022-06-19T07:21:00.000Z</time>
      </trkpt>
      <trkpt lat="47.2686" lon="-2.322">
        <ele>32.200000762939</ele>
        <time>2022-06-19T07:21:01.000Z</time>
      </trkpt>
      <trkpt lat="47.26863" lon="-2.32208">
        <ele>31.799999237061</ele>
        <time>2022-06-19T07:21:02.000Z</time>
      </trkpt>
      <trkpt lat="47.26872" lon="-2.32223">
        <ele>31.799999237061</ele>
        <time>2022-06-19T07:21:04.000Z</time>
      </trkpt>
      <trkpt lat="47.2688" lon="-2.32238">
        <ele>31.39999961853</ele>
        <time>2022-06-19T07:21:06.000Z</time>
      </trkpt>
      <trkpt lat="47.26885" lon="-2.32244">
        <ele>31</ele>
        <time>2022-06-19T07:21:07.000Z</time>
      </trkpt>
      <trkpt lat="47.26889" lon="-2.32251">
        <ele>30.60000038147</ele>
        <time>2022-06-19T07:21:08.000Z</time>
      </trkpt>
      <trkpt lat="47.26894" lon="-2.32258">
        <ele>30.200000762939</ele>
        <time>2022-06-19T07:21:09.000Z</time>
      </trkpt>
      <trkpt lat="47.26898" lon="-2.32265">
        <ele>29.799999237061</ele>
        <time>2022-06-19T07:21:10.000Z</time>
      </trkpt>
      <trkpt lat="47.26906" lon="-2.32281">
        <ele>29.39999961853</ele>
        <time>2022-06-19T07:21:12.000Z</time>
      </trkpt>
      <trkpt lat="47.2691" lon="-2.3229">
        <ele>29</ele>
        <time>2022-06-19T07:21:13.000Z</time>
      </trkpt>
      <trkpt lat="47.26914" lon="-2.323">
        <ele>28.60000038147</ele>
        <time>2022-06-19T07:21:14.000Z</time>
      </trkpt>
      <trkpt lat="47.26917" lon="-2.32309">
        <ele>28.200000762939</ele>
        <time>2022-06-19T07:21:15.000Z</time>
      </trkpt>
      <trkpt lat="47.2692" lon="-2.32318">
        <ele>27.799999237061</ele>
        <time>2022-06-19T07:21:16.000Z</time>
      </trkpt>
      <trkpt lat="47.26928" lon="-2.32343">
        <ele>27.799999237061</ele>
        <time>2022-06-19T07:21:19.000Z</time>
      </trkpt>
      <trkpt lat="47.26931" lon="-2.3235">
        <ele>27.799999237061</ele>
        <time>2022-06-19T07:21:20.000Z</time>
      </trkpt>
      <trkpt lat="47.26942" lon="-2.32384">
        <ele>27.799999237061</ele>
        <time>2022-06-19T07:21:24.000Z</time>
      </trkpt>
      <trkpt lat="47.26944" lon="-2.32392">
        <ele>27.39999961853</ele>
        <time>2022-06-19T07:21:25.000Z</time>
      </trkpt>
      <trkpt lat="47.26946" lon="-2.324">
        <ele>27</ele>
        <time>2022-06-19T07:21:26.000Z</time>
      </trkpt>
      <trkpt lat="47.26949" lon="-2.32409">
        <ele>26.60000038147</ele>
        <time>2022-06-19T07:21:27.000Z</time>
      </trkpt>
      <trkpt lat="47.26951" lon="-2.32417">
        <ele>25.799999237061</ele>
        <time>2022-06-19T07:21:28.000Z</time>
      </trkpt>
      <trkpt lat="47.26958" lon="-2.32432">
        <ele>25.799999237061</ele>
        <time>2022-06-19T07:21:30.000Z</time>
      </trkpt>
      <trkpt lat="47.26962" lon="-2.32438">
        <ele>25.799999237061</ele>
        <time>2022-06-19T07:21:31.000Z</time>
      </trkpt>
      <trkpt lat="47.26991" lon="-2.32488">
        <ele>25.799999237061</ele>
        <time>2022-06-19T07:21:38.000Z</time>
      </trkpt>
      <trkpt lat="47.26999" lon="-2.32501">
        <ele>25.799999237061</ele>
        <time>2022-06-19T07:21:40.000Z</time>
      </trkpt>
      <trkpt lat="47.27005" lon="-2.32504">
        <ele>25.200000762939</ele>
        <time>2022-06-19T07:21:41.000Z</time>
      </trkpt>
      <trkpt lat="47.2701" lon="-2.32505">
        <ele>24.799999237061</ele>
        <time>2022-06-19T07:21:42.000Z</time>
      </trkpt>
      <trkpt lat="47.27016" lon="-2.32503">
        <ele>24.39999961853</ele>
        <time>2022-06-19T07:21:43.000Z</time>
      </trkpt>
      <trkpt lat="47.27021" lon="-2.32501">
        <ele>24</ele>
        <time>2022-06-19T07:21:44.000Z</time>
      </trkpt>
      <trkpt lat="47.27026" lon="-2.32497">
        <ele>23.60000038147</ele>
        <time>2022-06-19T07:21:45.000Z</time>
      </trkpt>
      <trkpt lat="47.27034" lon="-2.32474">
        <ele>23.60000038147</ele>
        <time>2022-06-19T07:21:48.000Z</time>
      </trkpt>
      <trkpt lat="47.27036" lon="-2.32458">
        <ele>23.60000038147</ele>
        <time>2022-06-19T07:21:50.000Z</time>
      </trkpt>
      <trkpt lat="47.27035" lon="-2.32439">
        <ele>23.60000038147</ele>
        <time>2022-06-19T07:21:52.000Z</time>
      </trkpt>
      <trkpt lat="47.27031" lon="-2.32388">
        <ele>23.60000038147</ele>
        <time>2022-06-19T07:21:58.000Z</time>
      </trkpt>
      <trkpt lat="47.27028" lon="-2.32365">
        <ele>23.60000038147</ele>
        <time>2022-06-19T07:22:01.000Z</time>
      </trkpt>
      <trkpt lat="47.27023" lon="-2.3234">
        <ele>23.60000038147</ele>
        <time>2022-06-19T07:22:04.000Z</time>
      </trkpt>
      <trkpt lat="47.27021" lon="-2.32289">
        <ele>23.60000038147</ele>
        <time>2022-06-19T07:22:10.000Z</time>
      </trkpt>
      <trkpt lat="47.27018" lon="-2.32245">
        <ele>23.200000762939</ele>
        <time>2022-06-19T07:22:16.000Z</time>
      </trkpt>
      <trkpt lat="47.27017" lon="-2.32238">
        <ele>22.799999237061</ele>
        <time>2022-06-19T07:22:17.000Z</time>
      </trkpt>
      <trkpt lat="47.27016" lon="-2.32231">
        <ele>22</ele>
        <time>2022-06-19T07:22:18.000Z</time>
      </trkpt>
      <trkpt lat="47.27014" lon="-2.32224">
        <ele>21.39999961853</ele>
        <time>2022-06-19T07:22:19.000Z</time>
      </trkpt>
      <trkpt lat="47.2701" lon="-2.32211">
        <ele>21.39999961853</ele>
        <time>2022-06-19T07:22:21.000Z</time>
      </trkpt>
      <trkpt lat="47.27007" lon="-2.32204">
        <ele>21.39999961853</ele>
        <time>2022-06-19T07:22:22.000Z</time>
      </trkpt>
      <trkpt lat="47.26998" lon="-2.32188">
        <ele>21.39999961853</ele>
        <time>2022-06-19T07:22:25.000Z</time>
      </trkpt>
      <trkpt lat="47.26985" lon="-2.32161">
        <ele>21.39999961853</ele>
        <time>2022-06-19T07:22:29.000Z</time>
      </trkpt>
      <trkpt lat="47.26983" lon="-2.32147">
        <ele>21.39999961853</ele>
        <time>2022-06-19T07:22:31.000Z</time>
      </trkpt>
      <trkpt lat="47.26989" lon="-2.32134">
        <ele>21.39999961853</ele>
        <time>2022-06-19T07:22:34.000Z</time>
      </trkpt>
      <trkpt lat="47.26998" lon="-2.32123">
        <ele>21.39999961853</ele>
        <time>2022-06-19T07:22:37.000Z</time>
      </trkpt>
      <trkpt lat="47.27002" lon="-2.32114">
        <ele>21.39999961853</ele>
        <time>2022-06-19T07:22:39.000Z</time>
      </trkpt>
      <trkpt lat="47.27006" lon="-2.32096">
        <ele>21.39999961853</ele>
        <time>2022-06-19T07:22:42.000Z</time>
      </trkpt>
      <trkpt lat="47.27008" lon="-2.32083">
        <ele>21.39999961853</ele>
        <time>2022-06-19T07:22:44.000Z</time>
      </trkpt>
      <trkpt lat="47.2701" lon="-2.32066">
        <ele>21.799999237061</ele>
        <time>2022-06-19T07:22:47.000Z</time>
      </trkpt>
      <trkpt lat="47.2701" lon="-2.3206">
        <ele>22.200000762939</ele>
        <time>2022-06-19T07:22:48.000Z</time>
      </trkpt>
      <trkpt lat="47.2701" lon="-2.32054">
        <ele>22.60000038147</ele>
        <time>2022-06-19T07:22:49.000Z</time>
      </trkpt>
      <trkpt lat="47.27009" lon="-2.32048">
        <ele>23</ele>
        <time>2022-06-19T07:22:50.000Z</time>
      </trkpt>
      <trkpt lat="47.27009" lon="-2.32043">
        <ele>23.60000038147</ele>
        <time>2022-06-19T07:22:51.000Z</time>
      </trkpt>
      <trkpt lat="47.27005" lon="-2.3202">
        <ele>23.60000038147</ele>
        <time>2022-06-19T07:22:55.000Z</time>
      </trkpt>
      <trkpt lat="47.27002" lon="-2.32006">
        <ele>24</ele>
        <time>2022-06-19T07:22:58.000Z</time>
      </trkpt>
      <trkpt lat="47.27" lon="-2.32">
        <ele>24.39999961853</ele>
        <time>2022-06-19T07:22:59.000Z</time>
      </trkpt>
      <trkpt lat="47.27001" lon="-2.31994">
        <ele>24.799999237061</ele>
        <time>2022-06-19T07:23:00.000Z</time>
      </trkpt>
      <trkpt lat="47.27002" lon="-2.31989">
        <ele>25.200000762939</ele>
        <time>2022-06-19T07:23:01.000Z</time>
      </trkpt>
      <trkpt lat="47.27005" lon="-2.31984">
        <ele>25.60000038147</ele>
        <time>2022-06-19T07:23:02.000Z</time>
      </trkpt>
      <trkpt lat="47.27014" lon="-2.31974">
        <ele>25.60000038147</ele>
        <time>2022-06-19T07:23:05.000Z</time>
      </trkpt>
      <trkpt lat="47.27017" lon="-2.31971">
        <ele>25.60000038147</ele>
        <time>2022-06-19T07:23:06.000Z</time>
      </trkpt>
      <trkpt lat="47.27034" lon="-2.31958">
        <ele>25.60000038147</ele>
        <time>2022-06-19T07:23:12.000Z</time>
      </trkpt>
      <trkpt lat="47.27044" lon="-2.3196">
        <ele>25.60000038147</ele>
        <time>2022-06-19T07:23:14.000Z</time>
      </trkpt>
      <trkpt lat="47.27052" lon="-2.31961">
        <ele>25.60000038147</ele>
        <time>2022-06-19T07:23:16.000Z</time>
      </trkpt>
      <trkpt lat="47.27066" lon="-2.31959">
        <ele>25.60000038147</ele>
        <time>2022-06-19T07:23:21.000Z</time>
      </trkpt>
      <trkpt lat="47.27068" lon="-2.31949">
        <ele>25.60000038147</ele>
        <time>2022-06-19T07:23:24.000Z</time>
      </trkpt>
      <trkpt lat="47.27071" lon="-2.31934">
        <ele>25.60000038147</ele>
        <time>2022-06-19T07:23:29.000Z</time>
      </trkpt>
      <trkpt lat="47.2707" lon="-2.31923">
        <ele>25.60000038147</ele>
        <time>2022-06-19T07:23:32.000Z</time>
      </trkpt>
      <trkpt lat="47.27067" lon="-2.31911">
        <ele>25.60000038147</ele>
        <time>2022-06-19T07:23:36.000Z</time>
      </trkpt>
      <trkpt lat="47.27069" lon="-2.31885">
        <ele>25.60000038147</ele>
        <time>2022-06-19T07:23:43.000Z</time>
      </trkpt>
      <trkpt lat="47.27066" lon="-2.3187">
        <ele>25.60000038147</ele>
        <time>2022-06-19T07:23:47.000Z</time>
      </trkpt>
      <trkpt lat="47.27065" lon="-2.31866">
        <ele>25.60000038147</ele>
        <time>2022-06-19T07:23:48.000Z</time>
      </trkpt>
      <trkpt lat="47.27059" lon="-2.31855">
        <ele>25.60000038147</ele>
        <time>2022-06-19T07:23:51.000Z</time>
      </trkpt>
      <trkpt lat="47.27055" lon="-2.31833">
        <ele>26</ele>
        <time>2022-06-19T07:23:55.000Z</time>
      </trkpt>
      <trkpt lat="47.27055" lon="-2.31828">
        <ele>26.799999237061</ele>
        <time>2022-06-19T07:23:56.000Z</time>
      </trkpt>
      <trkpt lat="47.27054" lon="-2.31822">
        <ele>27.200000762939</ele>
        <time>2022-06-19T07:23:57.000Z</time>
      </trkpt>
      <trkpt lat="47.27055" lon="-2.31816">
        <ele>27.60000038147</ele>
        <time>2022-06-19T07:23:58.000Z</time>
      </trkpt>
      <trkpt lat="47.27052" lon="-2.31794">
        <ele>27.60000038147</ele>
        <time>2022-06-19T07:24:02.000Z</time>
      </trkpt>
      <trkpt lat="47.27048" lon="-2.31765">
        <ele>28</ele>
        <time>2022-06-19T07:24:08.000Z</time>
      </trkpt>
      <trkpt lat="47.27047" lon="-2.31761">
        <ele>28.39999961853</ele>
        <time>2022-06-19T07:24:09.000Z</time>
      </trkpt>
      <trkpt lat="47.27048" lon="-2.31757">
        <ele>28.799999237061</ele>
        <time>2022-06-19T07:24:10.000Z</time>
      </trkpt>
      <trkpt lat="47.27048" lon="-2.31752">
        <ele>29.200000762939</ele>
        <time>2022-06-19T07:24:11.000Z</time>
      </trkpt>
      <trkpt lat="47.27048" lon="-2.31747">
        <ele>29.60000038147</ele>
        <time>2022-06-19T07:24:12.000Z</time>
      </trkpt>
      <trkpt lat="47.27047" lon="-2.31737">
        <ele>29.60000038147</ele>
        <time>2022-06-19T07:24:14.000Z</time>
      </trkpt>
      <trkpt lat="47.27044" lon="-2.3173">
        <ele>29.60000038147</ele>
        <time>2022-06-19T07:24:16.000Z</time>
      </trkpt>
      <trkpt lat="47.27038" lon="-2.31725">
        <ele>29.60000038147</ele>
        <time>2022-06-19T07:24:18.000Z</time>
      </trkpt>
      <trkpt lat="47.27023" lon="-2.31703">
        <ele>29.60000038147</ele>
        <time>2022-06-19T07:24:25.000Z</time>
      </trkpt>
      <trkpt lat="47.27023" lon="-2.31691">
        <ele>30</ele>
        <time>2022-06-19T07:24:28.000Z</time>
      </trkpt>
      <trkpt lat="47.27023" lon="-2.31686">
        <ele>30.39999961853</ele>
        <time>2022-06-19T07:24:29.000Z</time>
      </trkpt>
      <trkpt lat="47.27023" lon="-2.31681">
        <ele>30.799999237061</ele>
        <time>2022-06-19T07:24:30.000Z</time>
      </trkpt>
      <trkpt lat="47.27023" lon="-2.31676">
        <ele>31.200000762939</ele>
        <time>2022-06-19T07:24:31.000Z</time>
      </trkpt>
      <trkpt lat="47.27024" lon="-2.3167">
        <ele>31.60000038147</ele>
        <time>2022-06-19T07:24:32.000Z</time>
      </trkpt>
      <trkpt lat="47.27022" lon="-2.31647">
        <ele>31.60000038147</ele>
        <time>2022-06-19T07:24:37.000Z</time>
      </trkpt>
      <trkpt lat="47.27021" lon="-2.31643">
        <ele>32</ele>
        <time>2022-06-19T07:24:38.000Z</time>
      </trkpt>
      <trkpt lat="47.27021" lon="-2.31639">
        <ele>32.400001525879</ele>
        <time>2022-06-19T07:24:39.000Z</time>
      </trkpt>
      <trkpt lat="47.27021" lon="-2.31634">
        <ele>33</ele>
        <time>2022-06-19T07:24:40.000Z</time>
      </trkpt>
      <trkpt lat="47.2702" lon="-2.31631">
        <ele>33.400001525879</ele>
        <time>2022-06-19T07:24:41.000Z</time>
      </trkpt>
      <trkpt lat="47.27019" lon="-2.31627">
        <ele>33.799999237061</ele>
        <time>2022-06-19T07:24:42.000Z</time>
      </trkpt>
      <trkpt lat="47.27018" lon="-2.31623">
        <ele>33.799999237061</ele>
        <time>2022-06-19T07:24:43.000Z</time>
      </trkpt>
      <trkpt lat="47.27015" lon="-2.31612">
        <ele>34.599998474121</ele>
        <time>2022-06-19T07:24:46.000Z</time>
      </trkpt>
      <trkpt lat="47.27015" lon="-2.31609">
        <ele>35</ele>
        <time>2022-06-19T07:24:47.000Z</time>
      </trkpt>
      <trkpt lat="47.27014" lon="-2.31606">
        <ele>35.400001525879</ele>
        <time>2022-06-19T07:24:48.000Z</time>
      </trkpt>
      <trkpt lat="47.27013" lon="-2.31602">
        <ele>35.799999237061</ele>
        <time>2022-06-19T07:24:49.000Z</time>
      </trkpt>
      <trkpt lat="47.27006" lon="-2.3158">
        <ele>35.799999237061</ele>
        <time>2022-06-19T07:24:55.000Z</time>
      </trkpt>
      <trkpt lat="47.27005" lon="-2.31576">
        <ele>36.200000762939</ele>
        <time>2022-06-19T07:24:56.000Z</time>
      </trkpt>
      <trkpt lat="47.27005" lon="-2.31572">
        <ele>36.599998474121</ele>
        <time>2022-06-19T07:24:57.000Z</time>
      </trkpt>
      <trkpt lat="47.27003" lon="-2.31568">
        <ele>37</ele>
        <time>2022-06-19T07:24:58.000Z</time>
      </trkpt>
      <trkpt lat="47.27002" lon="-2.31563">
        <ele>37.400001525879</ele>
        <time>2022-06-19T07:24:59.000Z</time>
      </trkpt>
      <trkpt lat="47.27001" lon="-2.31559">
        <ele>38</ele>
        <time>2022-06-19T07:25:00.000Z</time>
      </trkpt>
      <trkpt lat="47.26999" lon="-2.3155">
        <ele>38</ele>
        <time>2022-06-19T07:25:02.000Z</time>
      </trkpt>
      <trkpt lat="47.26995" lon="-2.3152">
        <ele>38.400001525879</ele>
        <time>2022-06-19T07:25:08.000Z</time>
      </trkpt>
      <trkpt lat="47.26994" lon="-2.31516">
        <ele>38.799999237061</ele>
        <time>2022-06-19T07:25:09.000Z</time>
      </trkpt>
      <trkpt lat="47.26993" lon="-2.31511">
        <ele>39.599998474121</ele>
        <time>2022-06-19T07:25:10.000Z</time>
      </trkpt>
      <trkpt lat="47.26992" lon="-2.31505">
        <ele>40</ele>
        <time>2022-06-19T07:25:11.000Z</time>
      </trkpt>
      <trkpt lat="47.26988" lon="-2.31483">
        <ele>40</ele>
        <time>2022-06-19T07:25:15.000Z</time>
      </trkpt>
      <trkpt lat="47.26987" lon="-2.31467">
        <ele>40.599998474121</ele>
        <time>2022-06-19T07:25:18.000Z</time>
      </trkpt>
      <trkpt lat="47.26986" lon="-2.31461">
        <ele>41</ele>
        <time>2022-06-19T07:25:19.000Z</time>
      </trkpt>
      <trkpt lat="47.26986" lon="-2.31455">
        <ele>41.400001525879</ele>
        <time>2022-06-19T07:25:20.000Z</time>
      </trkpt>
      <trkpt lat="47.26986" lon="-2.31449">
        <ele>41.799999237061</ele>
        <time>2022-06-19T07:25:21.000Z</time>
      </trkpt>
      <trkpt lat="47.26986" lon="-2.31444">
        <ele>42.200000762939</ele>
        <time>2022-06-19T07:25:22.000Z</time>
      </trkpt>
      <trkpt lat="47.26984" lon="-2.31413">
        <ele>42.200000762939</ele>
        <time>2022-06-19T07:25:28.000Z</time>
      </trkpt>
      <trkpt lat="47.26982" lon="-2.31387">
        <ele>42.599998474121</ele>
        <time>2022-06-19T07:25:33.000Z</time>
      </trkpt>
      <trkpt lat="47.26982" lon="-2.31382">
        <ele>43</ele>
        <time>2022-06-19T07:25:34.000Z</time>
      </trkpt>
      <trkpt lat="47.26982" lon="-2.31377">
        <ele>43.400001525879</ele>
        <time>2022-06-19T07:25:35.000Z</time>
      </trkpt>
      <trkpt lat="47.26982" lon="-2.31372">
        <ele>44.200000762939</ele>
        <time>2022-06-19T07:25:36.000Z</time>
      </trkpt>
      <trkpt lat="47.2698" lon="-2.31343">
        <ele>44.200000762939</ele>
        <time>2022-06-19T07:25:42.000Z</time>
      </trkpt>
      <trkpt lat="47.26976" lon="-2.31299">
        <ele>44.200000762939</ele>
        <time>2022-06-19T07:25:50.000Z</time>
      </trkpt>
      <trkpt lat="47.26975" lon="-2.31296">
        <ele>44.200000762939</ele>
        <time>2022-06-19T07:25:52.000Z</time>
      </trkpt>
      <trkpt lat="47.26974" lon="-2.31286">
        <ele>44.200000762939</ele>
        <time>2022-06-19T07:29:05.000Z</time>
      </trkpt>
      <trkpt lat="47.26971" lon="-2.31262">
        <ele>44.200000762939</ele>
        <time>2022-06-19T07:29:10.000Z</time>
      </trkpt>
      <trkpt lat="47.26975" lon="-2.31217">
        <ele>44.200000762939</ele>
        <time>2022-06-19T07:29:17.000Z</time>
      </trkpt>
      <trkpt lat="47.26982" lon="-2.31171">
        <ele>44.200000762939</ele>
        <time>2022-06-19T07:29:23.000Z</time>
      </trkpt>
      <trkpt lat="47.26983" lon="-2.31163">
        <ele>43.799999237061</ele>
        <time>2022-06-19T07:29:24.000Z</time>
      </trkpt>
      <trkpt lat="47.26984" lon="-2.31154">
        <ele>43.400001525879</ele>
        <time>2022-06-19T07:29:25.000Z</time>
      </trkpt>
      <trkpt lat="47.26985" lon="-2.31146">
        <ele>43</ele>
        <time>2022-06-19T07:29:26.000Z</time>
      </trkpt>
      <trkpt lat="47.26986" lon="-2.31138">
        <ele>42.599998474121</ele>
        <time>2022-06-19T07:29:27.000Z</time>
      </trkpt>
      <trkpt lat="47.26986" lon="-2.3113">
        <ele>42</ele>
        <time>2022-06-19T07:29:28.000Z</time>
      </trkpt>
      <trkpt lat="47.26986" lon="-2.31122">
        <ele>42</ele>
        <time>2022-06-19T07:29:29.000Z</time>
      </trkpt>
      <trkpt lat="47.26984" lon="-2.31086">
        <ele>42</ele>
        <time>2022-06-19T07:29:34.000Z</time>
      </trkpt>
      <trkpt lat="47.26989" lon="-2.31073">
        <ele>41.599998474121</ele>
        <time>2022-06-19T07:29:37.000Z</time>
      </trkpt>
      <trkpt lat="47.26991" lon="-2.31068">
        <ele>41.200000762939</ele>
        <time>2022-06-19T07:29:38.000Z</time>
      </trkpt>
      <trkpt lat="47.26995" lon="-2.31064">
        <ele>40.799999237061</ele>
        <time>2022-06-19T07:29:39.000Z</time>
      </trkpt>
      <trkpt lat="47.26999" lon="-2.3106">
        <ele>40.400001525879</ele>
        <time>2022-06-19T07:29:40.000Z</time>
      </trkpt>
      <trkpt lat="47.27002" lon="-2.31057">
        <ele>40</ele>
        <time>2022-06-19T07:29:41.000Z</time>
      </trkpt>
      <trkpt lat="47.27015" lon="-2.31047">
        <ele>40</ele>
        <time>2022-06-19T07:29:44.000Z</time>
      </trkpt>
      <trkpt lat="47.27019" lon="-2.31043">
        <ele>39.400001525879</ele>
        <time>2022-06-19T07:29:45.000Z</time>
      </trkpt>
      <trkpt lat="47.27023" lon="-2.3104">
        <ele>39</ele>
        <time>2022-06-19T07:29:46.000Z</time>
      </trkpt>
      <trkpt lat="47.27028" lon="-2.31036">
        <ele>38.599998474121</ele>
        <time>2022-06-19T07:29:47.000Z</time>
      </trkpt>
      <trkpt lat="47.27032" lon="-2.31032">
        <ele>38.200000762939</ele>
        <time>2022-06-19T07:29:48.000Z</time>
      </trkpt>
      <trkpt lat="47.27036" lon="-2.31028">
        <ele>37.799999237061</ele>
        <time>2022-06-19T07:29:49.000Z</time>
      </trkpt>
      <trkpt lat="47.27044" lon="-2.31019">
        <ele>37.799999237061</ele>
        <time>2022-06-19T07:29:51.000Z</time>
      </trkpt>
      <trkpt lat="47.27054" lon="-2.31">
        <ele>37.799999237061</ele>
        <time>2022-06-19T07:29:55.000Z</time>
      </trkpt>
      <trkpt lat="47.27055" lon="-2.30995">
        <ele>37.799999237061</ele>
        <time>2022-06-19T07:29:56.000Z</time>
      </trkpt>
      <trkpt lat="47.27055" lon="-2.30979">
        <ele>37.799999237061</ele>
        <time>2022-06-19T07:29:59.000Z</time>
      </trkpt>
      <trkpt lat="47.27051" lon="-2.30951">
        <ele>37.799999237061</ele>
        <time>2022-06-19T07:30:06.000Z</time>
      </trkpt>
      <trkpt lat="47.27038" lon="-2.30919">
        <ele>37.799999237061</ele>
        <time>2022-06-19T07:30:12.000Z</time>
      </trkpt>
      <trkpt lat="47.27027" lon="-2.30888">
        <ele>37.799999237061</ele>
        <time>2022-06-19T07:30:16.000Z</time>
      </trkpt>
      <trkpt lat="47.27008" lon="-2.30848">
        <ele>37.799999237061</ele>
        <time>2022-06-19T07:30:22.000Z</time>
      </trkpt>
      <trkpt lat="47.26991" lon="-2.30814">
        <ele>37.799999237061</ele>
        <time>2022-06-19T07:30:28.000Z</time>
      </trkpt>
      <trkpt lat="47.26971" lon="-2.30782">
        <ele>38.200000762939</ele>
        <time>2022-06-19T07:30:35.000Z</time>
      </trkpt>
      <trkpt lat="47.26968" lon="-2.30777">
        <ele>38.599998474121</ele>
        <time>2022-06-19T07:30:36.000Z</time>
      </trkpt>
      <trkpt lat="47.26965" lon="-2.30773">
        <ele>39</ele>
        <time>2022-06-19T07:30:37.000Z</time>
      </trkpt>
      <trkpt lat="47.26962" lon="-2.30768">
        <ele>39.400001525879</ele>
        <time>2022-06-19T07:30:38.000Z</time>
      </trkpt>
      <trkpt lat="47.26959" lon="-2.30764">
        <ele>39.799999237061</ele>
        <time>2022-06-19T07:30:39.000Z</time>
      </trkpt>
      <trkpt lat="47.2695" lon="-2.30751">
        <ele>39.799999237061</ele>
        <time>2022-06-19T07:30:42.000Z</time>
      </trkpt>
      <trkpt lat="47.26935" lon="-2.30728">
        <ele>40.400001525879</ele>
        <time>2022-06-19T07:30:47.000Z</time>
      </trkpt>
      <trkpt lat="47.26932" lon="-2.30723">
        <ele>40.799999237061</ele>
        <time>2022-06-19T07:30:48.000Z</time>
      </trkpt>
      <trkpt lat="47.2693" lon="-2.30719">
        <ele>41.200000762939</ele>
        <time>2022-06-19T07:30:49.000Z</time>
      </trkpt>
      <trkpt lat="47.26927" lon="-2.30714">
        <ele>41.599998474121</ele>
        <time>2022-06-19T07:30:50.000Z</time>
      </trkpt>
      <trkpt lat="47.26925" lon="-2.3071">
        <ele>42.200000762939</ele>
        <time>2022-06-19T07:30:51.000Z</time>
      </trkpt>
      <trkpt lat="47.26912" lon="-2.30693">
        <ele>42.200000762939</ele>
        <time>2022-06-19T07:30:55.000Z</time>
      </trkpt>
      <trkpt lat="47.269" lon="-2.30671">
        <ele>42.200000762939</ele>
        <time>2022-06-19T07:31:00.000Z</time>
      </trkpt>
      <trkpt lat="47.26904" lon="-2.30656">
        <ele>42.200000762939</ele>
        <time>2022-06-19T07:31:03.000Z</time>
      </trkpt>
      <trkpt lat="47.2691" lon="-2.3065">
        <ele>42.200000762939</ele>
        <time>2022-06-19T07:31:05.000Z</time>
      </trkpt>
      <trkpt lat="47.26924" lon="-2.30639">
        <ele>42.200000762939</ele>
        <time>2022-06-19T07:31:09.000Z</time>
      </trkpt>
      <trkpt lat="47.26928" lon="-2.30637">
        <ele>42.200000762939</ele>
        <time>2022-06-19T07:31:10.000Z</time>
      </trkpt>
      <trkpt lat="47.26944" lon="-2.30633">
        <ele>42.200000762939</ele>
        <time>2022-06-19T07:31:13.000Z</time>
      </trkpt>
      <trkpt lat="47.26971" lon="-2.30622">
        <ele>42.200000762939</ele>
        <time>2022-06-19T07:31:18.000Z</time>
      </trkpt>
      <trkpt lat="47.26976" lon="-2.3062">
        <ele>42.200000762939</ele>
        <time>2022-06-19T07:31:19.000Z</time>
      </trkpt>
      <trkpt lat="47.27005" lon="-2.30599">
        <ele>42.200000762939</ele>
        <time>2022-06-19T07:31:25.000Z</time>
      </trkpt>
      <trkpt lat="47.27016" lon="-2.30574">
        <ele>42.200000762939</ele>
        <time>2022-06-19T07:31:29.000Z</time>
      </trkpt>
      <trkpt lat="47.27026" lon="-2.30533">
        <ele>42.200000762939</ele>
        <time>2022-06-19T07:31:35.000Z</time>
      </trkpt>
      <trkpt lat="47.27034" lon="-2.30501">
        <ele>42.200000762939</ele>
        <time>2022-06-19T07:31:41.000Z</time>
      </trkpt>
      <trkpt lat="47.27039" lon="-2.30478">
        <ele>42.200000762939</ele>
        <time>2022-06-19T07:31:47.000Z</time>
      </trkpt>
      <trkpt lat="47.27042" lon="-2.30474">
        <ele>42.200000762939</ele>
        <time>2022-06-19T07:31:49.000Z</time>
      </trkpt>
      <trkpt lat="47.27045" lon="-2.30474">
        <ele>42.200000762939</ele>
        <time>2022-06-19T07:31:51.000Z</time>
      </trkpt>
      <trkpt lat="47.27048" lon="-2.30475">
        <ele>41.799999237061</ele>
        <time>2022-06-19T07:31:53.000Z</time>
      </trkpt>
      <trkpt lat="47.2705" lon="-2.30477">
        <ele>41.400001525879</ele>
        <time>2022-06-19T07:31:54.000Z</time>
      </trkpt>
      <trkpt lat="47.27053" lon="-2.30478">
        <ele>40.799999237061</ele>
        <time>2022-06-19T07:31:55.000Z</time>
      </trkpt>
      <trkpt lat="47.27056" lon="-2.30479">
        <ele>40.400001525879</ele>
        <time>2022-06-19T07:31:56.000Z</time>
      </trkpt>
      <trkpt lat="47.27058" lon="-2.30479">
        <ele>40</ele>
        <time>2022-06-19T07:31:57.000Z</time>
      </trkpt>
      <trkpt lat="47.27063" lon="-2.3048">
        <ele>40</ele>
        <time>2022-06-19T07:31:59.000Z</time>
      </trkpt>
      <trkpt lat="47.27072" lon="-2.30483">
        <ele>40</ele>
        <time>2022-06-19T07:32:02.000Z</time>
      </trkpt>
      <trkpt lat="47.27092" lon="-2.30486">
        <ele>39.599998474121</ele>
        <time>2022-06-19T07:32:07.000Z</time>
      </trkpt>
      <trkpt lat="47.27097" lon="-2.30487">
        <ele>39.200000762939</ele>
        <time>2022-06-19T07:32:08.000Z</time>
      </trkpt>
      <trkpt lat="47.27102" lon="-2.30489">
        <ele>38.799999237061</ele>
        <time>2022-06-19T07:32:09.000Z</time>
      </trkpt>
      <trkpt lat="47.27106" lon="-2.30491">
        <ele>38</ele>
        <time>2022-06-19T07:32:10.000Z</time>
      </trkpt>
      <trkpt lat="47.2711" lon="-2.30492">
        <ele>38</ele>
        <time>2022-06-19T07:32:11.000Z</time>
      </trkpt>
      <trkpt lat="47.27129" lon="-2.305">
        <ele>38</ele>
        <time>2022-06-19T07:32:16.000Z</time>
      </trkpt>
      <trkpt lat="47.27132" lon="-2.30502">
        <ele>37.599998474121</ele>
        <time>2022-06-19T07:32:17.000Z</time>
      </trkpt>
      <trkpt lat="47.27135" lon="-2.30504">
        <ele>37.200000762939</ele>
        <time>2022-06-19T07:32:18.000Z</time>
      </trkpt>
      <trkpt lat="47.27138" lon="-2.30507">
        <ele>36.799999237061</ele>
        <time>2022-06-19T07:32:19.000Z</time>
      </trkpt>
      <trkpt lat="47.27141" lon="-2.3051">
        <ele>36.400001525879</ele>
        <time>2022-06-19T07:32:20.000Z</time>
      </trkpt>
      <trkpt lat="47.27143" lon="-2.30512">
        <ele>35.799999237061</ele>
        <time>2022-06-19T07:32:21.000Z</time>
      </trkpt>
      <trkpt lat="47.27149" lon="-2.30518">
        <ele>35.799999237061</ele>
        <time>2022-06-19T07:32:23.000Z</time>
      </trkpt>
      <trkpt lat="47.27168" lon="-2.30528">
        <ele>35.799999237061</ele>
        <time>2022-06-19T07:32:28.000Z</time>
      </trkpt>
      <trkpt lat="47.27186" lon="-2.30535">
        <ele>35.799999237061</ele>
        <time>2022-06-19T07:32:34.000Z</time>
      </trkpt>
      <trkpt lat="47.27188" lon="-2.30536">
        <ele>35.400001525879</ele>
        <time>2022-06-19T07:32:35.000Z</time>
      </trkpt>
      <trkpt lat="47.2719" lon="-2.30537">
        <ele>35</ele>
        <time>2022-06-19T07:32:36.000Z</time>
      </trkpt>
      <trkpt lat="47.27193" lon="-2.30538">
        <ele>34.599998474121</ele>
        <time>2022-06-19T07:32:37.000Z</time>
      </trkpt>
      <trkpt lat="47.27195" lon="-2.30539">
        <ele>34.200000762939</ele>
        <time>2022-06-19T07:32:38.000Z</time>
      </trkpt>
      <trkpt lat="47.27197" lon="-2.30539">
        <ele>33.799999237061</ele>
        <time>2022-06-19T07:32:39.000Z</time>
      </trkpt>
      <trkpt lat="47.27199" lon="-2.30539">
        <ele>33.799999237061</ele>
        <time>2022-06-19T07:32:40.000Z</time>
      </trkpt>
      <trkpt lat="47.27201" lon="-2.3054">
        <ele>33.799999237061</ele>
        <time>2022-06-19T07:32:41.000Z</time>
      </trkpt>
      <trkpt lat="47.27213" lon="-2.30542">
        <ele>33.799999237061</ele>
        <time>2022-06-19T07:32:45.000Z</time>
      </trkpt>
      <trkpt lat="47.27228" lon="-2.30542">
        <ele>33.799999237061</ele>
        <time>2022-06-19T07:32:50.000Z</time>
      </trkpt>
      <trkpt lat="47.27244" lon="-2.30542">
        <ele>33.400001525879</ele>
        <time>2022-06-19T07:32:55.000Z</time>
      </trkpt>
      <trkpt lat="47.27248" lon="-2.30542">
        <ele>33</ele>
        <time>2022-06-19T07:32:56.000Z</time>
      </trkpt>
      <trkpt lat="47.27253" lon="-2.30541">
        <ele>32.599998474121</ele>
        <time>2022-06-19T07:32:57.000Z</time>
      </trkpt>
      <trkpt lat="47.27257" lon="-2.30539">
        <ele>32.200000762939</ele>
        <time>2022-06-19T07:32:58.000Z</time>
      </trkpt>
      <trkpt lat="47.27261" lon="-2.30537">
        <ele>31.799999237061</ele>
        <time>2022-06-19T07:32:59.000Z</time>
      </trkpt>
      <trkpt lat="47.27265" lon="-2.30536">
        <ele>31.799999237061</ele>
        <time>2022-06-19T07:33:00.000Z</time>
      </trkpt>
      <trkpt lat="47.27282" lon="-2.30529">
        <ele>31.799999237061</ele>
        <time>2022-06-19T07:33:04.000Z</time>
      </trkpt>
      <trkpt lat="47.27288" lon="-2.30526">
        <ele>31.799999237061</ele>
        <time>2022-06-19T07:33:06.000Z</time>
      </trkpt>
      <trkpt lat="47.27296" lon="-2.30523">
        <ele>31.799999237061</ele>
        <time>2022-06-19T07:33:09.000Z</time>
      </trkpt>
      <trkpt lat="47.27322" lon="-2.30517">
        <ele>31.799999237061</ele>
        <time>2022-06-19T07:33:16.000Z</time>
      </trkpt>
      <trkpt lat="47.27341" lon="-2.30511">
        <ele>31.799999237061</ele>
        <time>2022-06-19T07:33:22.000Z</time>
      </trkpt>
      <trkpt lat="47.27362" lon="-2.305">
        <ele>31.799999237061</ele>
        <time>2022-06-19T07:33:28.000Z</time>
      </trkpt>
      <trkpt lat="47.27377" lon="-2.30489">
        <ele>31.799999237061</ele>
        <time>2022-06-19T07:33:33.000Z</time>
      </trkpt>
      <trkpt lat="47.27389" lon="-2.3048">
        <ele>31.799999237061</ele>
        <time>2022-06-19T07:33:39.000Z</time>
      </trkpt>
      <trkpt lat="47.27395" lon="-2.3047">
        <ele>31.799999237061</ele>
        <time>2022-06-19T07:33:44.000Z</time>
      </trkpt>
      <trkpt lat="47.27396" lon="-2.30469">
        <ele>31.799999237061</ele>
        <time>2022-06-19T07:33:46.000Z</time>
      </trkpt>
      <trkpt lat="47.27405" lon="-2.30462">
        <ele>31.799999237061</ele>
        <time>2022-06-19T07:33:57.000Z</time>
      </trkpt>
      <trkpt lat="47.27408" lon="-2.30458">
        <ele>31.799999237061</ele>
        <time>2022-06-19T07:33:59.000Z</time>
      </trkpt>
      <trkpt lat="47.2741" lon="-2.30456">
        <ele>31.799999237061</ele>
        <time>2022-06-19T07:34:00.000Z</time>
      </trkpt>
      <trkpt lat="47.27418" lon="-2.30454">
        <ele>31.799999237061</ele>
        <time>2022-06-19T07:34:03.000Z</time>
      </trkpt>
      <trkpt lat="47.27436" lon="-2.30452">
        <ele>31.799999237061</ele>
        <time>2022-06-19T07:34:08.000Z</time>
      </trkpt>
      <trkpt lat="47.2748" lon="-2.30442">
        <ele>31.799999237061</ele>
        <time>2022-06-19T07:34:15.000Z</time>
      </trkpt>
      <trkpt lat="47.27493" lon="-2.30434">
        <ele>31.799999237061</ele>
        <time>2022-06-19T07:34:18.000Z</time>
      </trkpt>
      <trkpt lat="47.27495" lon="-2.30428">
        <ele>31.799999237061</ele>
        <time>2022-06-19T07:34:19.000Z</time>
      </trkpt>
      <trkpt lat="47.27494" lon="-2.30402">
        <ele>31.799999237061</ele>
        <time>2022-06-19T07:34:23.000Z</time>
      </trkpt>
      <trkpt lat="47.27489" lon="-2.30368">
        <ele>32.200000762939</ele>
        <time>2022-06-19T07:34:30.000Z</time>
      </trkpt>
      <trkpt lat="47.27488" lon="-2.30364">
        <ele>32.599998474121</ele>
        <time>2022-06-19T07:34:31.000Z</time>
      </trkpt>
      <trkpt lat="47.27487" lon="-2.30361">
        <ele>33</ele>
        <time>2022-06-19T07:34:32.000Z</time>
      </trkpt>
      <trkpt lat="47.27487" lon="-2.30357">
        <ele>33.400001525879</ele>
        <time>2022-06-19T07:34:33.000Z</time>
      </trkpt>
      <trkpt lat="47.27486" lon="-2.30353">
        <ele>33.799999237061</ele>
        <time>2022-06-19T07:34:34.000Z</time>
      </trkpt>
      <trkpt lat="47.27484" lon="-2.30346">
        <ele>33.799999237061</ele>
        <time>2022-06-19T07:34:36.000Z</time>
      </trkpt>
      <trkpt lat="47.27478" lon="-2.30314">
        <ele>33.799999237061</ele>
        <time>2022-06-19T07:34:43.000Z</time>
      </trkpt>
      <trkpt lat="47.27477" lon="-2.30309">
        <ele>34.200000762939</ele>
        <time>2022-06-19T07:34:44.000Z</time>
      </trkpt>
      <trkpt lat="47.27477" lon="-2.30303">
        <ele>34.799999237061</ele>
        <time>2022-06-19T07:34:45.000Z</time>
      </trkpt>
      <trkpt lat="47.27476" lon="-2.30297">
        <ele>35.200000762939</ele>
        <time>2022-06-19T07:34:46.000Z</time>
      </trkpt>
      <trkpt lat="47.27475" lon="-2.30291">
        <ele>35.599998474121</ele>
        <time>2022-06-19T07:34:47.000Z</time>
      </trkpt>
      <trkpt lat="47.27474" lon="-2.30285">
        <ele>36</ele>
        <time>2022-06-19T07:34:48.000Z</time>
      </trkpt>
      <trkpt lat="47.27473" lon="-2.30279">
        <ele>36</ele>
        <time>2022-06-19T07:34:49.000Z</time>
      </trkpt>
      <trkpt lat="47.27466" lon="-2.30245">
        <ele>36</ele>
        <time>2022-06-19T07:34:55.000Z</time>
      </trkpt>
      <trkpt lat="47.27458" lon="-2.30219">
        <ele>36.400001525879</ele>
        <time>2022-06-19T07:35:00.000Z</time>
      </trkpt>
      <trkpt lat="47.27456" lon="-2.30217">
        <ele>36.799999237061</ele>
        <time>2022-06-19T07:35:01.000Z</time>
      </trkpt>
      <trkpt lat="47.27453" lon="-2.30216">
        <ele>37.200000762939</ele>
        <time>2022-06-19T07:35:02.000Z</time>
      </trkpt>
      <trkpt lat="47.2745" lon="-2.30217">
        <ele>38</ele>
        <time>2022-06-19T07:35:03.000Z</time>
      </trkpt>
      <trkpt lat="47.27448" lon="-2.30218">
        <ele>38</ele>
        <time>2022-06-19T07:35:04.000Z</time>
      </trkpt>
      <trkpt lat="47.27441" lon="-2.30221">
        <ele>38</ele>
        <time>2022-06-19T07:35:06.000Z</time>
      </trkpt>
      <trkpt lat="47.27427" lon="-2.3023">
        <ele>38</ele>
        <time>2022-06-19T07:35:10.000Z</time>
      </trkpt>
      <trkpt lat="47.274" lon="-2.30244">
        <ele>38</ele>
        <time>2022-06-19T07:35:16.000Z</time>
      </trkpt>
      <trkpt lat="47.27391" lon="-2.30249">
        <ele>38</ele>
        <time>2022-06-19T07:35:18.000Z</time>
      </trkpt>
      <trkpt lat="47.27374" lon="-2.30256">
        <ele>38</ele>
        <time>2022-06-19T07:35:22.000Z</time>
      </trkpt>
      <trkpt lat="47.27355" lon="-2.30261">
        <ele>38</ele>
        <time>2022-06-19T07:35:26.000Z</time>
      </trkpt>
      <trkpt lat="47.27345" lon="-2.3026">
        <ele>38</ele>
        <time>2022-06-19T07:35:28.000Z</time>
      </trkpt>
      <trkpt lat="47.27323" lon="-2.30263">
        <ele>38</ele>
        <time>2022-06-19T07:35:32.000Z</time>
      </trkpt>
      <trkpt lat="47.27312" lon="-2.30264">
        <ele>38</ele>
        <time>2022-06-19T07:35:34.000Z</time>
      </trkpt>
      <trkpt lat="47.27279" lon="-2.30264">
        <ele>38</ele>
        <time>2022-06-19T07:35:40.000Z</time>
      </trkpt>
      <trkpt lat="47.27256" lon="-2.30268">
        <ele>38</ele>
        <time>2022-06-19T07:35:44.000Z</time>
      </trkpt>
      <trkpt lat="47.27245" lon="-2.30268">
        <ele>38</ele>
        <time>2022-06-19T07:35:46.000Z</time>
      </trkpt>
      <trkpt lat="47.27237" lon="-2.30265">
        <ele>37.599998474121</ele>
        <time>2022-06-19T07:35:48.000Z</time>
      </trkpt>
      <trkpt lat="47.27233" lon="-2.30264">
        <ele>37.200000762939</ele>
        <time>2022-06-19T07:35:49.000Z</time>
      </trkpt>
      <trkpt lat="47.27229" lon="-2.30264">
        <ele>36.799999237061</ele>
        <time>2022-06-19T07:35:50.000Z</time>
      </trkpt>
      <trkpt lat="47.27225" lon="-2.30263">
        <ele>36.400001525879</ele>
        <time>2022-06-19T07:35:51.000Z</time>
      </trkpt>
      <trkpt lat="47.27221" lon="-2.30261">
        <ele>36</ele>
        <time>2022-06-19T07:35:52.000Z</time>
      </trkpt>
      <trkpt lat="47.27208" lon="-2.30259">
        <ele>36</ele>
        <time>2022-06-19T07:35:55.000Z</time>
      </trkpt>
      <trkpt lat="47.27186" lon="-2.30263">
        <ele>36</ele>
        <time>2022-06-19T07:36:00.000Z</time>
      </trkpt>
      <trkpt lat="47.27183" lon="-2.30262">
        <ele>36</ele>
        <time>2022-06-19T07:36:01.000Z</time>
      </trkpt>
      <trkpt lat="47.27177" lon="-2.30258">
        <ele>36</ele>
        <time>2022-06-19T07:36:03.000Z</time>
      </trkpt>
      <trkpt lat="47.27166" lon="-2.30245">
        <ele>36</ele>
        <time>2022-06-19T07:36:08.000Z</time>
      </trkpt>
      <trkpt lat="47.27168" lon="-2.30225">
        <ele>36</ele>
        <time>2022-06-19T07:36:12.000Z</time>
      </trkpt>
      <trkpt lat="47.27166" lon="-2.30211">
        <ele>36</ele>
        <time>2022-06-19T07:36:14.000Z</time>
      </trkpt>
      <trkpt lat="47.27162" lon="-2.30191">
        <ele>36</ele>
        <time>2022-06-19T07:36:17.000Z</time>
      </trkpt>
      <trkpt lat="47.2716" lon="-2.30166">
        <ele>36.400001525879</ele>
        <time>2022-06-19T07:36:21.000Z</time>
      </trkpt>
      <trkpt lat="47.2716" lon="-2.3016">
        <ele>36.799999237061</ele>
        <time>2022-06-19T07:36:22.000Z</time>
      </trkpt>
      <trkpt lat="47.27159" lon="-2.30153">
        <ele>37.200000762939</ele>
        <time>2022-06-19T07:36:23.000Z</time>
      </trkpt>
      <trkpt lat="47.27159" lon="-2.30148">
        <ele>37.799999237061</ele>
        <time>2022-06-19T07:36:24.000Z</time>
      </trkpt>
      <trkpt lat="47.27159" lon="-2.30142">
        <ele>38.200000762939</ele>
        <time>2022-06-19T07:36:25.000Z</time>
      </trkpt>
      <trkpt lat="47.27155" lon="-2.30127">
        <ele>38.200000762939</ele>
        <time>2022-06-19T07:36:28.000Z</time>
      </trkpt>
      <trkpt lat="47.27152" lon="-2.30124">
        <ele>38.200000762939</ele>
        <time>2022-06-19T07:36:29.000Z</time>
      </trkpt>
      <trkpt lat="47.27145" lon="-2.3012">
        <ele>38.599998474121</ele>
        <time>2022-06-19T07:36:31.000Z</time>
      </trkpt>
      <trkpt lat="47.2714" lon="-2.30118">
        <ele>39</ele>
        <time>2022-06-19T07:36:32.000Z</time>
      </trkpt>
      <trkpt lat="47.27136" lon="-2.30117">
        <ele>39.400001525879</ele>
        <time>2022-06-19T07:36:33.000Z</time>
      </trkpt>
      <trkpt lat="47.27133" lon="-2.30116">
        <ele>40</ele>
        <time>2022-06-19T07:36:34.000Z</time>
      </trkpt>
      <trkpt lat="47.27129" lon="-2.30115">
        <ele>40.400001525879</ele>
        <time>2022-06-19T07:36:35.000Z</time>
      </trkpt>
      <trkpt lat="47.27109" lon="-2.30106">
        <ele>40.799999237061</ele>
        <time>2022-06-19T07:36:40.000Z</time>
      </trkpt>
      <trkpt lat="47.27106" lon="-2.30104">
        <ele>41.200000762939</ele>
        <time>2022-06-19T07:36:41.000Z</time>
      </trkpt>
      <trkpt lat="47.27102" lon="-2.30101">
        <ele>41.599998474121</ele>
        <time>2022-06-19T07:36:42.000Z</time>
      </trkpt>
      <trkpt lat="47.27098" lon="-2.30098">
        <ele>42.400001525879</ele>
        <time>2022-06-19T07:36:43.000Z</time>
      </trkpt>
      <trkpt lat="47.27086" lon="-2.30084">
        <ele>42.400001525879</ele>
        <time>2022-06-19T07:36:47.000Z</time>
      </trkpt>
      <trkpt lat="47.27078" lon="-2.30078">
        <ele>42.400001525879</ele>
        <time>2022-06-19T07:36:49.000Z</time>
      </trkpt>
      <trkpt lat="47.27065" lon="-2.30072">
        <ele>42.400001525879</ele>
        <time>2022-06-19T07:36:52.000Z</time>
      </trkpt>
      <trkpt lat="47.2706" lon="-2.30071">
        <ele>42.400001525879</ele>
        <time>2022-06-19T07:36:53.000Z</time>
      </trkpt>
      <trkpt lat="47.27043" lon="-2.30068">
        <ele>42.400001525879</ele>
        <time>2022-06-19T07:36:57.000Z</time>
      </trkpt>
      <trkpt lat="47.27034" lon="-2.30068">
        <ele>42.400001525879</ele>
        <time>2022-06-19T07:36:59.000Z</time>
      </trkpt>
      <trkpt lat="47.2702" lon="-2.30067">
        <ele>42.799999237061</ele>
        <time>2022-06-19T07:37:03.000Z</time>
      </trkpt>
      <trkpt lat="47.27018" lon="-2.30066">
        <ele>43.200000762939</ele>
        <time>2022-06-19T07:37:04.000Z</time>
      </trkpt>
      <trkpt lat="47.27016" lon="-2.30063">
        <ele>43.599998474121</ele>
        <time>2022-06-19T07:37:05.000Z</time>
      </trkpt>
      <trkpt lat="47.27015" lon="-2.30059">
        <ele>44</ele>
        <time>2022-06-19T07:37:06.000Z</time>
      </trkpt>
      <trkpt lat="47.27014" lon="-2.30055">
        <ele>44.400001525879</ele>
        <time>2022-06-19T07:37:07.000Z</time>
      </trkpt>
      <trkpt lat="47.27015" lon="-2.3005">
        <ele>44.400001525879</ele>
        <time>2022-06-19T07:37:08.000Z</time>
      </trkpt>
      <trkpt lat="47.27016" lon="-2.3004">
        <ele>44.400001525879</ele>
        <time>2022-06-19T07:37:10.000Z</time>
      </trkpt>
      <trkpt lat="47.27021" lon="-2.30021">
        <ele>44.400001525879</ele>
        <time>2022-06-19T07:37:14.000Z</time>
      </trkpt>
      <trkpt lat="47.27031" lon="-2.29993">
        <ele>44.400001525879</ele>
        <time>2022-06-19T07:37:21.000Z</time>
      </trkpt>
      <trkpt lat="47.27045" lon="-2.29959">
        <ele>44.400001525879</ele>
        <time>2022-06-19T07:37:28.000Z</time>
      </trkpt>
      <trkpt lat="47.27053" lon="-2.29938">
        <ele>44.400001525879</ele>
        <time>2022-06-19T07:37:33.000Z</time>
      </trkpt>
      <trkpt lat="47.27068" lon="-2.2992">
        <ele>44.400001525879</ele>
        <time>2022-06-19T07:37:39.000Z</time>
      </trkpt>
      <trkpt lat="47.2708" lon="-2.29904">
        <ele>44.400001525879</ele>
        <time>2022-06-19T07:37:43.000Z</time>
      </trkpt>
      <trkpt lat="47.27083" lon="-2.29898">
        <ele>44.400001525879</ele>
        <time>2022-06-19T07:37:44.000Z</time>
      </trkpt>
      <trkpt lat="47.2709" lon="-2.29885">
        <ele>44.400001525879</ele>
        <time>2022-06-19T07:37:46.000Z</time>
      </trkpt>
      <trkpt lat="47.27097" lon="-2.2986">
        <ele>44.400001525879</ele>
        <time>2022-06-19T07:37:50.000Z</time>
      </trkpt>
      <trkpt lat="47.27106" lon="-2.29817">
        <ele>44.400001525879</ele>
        <time>2022-06-19T07:37:57.000Z</time>
      </trkpt>
      <trkpt lat="47.27108" lon="-2.29769">
        <ele>44.400001525879</ele>
        <time>2022-06-19T07:38:05.000Z</time>
      </trkpt>
      <trkpt lat="47.2711" lon="-2.29738">
        <ele>44.400001525879</ele>
        <time>2022-06-19T07:38:10.000Z</time>
      </trkpt>
      <trkpt lat="47.2711" lon="-2.29732">
        <ele>44.400001525879</ele>
        <time>2022-06-19T07:38:11.000Z</time>
      </trkpt>
      <trkpt lat="47.27112" lon="-2.29703">
        <ele>44.400001525879</ele>
        <time>2022-06-19T07:38:16.000Z</time>
      </trkpt>
      <trkpt lat="47.27111" lon="-2.29674">
        <ele>44.400001525879</ele>
        <time>2022-06-19T07:38:22.000Z</time>
      </trkpt>
      <trkpt lat="47.27119" lon="-2.29655">
        <ele>44.400001525879</ele>
        <time>2022-06-19T07:38:26.000Z</time>
      </trkpt>
      <trkpt lat="47.27129" lon="-2.29646">
        <ele>44.400001525879</ele>
        <time>2022-06-19T07:38:29.000Z</time>
      </trkpt>
      <trkpt lat="47.27133" lon="-2.29646">
        <ele>44.400001525879</ele>
        <time>2022-06-19T07:38:30.000Z</time>
      </trkpt>
      <trkpt lat="47.2715" lon="-2.29645">
        <ele>44.400001525879</ele>
        <time>2022-06-19T07:38:34.000Z</time>
      </trkpt>
      <trkpt lat="47.27158" lon="-2.29641">
        <ele>44.400001525879</ele>
        <time>2022-06-19T07:38:36.000Z</time>
      </trkpt>
      <trkpt lat="47.27165" lon="-2.29635">
        <ele>44.400001525879</ele>
        <time>2022-06-19T07:38:38.000Z</time>
      </trkpt>
      <trkpt lat="47.2718" lon="-2.29623">
        <ele>44.400001525879</ele>
        <time>2022-06-19T07:38:42.000Z</time>
      </trkpt>
      <trkpt lat="47.27201" lon="-2.29607">
        <ele>44.400001525879</ele>
        <time>2022-06-19T07:38:48.000Z</time>
      </trkpt>
      <trkpt lat="47.27217" lon="-2.29593">
        <ele>44.400001525879</ele>
        <time>2022-06-19T07:38:52.000Z</time>
      </trkpt>
      <trkpt lat="47.27227" lon="-2.29587">
        <ele>44.400001525879</ele>
        <time>2022-06-19T07:38:54.000Z</time>
      </trkpt>
      <trkpt lat="47.27241" lon="-2.29566">
        <ele>44.400001525879</ele>
        <time>2022-06-19T07:38:58.000Z</time>
      </trkpt>
      <trkpt lat="47.27242" lon="-2.29535">
        <ele>44.400001525879</ele>
        <time>2022-06-19T07:39:02.000Z</time>
      </trkpt>
      <trkpt lat="47.27232" lon="-2.29503">
        <ele>44.400001525879</ele>
        <time>2022-06-19T07:39:06.000Z</time>
      </trkpt>
      <trkpt lat="47.2721" lon="-2.29441">
        <ele>44.400001525879</ele>
        <time>2022-06-19T07:39:14.000Z</time>
      </trkpt>
      <trkpt lat="47.27196" lon="-2.29392">
        <ele>44.400001525879</ele>
        <time>2022-06-19T07:39:20.000Z</time>
      </trkpt>
      <trkpt lat="47.27176" lon="-2.29354">
        <ele>44.400001525879</ele>
        <time>2022-06-19T07:39:26.000Z</time>
      </trkpt>
      <trkpt lat="47.27153" lon="-2.29319">
        <ele>44.400001525879</ele>
        <time>2022-06-19T07:39:33.000Z</time>
      </trkpt>
      <trkpt lat="47.27153" lon="-2.29313">
        <ele>44.400001525879</ele>
        <time>2022-06-19T07:39:34.000Z</time>
      </trkpt>
      <trkpt lat="47.27153" lon="-2.29301">
        <ele>44.400001525879</ele>
        <time>2022-06-19T07:39:36.000Z</time>
      </trkpt>
      <trkpt lat="47.27154" lon="-2.29295">
        <ele>44.400001525879</ele>
        <time>2022-06-19T07:39:37.000Z</time>
      </trkpt>
      <trkpt lat="47.27156" lon="-2.29289">
        <ele>44.400001525879</ele>
        <time>2022-06-19T07:39:38.000Z</time>
      </trkpt>
      <trkpt lat="47.2716" lon="-2.29275">
        <ele>44.400001525879</ele>
        <time>2022-06-19T07:39:40.000Z</time>
      </trkpt>
      <trkpt lat="47.27166" lon="-2.29252">
        <ele>44.400001525879</ele>
        <time>2022-06-19T07:39:43.000Z</time>
      </trkpt>
      <trkpt lat="47.27166" lon="-2.29244">
        <ele>44</ele>
        <time>2022-06-19T07:39:44.000Z</time>
      </trkpt>
      <trkpt lat="47.27165" lon="-2.29236">
        <ele>43.599998474121</ele>
        <time>2022-06-19T07:39:45.000Z</time>
      </trkpt>
      <trkpt lat="47.27162" lon="-2.29229">
        <ele>43.200000762939</ele>
        <time>2022-06-19T07:39:46.000Z</time>
      </trkpt>
      <trkpt lat="47.27159" lon="-2.29223">
        <ele>42.799999237061</ele>
        <time>2022-06-19T07:39:47.000Z</time>
      </trkpt>
      <trkpt lat="47.27157" lon="-2.29217">
        <ele>42.400001525879</ele>
        <time>2022-06-19T07:39:48.000Z</time>
      </trkpt>
      <trkpt lat="47.27155" lon="-2.29212">
        <ele>42.400001525879</ele>
        <time>2022-06-19T07:39:49.000Z</time>
      </trkpt>
      <trkpt lat="47.27147" lon="-2.29187">
        <ele>42.400001525879</ele>
        <time>2022-06-19T07:39:55.000Z</time>
      </trkpt>
      <trkpt lat="47.27149" lon="-2.29168">
        <ele>42.400001525879</ele>
        <time>2022-06-19T07:40:00.000Z</time>
      </trkpt>
      <trkpt lat="47.27161" lon="-2.29146">
        <ele>42.400001525879</ele>
        <time>2022-06-19T07:40:05.000Z</time>
      </trkpt>
      <trkpt lat="47.27181" lon="-2.29126">
        <ele>42.400001525879</ele>
        <time>2022-06-19T07:40:11.000Z</time>
      </trkpt>
      <trkpt lat="47.27178" lon="-2.29119">
        <ele>42.400001525879</ele>
        <time>2022-06-19T07:40:13.000Z</time>
      </trkpt>
      <trkpt lat="47.27172" lon="-2.29115">
        <ele>42.400001525879</ele>
        <time>2022-06-19T07:40:15.000Z</time>
      </trkpt>
      <trkpt lat="47.27168" lon="-2.29113">
        <ele>42.400001525879</ele>
        <time>2022-06-19T07:40:16.000Z</time>
      </trkpt>
      <trkpt lat="47.27163" lon="-2.2911">
        <ele>42.400001525879</ele>
        <time>2022-06-19T07:40:17.000Z</time>
      </trkpt>
      <trkpt lat="47.27133" lon="-2.29097">
        <ele>42.400001525879</ele>
        <time>2022-06-19T07:40:24.000Z</time>
      </trkpt>
      <trkpt lat="47.27106" lon="-2.29082">
        <ele>42.400001525879</ele>
        <time>2022-06-19T07:40:30.000Z</time>
      </trkpt>
      <trkpt lat="47.27081" lon="-2.29071">
        <ele>42.400001525879</ele>
        <time>2022-06-19T07:40:35.000Z</time>
      </trkpt>
      <trkpt lat="47.27056" lon="-2.29055">
        <ele>42.400001525879</ele>
        <time>2022-06-19T07:40:41.000Z</time>
      </trkpt>
      <trkpt lat="47.27052" lon="-2.29051">
        <ele>42.400001525879</ele>
        <time>2022-06-19T07:40:42.000Z</time>
      </trkpt>
      <trkpt lat="47.27043" lon="-2.29031">
        <ele>42.400001525879</ele>
        <time>2022-06-19T07:40:45.000Z</time>
      </trkpt>
      <trkpt lat="47.27029" lon="-2.29016">
        <ele>42.400001525879</ele>
        <time>2022-06-19T07:40:48.000Z</time>
      </trkpt>
      <trkpt lat="47.27014" lon="-2.29012">
        <ele>42.400001525879</ele>
        <time>2022-06-19T07:40:51.000Z</time>
      </trkpt>
      <trkpt lat="47.27008" lon="-2.2901">
        <ele>42.400001525879</ele>
        <time>2022-06-19T07:40:52.000Z</time>
      </trkpt>
      <trkpt lat="47.26971" lon="-2.28999">
        <ele>42.400001525879</ele>
        <time>2022-06-19T07:40:59.000Z</time>
      </trkpt>
      <trkpt lat="47.26934" lon="-2.2899">
        <ele>42.400001525879</ele>
        <time>2022-06-19T07:41:08.000Z</time>
      </trkpt>
      <trkpt lat="47.26925" lon="-2.28986">
        <ele>42.400001525879</ele>
        <time>2022-06-19T07:41:10.000Z</time>
      </trkpt>
      <trkpt lat="47.26916" lon="-2.2898">
        <ele>42.400001525879</ele>
        <time>2022-06-19T07:41:12.000Z</time>
      </trkpt>
      <trkpt lat="47.26907" lon="-2.28977">
        <ele>42.400001525879</ele>
        <time>2022-06-19T07:41:14.000Z</time>
      </trkpt>
      <trkpt lat="47.26873" lon="-2.28964">
        <ele>42.400001525879</ele>
        <time>2022-06-19T07:41:21.000Z</time>
      </trkpt>
      <trkpt lat="47.26846" lon="-2.28948">
        <ele>42.400001525879</ele>
        <time>2022-06-19T07:41:27.000Z</time>
      </trkpt>
      <trkpt lat="47.26834" lon="-2.28941">
        <ele>42.400001525879</ele>
        <time>2022-06-19T07:41:30.000Z</time>
      </trkpt>
      <trkpt lat="47.2682" lon="-2.28935">
        <ele>42.400001525879</ele>
        <time>2022-06-19T07:41:33.000Z</time>
      </trkpt>
      <trkpt lat="47.26787" lon="-2.28918">
        <ele>42.799999237061</ele>
        <time>2022-06-19T07:41:40.000Z</time>
      </trkpt>
      <trkpt lat="47.26781" lon="-2.28913">
        <ele>43.200000762939</ele>
        <time>2022-06-19T07:41:41.000Z</time>
      </trkpt>
      <trkpt lat="47.26776" lon="-2.28909">
        <ele>43.599998474121</ele>
        <time>2022-06-19T07:41:42.000Z</time>
      </trkpt>
      <trkpt lat="47.26771" lon="-2.28904">
        <ele>44</ele>
        <time>2022-06-19T07:41:43.000Z</time>
      </trkpt>
      <trkpt lat="47.26766" lon="-2.289">
        <ele>44.400001525879</ele>
        <time>2022-06-19T07:41:44.000Z</time>
      </trkpt>
      <trkpt lat="47.26761" lon="-2.28895">
        <ele>44.400001525879</ele>
        <time>2022-06-19T07:41:45.000Z</time>
      </trkpt>
      <trkpt lat="47.26725" lon="-2.28862">
        <ele>44.400001525879</ele>
        <time>2022-06-19T07:41:52.000Z</time>
      </trkpt>
      <trkpt lat="47.26689" lon="-2.28827">
        <ele>44.400001525879</ele>
        <time>2022-06-19T07:41:59.000Z</time>
      </trkpt>
      <trkpt lat="47.26671" lon="-2.28809">
        <ele>44.400001525879</ele>
        <time>2022-06-19T07:42:03.000Z</time>
      </trkpt>
      <trkpt lat="47.26661" lon="-2.28799">
        <ele>44.400001525879</ele>
        <time>2022-06-19T07:42:05.000Z</time>
      </trkpt>
      <trkpt lat="47.26639" lon="-2.28774">
        <ele>44.799999237061</ele>
        <time>2022-06-19T07:42:10.000Z</time>
      </trkpt>
      <trkpt lat="47.26634" lon="-2.2877">
        <ele>45.200000762939</ele>
        <time>2022-06-19T07:42:11.000Z</time>
      </trkpt>
      <trkpt lat="47.2663" lon="-2.28765">
        <ele>45.599998474121</ele>
        <time>2022-06-19T07:42:12.000Z</time>
      </trkpt>
      <trkpt lat="47.26625" lon="-2.28761">
        <ele>46</ele>
        <time>2022-06-19T07:42:13.000Z</time>
      </trkpt>
      <trkpt lat="47.26621" lon="-2.28756">
        <ele>46.400001525879</ele>
        <time>2022-06-19T07:42:14.000Z</time>
      </trkpt>
      <trkpt lat="47.26605" lon="-2.28739">
        <ele>46.400001525879</ele>
        <time>2022-06-19T07:42:18.000Z</time>
      </trkpt>
      <trkpt lat="47.26597" lon="-2.2873">
        <ele>46.400001525879</ele>
        <time>2022-06-19T07:42:20.000Z</time>
      </trkpt>
      <trkpt lat="47.2658" lon="-2.28707">
        <ele>46.400001525879</ele>
        <time>2022-06-19T07:42:24.000Z</time>
      </trkpt>
      <trkpt lat="47.26556" lon="-2.2868">
        <ele>46.799999237061</ele>
        <time>2022-06-19T07:42:29.000Z</time>
      </trkpt>
      <trkpt lat="47.26551" lon="-2.28676">
        <ele>47.200000762939</ele>
        <time>2022-06-19T07:42:30.000Z</time>
      </trkpt>
      <trkpt lat="47.26547" lon="-2.28671">
        <ele>47.599998474121</ele>
        <time>2022-06-19T07:42:31.000Z</time>
      </trkpt>
      <trkpt lat="47.26542" lon="-2.28666">
        <ele>48.200000762939</ele>
        <time>2022-06-19T07:42:32.000Z</time>
      </trkpt>
      <trkpt lat="47.26538" lon="-2.28661">
        <ele>48.599998474121</ele>
        <time>2022-06-19T07:42:33.000Z</time>
      </trkpt>
      <trkpt lat="47.26533" lon="-2.28654">
        <ele>48.599998474121</ele>
        <time>2022-06-19T07:42:34.000Z</time>
      </trkpt>
      <trkpt lat="47.2653" lon="-2.28649">
        <ele>48.599998474121</ele>
        <time>2022-06-19T07:42:35.000Z</time>
      </trkpt>
      <trkpt lat="47.26518" lon="-2.28634">
        <ele>49</ele>
        <time>2022-06-19T07:42:38.000Z</time>
      </trkpt>
      <trkpt lat="47.26514" lon="-2.2863">
        <ele>49.400001525879</ele>
        <time>2022-06-19T07:42:39.000Z</time>
      </trkpt>
      <trkpt lat="47.2651" lon="-2.28625">
        <ele>49.799999237061</ele>
        <time>2022-06-19T07:42:40.000Z</time>
      </trkpt>
      <trkpt lat="47.26506" lon="-2.28621">
        <ele>50.200000762939</ele>
        <time>2022-06-19T07:42:41.000Z</time>
      </trkpt>
      <trkpt lat="47.26503" lon="-2.28617">
        <ele>50.599998474121</ele>
        <time>2022-06-19T07:42:42.000Z</time>
      </trkpt>
      <trkpt lat="47.26502" lon="-2.28605">
        <ele>50.599998474121</ele>
        <time>2022-06-19T07:42:44.000Z</time>
      </trkpt>
      <trkpt lat="47.26501" lon="-2.28585">
        <ele>50.599998474121</ele>
        <time>2022-06-19T07:42:47.000Z</time>
      </trkpt>
      <trkpt lat="47.26498" lon="-2.28572">
        <ele>50.599998474121</ele>
        <time>2022-06-19T07:42:49.000Z</time>
      </trkpt>
      <trkpt lat="47.26491" lon="-2.28554">
        <ele>50.599998474121</ele>
        <time>2022-06-19T07:42:52.000Z</time>
      </trkpt>
      <trkpt lat="47.26486" lon="-2.28543">
        <ele>50.599998474121</ele>
        <time>2022-06-19T07:42:54.000Z</time>
      </trkpt>
      <trkpt lat="47.26468" lon="-2.2851">
        <ele>50.599998474121</ele>
        <time>2022-06-19T07:43:00.000Z</time>
      </trkpt>
      <trkpt lat="47.26445" lon="-2.28466">
        <ele>50.599998474121</ele>
        <time>2022-06-19T07:43:08.000Z</time>
      </trkpt>
      <trkpt lat="47.26442" lon="-2.28461">
        <ele>51</ele>
        <time>2022-06-19T07:43:09.000Z</time>
      </trkpt>
      <trkpt lat="47.2644" lon="-2.28455">
        <ele>51.400001525879</ele>
        <time>2022-06-19T07:43:10.000Z</time>
      </trkpt>
      <trkpt lat="47.26438" lon="-2.28449">
        <ele>51.799999237061</ele>
        <time>2022-06-19T07:43:11.000Z</time>
      </trkpt>
      <trkpt lat="47.26436" lon="-2.28444">
        <ele>52.200000762939</ele>
        <time>2022-06-19T07:43:12.000Z</time>
      </trkpt>
      <trkpt lat="47.26434" lon="-2.28439">
        <ele>52.599998474121</ele>
        <time>2022-06-19T07:43:13.000Z</time>
      </trkpt>
      <trkpt lat="47.26431" lon="-2.28433">
        <ele>52.599998474121</ele>
        <time>2022-06-19T07:43:14.000Z</time>
      </trkpt>
      <trkpt lat="47.26408" lon="-2.28384">
        <ele>52.599998474121</ele>
        <time>2022-06-19T07:43:22.000Z</time>
      </trkpt>
      <trkpt lat="47.26387" lon="-2.2834">
        <ele>52.599998474121</ele>
        <time>2022-06-19T07:43:30.000Z</time>
      </trkpt>
      <trkpt lat="47.26371" lon="-2.28298">
        <ele>52.599998474121</ele>
        <time>2022-06-19T07:43:37.000Z</time>
      </trkpt>
      <trkpt lat="47.26363" lon="-2.28273">
        <ele>53</ele>
        <time>2022-06-19T07:43:41.000Z</time>
      </trkpt>
      <trkpt lat="47.26362" lon="-2.28266">
        <ele>53.400001525879</ele>
        <time>2022-06-19T07:43:42.000Z</time>
      </trkpt>
      <trkpt lat="47.2636" lon="-2.2826">
        <ele>54.200000762939</ele>
        <time>2022-06-19T07:43:43.000Z</time>
      </trkpt>
      <trkpt lat="47.26358" lon="-2.28253">
        <ele>54.599998474121</ele>
        <time>2022-06-19T07:43:44.000Z</time>
      </trkpt>
      <trkpt lat="47.26348" lon="-2.28212">
        <ele>54.599998474121</ele>
        <time>2022-06-19T07:43:50.000Z</time>
      </trkpt>
      <trkpt lat="47.26337" lon="-2.28156">
        <ele>54.599998474121</ele>
        <time>2022-06-19T07:43:58.000Z</time>
      </trkpt>
      <trkpt lat="47.26326" lon="-2.28093">
        <ele>54.200000762939</ele>
        <time>2022-06-19T07:44:06.000Z</time>
      </trkpt>
      <trkpt lat="47.26325" lon="-2.28085">
        <ele>53.400001525879</ele>
        <time>2022-06-19T07:44:07.000Z</time>
      </trkpt>
      <trkpt lat="47.26323" lon="-2.28076">
        <ele>53</ele>
        <time>2022-06-19T07:44:08.000Z</time>
      </trkpt>
      <trkpt lat="47.26321" lon="-2.28068">
        <ele>52.599998474121</ele>
        <time>2022-06-19T07:44:09.000Z</time>
      </trkpt>
      <trkpt lat="47.26313" lon="-2.28036">
        <ele>52.599998474121</ele>
        <time>2022-06-19T07:44:13.000Z</time>
      </trkpt>
      <trkpt lat="47.26295" lon="-2.27986">
        <ele>52.599998474121</ele>
        <time>2022-06-19T07:44:20.000Z</time>
      </trkpt>
      <trkpt lat="47.26286" lon="-2.2797">
        <ele>52.599998474121</ele>
        <time>2022-06-19T07:44:24.000Z</time>
      </trkpt>
      <trkpt lat="47.26271" lon="-2.27946">
        <ele>52.599998474121</ele>
        <time>2022-06-19T07:44:30.000Z</time>
      </trkpt>
      <trkpt lat="47.26262" lon="-2.27931">
        <ele>52.599998474121</ele>
        <time>2022-06-19T07:44:33.000Z</time>
      </trkpt>
      <trkpt lat="47.26255" lon="-2.27914">
        <ele>52.599998474121</ele>
        <time>2022-06-19T07:44:36.000Z</time>
      </trkpt>
      <trkpt lat="47.26247" lon="-2.27896">
        <ele>52.599998474121</ele>
        <time>2022-06-19T07:44:39.000Z</time>
      </trkpt>
      <trkpt lat="47.2624" lon="-2.2788">
        <ele>52.599998474121</ele>
        <time>2022-06-19T07:44:42.000Z</time>
      </trkpt>
      <trkpt lat="47.26214" lon="-2.27826">
        <ele>52.599998474121</ele>
        <time>2022-06-19T07:44:52.000Z</time>
      </trkpt>
      <trkpt lat="47.26194" lon="-2.27791">
        <ele>52.599998474121</ele>
        <time>2022-06-19T07:44:59.000Z</time>
      </trkpt>
      <trkpt lat="47.26192" lon="-2.27785">
        <ele>52.599998474121</ele>
        <time>2022-06-19T07:45:00.000Z</time>
      </trkpt>
      <trkpt lat="47.26177" lon="-2.27739">
        <ele>52.599998474121</ele>
        <time>2022-06-19T07:45:08.000Z</time>
      </trkpt>
      <trkpt lat="47.26167" lon="-2.2771">
        <ele>52.599998474121</ele>
        <time>2022-06-19T07:45:13.000Z</time>
      </trkpt>
      <trkpt lat="47.26164" lon="-2.27699">
        <ele>52.599998474121</ele>
        <time>2022-06-19T07:45:15.000Z</time>
      </trkpt>
      <trkpt lat="47.2615" lon="-2.27645">
        <ele>52.599998474121</ele>
        <time>2022-06-19T07:45:23.000Z</time>
      </trkpt>
      <trkpt lat="47.26142" lon="-2.27602">
        <ele>52.599998474121</ele>
        <time>2022-06-19T07:45:29.000Z</time>
      </trkpt>
      <trkpt lat="47.26128" lon="-2.27587">
        <ele>52.599998474121</ele>
        <time>2022-06-19T07:45:32.000Z</time>
      </trkpt>
      <trkpt lat="47.26112" lon="-2.27591">
        <ele>52.599998474121</ele>
        <time>2022-06-19T07:45:35.000Z</time>
      </trkpt>
      <trkpt lat="47.26099" lon="-2.27602">
        <ele>52.599998474121</ele>
        <time>2022-06-19T07:45:38.000Z</time>
      </trkpt>
      <trkpt lat="47.26094" lon="-2.27604">
        <ele>52.599998474121</ele>
        <time>2022-06-19T07:45:39.000Z</time>
      </trkpt>
      <trkpt lat="47.2609" lon="-2.27606">
        <ele>52.599998474121</ele>
        <time>2022-06-19T07:45:40.000Z</time>
      </trkpt>
      <trkpt lat="47.2605" lon="-2.27621">
        <ele>52.599998474121</ele>
        <time>2022-06-19T07:45:48.000Z</time>
      </trkpt>
      <trkpt lat="47.26037" lon="-2.2761">
        <ele>52.599998474121</ele>
        <time>2022-06-19T07:45:51.000Z</time>
      </trkpt>
      <trkpt lat="47.26031" lon="-2.27591">
        <ele>52.599998474121</ele>
        <time>2022-06-19T07:45:54.000Z</time>
      </trkpt>
      <trkpt lat="47.26029" lon="-2.27585">
        <ele>52.599998474121</ele>
        <time>2022-06-19T07:45:55.000Z</time>
      </trkpt>
      <trkpt lat="47.26023" lon="-2.27557">
        <ele>52.599998474121</ele>
        <time>2022-06-19T07:46:00.000Z</time>
      </trkpt>
      <trkpt lat="47.26022" lon="-2.27551">
        <ele>52.599998474121</ele>
        <time>2022-06-19T07:46:01.000Z</time>
      </trkpt>
      <trkpt lat="47.26019" lon="-2.27522">
        <ele>52.599998474121</ele>
        <time>2022-06-19T07:46:06.000Z</time>
      </trkpt>
      <trkpt lat="47.26026" lon="-2.27496">
        <ele>52.599998474121</ele>
        <time>2022-06-19T07:46:10.000Z</time>
      </trkpt>
      <trkpt lat="47.26028" lon="-2.27489">
        <ele>52.599998474121</ele>
        <time>2022-06-19T07:46:11.000Z</time>
      </trkpt>
      <trkpt lat="47.26043" lon="-2.27453">
        <ele>52.599998474121</ele>
        <time>2022-06-19T07:46:16.000Z</time>
      </trkpt>
      <trkpt lat="47.26065" lon="-2.27404">
        <ele>52.599998474121</ele>
        <time>2022-06-19T07:46:23.000Z</time>
      </trkpt>
      <trkpt lat="47.26069" lon="-2.27397">
        <ele>52.599998474121</ele>
        <time>2022-06-19T07:46:24.000Z</time>
      </trkpt>
      <trkpt lat="47.26083" lon="-2.27379">
        <ele>52.599998474121</ele>
        <time>2022-06-19T07:46:27.000Z</time>
      </trkpt>
      <trkpt lat="47.26115" lon="-2.27342">
        <ele>52.599998474121</ele>
        <time>2022-06-19T07:46:33.000Z</time>
      </trkpt>
      <trkpt lat="47.26136" lon="-2.27322">
        <ele>52.599998474121</ele>
        <time>2022-06-19T07:46:37.000Z</time>
      </trkpt>
      <trkpt lat="47.26142" lon="-2.27321">
        <ele>52.599998474121</ele>
        <time>2022-06-19T07:46:38.000Z</time>
      </trkpt>
      <trkpt lat="47.26165" lon="-2.2732">
        <ele>52.599998474121</ele>
        <time>2022-06-19T07:46:42.000Z</time>
      </trkpt>
      <trkpt lat="47.26171" lon="-2.27319">
        <ele>52.200000762939</ele>
        <time>2022-06-19T07:46:43.000Z</time>
      </trkpt>
      <trkpt lat="47.26177" lon="-2.27317">
        <ele>51.799999237061</ele>
        <time>2022-06-19T07:46:44.000Z</time>
      </trkpt>
      <trkpt lat="47.26183" lon="-2.27317">
        <ele>51.400001525879</ele>
        <time>2022-06-19T07:46:45.000Z</time>
      </trkpt>
      <trkpt lat="47.26188" lon="-2.27316">
        <ele>51</ele>
        <time>2022-06-19T07:46:46.000Z</time>
      </trkpt>
      <trkpt lat="47.26194" lon="-2.27316">
        <ele>50.599998474121</ele>
        <time>2022-06-19T07:46:47.000Z</time>
      </trkpt>
      <trkpt lat="47.26201" lon="-2.27317">
        <ele>50.599998474121</ele>
        <time>2022-06-19T07:46:48.000Z</time>
      </trkpt>
      <trkpt lat="47.26234" lon="-2.27324">
        <ele>50.599998474121</ele>
        <time>2022-06-19T07:46:53.000Z</time>
      </trkpt>
      <trkpt lat="47.2624" lon="-2.27326">
        <ele>50.599998474121</ele>
        <time>2022-06-19T07:46:54.000Z</time>
      </trkpt>
      <trkpt lat="47.26246" lon="-2.27326">
        <ele>50.599998474121</ele>
        <time>2022-06-19T07:46:55.000Z</time>
      </trkpt>
      <trkpt lat="47.26272" lon="-2.27328">
        <ele>50.599998474121</ele>
        <time>2022-06-19T07:46:59.000Z</time>
      </trkpt>
      <trkpt lat="47.26307" lon="-2.27332">
        <ele>50.599998474121</ele>
        <time>2022-06-19T07:47:04.000Z</time>
      </trkpt>
      <trkpt lat="47.26314" lon="-2.27332">
        <ele>50.599998474121</ele>
        <time>2022-06-19T07:47:05.000Z</time>
      </trkpt>
      <trkpt lat="47.26334" lon="-2.27332">
        <ele>50.599998474121</ele>
        <time>2022-06-19T07:47:08.000Z</time>
      </trkpt>
      <trkpt lat="47.2634" lon="-2.27333">
        <ele>50.599998474121</ele>
        <time>2022-06-19T07:47:09.000Z</time>
      </trkpt>
      <trkpt lat="47.26386" lon="-2.27334">
        <ele>50.599998474121</ele>
        <time>2022-06-19T07:47:16.000Z</time>
      </trkpt>
      <trkpt lat="47.26399" lon="-2.27335">
        <ele>50.599998474121</ele>
        <time>2022-06-19T07:47:18.000Z</time>
      </trkpt>
      <trkpt lat="47.26411" lon="-2.27338">
        <ele>50.200000762939</ele>
        <time>2022-06-19T07:47:20.000Z</time>
      </trkpt>
      <trkpt lat="47.26417" lon="-2.2734">
        <ele>49.599998474121</ele>
        <time>2022-06-19T07:47:21.000Z</time>
      </trkpt>
      <trkpt lat="47.26422" lon="-2.27343">
        <ele>49.200000762939</ele>
        <time>2022-06-19T07:47:22.000Z</time>
      </trkpt>
      <trkpt lat="47.26426" lon="-2.27349">
        <ele>48.799999237061</ele>
        <time>2022-06-19T07:47:23.000Z</time>
      </trkpt>
      <trkpt lat="47.2643" lon="-2.27356">
        <ele>48.400001525879</ele>
        <time>2022-06-19T07:47:24.000Z</time>
      </trkpt>
      <trkpt lat="47.26437" lon="-2.27372">
        <ele>48.400001525879</ele>
        <time>2022-06-19T07:47:26.000Z</time>
      </trkpt>
      <trkpt lat="47.26442" lon="-2.27387">
        <ele>48.400001525879</ele>
        <time>2022-06-19T07:47:28.000Z</time>
      </trkpt>
      <trkpt lat="47.26445" lon="-2.27395">
        <ele>48.400001525879</ele>
        <time>2022-06-19T07:47:29.000Z</time>
      </trkpt>
      <trkpt lat="47.26456" lon="-2.27422">
        <ele>47.799999237061</ele>
        <time>2022-06-19T07:47:32.000Z</time>
      </trkpt>
      <trkpt lat="47.2646" lon="-2.27432">
        <ele>47.400001525879</ele>
        <time>2022-06-19T07:47:33.000Z</time>
      </trkpt>
      <trkpt lat="47.26463" lon="-2.27442">
        <ele>47</ele>
        <time>2022-06-19T07:47:34.000Z</time>
      </trkpt>
      <trkpt lat="47.26466" lon="-2.27451">
        <ele>46.599998474121</ele>
        <time>2022-06-19T07:47:35.000Z</time>
      </trkpt>
      <trkpt lat="47.26469" lon="-2.27461">
        <ele>46.200000762939</ele>
        <time>2022-06-19T07:47:36.000Z</time>
      </trkpt>
      <trkpt lat="47.26488" lon="-2.27528">
        <ele>46.200000762939</ele>
        <time>2022-06-19T07:47:43.000Z</time>
      </trkpt>
      <trkpt lat="47.26489" lon="-2.27538">
        <ele>45.799999237061</ele>
        <time>2022-06-19T07:47:44.000Z</time>
      </trkpt>
      <trkpt lat="47.26491" lon="-2.27548">
        <ele>45.400001525879</ele>
        <time>2022-06-19T07:47:45.000Z</time>
      </trkpt>
      <trkpt lat="47.26493" lon="-2.27558">
        <ele>45</ele>
        <time>2022-06-19T07:47:46.000Z</time>
      </trkpt>
      <trkpt lat="47.26495" lon="-2.27566">
        <ele>44.599998474121</ele>
        <time>2022-06-19T07:47:47.000Z</time>
      </trkpt>
      <trkpt lat="47.26497" lon="-2.27573">
        <ele>44.200000762939</ele>
        <time>2022-06-19T07:47:48.000Z</time>
      </trkpt>
      <trkpt lat="47.2651" lon="-2.27579">
        <ele>44.200000762939</ele>
        <time>2022-06-19T07:47:51.000Z</time>
      </trkpt>
      <trkpt lat="47.26521" lon="-2.27579">
        <ele>44.200000762939</ele>
        <time>2022-06-19T07:47:53.000Z</time>
      </trkpt>
      <trkpt lat="47.26527" lon="-2.2758">
        <ele>44.200000762939</ele>
        <time>2022-06-19T07:47:54.000Z</time>
      </trkpt>
      <trkpt lat="47.26534" lon="-2.27582">
        <ele>44.200000762939</ele>
        <time>2022-06-19T07:47:55.000Z</time>
      </trkpt>
      <trkpt lat="47.26566" lon="-2.27586">
        <ele>44.200000762939</ele>
        <time>2022-06-19T07:48:00.000Z</time>
      </trkpt>
      <trkpt lat="47.26577" lon="-2.27588">
        <ele>44.200000762939</ele>
        <time>2022-06-19T07:48:02.000Z</time>
      </trkpt>
      <trkpt lat="47.26593" lon="-2.27593">
        <ele>44.200000762939</ele>
        <time>2022-06-19T07:48:05.000Z</time>
      </trkpt>
      <trkpt lat="47.2662" lon="-2.27606">
        <ele>44.200000762939</ele>
        <time>2022-06-19T07:48:11.000Z</time>
      </trkpt>
      <trkpt lat="47.26647" lon="-2.27619">
        <ele>44.200000762939</ele>
        <time>2022-06-19T07:48:18.000Z</time>
      </trkpt>
      <trkpt lat="47.26651" lon="-2.27621">
        <ele>44.200000762939</ele>
        <time>2022-06-19T07:48:19.000Z</time>
      </trkpt>
      <trkpt lat="47.26672" lon="-2.27632">
        <ele>44.200000762939</ele>
        <time>2022-06-19T07:48:24.000Z</time>
      </trkpt>
      <trkpt lat="47.26684" lon="-2.27636">
        <ele>44.200000762939</ele>
        <time>2022-06-19T07:48:27.000Z</time>
      </trkpt>
      <trkpt lat="47.26688" lon="-2.27637">
        <ele>43.799999237061</ele>
        <time>2022-06-19T07:48:28.000Z</time>
      </trkpt>
      <trkpt lat="47.26692" lon="-2.2764">
        <ele>43.400001525879</ele>
        <time>2022-06-19T07:48:29.000Z</time>
      </trkpt>
      <trkpt lat="47.26696" lon="-2.27642">
        <ele>43</ele>
        <time>2022-06-19T07:48:30.000Z</time>
      </trkpt>
      <trkpt lat="47.267" lon="-2.27644">
        <ele>42.599998474121</ele>
        <time>2022-06-19T07:48:31.000Z</time>
      </trkpt>
      <trkpt lat="47.26705" lon="-2.27646">
        <ele>42.200000762939</ele>
        <time>2022-06-19T07:48:32.000Z</time>
      </trkpt>
      <trkpt lat="47.26731" lon="-2.2765">
        <ele>42.200000762939</ele>
        <time>2022-06-19T07:48:37.000Z</time>
      </trkpt>
      <trkpt lat="47.26735" lon="-2.27651">
        <ele>42.200000762939</ele>
        <time>2022-06-19T07:48:38.000Z</time>
      </trkpt>
      <trkpt lat="47.26748" lon="-2.27654">
        <ele>42.200000762939</ele>
        <time>2022-06-19T07:48:41.000Z</time>
      </trkpt>
      <trkpt lat="47.26751" lon="-2.27652">
        <ele>42.200000762939</ele>
        <time>2022-06-19T07:48:42.000Z</time>
      </trkpt>
      <trkpt lat="47.26757" lon="-2.27646">
        <ele>42.200000762939</ele>
        <time>2022-06-19T07:48:44.000Z</time>
      </trkpt>
      <trkpt lat="47.26759" lon="-2.27632">
        <ele>42.200000762939</ele>
        <time>2022-06-19T07:48:47.000Z</time>
      </trkpt>
      <trkpt lat="47.26759" lon="-2.27627">
        <ele>42.200000762939</ele>
        <time>2022-06-19T07:48:48.000Z</time>
      </trkpt>
      <trkpt lat="47.26754" lon="-2.27595">
        <ele>42.200000762939</ele>
        <time>2022-06-19T07:48:53.000Z</time>
      </trkpt>
      <trkpt lat="47.26751" lon="-2.27551">
        <ele>42.200000762939</ele>
        <time>2022-06-19T07:49:00.000Z</time>
      </trkpt>
      <trkpt lat="47.26751" lon="-2.27528">
        <ele>42.599998474121</ele>
        <time>2022-06-19T07:49:04.000Z</time>
      </trkpt>
      <trkpt lat="47.26751" lon="-2.27521">
        <ele>43</ele>
        <time>2022-06-19T07:49:05.000Z</time>
      </trkpt>
      <trkpt lat="47.26751" lon="-2.27515">
        <ele>43.400001525879</ele>
        <time>2022-06-19T07:49:06.000Z</time>
      </trkpt>
      <trkpt lat="47.26751" lon="-2.27509">
        <ele>44</ele>
        <time>2022-06-19T07:49:07.000Z</time>
      </trkpt>
      <trkpt lat="47.26751" lon="-2.27503">
        <ele>44.400001525879</ele>
        <time>2022-06-19T07:49:08.000Z</time>
      </trkpt>
      <trkpt lat="47.26753" lon="-2.27456">
        <ele>44.400001525879</ele>
        <time>2022-06-19T07:49:15.000Z</time>
      </trkpt>
      <trkpt lat="47.26754" lon="-2.27428">
        <ele>44.400001525879</ele>
        <time>2022-06-19T07:49:19.000Z</time>
      </trkpt>
      <trkpt lat="47.26756" lon="-2.27418">
        <ele>44.400001525879</ele>
        <time>2022-06-19T07:49:21.000Z</time>
      </trkpt>
      <trkpt lat="47.26766" lon="-2.27413">
        <ele>44.400001525879</ele>
        <time>2022-06-19T07:49:24.000Z</time>
      </trkpt>
      <trkpt lat="47.26785" lon="-2.27415">
        <ele>44.400001525879</ele>
        <time>2022-06-19T07:49:28.000Z</time>
      </trkpt>
      <trkpt lat="47.2679" lon="-2.27416">
        <ele>44.400001525879</ele>
        <time>2022-06-19T07:49:29.000Z</time>
      </trkpt>
      <trkpt lat="47.26828" lon="-2.27411">
        <ele>44.400001525879</ele>
        <time>2022-06-19T07:49:37.000Z</time>
      </trkpt>
      <trkpt lat="47.26832" lon="-2.2741">
        <ele>44</ele>
        <time>2022-06-19T07:49:38.000Z</time>
      </trkpt>
      <trkpt lat="47.26836" lon="-2.27409">
        <ele>43.599998474121</ele>
        <time>2022-06-19T07:49:39.000Z</time>
      </trkpt>
      <trkpt lat="47.26841" lon="-2.27407">
        <ele>43.200000762939</ele>
        <time>2022-06-19T07:49:40.000Z</time>
      </trkpt>
      <trkpt lat="47.26846" lon="-2.27405">
        <ele>42.799999237061</ele>
        <time>2022-06-19T07:49:41.000Z</time>
      </trkpt>
      <trkpt lat="47.2685" lon="-2.27403">
        <ele>42.400001525879</ele>
        <time>2022-06-19T07:49:42.000Z</time>
      </trkpt>
      <trkpt lat="47.2686" lon="-2.274">
        <ele>42.400001525879</ele>
        <time>2022-06-19T07:49:44.000Z</time>
      </trkpt>
      <trkpt lat="47.26865" lon="-2.27397">
        <ele>42.400001525879</ele>
        <time>2022-06-19T07:49:45.000Z</time>
      </trkpt>
      <trkpt lat="47.26874" lon="-2.27392">
        <ele>41.799999237061</ele>
        <time>2022-06-19T07:49:47.000Z</time>
      </trkpt>
      <trkpt lat="47.26877" lon="-2.2739">
        <ele>41.400001525879</ele>
        <time>2022-06-19T07:49:48.000Z</time>
      </trkpt>
      <trkpt lat="47.26881" lon="-2.27387">
        <ele>41</ele>
        <time>2022-06-19T07:49:49.000Z</time>
      </trkpt>
      <trkpt lat="47.26885" lon="-2.27386">
        <ele>40.599998474121</ele>
        <time>2022-06-19T07:49:50.000Z</time>
      </trkpt>
      <trkpt lat="47.26888" lon="-2.27384">
        <ele>40.200000762939</ele>
        <time>2022-06-19T07:49:51.000Z</time>
      </trkpt>
      <trkpt lat="47.26893" lon="-2.2738">
        <ele>39.799999237061</ele>
        <time>2022-06-19T07:49:53.000Z</time>
      </trkpt>
      <trkpt lat="47.26896" lon="-2.27376">
        <ele>39.400001525879</ele>
        <time>2022-06-19T07:49:54.000Z</time>
      </trkpt>
      <trkpt lat="47.26898" lon="-2.27371">
        <ele>38.799999237061</ele>
        <time>2022-06-19T07:49:55.000Z</time>
      </trkpt>
      <trkpt lat="47.269" lon="-2.27368">
        <ele>38.400001525879</ele>
        <time>2022-06-19T07:49:56.000Z</time>
      </trkpt>
      <trkpt lat="47.26901" lon="-2.27364">
        <ele>38</ele>
        <time>2022-06-19T07:49:57.000Z</time>
      </trkpt>
      <trkpt lat="47.26913" lon="-2.27341">
        <ele>38</ele>
        <time>2022-06-19T07:50:03.000Z</time>
      </trkpt>
      <trkpt lat="47.26926" lon="-2.27317">
        <ele>38</ele>
        <time>2022-06-19T07:50:09.000Z</time>
      </trkpt>
      <trkpt lat="47.2693" lon="-2.27299">
        <ele>38</ele>
        <time>2022-06-19T07:50:13.000Z</time>
      </trkpt>
      <trkpt lat="47.26929" lon="-2.27296">
        <ele>38</ele>
        <time>2022-06-19T07:50:14.000Z</time>
      </trkpt>
      <trkpt lat="47.26928" lon="-2.2729">
        <ele>38.400001525879</ele>
        <time>2022-06-19T07:50:16.000Z</time>
      </trkpt>
      <trkpt lat="47.26928" lon="-2.27286">
        <ele>38.799999237061</ele>
        <time>2022-06-19T07:50:17.000Z</time>
      </trkpt>
      <trkpt lat="47.26928" lon="-2.27283">
        <ele>39.200000762939</ele>
        <time>2022-06-19T07:50:18.000Z</time>
      </trkpt>
      <trkpt lat="47.26929" lon="-2.27278">
        <ele>39.599998474121</ele>
        <time>2022-06-19T07:50:19.000Z</time>
      </trkpt>
      <trkpt lat="47.2693" lon="-2.27273">
        <ele>40.200000762939</ele>
        <time>2022-06-19T07:50:20.000Z</time>
      </trkpt>
      <trkpt lat="47.26937" lon="-2.27261">
        <ele>40.200000762939</ele>
        <time>2022-06-19T07:50:24.000Z</time>
      </trkpt>
      <trkpt lat="47.2694" lon="-2.27259">
        <ele>40.200000762939</ele>
        <time>2022-06-19T07:50:25.000Z</time>
      </trkpt>
      <trkpt lat="47.26947" lon="-2.2726">
        <ele>39.599998474121</ele>
        <time>2022-06-19T07:50:27.000Z</time>
      </trkpt>
      <trkpt lat="47.26949" lon="-2.27259">
        <ele>39.200000762939</ele>
        <time>2022-06-19T07:50:28.000Z</time>
      </trkpt>
      <trkpt lat="47.26953" lon="-2.27258">
        <ele>38.799999237061</ele>
        <time>2022-06-19T07:50:29.000Z</time>
      </trkpt>
      <trkpt lat="47.26955" lon="-2.27256">
        <ele>38.400001525879</ele>
        <time>2022-06-19T07:50:30.000Z</time>
      </trkpt>
      <trkpt lat="47.26956" lon="-2.27253">
        <ele>38</ele>
        <time>2022-06-19T07:50:31.000Z</time>
      </trkpt>
      <trkpt lat="47.2696" lon="-2.27247">
        <ele>38</ele>
        <time>2022-06-19T07:50:33.000Z</time>
      </trkpt>
      <trkpt lat="47.26969" lon="-2.27229">
        <ele>38</ele>
        <time>2022-06-19T07:50:38.000Z</time>
      </trkpt>
      <trkpt lat="47.26969" lon="-2.27224">
        <ele>38</ele>
        <time>2022-06-19T07:50:39.000Z</time>
      </trkpt>
      <trkpt lat="47.26966" lon="-2.2721">
        <ele>38</ele>
        <time>2022-06-19T07:50:42.000Z</time>
      </trkpt>
      <trkpt lat="47.26965" lon="-2.27205">
        <ele>38</ele>
        <time>2022-06-19T07:50:44.000Z</time>
      </trkpt>
      <trkpt lat="47.2697" lon="-2.27195">
        <ele>38</ele>
        <time>2022-06-19T07:50:49.000Z</time>
      </trkpt>
      <trkpt lat="47.26971" lon="-2.27192">
        <ele>38</ele>
        <time>2022-06-19T07:50:50.000Z</time>
      </trkpt>
      <trkpt lat="47.26978" lon="-2.27184">
        <ele>38</ele>
        <time>2022-06-19T07:50:55.000Z</time>
      </trkpt>
      <trkpt lat="47.2698" lon="-2.27184">
        <ele>38</ele>
        <time>2022-06-19T07:50:56.000Z</time>
      </trkpt>
      <trkpt lat="47.26985" lon="-2.27181">
        <ele>38</ele>
        <time>2022-06-19T07:51:00.000Z</time>
      </trkpt>
      <trkpt lat="47.2699" lon="-2.27179">
        <ele>38</ele>
        <time>2022-06-19T07:51:02.000Z</time>
      </trkpt>
      <trkpt lat="47.26995" lon="-2.27175">
        <ele>38</ele>
        <time>2022-06-19T07:51:04.000Z</time>
      </trkpt>
      <trkpt lat="47.27" lon="-2.27174">
        <ele>38</ele>
        <time>2022-06-19T07:51:06.000Z</time>
      </trkpt>
      <trkpt lat="47.27005" lon="-2.27175">
        <ele>38</ele>
        <time>2022-06-19T07:51:11.000Z</time>
      </trkpt>
      <trkpt lat="47.27009" lon="-2.2717">
        <ele>37.400001525879</ele>
        <time>2022-06-19T07:51:15.000Z</time>
      </trkpt>
      <trkpt lat="47.2701" lon="-2.27168">
        <ele>37</ele>
        <time>2022-06-19T07:51:16.000Z</time>
      </trkpt>
      <trkpt lat="47.27011" lon="-2.27166">
        <ele>36.599998474121</ele>
        <time>2022-06-19T07:51:17.000Z</time>
      </trkpt>
      <trkpt lat="47.27012" lon="-2.27164">
        <ele>36.200000762939</ele>
        <time>2022-06-19T07:51:18.000Z</time>
      </trkpt>
      <trkpt lat="47.27013" lon="-2.27164">
        <ele>35.799999237061</ele>
        <time>2022-06-19T07:51:19.000Z</time>
      </trkpt>
      <trkpt lat="47.27018" lon="-2.2716">
        <ele>35.799999237061</ele>
        <time>2022-06-19T07:51:21.000Z</time>
      </trkpt>
      <trkpt lat="47.27022" lon="-2.2715">
        <ele>35.799999237061</ele>
        <time>2022-06-19T07:51:24.000Z</time>
      </trkpt>
      <trkpt lat="47.27022" lon="-2.27148">
        <ele>35.799999237061</ele>
        <time>2022-06-19T07:51:25.000Z</time>
      </trkpt>
      <trkpt lat="47.27022" lon="-2.27143">
        <ele>35.799999237061</ele>
        <time>2022-06-19T07:51:29.000Z</time>
      </trkpt>
      <trkpt lat="47.27021" lon="-2.27139">
        <ele>35.799999237061</ele>
        <time>2022-06-19T07:51:52.000Z</time>
      </trkpt>
      <trkpt lat="47.27011" lon="-2.27115">
        <ele>35.799999237061</ele>
        <time>2022-06-19T07:52:00.000Z</time>
      </trkpt>
      <trkpt lat="47.27005" lon="-2.27093">
        <ele>36.200000762939</ele>
        <time>2022-06-19T07:52:04.000Z</time>
      </trkpt>
      <trkpt lat="47.27005" lon="-2.27087">
        <ele>36.599998474121</ele>
        <time>2022-06-19T07:52:05.000Z</time>
      </trkpt>
      <trkpt lat="47.27003" lon="-2.27082">
        <ele>37</ele>
        <time>2022-06-19T07:52:06.000Z</time>
      </trkpt>
      <trkpt lat="47.27002" lon="-2.27076">
        <ele>37.400001525879</ele>
        <time>2022-06-19T07:52:07.000Z</time>
      </trkpt>
      <trkpt lat="47.27001" lon="-2.27071">
        <ele>37.799999237061</ele>
        <time>2022-06-19T07:52:08.000Z</time>
      </trkpt>
      <trkpt lat="47.26995" lon="-2.27057">
        <ele>37.799999237061</ele>
        <time>2022-06-19T07:52:11.000Z</time>
      </trkpt>
      <trkpt lat="47.26978" lon="-2.27031">
        <ele>37.799999237061</ele>
        <time>2022-06-19T07:52:17.000Z</time>
      </trkpt>
      <trkpt lat="47.26971" lon="-2.27023">
        <ele>37.400001525879</ele>
        <time>2022-06-19T07:52:19.000Z</time>
      </trkpt>
      <trkpt lat="47.26968" lon="-2.27019">
        <ele>37</ele>
        <time>2022-06-19T07:52:20.000Z</time>
      </trkpt>
      <trkpt lat="47.26966" lon="-2.27015">
        <ele>36.599998474121</ele>
        <time>2022-06-19T07:52:21.000Z</time>
      </trkpt>
      <trkpt lat="47.26963" lon="-2.27011">
        <ele>36.200000762939</ele>
        <time>2022-06-19T07:52:22.000Z</time>
      </trkpt>
      <trkpt lat="47.26961" lon="-2.27006">
        <ele>35.799999237061</ele>
        <time>2022-06-19T07:52:23.000Z</time>
      </trkpt>
      <trkpt lat="47.26958" lon="-2.26988">
        <ele>35.799999237061</ele>
        <time>2022-06-19T07:52:26.000Z</time>
      </trkpt>
      <trkpt lat="47.26958" lon="-2.26981">
        <ele>35.799999237061</ele>
        <time>2022-06-19T07:52:27.000Z</time>
      </trkpt>
      <trkpt lat="47.26962" lon="-2.26953">
        <ele>35.799999237061</ele>
        <time>2022-06-19T07:52:31.000Z</time>
      </trkpt>
      <trkpt lat="47.26963" lon="-2.26944">
        <ele>35.799999237061</ele>
        <time>2022-06-19T07:52:32.000Z</time>
      </trkpt>
      <trkpt lat="47.26963" lon="-2.26906">
        <ele>35.400001525879</ele>
        <time>2022-06-19T07:52:37.000Z</time>
      </trkpt>
      <trkpt lat="47.26962" lon="-2.26899">
        <ele>35</ele>
        <time>2022-06-19T07:52:38.000Z</time>
      </trkpt>
      <trkpt lat="47.2696" lon="-2.26892">
        <ele>34.599998474121</ele>
        <time>2022-06-19T07:52:39.000Z</time>
      </trkpt>
      <trkpt lat="47.26959" lon="-2.26885">
        <ele>34.200000762939</ele>
        <time>2022-06-19T07:52:40.000Z</time>
      </trkpt>
      <trkpt lat="47.26957" lon="-2.26877">
        <ele>33.599998474121</ele>
        <time>2022-06-19T07:52:41.000Z</time>
      </trkpt>
      <trkpt lat="47.26956" lon="-2.2687">
        <ele>33.599998474121</ele>
        <time>2022-06-19T07:52:42.000Z</time>
      </trkpt>
      <trkpt lat="47.26954" lon="-2.26857">
        <ele>33.599998474121</ele>
        <time>2022-06-19T07:52:44.000Z</time>
      </trkpt>
      <trkpt lat="47.26956" lon="-2.26836">
        <ele>33.599998474121</ele>
        <time>2022-06-19T07:52:48.000Z</time>
      </trkpt>
      <trkpt lat="47.26967" lon="-2.26818">
        <ele>33.599998474121</ele>
        <time>2022-06-19T07:52:53.000Z</time>
      </trkpt>
      <trkpt lat="47.26981" lon="-2.26805">
        <ele>33.599998474121</ele>
        <time>2022-06-19T07:52:59.000Z</time>
      </trkpt>
      <trkpt lat="47.26988" lon="-2.26799">
        <ele>33.599998474121</ele>
        <time>2022-06-19T07:53:04.000Z</time>
      </trkpt>
      <trkpt lat="47.2699" lon="-2.26798">
        <ele>33.599998474121</ele>
        <time>2022-06-19T07:53:05.000Z</time>
      </trkpt>
      <trkpt lat="47.27002" lon="-2.26786">
        <ele>33.599998474121</ele>
        <time>2022-06-19T07:53:11.000Z</time>
      </trkpt>
      <trkpt lat="47.2701" lon="-2.26775">
        <ele>33.599998474121</ele>
        <time>2022-06-19T07:53:16.000Z</time>
      </trkpt>
      <trkpt lat="47.27022" lon="-2.26761">
        <ele>33.599998474121</ele>
        <time>2022-06-19T07:53:22.000Z</time>
      </trkpt>
      <trkpt lat="47.27031" lon="-2.26745">
        <ele>33.599998474121</ele>
        <time>2022-06-19T07:53:29.000Z</time>
      </trkpt>
      <trkpt lat="47.27032" lon="-2.26726">
        <ele>33.599998474121</ele>
        <time>2022-06-19T07:53:34.000Z</time>
      </trkpt>
      <trkpt lat="47.27031" lon="-2.26696">
        <ele>33.599998474121</ele>
        <time>2022-06-19T07:53:39.000Z</time>
      </trkpt>
      <trkpt lat="47.2703" lon="-2.26665">
        <ele>33.599998474121</ele>
        <time>2022-06-19T07:53:44.000Z</time>
      </trkpt>
      <trkpt lat="47.27024" lon="-2.26646">
        <ele>33.599998474121</ele>
        <time>2022-06-19T07:53:48.000Z</time>
      </trkpt>
      <trkpt lat="47.27009" lon="-2.26619">
        <ele>33.599998474121</ele>
        <time>2022-06-19T07:53:55.000Z</time>
      </trkpt>
      <trkpt lat="47.26995" lon="-2.26597">
        <ele>33.599998474121</ele>
        <time>2022-06-19T07:54:01.000Z</time>
      </trkpt>
      <trkpt lat="47.26984" lon="-2.26571">
        <ele>33.599998474121</ele>
        <time>2022-06-19T07:54:06.000Z</time>
      </trkpt>
      <trkpt lat="47.26973" lon="-2.26548">
        <ele>34.200000762939</ele>
        <time>2022-06-19T07:54:10.000Z</time>
      </trkpt>
      <trkpt lat="47.2697" lon="-2.26542">
        <ele>34.599998474121</ele>
        <time>2022-06-19T07:54:11.000Z</time>
      </trkpt>
      <trkpt lat="47.26969" lon="-2.26537">
        <ele>35</ele>
        <time>2022-06-19T07:54:12.000Z</time>
      </trkpt>
      <trkpt lat="47.26968" lon="-2.26532">
        <ele>35.400001525879</ele>
        <time>2022-06-19T07:54:13.000Z</time>
      </trkpt>
      <trkpt lat="47.26966" lon="-2.26528">
        <ele>35.799999237061</ele>
        <time>2022-06-19T07:54:14.000Z</time>
      </trkpt>
      <trkpt lat="47.26964" lon="-2.26514">
        <ele>35.799999237061</ele>
        <time>2022-06-19T07:54:18.000Z</time>
      </trkpt>
      <trkpt lat="47.26965" lon="-2.26504">
        <ele>35.799999237061</ele>
        <time>2022-06-19T07:54:23.000Z</time>
      </trkpt>
      <trkpt lat="47.26967" lon="-2.26501">
        <ele>35.799999237061</ele>
        <time>2022-06-19T07:54:24.000Z</time>
      </trkpt>
      <trkpt lat="47.26975" lon="-2.2649">
        <ele>35.799999237061</ele>
        <time>2022-06-19T07:54:27.000Z</time>
      </trkpt>
      <trkpt lat="47.26979" lon="-2.26486">
        <ele>35.799999237061</ele>
        <time>2022-06-19T07:54:28.000Z</time>
      </trkpt>
      <trkpt lat="47.27001" lon="-2.26457">
        <ele>35.799999237061</ele>
        <time>2022-06-19T07:54:35.000Z</time>
      </trkpt>
      <trkpt lat="47.27019" lon="-2.26428">
        <ele>35.799999237061</ele>
        <time>2022-06-19T07:54:41.000Z</time>
      </trkpt>
      <trkpt lat="47.27022" lon="-2.26423">
        <ele>35.799999237061</ele>
        <time>2022-06-19T07:54:42.000Z</time>
      </trkpt>
      <trkpt lat="47.27043" lon="-2.26397">
        <ele>36.200000762939</ele>
        <time>2022-06-19T07:54:47.000Z</time>
      </trkpt>
      <trkpt lat="47.27048" lon="-2.26391">
        <ele>37</ele>
        <time>2022-06-19T07:54:48.000Z</time>
      </trkpt>
      <trkpt lat="47.27052" lon="-2.26385">
        <ele>37.400001525879</ele>
        <time>2022-06-19T07:54:49.000Z</time>
      </trkpt>
      <trkpt lat="47.27056" lon="-2.26379">
        <ele>38</ele>
        <time>2022-06-19T07:54:50.000Z</time>
      </trkpt>
      <trkpt lat="47.27075" lon="-2.26349">
        <ele>38</ele>
        <time>2022-06-19T07:54:55.000Z</time>
      </trkpt>
      <trkpt lat="47.27082" lon="-2.26336">
        <ele>38</ele>
        <time>2022-06-19T07:54:57.000Z</time>
      </trkpt>
      <trkpt lat="47.27099" lon="-2.26313">
        <ele>38</ele>
        <time>2022-06-19T07:55:01.000Z</time>
      </trkpt>
      <trkpt lat="47.27132" lon="-2.26267">
        <ele>38</ele>
        <time>2022-06-19T07:55:09.000Z</time>
      </trkpt>
      <trkpt lat="47.27146" lon="-2.26249">
        <ele>37.599998474121</ele>
        <time>2022-06-19T07:55:12.000Z</time>
      </trkpt>
      <trkpt lat="47.27151" lon="-2.26243">
        <ele>37</ele>
        <time>2022-06-19T07:55:13.000Z</time>
      </trkpt>
      <trkpt lat="47.27156" lon="-2.26237">
        <ele>36.599998474121</ele>
        <time>2022-06-19T07:55:14.000Z</time>
      </trkpt>
      <trkpt lat="47.27162" lon="-2.26231">
        <ele>36.200000762939</ele>
        <time>2022-06-19T07:55:15.000Z</time>
      </trkpt>
      <trkpt lat="47.27167" lon="-2.26225">
        <ele>35.799999237061</ele>
        <time>2022-06-19T07:55:16.000Z</time>
      </trkpt>
      <trkpt lat="47.27215" lon="-2.26182">
        <ele>35.799999237061</ele>
        <time>2022-06-19T07:55:24.000Z</time>
      </trkpt>
      <trkpt lat="47.27243" lon="-2.26166">
        <ele>35.400001525879</ele>
        <time>2022-06-19T07:55:29.000Z</time>
      </trkpt>
      <trkpt lat="47.27249" lon="-2.26162">
        <ele>35</ele>
        <time>2022-06-19T07:55:30.000Z</time>
      </trkpt>
      <trkpt lat="47.27254" lon="-2.26159">
        <ele>34.599998474121</ele>
        <time>2022-06-19T07:55:31.000Z</time>
      </trkpt>
      <trkpt lat="47.27259" lon="-2.26157">
        <ele>34.200000762939</ele>
        <time>2022-06-19T07:55:32.000Z</time>
      </trkpt>
      <trkpt lat="47.27264" lon="-2.26154">
        <ele>33.799999237061</ele>
        <time>2022-06-19T07:55:33.000Z</time>
      </trkpt>
      <trkpt lat="47.2728" lon="-2.26147">
        <ele>33.799999237061</ele>
        <time>2022-06-19T07:55:36.000Z</time>
      </trkpt>
      <trkpt lat="47.27319" lon="-2.26134">
        <ele>33.799999237061</ele>
        <time>2022-06-19T07:55:43.000Z</time>
      </trkpt>
      <trkpt lat="47.27341" lon="-2.26127">
        <ele>33.799999237061</ele>
        <time>2022-06-19T07:55:47.000Z</time>
      </trkpt>
      <trkpt lat="47.27344" lon="-2.2612">
        <ele>33.799999237061</ele>
        <time>2022-06-19T07:55:48.000Z</time>
      </trkpt>
      <trkpt lat="47.27342" lon="-2.26105">
        <ele>33.799999237061</ele>
        <time>2022-06-19T07:55:50.000Z</time>
      </trkpt>
      <trkpt lat="47.27333" lon="-2.26083">
        <ele>33.799999237061</ele>
        <time>2022-06-19T07:55:53.000Z</time>
      </trkpt>
      <trkpt lat="47.27329" lon="-2.26075">
        <ele>33.799999237061</ele>
        <time>2022-06-19T07:55:54.000Z</time>
      </trkpt>
      <trkpt lat="47.27299" lon="-2.26017">
        <ele>33.799999237061</ele>
        <time>2022-06-19T07:56:03.000Z</time>
      </trkpt>
      <trkpt lat="47.27292" lon="-2.26007">
        <ele>33.799999237061</ele>
        <time>2022-06-19T07:56:05.000Z</time>
      </trkpt>
      <trkpt lat="47.2729" lon="-2.25998">
        <ele>33.799999237061</ele>
        <time>2022-06-19T07:56:07.000Z</time>
      </trkpt>
      <trkpt lat="47.27291" lon="-2.25994">
        <ele>33.400001525879</ele>
        <time>2022-06-19T07:56:08.000Z</time>
      </trkpt>
      <trkpt lat="47.27293" lon="-2.25992">
        <ele>33</ele>
        <time>2022-06-19T07:56:09.000Z</time>
      </trkpt>
      <trkpt lat="47.27296" lon="-2.2599">
        <ele>32.599998474121</ele>
        <time>2022-06-19T07:56:10.000Z</time>
      </trkpt>
      <trkpt lat="47.27298" lon="-2.25987">
        <ele>32.200000762939</ele>
        <time>2022-06-19T07:56:11.000Z</time>
      </trkpt>
      <trkpt lat="47.27302" lon="-2.25984">
        <ele>31.799999237061</ele>
        <time>2022-06-19T07:56:12.000Z</time>
      </trkpt>
      <trkpt lat="47.27311" lon="-2.25977">
        <ele>31.799999237061</ele>
        <time>2022-06-19T07:56:15.000Z</time>
      </trkpt>
      <trkpt lat="47.27332" lon="-2.25965">
        <ele>31.799999237061</ele>
        <time>2022-06-19T07:56:21.000Z</time>
      </trkpt>
      <trkpt lat="47.27345" lon="-2.25959">
        <ele>31.799999237061</ele>
        <time>2022-06-19T07:56:24.000Z</time>
      </trkpt>
      <trkpt lat="47.27354" lon="-2.25953">
        <ele>31.799999237061</ele>
        <time>2022-06-19T07:56:26.000Z</time>
      </trkpt>
      <trkpt lat="47.27364" lon="-2.25943">
        <ele>31.799999237061</ele>
        <time>2022-06-19T07:56:28.000Z</time>
      </trkpt>
      <trkpt lat="47.2737" lon="-2.25931">
        <ele>31.799999237061</ele>
        <time>2022-06-19T07:56:30.000Z</time>
      </trkpt>
      <trkpt lat="47.27379" lon="-2.25921">
        <ele>31.799999237061</ele>
        <time>2022-06-19T07:56:32.000Z</time>
      </trkpt>
      <trkpt lat="47.27396" lon="-2.25901">
        <ele>31.799999237061</ele>
        <time>2022-06-19T07:56:36.000Z</time>
      </trkpt>
      <trkpt lat="47.27399" lon="-2.25894">
        <ele>31.799999237061</ele>
        <time>2022-06-19T07:56:37.000Z</time>
      </trkpt>
      <trkpt lat="47.27413" lon="-2.25868">
        <ele>31.799999237061</ele>
        <time>2022-06-19T07:56:41.000Z</time>
      </trkpt>
      <trkpt lat="47.27437" lon="-2.25825">
        <ele>31.799999237061</ele>
        <time>2022-06-19T07:56:48.000Z</time>
      </trkpt>
      <trkpt lat="47.27444" lon="-2.25813">
        <ele>31.799999237061</ele>
        <time>2022-06-19T07:56:50.000Z</time>
      </trkpt>
      <trkpt lat="47.27457" lon="-2.25804">
        <ele>31.799999237061</ele>
        <time>2022-06-19T07:56:53.000Z</time>
      </trkpt>
      <trkpt lat="47.27475" lon="-2.25789">
        <ele>31.799999237061</ele>
        <time>2022-06-19T07:56:58.000Z</time>
      </trkpt>
      <trkpt lat="47.27495" lon="-2.25762">
        <ele>31.799999237061</ele>
        <time>2022-06-19T07:57:04.000Z</time>
      </trkpt>
      <trkpt lat="47.27522" lon="-2.25722">
        <ele>31.799999237061</ele>
        <time>2022-06-19T07:57:11.000Z</time>
      </trkpt>
      <trkpt lat="47.27525" lon="-2.25716">
        <ele>31.39999961853</ele>
        <time>2022-06-19T07:57:12.000Z</time>
      </trkpt>
      <trkpt lat="47.27529" lon="-2.25709">
        <ele>31</ele>
        <time>2022-06-19T07:57:13.000Z</time>
      </trkpt>
      <trkpt lat="47.27533" lon="-2.25701">
        <ele>30.60000038147</ele>
        <time>2022-06-19T07:57:14.000Z</time>
      </trkpt>
      <trkpt lat="47.27537" lon="-2.25695">
        <ele>30.200000762939</ele>
        <time>2022-06-19T07:57:15.000Z</time>
      </trkpt>
      <trkpt lat="47.27541" lon="-2.25688">
        <ele>29.799999237061</ele>
        <time>2022-06-19T07:57:16.000Z</time>
      </trkpt>
      <trkpt lat="47.27544" lon="-2.25682">
        <ele>29.799999237061</ele>
        <time>2022-06-19T07:57:17.000Z</time>
      </trkpt>
      <trkpt lat="47.27547" lon="-2.25678">
        <ele>29.799999237061</ele>
        <time>2022-06-19T07:57:18.000Z</time>
      </trkpt>
      <trkpt lat="47.27557" lon="-2.25662">
        <ele>29.799999237061</ele>
        <time>2022-06-19T07:57:22.000Z</time>
      </trkpt>
      <trkpt lat="47.27556" lon="-2.25659">
        <ele>29.799999237061</ele>
        <time>2022-06-19T07:57:23.000Z</time>
      </trkpt>
      <trkpt lat="47.27556" lon="-2.25651">
        <ele>29.799999237061</ele>
        <time>2022-06-19T07:57:26.000Z</time>
      </trkpt>
      <trkpt lat="47.27557" lon="-2.25648">
        <ele>29.799999237061</ele>
        <time>2022-06-19T07:57:27.000Z</time>
      </trkpt>
      <trkpt lat="47.27558" lon="-2.25641">
        <ele>29.799999237061</ele>
        <time>2022-06-19T07:57:32.000Z</time>
      </trkpt>
      <trkpt lat="47.27557" lon="-2.25631">
        <ele>29.200000762939</ele>
        <time>2022-06-19T07:57:35.000Z</time>
      </trkpt>
      <trkpt lat="47.27557" lon="-2.25627">
        <ele>28.799999237061</ele>
        <time>2022-06-19T07:57:36.000Z</time>
      </trkpt>
      <trkpt lat="47.27557" lon="-2.25622">
        <ele>28.39999961853</ele>
        <time>2022-06-19T07:57:37.000Z</time>
      </trkpt>
      <trkpt lat="47.27556" lon="-2.25617">
        <ele>28</ele>
        <time>2022-06-19T07:57:38.000Z</time>
      </trkpt>
      <trkpt lat="47.27556" lon="-2.2561">
        <ele>27.60000038147</ele>
        <time>2022-06-19T07:57:39.000Z</time>
      </trkpt>
      <trkpt lat="47.27555" lon="-2.25589">
        <ele>27.60000038147</ele>
        <time>2022-06-19T07:57:42.000Z</time>
      </trkpt>
      <trkpt lat="47.27554" lon="-2.25581">
        <ele>27.60000038147</ele>
        <time>2022-06-19T07:57:43.000Z</time>
      </trkpt>
      <trkpt lat="47.27547" lon="-2.2555">
        <ele>27.60000038147</ele>
        <time>2022-06-19T07:57:47.000Z</time>
      </trkpt>
      <trkpt lat="47.27536" lon="-2.25516">
        <ele>27.60000038147</ele>
        <time>2022-06-19T07:57:52.000Z</time>
      </trkpt>
      <trkpt lat="47.27531" lon="-2.25503">
        <ele>27.200000762939</ele>
        <time>2022-06-19T07:57:54.000Z</time>
      </trkpt>
      <trkpt lat="47.27527" lon="-2.25496">
        <ele>26.799999237061</ele>
        <time>2022-06-19T07:57:55.000Z</time>
      </trkpt>
      <trkpt lat="47.27523" lon="-2.2549">
        <ele>26.39999961853</ele>
        <time>2022-06-19T07:57:56.000Z</time>
      </trkpt>
      <trkpt lat="47.27519" lon="-2.25484">
        <ele>26</ele>
        <time>2022-06-19T07:57:57.000Z</time>
      </trkpt>
      <trkpt lat="47.27515" lon="-2.2548">
        <ele>25.60000038147</ele>
        <time>2022-06-19T07:57:58.000Z</time>
      </trkpt>
      <trkpt lat="47.27491" lon="-2.25457">
        <ele>25.60000038147</ele>
        <time>2022-06-19T07:58:03.000Z</time>
      </trkpt>
      <trkpt lat="47.27486" lon="-2.25458">
        <ele>25.60000038147</ele>
        <time>2022-06-19T07:58:04.000Z</time>
      </trkpt>
      <trkpt lat="47.27467" lon="-2.25459">
        <ele>25.60000038147</ele>
        <time>2022-06-19T07:58:08.000Z</time>
      </trkpt>
      <trkpt lat="47.27461" lon="-2.25458">
        <ele>25.60000038147</ele>
        <time>2022-06-19T07:58:09.000Z</time>
      </trkpt>
      <trkpt lat="47.27441" lon="-2.25446">
        <ele>25.60000038147</ele>
        <time>2022-06-19T07:58:13.000Z</time>
      </trkpt>
      <trkpt lat="47.27429" lon="-2.25431">
        <ele>25.60000038147</ele>
        <time>2022-06-19T07:58:16.000Z</time>
      </trkpt>
      <trkpt lat="47.27424" lon="-2.25427">
        <ele>25.60000038147</ele>
        <time>2022-06-19T07:58:17.000Z</time>
      </trkpt>
      <trkpt lat="47.2742" lon="-2.25421">
        <ele>25.60000038147</ele>
        <time>2022-06-19T07:58:18.000Z</time>
      </trkpt>
      <trkpt lat="47.27409" lon="-2.25403">
        <ele>25.60000038147</ele>
        <time>2022-06-19T07:58:22.000Z</time>
      </trkpt>
      <trkpt lat="47.27401" lon="-2.25386">
        <ele>25.60000038147</ele>
        <time>2022-06-19T07:58:27.000Z</time>
      </trkpt>
      <trkpt lat="47.27399" lon="-2.2536">
        <ele>25.60000038147</ele>
        <time>2022-06-19T07:58:32.000Z</time>
      </trkpt>
      <trkpt lat="47.27396" lon="-2.25321">
        <ele>25.60000038147</ele>
        <time>2022-06-19T07:58:38.000Z</time>
      </trkpt>
      <trkpt lat="47.27396" lon="-2.25311">
        <ele>25.60000038147</ele>
        <time>2022-06-19T07:58:40.000Z</time>
      </trkpt>
      <trkpt lat="47.27398" lon="-2.25299">
        <ele>25.60000038147</ele>
        <time>2022-06-19T07:58:42.000Z</time>
      </trkpt>
      <trkpt lat="47.27394" lon="-2.25268">
        <ele>25.60000038147</ele>
        <time>2022-06-19T07:58:47.000Z</time>
      </trkpt>
      <trkpt lat="47.27385" lon="-2.25232">
        <ele>25.60000038147</ele>
        <time>2022-06-19T07:58:52.000Z</time>
      </trkpt>
      <trkpt lat="47.27384" lon="-2.25224">
        <ele>25.60000038147</ele>
        <time>2022-06-19T07:58:53.000Z</time>
      </trkpt>
      <trkpt lat="47.27384" lon="-2.25204">
        <ele>25.60000038147</ele>
        <time>2022-06-19T07:58:56.000Z</time>
      </trkpt>
      <trkpt lat="47.2738" lon="-2.25183">
        <ele>25.60000038147</ele>
        <time>2022-06-19T07:58:59.000Z</time>
      </trkpt>
      <trkpt lat="47.27378" lon="-2.25175">
        <ele>25.60000038147</ele>
        <time>2022-06-19T07:59:00.000Z</time>
      </trkpt>
      <trkpt lat="47.27362" lon="-2.25123">
        <ele>25.60000038147</ele>
        <time>2022-06-19T07:59:08.000Z</time>
      </trkpt>
      <trkpt lat="47.27352" lon="-2.25097">
        <ele>25.60000038147</ele>
        <time>2022-06-19T07:59:13.000Z</time>
      </trkpt>
      <trkpt lat="47.27344" lon="-2.25073">
        <ele>25.60000038147</ele>
        <time>2022-06-19T07:59:18.000Z</time>
      </trkpt>
      <trkpt lat="47.27336" lon="-2.25037">
        <ele>25.60000038147</ele>
        <time>2022-06-19T07:59:25.000Z</time>
      </trkpt>
      <trkpt lat="47.27329" lon="-2.24996">
        <ele>25.60000038147</ele>
        <time>2022-06-19T07:59:33.000Z</time>
      </trkpt>
      <trkpt lat="47.27335" lon="-2.24977">
        <ele>25.60000038147</ele>
        <time>2022-06-19T07:59:38.000Z</time>
      </trkpt>
      <trkpt lat="47.27349" lon="-2.24958">
        <ele>25.60000038147</ele>
        <time>2022-06-19T07:59:44.000Z</time>
      </trkpt>
      <trkpt lat="47.27368" lon="-2.24933">
        <ele>25.60000038147</ele>
        <time>2022-06-19T07:59:50.000Z</time>
      </trkpt>
      <trkpt lat="47.27387" lon="-2.24904">
        <ele>25.60000038147</ele>
        <time>2022-06-19T07:59:56.000Z</time>
      </trkpt>
      <trkpt lat="47.27397" lon="-2.24889">
        <ele>25.60000038147</ele>
        <time>2022-06-19T07:59:59.000Z</time>
      </trkpt>
      <trkpt lat="47.274" lon="-2.24881">
        <ele>25.60000038147</ele>
        <time>2022-06-19T08:00:01.000Z</time>
      </trkpt>
      <trkpt lat="47.27424" lon="-2.24821">
        <ele>25.60000038147</ele>
        <time>2022-06-19T08:00:11.000Z</time>
      </trkpt>
      <trkpt lat="47.27435" lon="-2.24779">
        <ele>25.60000038147</ele>
        <time>2022-06-19T08:00:17.000Z</time>
      </trkpt>
      <trkpt lat="47.27435" lon="-2.24771">
        <ele>25.60000038147</ele>
        <time>2022-06-19T08:00:18.000Z</time>
      </trkpt>
      <trkpt lat="47.27435" lon="-2.24719">
        <ele>25.60000038147</ele>
        <time>2022-06-19T08:00:25.000Z</time>
      </trkpt>
      <trkpt lat="47.27435" lon="-2.24673">
        <ele>25.60000038147</ele>
        <time>2022-06-19T08:00:32.000Z</time>
      </trkpt>
      <trkpt lat="47.27435" lon="-2.24659">
        <ele>25.60000038147</ele>
        <time>2022-06-19T08:00:34.000Z</time>
      </trkpt>
      <trkpt lat="47.27429" lon="-2.24623">
        <ele>25.60000038147</ele>
        <time>2022-06-19T08:00:39.000Z</time>
      </trkpt>
      <trkpt lat="47.27433" lon="-2.2458">
        <ele>25.60000038147</ele>
        <time>2022-06-19T08:00:45.000Z</time>
      </trkpt>
      <trkpt lat="47.27436" lon="-2.24533">
        <ele>25.60000038147</ele>
        <time>2022-06-19T08:00:51.000Z</time>
      </trkpt>
      <trkpt lat="47.27439" lon="-2.24479">
        <ele>25.60000038147</ele>
        <time>2022-06-19T08:00:58.000Z</time>
      </trkpt>
      <trkpt lat="47.27439" lon="-2.24458">
        <ele>25.60000038147</ele>
        <time>2022-06-19T08:01:01.000Z</time>
      </trkpt>
      <trkpt lat="47.27441" lon="-2.24429">
        <ele>25.60000038147</ele>
        <time>2022-06-19T08:01:05.000Z</time>
      </trkpt>
      <trkpt lat="47.27441" lon="-2.24388">
        <ele>25.60000038147</ele>
        <time>2022-06-19T08:01:12.000Z</time>
      </trkpt>
      <trkpt lat="47.27442" lon="-2.24353">
        <ele>25.60000038147</ele>
        <time>2022-06-19T08:01:18.000Z</time>
      </trkpt>
      <trkpt lat="47.27442" lon="-2.24347">
        <ele>25.60000038147</ele>
        <time>2022-06-19T08:01:19.000Z</time>
      </trkpt>
      <trkpt lat="47.27448" lon="-2.24325">
        <ele>25.60000038147</ele>
        <time>2022-06-19T08:01:23.000Z</time>
      </trkpt>
      <trkpt lat="47.27451" lon="-2.24322">
        <ele>25.60000038147</ele>
        <time>2022-06-19T08:01:24.000Z</time>
      </trkpt>
      <trkpt lat="47.27464" lon="-2.24314">
        <ele>25.60000038147</ele>
        <time>2022-06-19T08:01:28.000Z</time>
      </trkpt>
      <trkpt lat="47.27468" lon="-2.24311">
        <ele>25.60000038147</ele>
        <time>2022-06-19T08:01:29.000Z</time>
      </trkpt>
      <trkpt lat="47.27473" lon="-2.24301">
        <ele>25.60000038147</ele>
        <time>2022-06-19T08:01:31.000Z</time>
      </trkpt>
      <trkpt lat="47.27474" lon="-2.24281">
        <ele>25.60000038147</ele>
        <time>2022-06-19T08:01:34.000Z</time>
      </trkpt>
      <trkpt lat="47.27475" lon="-2.24273">
        <ele>25.60000038147</ele>
        <time>2022-06-19T08:01:35.000Z</time>
      </trkpt>
      <trkpt lat="47.27476" lon="-2.24258">
        <ele>25.60000038147</ele>
        <time>2022-06-19T08:01:37.000Z</time>
      </trkpt>
      <trkpt lat="47.27473" lon="-2.24238">
        <ele>25.60000038147</ele>
        <time>2022-06-19T08:01:40.000Z</time>
      </trkpt>
      <trkpt lat="47.2747" lon="-2.24233">
        <ele>25.60000038147</ele>
        <time>2022-06-19T08:01:41.000Z</time>
      </trkpt>
      <trkpt lat="47.27458" lon="-2.24201">
        <ele>25.60000038147</ele>
        <time>2022-06-19T08:01:46.000Z</time>
      </trkpt>
      <trkpt lat="47.27446" lon="-2.24156">
        <ele>25.60000038147</ele>
        <time>2022-06-19T08:01:52.000Z</time>
      </trkpt>
      <trkpt lat="47.27441" lon="-2.24142">
        <ele>25.60000038147</ele>
        <time>2022-06-19T08:01:54.000Z</time>
      </trkpt>
      <trkpt lat="47.2743" lon="-2.24113">
        <ele>25.60000038147</ele>
        <time>2022-06-19T08:01:58.000Z</time>
      </trkpt>
      <trkpt lat="47.27416" lon="-2.24102">
        <ele>25.60000038147</ele>
        <time>2022-06-19T08:02:01.000Z</time>
      </trkpt>
      <trkpt lat="47.2741" lon="-2.241">
        <ele>25.60000038147</ele>
        <time>2022-06-19T08:02:02.000Z</time>
      </trkpt>
      <trkpt lat="47.274" lon="-2.24094">
        <ele>25.60000038147</ele>
        <time>2022-06-19T08:02:04.000Z</time>
      </trkpt>
      <trkpt lat="47.2739" lon="-2.24083">
        <ele>25.60000038147</ele>
        <time>2022-06-19T08:02:06.000Z</time>
      </trkpt>
      <trkpt lat="47.27376" lon="-2.24064">
        <ele>25.60000038147</ele>
        <time>2022-06-19T08:02:09.000Z</time>
      </trkpt>
      <trkpt lat="47.27365" lon="-2.24056">
        <ele>25.60000038147</ele>
        <time>2022-06-19T08:02:11.000Z</time>
      </trkpt>
      <trkpt lat="47.27353" lon="-2.24053">
        <ele>25.60000038147</ele>
        <time>2022-06-19T08:02:13.000Z</time>
      </trkpt>
      <trkpt lat="47.27338" lon="-2.24052">
        <ele>25.60000038147</ele>
        <time>2022-06-19T08:02:16.000Z</time>
      </trkpt>
      <trkpt lat="47.27326" lon="-2.24053">
        <ele>25.60000038147</ele>
        <time>2022-06-19T08:02:18.000Z</time>
      </trkpt>
      <trkpt lat="47.27321" lon="-2.24056">
        <ele>25.60000038147</ele>
        <time>2022-06-19T08:02:19.000Z</time>
      </trkpt>
      <trkpt lat="47.27314" lon="-2.24076">
        <ele>25.60000038147</ele>
        <time>2022-06-19T08:02:22.000Z</time>
      </trkpt>
      <trkpt lat="47.27314" lon="-2.24083">
        <ele>25.60000038147</ele>
        <time>2022-06-19T08:02:23.000Z</time>
      </trkpt>
      <trkpt lat="47.27314" lon="-2.24121">
        <ele>25.60000038147</ele>
        <time>2022-06-19T08:02:28.000Z</time>
      </trkpt>
      <trkpt lat="47.27315" lon="-2.24167">
        <ele>25.60000038147</ele>
        <time>2022-06-19T08:02:34.000Z</time>
      </trkpt>
      <trkpt lat="47.27314" lon="-2.24191">
        <ele>25.60000038147</ele>
        <time>2022-06-19T08:02:37.000Z</time>
      </trkpt>
      <trkpt lat="47.2731" lon="-2.24213">
        <ele>25.60000038147</ele>
        <time>2022-06-19T08:02:40.000Z</time>
      </trkpt>
      <trkpt lat="47.27301" lon="-2.24258">
        <ele>25.60000038147</ele>
        <time>2022-06-19T08:02:47.000Z</time>
      </trkpt>
      <trkpt lat="47.27299" lon="-2.24272">
        <ele>25.60000038147</ele>
        <time>2022-06-19T08:02:49.000Z</time>
      </trkpt>
      <trkpt lat="47.27298" lon="-2.2429">
        <ele>25.60000038147</ele>
        <time>2022-06-19T08:02:52.000Z</time>
      </trkpt>
      <trkpt lat="47.273" lon="-2.24294">
        <ele>25.60000038147</ele>
        <time>2022-06-19T08:02:53.000Z</time>
      </trkpt>
      <trkpt lat="47.27313" lon="-2.24318">
        <ele>25.60000038147</ele>
        <time>2022-06-19T08:02:58.000Z</time>
      </trkpt>
      <trkpt lat="47.27321" lon="-2.24338">
        <ele>25.60000038147</ele>
        <time>2022-06-19T08:03:02.000Z</time>
      </trkpt>
      <trkpt lat="47.27329" lon="-2.24357">
        <ele>25.60000038147</ele>
        <time>2022-06-19T08:03:08.000Z</time>
      </trkpt>
      <trkpt lat="47.2734" lon="-2.24381">
        <ele>25.60000038147</ele>
        <time>2022-06-19T08:03:13.000Z</time>
      </trkpt>
      <trkpt lat="47.27357" lon="-2.24423">
        <ele>25.60000038147</ele>
        <time>2022-06-19T08:03:20.000Z</time>
      </trkpt>
      <trkpt lat="47.27362" lon="-2.24435">
        <ele>25.60000038147</ele>
        <time>2022-06-19T08:03:22.000Z</time>
      </trkpt>
      <trkpt lat="47.2737" lon="-2.2444">
        <ele>25.60000038147</ele>
        <time>2022-06-19T08:03:24.000Z</time>
      </trkpt>
      <trkpt lat="47.27381" lon="-2.2443">
        <ele>25.60000038147</ele>
        <time>2022-06-19T08:03:27.000Z</time>
      </trkpt>
      <trkpt lat="47.27416" lon="-2.24395">
        <ele>25.60000038147</ele>
        <time>2022-06-19T08:03:35.000Z</time>
      </trkpt>
      <trkpt lat="47.27424" lon="-2.24389">
        <ele>25.60000038147</ele>
        <time>2022-06-19T08:03:37.000Z</time>
      </trkpt>
      <trkpt lat="47.27433" lon="-2.2439">
        <ele>25.60000038147</ele>
        <time>2022-06-19T08:03:39.000Z</time>
      </trkpt>
      <trkpt lat="47.2744" lon="-2.24403">
        <ele>25.60000038147</ele>
        <time>2022-06-19T08:03:42.000Z</time>
      </trkpt>
      <trkpt lat="47.2744" lon="-2.24408">
        <ele>25.60000038147</ele>
        <time>2022-06-19T08:03:43.000Z</time>
      </trkpt>
      <trkpt lat="47.2744" lon="-2.24446">
        <ele>25.60000038147</ele>
        <time>2022-06-19T08:03:49.000Z</time>
      </trkpt>
      <trkpt lat="47.27439" lon="-2.2446">
        <ele>25.60000038147</ele>
        <time>2022-06-19T08:03:51.000Z</time>
      </trkpt>
      <trkpt lat="47.27439" lon="-2.24492">
        <ele>25.60000038147</ele>
        <time>2022-06-19T08:03:55.000Z</time>
      </trkpt>
      <trkpt lat="47.27439" lon="-2.24528">
        <ele>25.60000038147</ele>
        <time>2022-06-19T08:04:00.000Z</time>
      </trkpt>
      <trkpt lat="47.27439" lon="-2.24535">
        <ele>26</ele>
        <time>2022-06-19T08:04:01.000Z</time>
      </trkpt>
      <trkpt lat="47.27439" lon="-2.24543">
        <ele>26.39999961853</ele>
        <time>2022-06-19T08:04:02.000Z</time>
      </trkpt>
      <trkpt lat="47.27439" lon="-2.2455">
        <ele>26.799999237061</ele>
        <time>2022-06-19T08:04:03.000Z</time>
      </trkpt>
      <trkpt lat="47.27438" lon="-2.24558">
        <ele>27.200000762939</ele>
        <time>2022-06-19T08:04:04.000Z</time>
      </trkpt>
      <trkpt lat="47.27438" lon="-2.24565">
        <ele>27.60000038147</ele>
        <time>2022-06-19T08:04:05.000Z</time>
      </trkpt>
      <trkpt lat="47.27437" lon="-2.24573">
        <ele>27.60000038147</ele>
        <time>2022-06-19T08:04:06.000Z</time>
      </trkpt>
      <trkpt lat="47.27435" lon="-2.2459">
        <ele>27.60000038147</ele>
        <time>2022-06-19T08:04:08.000Z</time>
      </trkpt>
      <trkpt lat="47.27433" lon="-2.24605">
        <ele>27.60000038147</ele>
        <time>2022-06-19T08:04:10.000Z</time>
      </trkpt>
      <trkpt lat="47.27432" lon="-2.24612">
        <ele>27.60000038147</ele>
        <time>2022-06-19T08:04:11.000Z</time>
      </trkpt>
      <trkpt lat="47.27432" lon="-2.24619">
        <ele>27.60000038147</ele>
        <time>2022-06-19T08:04:12.000Z</time>
      </trkpt>
      <trkpt lat="47.27433" lon="-2.2465">
        <ele>27.60000038147</ele>
        <time>2022-06-19T08:04:16.000Z</time>
      </trkpt>
      <trkpt lat="47.27435" lon="-2.24698">
        <ele>27.60000038147</ele>
        <time>2022-06-19T08:04:22.000Z</time>
      </trkpt>
      <trkpt lat="47.27436" lon="-2.24745">
        <ele>27.60000038147</ele>
        <time>2022-06-19T08:04:27.000Z</time>
      </trkpt>
      <trkpt lat="47.27439" lon="-2.24755">
        <ele>27.60000038147</ele>
        <time>2022-06-19T08:04:30.000Z</time>
      </trkpt>
      <trkpt lat="47.27448" lon="-2.24759">
        <ele>27.60000038147</ele>
        <time>2022-06-19T08:04:34.000Z</time>
      </trkpt>
      <trkpt lat="47.27455" lon="-2.24767">
        <ele>27.60000038147</ele>
        <time>2022-06-19T08:04:36.000Z</time>
      </trkpt>
      <trkpt lat="47.27465" lon="-2.24777">
        <ele>28.60000038147</ele>
        <time>2022-06-19T08:04:40.000Z</time>
      </trkpt>
      <trkpt lat="47.27468" lon="-2.24779">
        <ele>29</ele>
        <time>2022-06-19T08:04:41.000Z</time>
      </trkpt>
      <trkpt lat="47.27471" lon="-2.2478">
        <ele>29.39999961853</ele>
        <time>2022-06-19T08:04:42.000Z</time>
      </trkpt>
      <trkpt lat="47.27475" lon="-2.24781">
        <ele>29.799999237061</ele>
        <time>2022-06-19T08:04:43.000Z</time>
      </trkpt>
      <trkpt lat="47.27481" lon="-2.24783">
        <ele>29.799999237061</ele>
        <time>2022-06-19T08:04:45.000Z</time>
      </trkpt>
      <trkpt lat="47.27484" lon="-2.24784">
        <ele>30.200000762939</ele>
        <time>2022-06-19T08:04:46.000Z</time>
      </trkpt>
      <trkpt lat="47.27487" lon="-2.24784">
        <ele>30.60000038147</ele>
        <time>2022-06-19T08:04:47.000Z</time>
      </trkpt>
      <trkpt lat="47.27489" lon="-2.24784">
        <ele>31</ele>
        <time>2022-06-19T08:04:48.000Z</time>
      </trkpt>
      <trkpt lat="47.27492" lon="-2.24784">
        <ele>31.39999961853</ele>
        <time>2022-06-19T08:04:49.000Z</time>
      </trkpt>
      <trkpt lat="47.27495" lon="-2.24784">
        <ele>31.799999237061</ele>
        <time>2022-06-19T08:04:50.000Z</time>
      </trkpt>
      <trkpt lat="47.27501" lon="-2.24785">
        <ele>31.799999237061</ele>
        <time>2022-06-19T08:04:52.000Z</time>
      </trkpt>
      <trkpt lat="47.27526" lon="-2.24786">
        <ele>31.799999237061</ele>
        <time>2022-06-19T08:04:59.000Z</time>
      </trkpt>
      <trkpt lat="47.27555" lon="-2.24787">
        <ele>32.599998474121</ele>
        <time>2022-06-19T08:05:05.000Z</time>
      </trkpt>
      <trkpt lat="47.2756" lon="-2.24788">
        <ele>33</ele>
        <time>2022-06-19T08:05:06.000Z</time>
      </trkpt>
      <trkpt lat="47.27565" lon="-2.24788">
        <ele>33.599998474121</ele>
        <time>2022-06-19T08:05:07.000Z</time>
      </trkpt>
      <trkpt lat="47.27569" lon="-2.24789">
        <ele>34</ele>
        <time>2022-06-19T08:05:08.000Z</time>
      </trkpt>
      <trkpt lat="47.27582" lon="-2.2479">
        <ele>34</ele>
        <time>2022-06-19T08:05:11.000Z</time>
      </trkpt>
      <trkpt lat="47.27591" lon="-2.24792">
        <ele>34</ele>
        <time>2022-06-19T08:05:13.000Z</time>
      </trkpt>
      <trkpt lat="47.27611" lon="-2.24791">
        <ele>34</ele>
        <time>2022-06-19T08:05:17.000Z</time>
      </trkpt>
      <trkpt lat="47.27621" lon="-2.2479">
        <ele>34</ele>
        <time>2022-06-19T08:05:19.000Z</time>
      </trkpt>
      <trkpt lat="47.27637" lon="-2.24794">
        <ele>34</ele>
        <time>2022-06-19T08:05:22.000Z</time>
      </trkpt>
      <trkpt lat="47.27665" lon="-2.24804">
        <ele>34</ele>
        <time>2022-06-19T08:05:26.000Z</time>
      </trkpt>
      <trkpt lat="47.27679" lon="-2.24804">
        <ele>34</ele>
        <time>2022-06-19T08:05:28.000Z</time>
      </trkpt>
      <trkpt lat="47.27704" lon="-2.24804">
        <ele>34</ele>
        <time>2022-06-19T08:05:32.000Z</time>
      </trkpt>
      <trkpt lat="47.27738" lon="-2.24802">
        <ele>34</ele>
        <time>2022-06-19T08:05:38.000Z</time>
      </trkpt>
      <trkpt lat="47.27743" lon="-2.24802">
        <ele>34</ele>
        <time>2022-06-19T08:05:39.000Z</time>
      </trkpt>
      <trkpt lat="47.27765" lon="-2.24803">
        <ele>34</ele>
        <time>2022-06-19T08:05:43.000Z</time>
      </trkpt>
      <trkpt lat="47.27801" lon="-2.24801">
        <ele>34</ele>
        <time>2022-06-19T08:05:50.000Z</time>
      </trkpt>
      <trkpt lat="47.27838" lon="-2.24797">
        <ele>34</ele>
        <time>2022-06-19T08:05:57.000Z</time>
      </trkpt>
      <trkpt lat="47.27843" lon="-2.24795">
        <ele>34</ele>
        <time>2022-06-19T08:05:58.000Z</time>
      </trkpt>
      <trkpt lat="47.27854" lon="-2.24787">
        <ele>34</ele>
        <time>2022-06-19T08:06:01.000Z</time>
      </trkpt>
      <trkpt lat="47.27857" lon="-2.24785">
        <ele>34</ele>
        <time>2022-06-19T08:06:02.000Z</time>
      </trkpt>
      <trkpt lat="47.27869" lon="-2.24782">
        <ele>34</ele>
        <time>2022-06-19T08:06:06.000Z</time>
      </trkpt>
      <trkpt lat="47.27881" lon="-2.24783">
        <ele>34</ele>
        <time>2022-06-19T08:06:11.000Z</time>
      </trkpt>
      <trkpt lat="47.27883" lon="-2.24782">
        <ele>34.400001525879</ele>
        <time>2022-06-19T08:06:13.000Z</time>
      </trkpt>
      <trkpt lat="47.27883" lon="-2.24782">
        <ele>34.799999237061</ele>
        <time>2022-06-19T08:06:14.000Z</time>
      </trkpt>
      <trkpt lat="47.27885" lon="-2.24782">
        <ele>35.400001525879</ele>
        <time>2022-06-19T08:06:15.000Z</time>
      </trkpt>
      <trkpt lat="47.27887" lon="-2.24782">
        <ele>35.799999237061</ele>
        <time>2022-06-19T08:06:16.000Z</time>
      </trkpt>
      <trkpt lat="47.2789" lon="-2.24782">
        <ele>36.200000762939</ele>
        <time>2022-06-19T08:06:17.000Z</time>
      </trkpt>
      <trkpt lat="47.27895" lon="-2.24783">
        <ele>36.200000762939</ele>
        <time>2022-06-19T08:06:21.000Z</time>
      </trkpt>
      <trkpt lat="47.27895" lon="-2.24783">
        <ele>36.200000762939</ele>
        <time>2022-06-19T08:06:22.000Z</time>
      </trkpt>
      <trkpt lat="47.27895" lon="-2.24786">
        <ele>36.200000762939</ele>
        <time>2022-06-19T08:07:12.000Z</time>
      </trkpt>
      <trkpt lat="47.27895" lon="-2.24791">
        <ele>36.200000762939</ele>
        <time>2022-06-19T08:07:14.000Z</time>
      </trkpt>
      <trkpt lat="47.27905" lon="-2.24801">
        <ele>36.200000762939</ele>
        <time>2022-06-19T08:07:18.000Z</time>
      </trkpt>
      <trkpt lat="47.27917" lon="-2.24807">
        <ele>36.200000762939</ele>
        <time>2022-06-19T08:07:21.000Z</time>
      </trkpt>
      <trkpt lat="47.2793" lon="-2.24812">
        <ele>36.200000762939</ele>
        <time>2022-06-19T08:07:24.000Z</time>
      </trkpt>
      <trkpt lat="47.27934" lon="-2.24813">
        <ele>36.200000762939</ele>
        <time>2022-06-19T08:07:25.000Z</time>
      </trkpt>
      <trkpt lat="47.27938" lon="-2.24814">
        <ele>36.200000762939</ele>
        <time>2022-06-19T08:07:26.000Z</time>
      </trkpt>
      <trkpt lat="47.27946" lon="-2.24819">
        <ele>36.200000762939</ele>
        <time>2022-06-19T08:07:28.000Z</time>
      </trkpt>
      <trkpt lat="47.27955" lon="-2.2482">
        <ele>36.200000762939</ele>
        <time>2022-06-19T08:07:30.000Z</time>
      </trkpt>
      <trkpt lat="47.2796" lon="-2.24821">
        <ele>36.200000762939</ele>
        <time>2022-06-19T08:07:31.000Z</time>
      </trkpt>
      <trkpt lat="47.27964" lon="-2.24822">
        <ele>36.200000762939</ele>
        <time>2022-06-19T08:07:32.000Z</time>
      </trkpt>
      <trkpt lat="47.27982" lon="-2.24828">
        <ele>36.200000762939</ele>
        <time>2022-06-19T08:07:36.000Z</time>
      </trkpt>
      <trkpt lat="47.27987" lon="-2.24829">
        <ele>36.200000762939</ele>
        <time>2022-06-19T08:07:37.000Z</time>
      </trkpt>
      <trkpt lat="47.28016" lon="-2.24835">
        <ele>36.200000762939</ele>
        <time>2022-06-19T08:07:43.000Z</time>
      </trkpt>
      <trkpt lat="47.28021" lon="-2.24836">
        <ele>36.200000762939</ele>
        <time>2022-06-19T08:07:44.000Z</time>
      </trkpt>
      <trkpt lat="47.28037" lon="-2.2484">
        <ele>36.200000762939</ele>
        <time>2022-06-19T08:07:47.000Z</time>
      </trkpt>
      <trkpt lat="47.28042" lon="-2.24841">
        <ele>36.200000762939</ele>
        <time>2022-06-19T08:07:48.000Z</time>
      </trkpt>
      <trkpt lat="47.28047" lon="-2.24842">
        <ele>36.200000762939</ele>
        <time>2022-06-19T08:07:49.000Z</time>
      </trkpt>
      <trkpt lat="47.28062" lon="-2.24846">
        <ele>36.200000762939</ele>
        <time>2022-06-19T08:07:52.000Z</time>
      </trkpt>
      <trkpt lat="47.28066" lon="-2.24847">
        <ele>36.200000762939</ele>
        <time>2022-06-19T08:07:53.000Z</time>
      </trkpt>
      <trkpt lat="47.28086" lon="-2.24846">
        <ele>36.200000762939</ele>
        <time>2022-06-19T08:07:57.000Z</time>
      </trkpt>
      <trkpt lat="47.28096" lon="-2.24848">
        <ele>36.200000762939</ele>
        <time>2022-06-19T08:07:59.000Z</time>
      </trkpt>
      <trkpt lat="47.28114" lon="-2.24854">
        <ele>36.200000762939</ele>
        <time>2022-06-19T08:08:02.000Z</time>
      </trkpt>
      <trkpt lat="47.28121" lon="-2.24855">
        <ele>36.200000762939</ele>
        <time>2022-06-19T08:08:03.000Z</time>
      </trkpt>
      <trkpt lat="47.2814" lon="-2.24857">
        <ele>36.200000762939</ele>
        <time>2022-06-19T08:08:06.000Z</time>
      </trkpt>
      <trkpt lat="47.28145" lon="-2.24855">
        <ele>35.799999237061</ele>
        <time>2022-06-19T08:08:07.000Z</time>
      </trkpt>
      <trkpt lat="47.28149" lon="-2.24853">
        <ele>35.400001525879</ele>
        <time>2022-06-19T08:08:08.000Z</time>
      </trkpt>
      <trkpt lat="47.28152" lon="-2.24852">
        <ele>35</ele>
        <time>2022-06-19T08:08:09.000Z</time>
      </trkpt>
      <trkpt lat="47.28155" lon="-2.24851">
        <ele>34.599998474121</ele>
        <time>2022-06-19T08:08:10.000Z</time>
      </trkpt>
      <trkpt lat="47.28158" lon="-2.24851">
        <ele>34.200000762939</ele>
        <time>2022-06-19T08:08:11.000Z</time>
      </trkpt>
      <trkpt lat="47.28161" lon="-2.24852">
        <ele>33.599998474121</ele>
        <time>2022-06-19T08:08:12.000Z</time>
      </trkpt>
      <trkpt lat="47.28166" lon="-2.24854">
        <ele>33.200000762939</ele>
        <time>2022-06-19T08:08:13.000Z</time>
      </trkpt>
      <trkpt lat="47.28171" lon="-2.24855">
        <ele>32.799999237061</ele>
        <time>2022-06-19T08:08:14.000Z</time>
      </trkpt>
      <trkpt lat="47.28177" lon="-2.24857">
        <ele>32.400001525879</ele>
        <time>2022-06-19T08:08:15.000Z</time>
      </trkpt>
      <trkpt lat="47.28183" lon="-2.24858">
        <ele>31.799999237061</ele>
        <time>2022-06-19T08:08:16.000Z</time>
      </trkpt>
      <trkpt lat="47.2819" lon="-2.2486">
        <ele>31.200000762939</ele>
        <time>2022-06-19T08:08:17.000Z</time>
      </trkpt>
      <trkpt lat="47.28198" lon="-2.24862">
        <ele>30.39999961853</ele>
        <time>2022-06-19T08:08:18.000Z</time>
      </trkpt>
      <trkpt lat="47.28206" lon="-2.24864">
        <ele>29.60000038147</ele>
        <time>2022-06-19T08:08:19.000Z</time>
      </trkpt>
      <trkpt lat="47.28214" lon="-2.24866">
        <ele>28.799999237061</ele>
        <time>2022-06-19T08:08:20.000Z</time>
      </trkpt>
      <trkpt lat="47.28223" lon="-2.24867">
        <ele>28</ele>
        <time>2022-06-19T08:08:21.000Z</time>
      </trkpt>
      <trkpt lat="47.28231" lon="-2.24869">
        <ele>27.200000762939</ele>
        <time>2022-06-19T08:08:22.000Z</time>
      </trkpt>
      <trkpt lat="47.28239" lon="-2.2487">
        <ele>25.60000038147</ele>
        <time>2022-06-19T08:08:23.000Z</time>
      </trkpt>
      <trkpt lat="47.28247" lon="-2.24871">
        <ele>24.60000038147</ele>
        <time>2022-06-19T08:08:24.000Z</time>
      </trkpt>
      <trkpt lat="47.28255" lon="-2.24871">
        <ele>23.799999237061</ele>
        <time>2022-06-19T08:08:25.000Z</time>
      </trkpt>
      <trkpt lat="47.28262" lon="-2.24872">
        <ele>23.39999961853</ele>
        <time>2022-06-19T08:08:26.000Z</time>
      </trkpt>
      <trkpt lat="47.28268" lon="-2.24871">
        <ele>22.799999237061</ele>
        <time>2022-06-19T08:08:27.000Z</time>
      </trkpt>
      <trkpt lat="47.28273" lon="-2.2487">
        <ele>22.200000762939</ele>
        <time>2022-06-19T08:08:28.000Z</time>
      </trkpt>
      <trkpt lat="47.28277" lon="-2.24869">
        <ele>21.799999237061</ele>
        <time>2022-06-19T08:08:29.000Z</time>
      </trkpt>
      <trkpt lat="47.2828" lon="-2.24867">
        <ele>21.200000762939</ele>
        <time>2022-06-19T08:08:30.000Z</time>
      </trkpt>
      <trkpt lat="47.28281" lon="-2.24866">
        <ele>20.799999237061</ele>
        <time>2022-06-19T08:08:31.000Z</time>
      </trkpt>
      <trkpt lat="47.28283" lon="-2.24865">
        <ele>20.39999961853</ele>
        <time>2022-06-19T08:08:32.000Z</time>
      </trkpt>
      <trkpt lat="47.28283" lon="-2.24865">
        <ele>20</ele>
        <time>2022-06-19T08:08:33.000Z</time>
      </trkpt>
      <trkpt lat="47.28285" lon="-2.24865">
        <ele>19.60000038147</ele>
        <time>2022-06-19T08:08:34.000Z</time>
      </trkpt>
      <trkpt lat="47.28286" lon="-2.24865">
        <ele>19.200000762939</ele>
        <time>2022-06-19T08:08:35.000Z</time>
      </trkpt>
      <trkpt lat="47.28294" lon="-2.24863">
        <ele>19.200000762939</ele>
        <time>2022-06-19T08:08:39.000Z</time>
      </trkpt>
      <trkpt lat="47.28295" lon="-2.24862">
        <ele>18.799999237061</ele>
        <time>2022-06-19T08:08:40.000Z</time>
      </trkpt>
      <trkpt lat="47.28296" lon="-2.24861">
        <ele>18.39999961853</ele>
        <time>2022-06-19T08:08:41.000Z</time>
      </trkpt>
      <trkpt lat="47.28298" lon="-2.2486">
        <ele>18</ele>
        <time>2022-06-19T08:08:42.000Z</time>
      </trkpt>
      <trkpt lat="47.28299" lon="-2.24859">
        <ele>17.60000038147</ele>
        <time>2022-06-19T08:08:43.000Z</time>
      </trkpt>
      <trkpt lat="47.28301" lon="-2.24856">
        <ele>17.200000762939</ele>
        <time>2022-06-19T08:08:44.000Z</time>
      </trkpt>
      <trkpt lat="47.28303" lon="-2.24852">
        <ele>17.200000762939</ele>
        <time>2022-06-19T08:08:45.000Z</time>
      </trkpt>
      <trkpt lat="47.28312" lon="-2.24841">
        <ele>17.200000762939</ele>
        <time>2022-06-19T08:08:49.000Z</time>
      </trkpt>
      <trkpt lat="47.28314" lon="-2.24841">
        <ele>17.200000762939</ele>
        <time>2022-06-19T08:08:50.000Z</time>
      </trkpt>
      <trkpt lat="47.28324" lon="-2.24835">
        <ele>17.200000762939</ele>
        <time>2022-06-19T08:08:55.000Z</time>
      </trkpt>
      <trkpt lat="47.28327" lon="-2.24831">
        <ele>17.200000762939</ele>
        <time>2022-06-19T08:08:56.000Z</time>
      </trkpt>
      <trkpt lat="47.28335" lon="-2.24822">
        <ele>17.200000762939</ele>
        <time>2022-06-19T08:09:00.000Z</time>
      </trkpt>
      <trkpt lat="47.28338" lon="-2.24819">
        <ele>17.200000762939</ele>
        <time>2022-06-19T08:09:02.000Z</time>
      </trkpt>
      <trkpt lat="47.28342" lon="-2.24816">
        <ele>17.200000762939</ele>
        <time>2022-06-19T08:09:04.000Z</time>
      </trkpt>
      <trkpt lat="47.28345" lon="-2.24813">
        <ele>17.200000762939</ele>
        <time>2022-06-19T08:09:07.000Z</time>
      </trkpt>
      <trkpt lat="47.28349" lon="-2.24809">
        <ele>17.200000762939</ele>
        <time>2022-06-19T08:09:34.000Z</time>
      </trkpt>
      <trkpt lat="47.28358" lon="-2.24799">
        <ele>17.200000762939</ele>
        <time>2022-06-19T08:09:39.000Z</time>
      </trkpt>
      <trkpt lat="47.28359" lon="-2.24787">
        <ele>17.200000762939</ele>
        <time>2022-06-19T08:09:45.000Z</time>
      </trkpt>
      <trkpt lat="47.28359" lon="-2.24788">
        <ele>17.200000762939</ele>
        <time>2022-06-19T08:09:46.000Z</time>
      </trkpt>
      <trkpt lat="47.28361" lon="-2.24785">
        <ele>17.200000762939</ele>
        <time>2022-06-19T08:09:58.000Z</time>
      </trkpt>
      <trkpt lat="47.28365" lon="-2.24782">
        <ele>17.200000762939</ele>
        <time>2022-06-19T08:10:00.000Z</time>
      </trkpt>
      <trkpt lat="47.28379" lon="-2.24777">
        <ele>17.200000762939</ele>
        <time>2022-06-19T08:10:04.000Z</time>
      </trkpt>
      <trkpt lat="47.28386" lon="-2.24775">
        <ele>17.200000762939</ele>
        <time>2022-06-19T08:10:06.000Z</time>
      </trkpt>
      <trkpt lat="47.28392" lon="-2.24771">
        <ele>17.200000762939</ele>
        <time>2022-06-19T08:10:08.000Z</time>
      </trkpt>
      <trkpt lat="47.2841" lon="-2.24758">
        <ele>17.200000762939</ele>
        <time>2022-06-19T08:10:13.000Z</time>
      </trkpt>
      <trkpt lat="47.28437" lon="-2.24738">
        <ele>17.200000762939</ele>
        <time>2022-06-19T08:10:19.000Z</time>
      </trkpt>
      <trkpt lat="47.28452" lon="-2.24727">
        <ele>17.200000762939</ele>
        <time>2022-06-19T08:10:22.000Z</time>
      </trkpt>
      <trkpt lat="47.28468" lon="-2.24714">
        <ele>17.200000762939</ele>
        <time>2022-06-19T08:10:25.000Z</time>
      </trkpt>
      <trkpt lat="47.28498" lon="-2.24694">
        <ele>17.200000762939</ele>
        <time>2022-06-19T08:10:30.000Z</time>
      </trkpt>
      <trkpt lat="47.28508" lon="-2.24686">
        <ele>17.200000762939</ele>
        <time>2022-06-19T08:10:32.000Z</time>
      </trkpt>
      <trkpt lat="47.2855" lon="-2.24652">
        <ele>17.200000762939</ele>
        <time>2022-06-19T08:10:40.000Z</time>
      </trkpt>
      <trkpt lat="47.28576" lon="-2.24633">
        <ele>17.200000762939</ele>
        <time>2022-06-19T08:10:46.000Z</time>
      </trkpt>
      <trkpt lat="47.28584" lon="-2.24623">
        <ele>17.200000762939</ele>
        <time>2022-06-19T08:10:50.000Z</time>
      </trkpt>
      <trkpt lat="47.286" lon="-2.24605">
        <ele>17.200000762939</ele>
        <time>2022-06-19T08:10:57.000Z</time>
      </trkpt>
      <trkpt lat="47.28603" lon="-2.24605">
        <ele>17.200000762939</ele>
        <time>2022-06-19T08:10:58.000Z</time>
      </trkpt>
      <trkpt lat="47.28607" lon="-2.2461">
        <ele>17.200000762939</ele>
        <time>2022-06-19T08:11:00.000Z</time>
      </trkpt>
      <trkpt lat="47.28611" lon="-2.24619">
        <ele>17.200000762939</ele>
        <time>2022-06-19T08:11:02.000Z</time>
      </trkpt>
      <trkpt lat="47.28619" lon="-2.24633">
        <ele>17.200000762939</ele>
        <time>2022-06-19T08:11:05.000Z</time>
      </trkpt>
      <trkpt lat="47.28639" lon="-2.24669">
        <ele>17.200000762939</ele>
        <time>2022-06-19T08:11:13.000Z</time>
      </trkpt>
      <trkpt lat="47.28641" lon="-2.24672">
        <ele>16.200000762939</ele>
        <time>2022-06-19T08:11:15.000Z</time>
      </trkpt>
      <trkpt lat="47.28642" lon="-2.24673">
        <ele>15.800000190735</ele>
        <time>2022-06-19T08:11:16.000Z</time>
      </trkpt>
      <trkpt lat="47.28642" lon="-2.24674">
        <ele>15.39999961853</ele>
        <time>2022-06-19T08:11:17.000Z</time>
      </trkpt>
      <trkpt lat="47.28642" lon="-2.24674">
        <ele>15</ele>
        <time>2022-06-19T08:11:18.000Z</time>
      </trkpt>
      <trkpt lat="47.28642" lon="-2.24674">
        <ele>15</ele>
        <time>2022-06-19T08:11:20.000Z</time>
      </trkpt>
      <trkpt lat="47.28645" lon="-2.24678">
        <ele>15</ele>
        <time>2022-06-19T08:11:31.000Z</time>
      </trkpt>
      <trkpt lat="47.28648" lon="-2.24684">
        <ele>15</ele>
        <time>2022-06-19T08:11:33.000Z</time>
      </trkpt>
      <trkpt lat="47.28654" lon="-2.24691">
        <ele>15</ele>
        <time>2022-06-19T08:11:37.000Z</time>
      </trkpt>
      <trkpt lat="47.2866" lon="-2.2469">
        <ele>15</ele>
        <time>2022-06-19T08:11:39.000Z</time>
      </trkpt>
      <trkpt lat="47.28666" lon="-2.24684">
        <ele>15</ele>
        <time>2022-06-19T08:11:41.000Z</time>
      </trkpt>
      <trkpt lat="47.28676" lon="-2.24672">
        <ele>15</ele>
        <time>2022-06-19T08:11:44.000Z</time>
      </trkpt>
      <trkpt lat="47.28695" lon="-2.24654">
        <ele>15</ele>
        <time>2022-06-19T08:11:48.000Z</time>
      </trkpt>
      <trkpt lat="47.28714" lon="-2.24637">
        <ele>15</ele>
        <time>2022-06-19T08:11:52.000Z</time>
      </trkpt>
      <trkpt lat="47.28721" lon="-2.24628">
        <ele>15</ele>
        <time>2022-06-19T08:11:54.000Z</time>
      </trkpt>
      <trkpt lat="47.28724" lon="-2.24623">
        <ele>15</ele>
        <time>2022-06-19T08:11:55.000Z</time>
      </trkpt>
      <trkpt lat="47.28733" lon="-2.24604">
        <ele>15</ele>
        <time>2022-06-19T08:11:58.000Z</time>
      </trkpt>
      <trkpt lat="47.28736" lon="-2.24596">
        <ele>15</ele>
        <time>2022-06-19T08:11:59.000Z</time>
      </trkpt>
      <trkpt lat="47.28753" lon="-2.24547">
        <ele>15</ele>
        <time>2022-06-19T08:12:05.000Z</time>
      </trkpt>
      <trkpt lat="47.28755" lon="-2.24538">
        <ele>15</ele>
        <time>2022-06-19T08:12:06.000Z</time>
      </trkpt>
      <trkpt lat="47.28757" lon="-2.2452">
        <ele>15</ele>
        <time>2022-06-19T08:12:08.000Z</time>
      </trkpt>
      <trkpt lat="47.28756" lon="-2.24506">
        <ele>15</ele>
        <time>2022-06-19T08:12:10.000Z</time>
      </trkpt>
      <trkpt lat="47.28755" lon="-2.24498">
        <ele>15</ele>
        <time>2022-06-19T08:12:11.000Z</time>
      </trkpt>
      <trkpt lat="47.28753" lon="-2.24482">
        <ele>15</ele>
        <time>2022-06-19T08:12:13.000Z</time>
      </trkpt>
      <trkpt lat="47.28754" lon="-2.24466">
        <ele>15</ele>
        <time>2022-06-19T08:12:15.000Z</time>
      </trkpt>
      <trkpt lat="47.28758" lon="-2.2444">
        <ele>15</ele>
        <time>2022-06-19T08:12:18.000Z</time>
      </trkpt>
      <trkpt lat="47.28759" lon="-2.24431">
        <ele>15</ele>
        <time>2022-06-19T08:12:19.000Z</time>
      </trkpt>
      <trkpt lat="47.2877" lon="-2.24389">
        <ele>15</ele>
        <time>2022-06-19T08:12:24.000Z</time>
      </trkpt>
      <trkpt lat="47.28774" lon="-2.24374">
        <ele>15</ele>
        <time>2022-06-19T08:12:26.000Z</time>
      </trkpt>
      <trkpt lat="47.28777" lon="-2.24368">
        <ele>15</ele>
        <time>2022-06-19T08:12:28.000Z</time>
      </trkpt>
      <trkpt lat="47.28778" lon="-2.24367">
        <ele>15</ele>
        <time>2022-06-19T08:12:30.000Z</time>
      </trkpt>
      <trkpt lat="47.28778" lon="-2.24362">
        <ele>15</ele>
        <time>2022-06-19T08:12:38.000Z</time>
      </trkpt>
      <trkpt lat="47.28778" lon="-2.24359">
        <ele>15</ele>
        <time>2022-06-19T08:12:39.000Z</time>
      </trkpt>
      <trkpt lat="47.28781" lon="-2.2434">
        <ele>15</ele>
        <time>2022-06-19T08:12:43.000Z</time>
      </trkpt>
      <trkpt lat="47.28781" lon="-2.24334">
        <ele>15</ele>
        <time>2022-06-19T08:12:44.000Z</time>
      </trkpt>
      <trkpt lat="47.28783" lon="-2.2432">
        <ele>15</ele>
        <time>2022-06-19T08:12:46.000Z</time>
      </trkpt>
      <trkpt lat="47.28784" lon="-2.24308">
        <ele>15</ele>
        <time>2022-06-19T08:12:48.000Z</time>
      </trkpt>
      <trkpt lat="47.28786" lon="-2.24268">
        <ele>15</ele>
        <time>2022-06-19T08:12:54.000Z</time>
      </trkpt>
      <trkpt lat="47.28785" lon="-2.24265">
        <ele>15</ele>
        <time>2022-06-19T08:12:55.000Z</time>
      </trkpt>
      <trkpt lat="47.2878" lon="-2.24262">
        <ele>15</ele>
        <time>2022-06-19T08:12:57.000Z</time>
      </trkpt>
      <trkpt lat="47.28772" lon="-2.24263">
        <ele>15</ele>
        <time>2022-06-19T08:12:59.000Z</time>
      </trkpt>
      <trkpt lat="47.28762" lon="-2.24264">
        <ele>15</ele>
        <time>2022-06-19T08:13:01.000Z</time>
      </trkpt>
      <trkpt lat="47.28729" lon="-2.24262">
        <ele>15</ele>
        <time>2022-06-19T08:13:08.000Z</time>
      </trkpt>
      <trkpt lat="47.28705" lon="-2.24263">
        <ele>15</ele>
        <time>2022-06-19T08:13:13.000Z</time>
      </trkpt>
      <trkpt lat="47.28691" lon="-2.24254">
        <ele>15</ele>
        <time>2022-06-19T08:13:17.000Z</time>
      </trkpt>
      <trkpt lat="47.28687" lon="-2.24238">
        <ele>15</ele>
        <time>2022-06-19T08:13:20.000Z</time>
      </trkpt>
      <trkpt lat="47.28686" lon="-2.24232">
        <ele>15</ele>
        <time>2022-06-19T08:13:21.000Z</time>
      </trkpt>
      <trkpt lat="47.2868" lon="-2.24187">
        <ele>15</ele>
        <time>2022-06-19T08:13:27.000Z</time>
      </trkpt>
      <trkpt lat="47.28675" lon="-2.24132">
        <ele>15</ele>
        <time>2022-06-19T08:13:34.000Z</time>
      </trkpt>
      <trkpt lat="47.28668" lon="-2.24068">
        <ele>15</ele>
        <time>2022-06-19T08:13:42.000Z</time>
      </trkpt>
      <trkpt lat="47.28665" lon="-2.24008">
        <ele>15</ele>
        <time>2022-06-19T08:13:49.000Z</time>
      </trkpt>
      <trkpt lat="47.28658" lon="-2.23956">
        <ele>15</ele>
        <time>2022-06-19T08:13:55.000Z</time>
      </trkpt>
      <trkpt lat="47.28648" lon="-2.23897">
        <ele>15</ele>
        <time>2022-06-19T08:14:02.000Z</time>
      </trkpt>
      <trkpt lat="47.28639" lon="-2.2383">
        <ele>15</ele>
        <time>2022-06-19T08:14:10.000Z</time>
      </trkpt>
      <trkpt lat="47.28632" lon="-2.23792">
        <ele>15</ele>
        <time>2022-06-19T08:14:15.000Z</time>
      </trkpt>
      <trkpt lat="47.28631" lon="-2.23776">
        <ele>15</ele>
        <time>2022-06-19T08:14:17.000Z</time>
      </trkpt>
      <trkpt lat="47.28624" lon="-2.23711">
        <ele>15</ele>
        <time>2022-06-19T08:14:25.000Z</time>
      </trkpt>
      <trkpt lat="47.28619" lon="-2.23651">
        <ele>15</ele>
        <time>2022-06-19T08:14:32.000Z</time>
      </trkpt>
      <trkpt lat="47.28618" lon="-2.23627">
        <ele>15</ele>
        <time>2022-06-19T08:14:35.000Z</time>
      </trkpt>
      <trkpt lat="47.28619" lon="-2.23605">
        <ele>15</ele>
        <time>2022-06-19T08:14:38.000Z</time>
      </trkpt>
      <trkpt lat="47.28625" lon="-2.23579">
        <ele>15</ele>
        <time>2022-06-19T08:14:42.000Z</time>
      </trkpt>
      <trkpt lat="47.28635" lon="-2.23569">
        <ele>15</ele>
        <time>2022-06-19T08:14:45.000Z</time>
      </trkpt>
      <trkpt lat="47.28644" lon="-2.23557">
        <ele>15</ele>
        <time>2022-06-19T08:14:48.000Z</time>
      </trkpt>
      <trkpt lat="47.28646" lon="-2.23533">
        <ele>15</ele>
        <time>2022-06-19T08:14:52.000Z</time>
      </trkpt>
      <trkpt lat="47.2865" lon="-2.23503">
        <ele>15</ele>
        <time>2022-06-19T08:14:57.000Z</time>
      </trkpt>
      <trkpt lat="47.28652" lon="-2.23476">
        <ele>15</ele>
        <time>2022-06-19T08:15:01.000Z</time>
      </trkpt>
      <trkpt lat="47.28652" lon="-2.23462">
        <ele>15</ele>
        <time>2022-06-19T08:15:03.000Z</time>
      </trkpt>
      <trkpt lat="47.28651" lon="-2.23448">
        <ele>15</ele>
        <time>2022-06-19T08:15:05.000Z</time>
      </trkpt>
      <trkpt lat="47.28645" lon="-2.23428">
        <ele>15</ele>
        <time>2022-06-19T08:15:08.000Z</time>
      </trkpt>
      <trkpt lat="47.28644" lon="-2.2342">
        <ele>15</ele>
        <time>2022-06-19T08:15:09.000Z</time>
      </trkpt>
      <trkpt lat="47.2864" lon="-2.23398">
        <ele>15</ele>
        <time>2022-06-19T08:15:12.000Z</time>
      </trkpt>
      <trkpt lat="47.28648" lon="-2.2337">
        <ele>15</ele>
        <time>2022-06-19T08:15:17.000Z</time>
      </trkpt>
      <trkpt lat="47.28658" lon="-2.23367">
        <ele>15</ele>
        <time>2022-06-19T08:15:20.000Z</time>
      </trkpt>
      <trkpt lat="47.28664" lon="-2.2336">
        <ele>15</ele>
        <time>2022-06-19T08:15:24.000Z</time>
      </trkpt>
      <trkpt lat="47.28665" lon="-2.23355">
        <ele>15</ele>
        <time>2022-06-19T08:15:25.000Z</time>
      </trkpt>
      <trkpt lat="47.28669" lon="-2.23334">
        <ele>15</ele>
        <time>2022-06-19T08:15:29.000Z</time>
      </trkpt>
      <trkpt lat="47.28672" lon="-2.23307">
        <ele>15</ele>
        <time>2022-06-19T08:15:35.000Z</time>
      </trkpt>
      <trkpt lat="47.28672" lon="-2.233">
        <ele>15</ele>
        <time>2022-06-19T08:15:37.000Z</time>
      </trkpt>
      <trkpt lat="47.28671" lon="-2.23292">
        <ele>15</ele>
        <time>2022-06-19T08:15:39.000Z</time>
      </trkpt>
      <trkpt lat="47.28674" lon="-2.23278">
        <ele>15</ele>
        <time>2022-06-19T08:15:43.000Z</time>
      </trkpt>
      <trkpt lat="47.28677" lon="-2.23269">
        <ele>15</ele>
        <time>2022-06-19T08:15:45.000Z</time>
      </trkpt>
      <trkpt lat="47.28681" lon="-2.23264">
        <ele>15.60000038147</ele>
        <time>2022-06-19T08:15:47.000Z</time>
      </trkpt>
      <trkpt lat="47.28681" lon="-2.23261">
        <ele>16</ele>
        <time>2022-06-19T08:15:48.000Z</time>
      </trkpt>
      <trkpt lat="47.28682" lon="-2.23259">
        <ele>16.60000038147</ele>
        <time>2022-06-19T08:15:49.000Z</time>
      </trkpt>
      <trkpt lat="47.28681" lon="-2.23256">
        <ele>17.200000762939</ele>
        <time>2022-06-19T08:15:50.000Z</time>
      </trkpt>
      <trkpt lat="47.28681" lon="-2.23253">
        <ele>17.60000038147</ele>
        <time>2022-06-19T08:15:51.000Z</time>
      </trkpt>
      <trkpt lat="47.2868" lon="-2.23238">
        <ele>17.60000038147</ele>
        <time>2022-06-19T08:15:54.000Z</time>
      </trkpt>
      <trkpt lat="47.2868" lon="-2.2323">
        <ele>17.200000762939</ele>
        <time>2022-06-19T08:15:55.000Z</time>
      </trkpt>
      <trkpt lat="47.28678" lon="-2.23223">
        <ele>16.799999237061</ele>
        <time>2022-06-19T08:15:56.000Z</time>
      </trkpt>
      <trkpt lat="47.28675" lon="-2.23216">
        <ele>16.39999961853</ele>
        <time>2022-06-19T08:15:57.000Z</time>
      </trkpt>
      <trkpt lat="47.28671" lon="-2.23208">
        <ele>16</ele>
        <time>2022-06-19T08:15:58.000Z</time>
      </trkpt>
      <trkpt lat="47.28667" lon="-2.232">
        <ele>15.39999961853</ele>
        <time>2022-06-19T08:15:59.000Z</time>
      </trkpt>
      <trkpt lat="47.28656" lon="-2.23192">
        <ele>15</ele>
        <time>2022-06-19T08:16:01.000Z</time>
      </trkpt>
      <trkpt lat="47.2865" lon="-2.2319">
        <ele>14.60000038147</ele>
        <time>2022-06-19T08:16:02.000Z</time>
      </trkpt>
      <trkpt lat="47.28644" lon="-2.23191">
        <ele>14.199999809265</ele>
        <time>2022-06-19T08:16:03.000Z</time>
      </trkpt>
      <trkpt lat="47.28639" lon="-2.23193">
        <ele>13.800000190735</ele>
        <time>2022-06-19T08:16:04.000Z</time>
      </trkpt>
      <trkpt lat="47.28635" lon="-2.23194">
        <ele>13.39999961853</ele>
        <time>2022-06-19T08:16:05.000Z</time>
      </trkpt>
      <trkpt lat="47.2863" lon="-2.23196">
        <ele>13.39999961853</ele>
        <time>2022-06-19T08:16:06.000Z</time>
      </trkpt>
      <trkpt lat="47.28616" lon="-2.23202">
        <ele>13.39999961853</ele>
        <time>2022-06-19T08:16:09.000Z</time>
      </trkpt>
      <trkpt lat="47.28611" lon="-2.23206">
        <ele>13.39999961853</ele>
        <time>2022-06-19T08:16:10.000Z</time>
      </trkpt>
      <trkpt lat="47.28599" lon="-2.23227">
        <ele>13.39999961853</ele>
        <time>2022-06-19T08:16:14.000Z</time>
      </trkpt>
      <trkpt lat="47.28596" lon="-2.23239">
        <ele>13.39999961853</ele>
        <time>2022-06-19T08:16:16.000Z</time>
      </trkpt>
      <trkpt lat="47.28593" lon="-2.23265">
        <ele>13.39999961853</ele>
        <time>2022-06-19T08:16:20.000Z</time>
      </trkpt>
      <trkpt lat="47.28596" lon="-2.23293">
        <ele>13.39999961853</ele>
        <time>2022-06-19T08:16:24.000Z</time>
      </trkpt>
      <trkpt lat="47.28604" lon="-2.233">
        <ele>13.39999961853</ele>
        <time>2022-06-19T08:16:27.000Z</time>
      </trkpt>
      <trkpt lat="47.28612" lon="-2.23302">
        <ele>13.39999961853</ele>
        <time>2022-06-19T08:16:29.000Z</time>
      </trkpt>
      <trkpt lat="47.28621" lon="-2.23302">
        <ele>13.39999961853</ele>
        <time>2022-06-19T08:16:31.000Z</time>
      </trkpt>
      <trkpt lat="47.28639" lon="-2.23299">
        <ele>13.39999961853</ele>
        <time>2022-06-19T08:16:36.000Z</time>
      </trkpt>
      <trkpt lat="47.2865" lon="-2.23302">
        <ele>13.39999961853</ele>
        <time>2022-06-19T08:16:40.000Z</time>
      </trkpt>
      <trkpt lat="47.28663" lon="-2.23303">
        <ele>14</ele>
        <time>2022-06-19T08:16:46.000Z</time>
      </trkpt>
      <trkpt lat="47.28664" lon="-2.23302">
        <ele>14.39999961853</ele>
        <time>2022-06-19T08:16:47.000Z</time>
      </trkpt>
      <trkpt lat="47.28665" lon="-2.233">
        <ele>15</ele>
        <time>2022-06-19T08:16:48.000Z</time>
      </trkpt>
      <trkpt lat="47.28665" lon="-2.23297">
        <ele>15.39999961853</ele>
        <time>2022-06-19T08:16:49.000Z</time>
      </trkpt>
      <trkpt lat="47.28665" lon="-2.23296">
        <ele>15.800000190735</ele>
        <time>2022-06-19T08:16:50.000Z</time>
      </trkpt>
      <trkpt lat="47.28662" lon="-2.23293">
        <ele>15.800000190735</ele>
        <time>2022-06-19T08:16:55.000Z</time>
      </trkpt>
      <trkpt lat="47.28661" lon="-2.23294">
        <ele>15.800000190735</ele>
        <time>2022-06-19T08:16:56.000Z</time>
      </trkpt>
      <trkpt lat="47.28658" lon="-2.23303">
        <ele>15.800000190735</ele>
        <time>2022-06-19T08:16:58.000Z</time>
      </trkpt>
      <trkpt lat="47.28656" lon="-2.23322">
        <ele>15.39999961853</ele>
        <time>2022-06-19T08:17:01.000Z</time>
      </trkpt>
      <trkpt lat="47.28656" lon="-2.23328">
        <ele>14.60000038147</ele>
        <time>2022-06-19T08:17:02.000Z</time>
      </trkpt>
      <trkpt lat="47.28655" lon="-2.23333">
        <ele>14.199999809265</ele>
        <time>2022-06-19T08:17:03.000Z</time>
      </trkpt>
      <trkpt lat="47.28655" lon="-2.23337">
        <ele>13.800000190735</ele>
        <time>2022-06-19T08:17:04.000Z</time>
      </trkpt>
      <trkpt lat="47.28654" lon="-2.23341">
        <ele>13.800000190735</ele>
        <time>2022-06-19T08:17:06.000Z</time>
      </trkpt>
      <trkpt lat="47.28654" lon="-2.23341">
        <ele>13.800000190735</ele>
        <time>2022-06-19T08:17:07.000Z</time>
      </trkpt>
      <trkpt lat="47.28655" lon="-2.23347">
        <ele>13.800000190735</ele>
        <time>2022-06-19T08:17:20.000Z</time>
      </trkpt>
      <trkpt lat="47.28654" lon="-2.23352">
        <ele>13.800000190735</ele>
        <time>2022-06-19T08:17:22.000Z</time>
      </trkpt>
      <trkpt lat="47.28652" lon="-2.23364">
        <ele>13.800000190735</ele>
        <time>2022-06-19T08:17:25.000Z</time>
      </trkpt>
      <trkpt lat="47.28652" lon="-2.23373">
        <ele>13.800000190735</ele>
        <time>2022-06-19T08:17:27.000Z</time>
      </trkpt>
      <trkpt lat="47.28652" lon="-2.23403">
        <ele>13.800000190735</ele>
        <time>2022-06-19T08:17:32.000Z</time>
      </trkpt>
      <trkpt lat="47.28654" lon="-2.23409">
        <ele>13.800000190735</ele>
        <time>2022-06-19T08:17:33.000Z</time>
      </trkpt>
      <trkpt lat="47.28662" lon="-2.23429">
        <ele>13.800000190735</ele>
        <time>2022-06-19T08:17:37.000Z</time>
      </trkpt>
      <trkpt lat="47.28664" lon="-2.23434">
        <ele>14.199999809265</ele>
        <time>2022-06-19T08:17:38.000Z</time>
      </trkpt>
      <trkpt lat="47.28666" lon="-2.23439">
        <ele>14.60000038147</ele>
        <time>2022-06-19T08:17:39.000Z</time>
      </trkpt>
      <trkpt lat="47.28667" lon="-2.23444">
        <ele>15</ele>
        <time>2022-06-19T08:17:40.000Z</time>
      </trkpt>
      <trkpt lat="47.28668" lon="-2.23449">
        <ele>15.39999961853</ele>
        <time>2022-06-19T08:17:41.000Z</time>
      </trkpt>
      <trkpt lat="47.28667" lon="-2.23455">
        <ele>15.800000190735</ele>
        <time>2022-06-19T08:17:42.000Z</time>
      </trkpt>
      <trkpt lat="47.28667" lon="-2.23461">
        <ele>15.800000190735</ele>
        <time>2022-06-19T08:17:43.000Z</time>
      </trkpt>
      <trkpt lat="47.28665" lon="-2.23475">
        <ele>15.800000190735</ele>
        <time>2022-06-19T08:17:45.000Z</time>
      </trkpt>
      <trkpt lat="47.28659" lon="-2.23497">
        <ele>15.800000190735</ele>
        <time>2022-06-19T08:17:48.000Z</time>
      </trkpt>
      <trkpt lat="47.28658" lon="-2.23503">
        <ele>15.800000190735</ele>
        <time>2022-06-19T08:17:49.000Z</time>
      </trkpt>
      <trkpt lat="47.28658" lon="-2.2353">
        <ele>15.800000190735</ele>
        <time>2022-06-19T08:17:53.000Z</time>
      </trkpt>
      <trkpt lat="47.28665" lon="-2.23548">
        <ele>15.800000190735</ele>
        <time>2022-06-19T08:17:56.000Z</time>
      </trkpt>
      <trkpt lat="47.28668" lon="-2.23552">
        <ele>15.800000190735</ele>
        <time>2022-06-19T08:17:57.000Z</time>
      </trkpt>
      <trkpt lat="47.28682" lon="-2.23571">
        <ele>15.800000190735</ele>
        <time>2022-06-19T08:18:01.000Z</time>
      </trkpt>
      <trkpt lat="47.28685" lon="-2.23576">
        <ele>15.800000190735</ele>
        <time>2022-06-19T08:18:02.000Z</time>
      </trkpt>
      <trkpt lat="47.28695" lon="-2.23586">
        <ele>15.800000190735</ele>
        <time>2022-06-19T08:18:05.000Z</time>
      </trkpt>
      <trkpt lat="47.28699" lon="-2.23586">
        <ele>15.800000190735</ele>
        <time>2022-06-19T08:18:06.000Z</time>
      </trkpt>
      <trkpt lat="47.28716" lon="-2.23578">
        <ele>15.800000190735</ele>
        <time>2022-06-19T08:18:11.000Z</time>
      </trkpt>
      <trkpt lat="47.28727" lon="-2.23557">
        <ele>15.800000190735</ele>
        <time>2022-06-19T08:18:16.000Z</time>
      </trkpt>
      <trkpt lat="47.28745" lon="-2.23534">
        <ele>15.800000190735</ele>
        <time>2022-06-19T08:18:22.000Z</time>
      </trkpt>
      <trkpt lat="47.28764" lon="-2.23522">
        <ele>16.200000762939</ele>
        <time>2022-06-19T08:18:28.000Z</time>
      </trkpt>
      <trkpt lat="47.28767" lon="-2.23521">
        <ele>16.60000038147</ele>
        <time>2022-06-19T08:18:29.000Z</time>
      </trkpt>
      <trkpt lat="47.28769" lon="-2.2352">
        <ele>17</ele>
        <time>2022-06-19T08:18:30.000Z</time>
      </trkpt>
      <trkpt lat="47.28772" lon="-2.23518">
        <ele>17.39999961853</ele>
        <time>2022-06-19T08:18:31.000Z</time>
      </trkpt>
      <trkpt lat="47.28775" lon="-2.23517">
        <ele>17.799999237061</ele>
        <time>2022-06-19T08:18:32.000Z</time>
      </trkpt>
      <trkpt lat="47.28782" lon="-2.23515">
        <ele>17.799999237061</ele>
        <time>2022-06-19T08:18:34.000Z</time>
      </trkpt>
      <trkpt lat="47.288" lon="-2.2351">
        <ele>17.799999237061</ele>
        <time>2022-06-19T08:18:39.000Z</time>
      </trkpt>
      <trkpt lat="47.28804" lon="-2.23509">
        <ele>18.799999237061</ele>
        <time>2022-06-19T08:18:40.000Z</time>
      </trkpt>
      <trkpt lat="47.28807" lon="-2.23509">
        <ele>19.200000762939</ele>
        <time>2022-06-19T08:18:41.000Z</time>
      </trkpt>
      <trkpt lat="47.28811" lon="-2.23509">
        <ele>19.60000038147</ele>
        <time>2022-06-19T08:18:42.000Z</time>
      </trkpt>
      <trkpt lat="47.28816" lon="-2.23509">
        <ele>20</ele>
        <time>2022-06-19T08:18:43.000Z</time>
      </trkpt>
      <trkpt lat="47.2882" lon="-2.23508">
        <ele>20</ele>
        <time>2022-06-19T08:18:44.000Z</time>
      </trkpt>
      <trkpt lat="47.28849" lon="-2.23506">
        <ele>20</ele>
        <time>2022-06-19T08:18:51.000Z</time>
      </trkpt>
      <trkpt lat="47.28861" lon="-2.23505">
        <ele>20.39999961853</ele>
        <time>2022-06-19T08:18:54.000Z</time>
      </trkpt>
      <trkpt lat="47.28865" lon="-2.23504">
        <ele>20.799999237061</ele>
        <time>2022-06-19T08:18:55.000Z</time>
      </trkpt>
      <trkpt lat="47.28869" lon="-2.23503">
        <ele>21.200000762939</ele>
        <time>2022-06-19T08:18:56.000Z</time>
      </trkpt>
      <trkpt lat="47.28874" lon="-2.23503">
        <ele>21.60000038147</ele>
        <time>2022-06-19T08:18:57.000Z</time>
      </trkpt>
      <trkpt lat="47.28878" lon="-2.23504">
        <ele>22</ele>
        <time>2022-06-19T08:18:58.000Z</time>
      </trkpt>
      <trkpt lat="47.28882" lon="-2.23504">
        <ele>22</ele>
        <time>2022-06-19T08:18:59.000Z</time>
      </trkpt>
      <trkpt lat="47.28905" lon="-2.23501">
        <ele>22</ele>
        <time>2022-06-19T08:19:05.000Z</time>
      </trkpt>
      <trkpt lat="47.28924" lon="-2.23495">
        <ele>22</ele>
        <time>2022-06-19T08:19:09.000Z</time>
      </trkpt>
      <trkpt lat="47.28933" lon="-2.23493">
        <ele>22</ele>
        <time>2022-06-19T08:19:11.000Z</time>
      </trkpt>
      <trkpt lat="47.28937" lon="-2.23492">
        <ele>22</ele>
        <time>2022-06-19T08:19:12.000Z</time>
      </trkpt>
      <trkpt lat="47.2895" lon="-2.23491">
        <ele>22</ele>
        <time>2022-06-19T08:19:17.000Z</time>
      </trkpt>
      <trkpt lat="47.28955" lon="-2.23493">
        <ele>22.39999961853</ele>
        <time>2022-06-19T08:19:19.000Z</time>
      </trkpt>
      <trkpt lat="47.28958" lon="-2.23494">
        <ele>22.799999237061</ele>
        <time>2022-06-19T08:19:20.000Z</time>
      </trkpt>
      <trkpt lat="47.28959" lon="-2.23497">
        <ele>23.200000762939</ele>
        <time>2022-06-19T08:19:21.000Z</time>
      </trkpt>
      <trkpt lat="47.28961" lon="-2.23501">
        <ele>23.60000038147</ele>
        <time>2022-06-19T08:19:22.000Z</time>
      </trkpt>
      <trkpt lat="47.28962" lon="-2.23505">
        <ele>24</ele>
        <time>2022-06-19T08:19:23.000Z</time>
      </trkpt>
      <trkpt lat="47.28964" lon="-2.2353">
        <ele>24</ele>
        <time>2022-06-19T08:19:27.000Z</time>
      </trkpt>
      <trkpt lat="47.2897" lon="-2.23593">
        <ele>23.60000038147</ele>
        <time>2022-06-19T08:19:35.000Z</time>
      </trkpt>
      <trkpt lat="47.28971" lon="-2.23601">
        <ele>23.200000762939</ele>
        <time>2022-06-19T08:19:36.000Z</time>
      </trkpt>
      <trkpt lat="47.28971" lon="-2.23609">
        <ele>22.799999237061</ele>
        <time>2022-06-19T08:19:37.000Z</time>
      </trkpt>
      <trkpt lat="47.28972" lon="-2.23618">
        <ele>22.200000762939</ele>
        <time>2022-06-19T08:19:38.000Z</time>
      </trkpt>
      <trkpt lat="47.28973" lon="-2.23625">
        <ele>21.799999237061</ele>
        <time>2022-06-19T08:19:39.000Z</time>
      </trkpt>
      <trkpt lat="47.28975" lon="-2.23641">
        <ele>21.799999237061</ele>
        <time>2022-06-19T08:19:41.000Z</time>
      </trkpt>
      <trkpt lat="47.28978" lon="-2.23662">
        <ele>21.799999237061</ele>
        <time>2022-06-19T08:19:45.000Z</time>
      </trkpt>
      <trkpt lat="47.28978" lon="-2.23674">
        <ele>21.799999237061</ele>
        <time>2022-06-19T08:19:50.000Z</time>
      </trkpt>
      <trkpt lat="47.2898" lon="-2.23677">
        <ele>21.799999237061</ele>
        <time>2022-06-19T08:20:21.000Z</time>
      </trkpt>
      <trkpt lat="47.2898" lon="-2.23672">
        <ele>21.799999237061</ele>
        <time>2022-06-19T08:20:23.000Z</time>
      </trkpt>
      <trkpt lat="47.28978" lon="-2.23666">
        <ele>21.799999237061</ele>
        <time>2022-06-19T08:20:25.000Z</time>
      </trkpt>
      <trkpt lat="47.28975" lon="-2.23653">
        <ele>21.799999237061</ele>
        <time>2022-06-19T08:20:28.000Z</time>
      </trkpt>
      <trkpt lat="47.28972" lon="-2.23618">
        <ele>21.799999237061</ele>
        <time>2022-06-19T08:20:34.000Z</time>
      </trkpt>
      <trkpt lat="47.28968" lon="-2.23574">
        <ele>21.799999237061</ele>
        <time>2022-06-19T08:20:41.000Z</time>
      </trkpt>
      <trkpt lat="47.28966" lon="-2.23518">
        <ele>21.799999237061</ele>
        <time>2022-06-19T08:20:50.000Z</time>
      </trkpt>
      <trkpt lat="47.28961" lon="-2.23486">
        <ele>21.799999237061</ele>
        <time>2022-06-19T08:20:56.000Z</time>
      </trkpt>
      <trkpt lat="47.2896" lon="-2.23474">
        <ele>21.799999237061</ele>
        <time>2022-06-19T08:20:58.000Z</time>
      </trkpt>
      <trkpt lat="47.28961" lon="-2.23461">
        <ele>21.799999237061</ele>
        <time>2022-06-19T08:21:00.000Z</time>
      </trkpt>
      <trkpt lat="47.28966" lon="-2.23402">
        <ele>21.799999237061</ele>
        <time>2022-06-19T08:21:09.000Z</time>
      </trkpt>
      <trkpt lat="47.28967" lon="-2.23396">
        <ele>22.200000762939</ele>
        <time>2022-06-19T08:21:10.000Z</time>
      </trkpt>
      <trkpt lat="47.28967" lon="-2.23389">
        <ele>22.60000038147</ele>
        <time>2022-06-19T08:21:11.000Z</time>
      </trkpt>
      <trkpt lat="47.28968" lon="-2.23382">
        <ele>23</ele>
        <time>2022-06-19T08:21:12.000Z</time>
      </trkpt>
      <trkpt lat="47.28968" lon="-2.23375">
        <ele>23.39999961853</ele>
        <time>2022-06-19T08:21:13.000Z</time>
      </trkpt>
      <trkpt lat="47.28968" lon="-2.23368">
        <ele>23.799999237061</ele>
        <time>2022-06-19T08:21:14.000Z</time>
      </trkpt>
      <trkpt lat="47.28971" lon="-2.23346">
        <ele>23.799999237061</ele>
        <time>2022-06-19T08:21:17.000Z</time>
      </trkpt>
      <trkpt lat="47.28975" lon="-2.23294">
        <ele>23.39999961853</ele>
        <time>2022-06-19T08:21:23.000Z</time>
      </trkpt>
      <trkpt lat="47.28976" lon="-2.23285">
        <ele>23</ele>
        <time>2022-06-19T08:21:24.000Z</time>
      </trkpt>
      <trkpt lat="47.28976" lon="-2.23276">
        <ele>22.60000038147</ele>
        <time>2022-06-19T08:21:25.000Z</time>
      </trkpt>
      <trkpt lat="47.28977" lon="-2.23266">
        <ele>22.200000762939</ele>
        <time>2022-06-19T08:21:26.000Z</time>
      </trkpt>
      <trkpt lat="47.28978" lon="-2.23257">
        <ele>21.799999237061</ele>
        <time>2022-06-19T08:21:27.000Z</time>
      </trkpt>
      <trkpt lat="47.28983" lon="-2.232">
        <ele>21.799999237061</ele>
        <time>2022-06-19T08:21:33.000Z</time>
      </trkpt>
      <trkpt lat="47.28984" lon="-2.23191">
        <ele>21.39999961853</ele>
        <time>2022-06-19T08:21:34.000Z</time>
      </trkpt>
      <trkpt lat="47.28985" lon="-2.23182">
        <ele>21</ele>
        <time>2022-06-19T08:21:35.000Z</time>
      </trkpt>
      <trkpt lat="47.28986" lon="-2.23172">
        <ele>20.60000038147</ele>
        <time>2022-06-19T08:21:36.000Z</time>
      </trkpt>
      <trkpt lat="47.28987" lon="-2.23163">
        <ele>20.200000762939</ele>
        <time>2022-06-19T08:21:37.000Z</time>
      </trkpt>
      <trkpt lat="47.28988" lon="-2.23153">
        <ele>19.60000038147</ele>
        <time>2022-06-19T08:21:38.000Z</time>
      </trkpt>
      <trkpt lat="47.28989" lon="-2.23144">
        <ele>19</ele>
        <time>2022-06-19T08:21:39.000Z</time>
      </trkpt>
      <trkpt lat="47.2899" lon="-2.23135">
        <ele>18.39999961853</ele>
        <time>2022-06-19T08:21:40.000Z</time>
      </trkpt>
      <trkpt lat="47.28992" lon="-2.23126">
        <ele>18</ele>
        <time>2022-06-19T08:21:41.000Z</time>
      </trkpt>
      <trkpt lat="47.28993" lon="-2.23117">
        <ele>17.39999961853</ele>
        <time>2022-06-19T08:21:42.000Z</time>
      </trkpt>
      <trkpt lat="47.29002" lon="-2.23065">
        <ele>17</ele>
        <time>2022-06-19T08:21:48.000Z</time>
      </trkpt>
      <trkpt lat="47.29004" lon="-2.23056">
        <ele>16.60000038147</ele>
        <time>2022-06-19T08:21:49.000Z</time>
      </trkpt>
      <trkpt lat="47.29007" lon="-2.23048">
        <ele>16.200000762939</ele>
        <time>2022-06-19T08:21:50.000Z</time>
      </trkpt>
      <trkpt lat="47.29009" lon="-2.2304">
        <ele>15.800000190735</ele>
        <time>2022-06-19T08:21:51.000Z</time>
      </trkpt>
      <trkpt lat="47.29012" lon="-2.23031">
        <ele>15.39999961853</ele>
        <time>2022-06-19T08:21:52.000Z</time>
      </trkpt>
      <trkpt lat="47.29018" lon="-2.23006">
        <ele>15</ele>
        <time>2022-06-19T08:21:55.000Z</time>
      </trkpt>
      <trkpt lat="47.29021" lon="-2.22999">
        <ele>14.39999961853</ele>
        <time>2022-06-19T08:21:56.000Z</time>
      </trkpt>
      <trkpt lat="47.29024" lon="-2.22994">
        <ele>14</ele>
        <time>2022-06-19T08:21:57.000Z</time>
      </trkpt>
      <trkpt lat="47.29028" lon="-2.22992">
        <ele>13.199999809265</ele>
        <time>2022-06-19T08:21:58.000Z</time>
      </trkpt>
      <trkpt lat="47.29038" lon="-2.2299">
        <ele>13.199999809265</ele>
        <time>2022-06-19T08:22:00.000Z</time>
      </trkpt>
      <trkpt lat="47.29044" lon="-2.22992">
        <ele>13.199999809265</ele>
        <time>2022-06-19T08:22:01.000Z</time>
      </trkpt>
      <trkpt lat="47.29057" lon="-2.23007">
        <ele>13.199999809265</ele>
        <time>2022-06-19T08:22:04.000Z</time>
      </trkpt>
      <trkpt lat="47.29066" lon="-2.23016">
        <ele>13.199999809265</ele>
        <time>2022-06-19T08:22:06.000Z</time>
      </trkpt>
      <trkpt lat="47.29079" lon="-2.23033">
        <ele>13.199999809265</ele>
        <time>2022-06-19T08:22:09.000Z</time>
      </trkpt>
      <trkpt lat="47.29112" lon="-2.23074">
        <ele>13.199999809265</ele>
        <time>2022-06-19T08:22:17.000Z</time>
      </trkpt>
      <trkpt lat="47.29142" lon="-2.23112">
        <ele>13.199999809265</ele>
        <time>2022-06-19T08:22:24.000Z</time>
      </trkpt>
      <trkpt lat="47.2918" lon="-2.23158">
        <ele>13.199999809265</ele>
        <time>2022-06-19T08:22:33.000Z</time>
      </trkpt>
      <trkpt lat="47.29183" lon="-2.23164">
        <ele>13.199999809265</ele>
        <time>2022-06-19T08:22:34.000Z</time>
      </trkpt>
      <trkpt lat="47.29193" lon="-2.23181">
        <ele>13.199999809265</ele>
        <time>2022-06-19T08:22:37.000Z</time>
      </trkpt>
      <trkpt lat="47.29199" lon="-2.23194">
        <ele>13.199999809265</ele>
        <time>2022-06-19T08:22:39.000Z</time>
      </trkpt>
      <trkpt lat="47.292" lon="-2.23209">
        <ele>13.199999809265</ele>
        <time>2022-06-19T08:22:41.000Z</time>
      </trkpt>
      <trkpt lat="47.29213" lon="-2.23237">
        <ele>13.199999809265</ele>
        <time>2022-06-19T08:22:45.000Z</time>
      </trkpt>
      <trkpt lat="47.29217" lon="-2.23242">
        <ele>13.199999809265</ele>
        <time>2022-06-19T08:22:46.000Z</time>
      </trkpt>
      <trkpt lat="47.29245" lon="-2.2328">
        <ele>13.199999809265</ele>
        <time>2022-06-19T08:22:53.000Z</time>
      </trkpt>
      <trkpt lat="47.29255" lon="-2.23298">
        <ele>13.199999809265</ele>
        <time>2022-06-19T08:22:56.000Z</time>
      </trkpt>
      <trkpt lat="47.29263" lon="-2.2332">
        <ele>13.199999809265</ele>
        <time>2022-06-19T08:22:59.000Z</time>
      </trkpt>
      <trkpt lat="47.29273" lon="-2.23368">
        <ele>13.199999809265</ele>
        <time>2022-06-19T08:23:05.000Z</time>
      </trkpt>
      <trkpt lat="47.29277" lon="-2.23393">
        <ele>13.199999809265</ele>
        <time>2022-06-19T08:23:08.000Z</time>
      </trkpt>
      <trkpt lat="47.29285" lon="-2.23426">
        <ele>13.199999809265</ele>
        <time>2022-06-19T08:23:12.000Z</time>
      </trkpt>
      <trkpt lat="47.29296" lon="-2.2348">
        <ele>13.199999809265</ele>
        <time>2022-06-19T08:23:19.000Z</time>
      </trkpt>
      <trkpt lat="47.29307" lon="-2.23545">
        <ele>13.199999809265</ele>
        <time>2022-06-19T08:23:27.000Z</time>
      </trkpt>
      <trkpt lat="47.29311" lon="-2.23604">
        <ele>13.199999809265</ele>
        <time>2022-06-19T08:23:33.000Z</time>
      </trkpt>
      <trkpt lat="47.29312" lon="-2.23657">
        <ele>13.199999809265</ele>
        <time>2022-06-19T08:23:39.000Z</time>
      </trkpt>
      <trkpt lat="47.29312" lon="-2.2372">
        <ele>13.199999809265</ele>
        <time>2022-06-19T08:23:47.000Z</time>
      </trkpt>
      <trkpt lat="47.29311" lon="-2.2377">
        <ele>13.199999809265</ele>
        <time>2022-06-19T08:23:54.000Z</time>
      </trkpt>
      <trkpt lat="47.29313" lon="-2.23776">
        <ele>13.199999809265</ele>
        <time>2022-06-19T08:23:55.000Z</time>
      </trkpt>
      <trkpt lat="47.29319" lon="-2.23784">
        <ele>13.199999809265</ele>
        <time>2022-06-19T08:23:57.000Z</time>
      </trkpt>
      <trkpt lat="47.29333" lon="-2.23784">
        <ele>13.199999809265</ele>
        <time>2022-06-19T08:24:00.000Z</time>
      </trkpt>
      <trkpt lat="47.29352" lon="-2.23793">
        <ele>13.199999809265</ele>
        <time>2022-06-19T08:24:04.000Z</time>
      </trkpt>
      <trkpt lat="47.29365" lon="-2.23785">
        <ele>13.199999809265</ele>
        <time>2022-06-19T08:24:07.000Z</time>
      </trkpt>
      <trkpt lat="47.29369" lon="-2.23764">
        <ele>13.199999809265</ele>
        <time>2022-06-19T08:24:10.000Z</time>
      </trkpt>
      <trkpt lat="47.29371" lon="-2.23749">
        <ele>13.199999809265</ele>
        <time>2022-06-19T08:24:12.000Z</time>
      </trkpt>
      <trkpt lat="47.29377" lon="-2.23721">
        <ele>13.199999809265</ele>
        <time>2022-06-19T08:24:16.000Z</time>
      </trkpt>
      <trkpt lat="47.29393" lon="-2.23704">
        <ele>13.199999809265</ele>
        <time>2022-06-19T08:24:20.000Z</time>
      </trkpt>
      <trkpt lat="47.29411" lon="-2.23697">
        <ele>13.199999809265</ele>
        <time>2022-06-19T08:24:24.000Z</time>
      </trkpt>
      <trkpt lat="47.29415" lon="-2.23697">
        <ele>13.199999809265</ele>
        <time>2022-06-19T08:24:25.000Z</time>
      </trkpt>
      <trkpt lat="47.2942" lon="-2.23696">
        <ele>13.60000038147</ele>
        <time>2022-06-19T08:24:26.000Z</time>
      </trkpt>
      <trkpt lat="47.29424" lon="-2.23695">
        <ele>14</ele>
        <time>2022-06-19T08:24:27.000Z</time>
      </trkpt>
      <trkpt lat="47.29429" lon="-2.23694">
        <ele>14.60000038147</ele>
        <time>2022-06-19T08:24:28.000Z</time>
      </trkpt>
      <trkpt lat="47.29434" lon="-2.23692">
        <ele>15</ele>
        <time>2022-06-19T08:24:29.000Z</time>
      </trkpt>
      <trkpt lat="47.29438" lon="-2.2369">
        <ele>15.39999961853</ele>
        <time>2022-06-19T08:24:30.000Z</time>
      </trkpt>
      <trkpt lat="47.29447" lon="-2.23687">
        <ele>15.39999961853</ele>
        <time>2022-06-19T08:24:32.000Z</time>
      </trkpt>
      <trkpt lat="47.29459" lon="-2.2368">
        <ele>15.800000190735</ele>
        <time>2022-06-19T08:24:35.000Z</time>
      </trkpt>
      <trkpt lat="47.29463" lon="-2.23678">
        <ele>16.39999961853</ele>
        <time>2022-06-19T08:24:36.000Z</time>
      </trkpt>
      <trkpt lat="47.29466" lon="-2.23676">
        <ele>16.799999237061</ele>
        <time>2022-06-19T08:24:37.000Z</time>
      </trkpt>
      <trkpt lat="47.2947" lon="-2.23673">
        <ele>17.200000762939</ele>
        <time>2022-06-19T08:24:38.000Z</time>
      </trkpt>
      <trkpt lat="47.29473" lon="-2.23671">
        <ele>17.799999237061</ele>
        <time>2022-06-19T08:24:39.000Z</time>
      </trkpt>
      <trkpt lat="47.29485" lon="-2.23665">
        <ele>17.799999237061</ele>
        <time>2022-06-19T08:24:42.000Z</time>
      </trkpt>
      <trkpt lat="47.29494" lon="-2.23672">
        <ele>17.799999237061</ele>
        <time>2022-06-19T08:24:44.000Z</time>
      </trkpt>
      <trkpt lat="47.29496" lon="-2.23696">
        <ele>17.799999237061</ele>
        <time>2022-06-19T08:24:47.000Z</time>
      </trkpt>
      <trkpt lat="47.29496" lon="-2.23705">
        <ele>17.799999237061</ele>
        <time>2022-06-19T08:24:48.000Z</time>
      </trkpt>
      <trkpt lat="47.29496" lon="-2.23714">
        <ele>17.39999961853</ele>
        <time>2022-06-19T08:24:49.000Z</time>
      </trkpt>
      <trkpt lat="47.29497" lon="-2.23724">
        <ele>16.799999237061</ele>
        <time>2022-06-19T08:24:50.000Z</time>
      </trkpt>
      <trkpt lat="47.29498" lon="-2.23733">
        <ele>16.39999961853</ele>
        <time>2022-06-19T08:24:51.000Z</time>
      </trkpt>
      <trkpt lat="47.29499" lon="-2.23744">
        <ele>16</ele>
        <time>2022-06-19T08:24:52.000Z</time>
      </trkpt>
      <trkpt lat="47.29501" lon="-2.23754">
        <ele>15.60000038147</ele>
        <time>2022-06-19T08:24:53.000Z</time>
      </trkpt>
      <trkpt lat="47.29508" lon="-2.23794">
        <ele>15.199999809265</ele>
        <time>2022-06-19T08:24:57.000Z</time>
      </trkpt>
      <trkpt lat="47.2951" lon="-2.23805">
        <ele>14.800000190735</ele>
        <time>2022-06-19T08:24:58.000Z</time>
      </trkpt>
      <trkpt lat="47.29513" lon="-2.23815">
        <ele>14.39999961853</ele>
        <time>2022-06-19T08:24:59.000Z</time>
      </trkpt>
      <trkpt lat="47.29516" lon="-2.23826">
        <ele>13.800000190735</ele>
        <time>2022-06-19T08:25:00.000Z</time>
      </trkpt>
      <trkpt lat="47.29518" lon="-2.23837">
        <ele>13.39999961853</ele>
        <time>2022-06-19T08:25:01.000Z</time>
      </trkpt>
      <trkpt lat="47.29528" lon="-2.23867">
        <ele>13.39999961853</ele>
        <time>2022-06-19T08:25:04.000Z</time>
      </trkpt>
      <trkpt lat="47.2953" lon="-2.23877">
        <ele>13</ele>
        <time>2022-06-19T08:25:05.000Z</time>
      </trkpt>
      <trkpt lat="47.29532" lon="-2.23886">
        <ele>12.60000038147</ele>
        <time>2022-06-19T08:25:06.000Z</time>
      </trkpt>
      <trkpt lat="47.29533" lon="-2.23896">
        <ele>12.199999809265</ele>
        <time>2022-06-19T08:25:07.000Z</time>
      </trkpt>
      <trkpt lat="47.29534" lon="-2.23905">
        <ele>11.60000038147</ele>
        <time>2022-06-19T08:25:08.000Z</time>
      </trkpt>
      <trkpt lat="47.29535" lon="-2.23914">
        <ele>11.199999809265</ele>
        <time>2022-06-19T08:25:09.000Z</time>
      </trkpt>
      <trkpt lat="47.29545" lon="-2.2398">
        <ele>11.199999809265</ele>
        <time>2022-06-19T08:25:16.000Z</time>
      </trkpt>
      <trkpt lat="47.29558" lon="-2.24052">
        <ele>11.199999809265</ele>
        <time>2022-06-19T08:25:24.000Z</time>
      </trkpt>
      <trkpt lat="47.29569" lon="-2.24121">
        <ele>11.199999809265</ele>
        <time>2022-06-19T08:25:32.000Z</time>
      </trkpt>
      <trkpt lat="47.29582" lon="-2.24184">
        <ele>11.199999809265</ele>
        <time>2022-06-19T08:25:40.000Z</time>
      </trkpt>
      <trkpt lat="47.29586" lon="-2.24206">
        <ele>11.199999809265</ele>
        <time>2022-06-19T08:25:43.000Z</time>
      </trkpt>
      <trkpt lat="47.29593" lon="-2.24212">
        <ele>11.199999809265</ele>
        <time>2022-06-19T08:25:45.000Z</time>
      </trkpt>
      <trkpt lat="47.29601" lon="-2.24208">
        <ele>11.60000038147</ele>
        <time>2022-06-19T08:25:47.000Z</time>
      </trkpt>
      <trkpt lat="47.29603" lon="-2.24202">
        <ele>12</ele>
        <time>2022-06-19T08:25:48.000Z</time>
      </trkpt>
      <trkpt lat="47.29605" lon="-2.24195">
        <ele>12.39999961853</ele>
        <time>2022-06-19T08:25:49.000Z</time>
      </trkpt>
      <trkpt lat="47.29606" lon="-2.24187">
        <ele>12.800000190735</ele>
        <time>2022-06-19T08:25:50.000Z</time>
      </trkpt>
      <trkpt lat="47.29607" lon="-2.24178">
        <ele>13.199999809265</ele>
        <time>2022-06-19T08:25:51.000Z</time>
      </trkpt>
      <trkpt lat="47.29611" lon="-2.24127">
        <ele>13.199999809265</ele>
        <time>2022-06-19T08:25:57.000Z</time>
      </trkpt>
      <trkpt lat="47.29613" lon="-2.2411">
        <ele>13.199999809265</ele>
        <time>2022-06-19T08:25:59.000Z</time>
      </trkpt>
      <trkpt lat="47.29618" lon="-2.24086">
        <ele>13.199999809265</ele>
        <time>2022-06-19T08:26:02.000Z</time>
      </trkpt>
      <trkpt lat="47.29622" lon="-2.24072">
        <ele>13.199999809265</ele>
        <time>2022-06-19T08:26:04.000Z</time>
      </trkpt>
      <trkpt lat="47.29627" lon="-2.24059">
        <ele>13.199999809265</ele>
        <time>2022-06-19T08:26:06.000Z</time>
      </trkpt>
      <trkpt lat="47.29628" lon="-2.24042">
        <ele>13.199999809265</ele>
        <time>2022-06-19T08:26:08.000Z</time>
      </trkpt>
      <trkpt lat="47.29629" lon="-2.24032">
        <ele>13.199999809265</ele>
        <time>2022-06-19T08:26:09.000Z</time>
      </trkpt>
      <trkpt lat="47.2963" lon="-2.24014">
        <ele>12.800000190735</ele>
        <time>2022-06-19T08:26:11.000Z</time>
      </trkpt>
      <trkpt lat="47.29631" lon="-2.24004">
        <ele>12.39999961853</ele>
        <time>2022-06-19T08:26:12.000Z</time>
      </trkpt>
      <trkpt lat="47.29634" lon="-2.23996">
        <ele>12</ele>
        <time>2022-06-19T08:26:13.000Z</time>
      </trkpt>
      <trkpt lat="47.29638" lon="-2.2399">
        <ele>11.60000038147</ele>
        <time>2022-06-19T08:26:14.000Z</time>
      </trkpt>
      <trkpt lat="47.29643" lon="-2.23984">
        <ele>11.199999809265</ele>
        <time>2022-06-19T08:26:15.000Z</time>
      </trkpt>
      <trkpt lat="47.29652" lon="-2.23974">
        <ele>10.800000190735</ele>
        <time>2022-06-19T08:26:17.000Z</time>
      </trkpt>
      <trkpt lat="47.29657" lon="-2.2397">
        <ele>10.39999961853</ele>
        <time>2022-06-19T08:26:18.000Z</time>
      </trkpt>
      <trkpt lat="47.29661" lon="-2.23966">
        <ele>10</ele>
        <time>2022-06-19T08:26:19.000Z</time>
      </trkpt>
      <trkpt lat="47.29666" lon="-2.23962">
        <ele>9.6000003814697</ele>
        <time>2022-06-19T08:26:20.000Z</time>
      </trkpt>
      <trkpt lat="47.29672" lon="-2.23958">
        <ele>9.1999998092651</ele>
        <time>2022-06-19T08:26:21.000Z</time>
      </trkpt>
      <trkpt lat="47.29693" lon="-2.23946">
        <ele>9.1999998092651</ele>
        <time>2022-06-19T08:26:25.000Z</time>
      </trkpt>
      <trkpt lat="47.29707" lon="-2.23936">
        <ele>9.1999998092651</ele>
        <time>2022-06-19T08:26:28.000Z</time>
      </trkpt>
      <trkpt lat="47.2971" lon="-2.23929">
        <ele>9.1999998092651</ele>
        <time>2022-06-19T08:26:29.000Z</time>
      </trkpt>
      <trkpt lat="47.29714" lon="-2.23901">
        <ele>9.1999998092651</ele>
        <time>2022-06-19T08:26:33.000Z</time>
      </trkpt>
      <trkpt lat="47.29715" lon="-2.23894">
        <ele>9.1999998092651</ele>
        <time>2022-06-19T08:26:34.000Z</time>
      </trkpt>
      <trkpt lat="47.29719" lon="-2.23866">
        <ele>9.1999998092651</ele>
        <time>2022-06-19T08:26:38.000Z</time>
      </trkpt>
      <trkpt lat="47.29721" lon="-2.2386">
        <ele>9.1999998092651</ele>
        <time>2022-06-19T08:26:39.000Z</time>
      </trkpt>
      <trkpt lat="47.29724" lon="-2.23848">
        <ele>9.1999998092651</ele>
        <time>2022-06-19T08:26:41.000Z</time>
      </trkpt>
      <trkpt lat="47.29736" lon="-2.23822">
        <ele>9.1999998092651</ele>
        <time>2022-06-19T08:26:45.000Z</time>
      </trkpt>
      <trkpt lat="47.29748" lon="-2.23804">
        <ele>9.1999998092651</ele>
        <time>2022-06-19T08:26:48.000Z</time>
      </trkpt>
      <trkpt lat="47.29759" lon="-2.23794">
        <ele>9.1999998092651</ele>
        <time>2022-06-19T08:26:50.000Z</time>
      </trkpt>
      <trkpt lat="47.29779" lon="-2.23788">
        <ele>9.1999998092651</ele>
        <time>2022-06-19T08:26:54.000Z</time>
      </trkpt>
      <trkpt lat="47.29789" lon="-2.23788">
        <ele>9.1999998092651</ele>
        <time>2022-06-19T08:26:56.000Z</time>
      </trkpt>
      <trkpt lat="47.29794" lon="-2.2379">
        <ele>9.1999998092651</ele>
        <time>2022-06-19T08:26:57.000Z</time>
      </trkpt>
      <trkpt lat="47.29805" lon="-2.23795">
        <ele>9.1999998092651</ele>
        <time>2022-06-19T08:26:59.000Z</time>
      </trkpt>
      <trkpt lat="47.29829" lon="-2.23813">
        <ele>9.1999998092651</ele>
        <time>2022-06-19T08:27:04.000Z</time>
      </trkpt>
      <trkpt lat="47.29844" lon="-2.23822">
        <ele>9.1999998092651</ele>
        <time>2022-06-19T08:27:07.000Z</time>
      </trkpt>
      <trkpt lat="47.29854" lon="-2.23824">
        <ele>9.1999998092651</ele>
        <time>2022-06-19T08:27:09.000Z</time>
      </trkpt>
      <trkpt lat="47.29877" lon="-2.2382">
        <ele>9.1999998092651</ele>
        <time>2022-06-19T08:27:14.000Z</time>
      </trkpt>
      <trkpt lat="47.29912" lon="-2.23821">
        <ele>9.1999998092651</ele>
        <time>2022-06-19T08:27:21.000Z</time>
      </trkpt>
      <trkpt lat="47.2994" lon="-2.23831">
        <ele>9.1999998092651</ele>
        <time>2022-06-19T08:27:27.000Z</time>
      </trkpt>
      <trkpt lat="47.29962" lon="-2.23846">
        <ele>9.1999998092651</ele>
        <time>2022-06-19T08:27:32.000Z</time>
      </trkpt>
      <trkpt lat="47.29982" lon="-2.23862">
        <ele>9.1999998092651</ele>
        <time>2022-06-19T08:27:36.000Z</time>
      </trkpt>
      <trkpt lat="47.29993" lon="-2.23878">
        <ele>9.1999998092651</ele>
        <time>2022-06-19T08:27:39.000Z</time>
      </trkpt>
      <trkpt lat="47.29999" lon="-2.23896">
        <ele>9.1999998092651</ele>
        <time>2022-06-19T08:27:42.000Z</time>
      </trkpt>
      <trkpt lat="47.3" lon="-2.23907">
        <ele>9.1999998092651</ele>
        <time>2022-06-19T08:27:44.000Z</time>
      </trkpt>
      <trkpt lat="47.29999" lon="-2.23925">
        <ele>9.1999998092651</ele>
        <time>2022-06-19T08:27:47.000Z</time>
      </trkpt>
      <trkpt lat="47.30001" lon="-2.23955">
        <ele>9.1999998092651</ele>
        <time>2022-06-19T08:27:53.000Z</time>
      </trkpt>
      <trkpt lat="47.29998" lon="-2.23988">
        <ele>9.1999998092651</ele>
        <time>2022-06-19T08:27:59.000Z</time>
      </trkpt>
      <trkpt lat="47.29997" lon="-2.24017">
        <ele>9.1999998092651</ele>
        <time>2022-06-19T08:28:04.000Z</time>
      </trkpt>
      <trkpt lat="47.29997" lon="-2.24028">
        <ele>9.6000003814697</ele>
        <time>2022-06-19T08:28:06.000Z</time>
      </trkpt>
      <trkpt lat="47.29996" lon="-2.24034">
        <ele>10</ele>
        <time>2022-06-19T08:28:07.000Z</time>
      </trkpt>
      <trkpt lat="47.29996" lon="-2.24039">
        <ele>10.39999961853</ele>
        <time>2022-06-19T08:28:08.000Z</time>
      </trkpt>
      <trkpt lat="47.29996" lon="-2.24045">
        <ele>10.800000190735</ele>
        <time>2022-06-19T08:28:09.000Z</time>
      </trkpt>
      <trkpt lat="47.29997" lon="-2.24051">
        <ele>11.199999809265</ele>
        <time>2022-06-19T08:28:10.000Z</time>
      </trkpt>
      <trkpt lat="47.29997" lon="-2.24057">
        <ele>11.199999809265</ele>
        <time>2022-06-19T08:28:11.000Z</time>
      </trkpt>
      <trkpt lat="47.3" lon="-2.24103">
        <ele>11.60000038147</ele>
        <time>2022-06-19T08:28:18.000Z</time>
      </trkpt>
      <trkpt lat="47.3" lon="-2.24109">
        <ele>12</ele>
        <time>2022-06-19T08:28:19.000Z</time>
      </trkpt>
      <trkpt lat="47.29999" lon="-2.24115">
        <ele>12.60000038147</ele>
        <time>2022-06-19T08:28:20.000Z</time>
      </trkpt>
      <trkpt lat="47.29999" lon="-2.2412">
        <ele>13</ele>
        <time>2022-06-19T08:28:21.000Z</time>
      </trkpt>
      <trkpt lat="47.29998" lon="-2.24124">
        <ele>13.39999961853</ele>
        <time>2022-06-19T08:28:22.000Z</time>
      </trkpt>
      <trkpt lat="47.29996" lon="-2.24132">
        <ele>13.800000190735</ele>
        <time>2022-06-19T08:28:24.000Z</time>
      </trkpt>
      <trkpt lat="47.29996" lon="-2.24136">
        <ele>14.39999961853</ele>
        <time>2022-06-19T08:28:25.000Z</time>
      </trkpt>
      <trkpt lat="47.29996" lon="-2.24139">
        <ele>14.800000190735</ele>
        <time>2022-06-19T08:28:26.000Z</time>
      </trkpt>
      <trkpt lat="47.29997" lon="-2.24142">
        <ele>15.199999809265</ele>
        <time>2022-06-19T08:28:27.000Z</time>
      </trkpt>
      <trkpt lat="47.29999" lon="-2.24143">
        <ele>15.800000190735</ele>
        <time>2022-06-19T08:28:28.000Z</time>
      </trkpt>
      <trkpt lat="47.30015" lon="-2.24155">
        <ele>15.800000190735</ele>
        <time>2022-06-19T08:28:33.000Z</time>
      </trkpt>
      <trkpt lat="47.30029" lon="-2.24174">
        <ele>15.800000190735</ele>
        <time>2022-06-19T08:28:38.000Z</time>
      </trkpt>
      <trkpt lat="47.30029" lon="-2.24197">
        <ele>15.800000190735</ele>
        <time>2022-06-19T08:28:43.000Z</time>
      </trkpt>
      <trkpt lat="47.30029" lon="-2.24201">
        <ele>16.200000762939</ele>
        <time>2022-06-19T08:28:45.000Z</time>
      </trkpt>
      <trkpt lat="47.30029" lon="-2.24202">
        <ele>16.60000038147</ele>
        <time>2022-06-19T08:28:46.000Z</time>
      </trkpt>
      <trkpt lat="47.3003" lon="-2.24203">
        <ele>17.200000762939</ele>
        <time>2022-06-19T08:28:47.000Z</time>
      </trkpt>
      <trkpt lat="47.30031" lon="-2.24203">
        <ele>17.60000038147</ele>
        <time>2022-06-19T08:28:48.000Z</time>
      </trkpt>
      <trkpt lat="47.30032" lon="-2.24203">
        <ele>18.200000762939</ele>
        <time>2022-06-19T08:28:49.000Z</time>
      </trkpt>
      <trkpt lat="47.30033" lon="-2.24201">
        <ele>18.200000762939</ele>
        <time>2022-06-19T08:28:52.000Z</time>
      </trkpt>
      <trkpt lat="47.30033" lon="-2.24199">
        <ele>18.200000762939</ele>
        <time>2022-06-19T08:28:53.000Z</time>
      </trkpt>
      <trkpt lat="47.30035" lon="-2.2418">
        <ele>18.200000762939</ele>
        <time>2022-06-19T08:29:00.000Z</time>
      </trkpt>
      <trkpt lat="47.30035" lon="-2.24162">
        <ele>18.200000762939</ele>
        <time>2022-06-19T08:29:05.000Z</time>
      </trkpt>
      <trkpt lat="47.30038" lon="-2.2415">
        <ele>18.200000762939</ele>
        <time>2022-06-19T08:29:11.000Z</time>
      </trkpt>
      <trkpt lat="47.30043" lon="-2.24139">
        <ele>18.200000762939</ele>
        <time>2022-06-19T08:29:17.000Z</time>
      </trkpt>
      <trkpt lat="47.30049" lon="-2.24132">
        <ele>16.200000762939</ele>
        <time>2022-06-19T08:30:09.000Z</time>
      </trkpt>
      <trkpt lat="47.30064" lon="-2.24124">
        <ele>16.200000762939</ele>
        <time>2022-06-19T08:30:14.000Z</time>
      </trkpt>
      <trkpt lat="47.30068" lon="-2.24121">
        <ele>16.200000762939</ele>
        <time>2022-06-19T08:30:15.000Z</time>
      </trkpt>
      <trkpt lat="47.30085" lon="-2.2411">
        <ele>16.200000762939</ele>
        <time>2022-06-19T08:30:20.000Z</time>
      </trkpt>
      <trkpt lat="47.30111" lon="-2.24095">
        <ele>16.200000762939</ele>
        <time>2022-06-19T08:30:26.000Z</time>
      </trkpt>
      <trkpt lat="47.30144" lon="-2.24077">
        <ele>16.200000762939</ele>
        <time>2022-06-19T08:30:33.000Z</time>
      </trkpt>
      <trkpt lat="47.30176" lon="-2.24064">
        <ele>16.200000762939</ele>
        <time>2022-06-19T08:30:39.000Z</time>
      </trkpt>
      <trkpt lat="47.30182" lon="-2.24063">
        <ele>16.200000762939</ele>
        <time>2022-06-19T08:30:40.000Z</time>
      </trkpt>
      <trkpt lat="47.30212" lon="-2.24061">
        <ele>16.200000762939</ele>
        <time>2022-06-19T08:30:45.000Z</time>
      </trkpt>
      <trkpt lat="47.30223" lon="-2.24062">
        <ele>16.200000762939</ele>
        <time>2022-06-19T08:30:47.000Z</time>
      </trkpt>
      <trkpt lat="47.30245" lon="-2.24064">
        <ele>16.200000762939</ele>
        <time>2022-06-19T08:30:51.000Z</time>
      </trkpt>
      <trkpt lat="47.30268" lon="-2.24063">
        <ele>16.200000762939</ele>
        <time>2022-06-19T08:30:56.000Z</time>
      </trkpt>
      <trkpt lat="47.30271" lon="-2.24058">
        <ele>16.200000762939</ele>
        <time>2022-06-19T08:30:57.000Z</time>
      </trkpt>
      <trkpt lat="47.30276" lon="-2.24036">
        <ele>16.200000762939</ele>
        <time>2022-06-19T08:31:00.000Z</time>
      </trkpt>
      <trkpt lat="47.30277" lon="-2.24028">
        <ele>15.60000038147</ele>
        <time>2022-06-19T08:31:01.000Z</time>
      </trkpt>
      <trkpt lat="47.30278" lon="-2.2402">
        <ele>15.199999809265</ele>
        <time>2022-06-19T08:31:02.000Z</time>
      </trkpt>
      <trkpt lat="47.30278" lon="-2.24012">
        <ele>14.800000190735</ele>
        <time>2022-06-19T08:31:03.000Z</time>
      </trkpt>
      <trkpt lat="47.30278" lon="-2.24005">
        <ele>14.39999961853</ele>
        <time>2022-06-19T08:31:04.000Z</time>
      </trkpt>
      <trkpt lat="47.30278" lon="-2.23998">
        <ele>14</ele>
        <time>2022-06-19T08:31:05.000Z</time>
      </trkpt>
      <trkpt lat="47.30277" lon="-2.23991">
        <ele>14</ele>
        <time>2022-06-19T08:31:06.000Z</time>
      </trkpt>
      <trkpt lat="47.30276" lon="-2.23984">
        <ele>13.60000038147</ele>
        <time>2022-06-19T08:31:07.000Z</time>
      </trkpt>
      <trkpt lat="47.30274" lon="-2.23978">
        <ele>13.199999809265</ele>
        <time>2022-06-19T08:31:08.000Z</time>
      </trkpt>
      <trkpt lat="47.30273" lon="-2.23971">
        <ele>12.800000190735</ele>
        <time>2022-06-19T08:31:09.000Z</time>
      </trkpt>
      <trkpt lat="47.30274" lon="-2.23964">
        <ele>12.39999961853</ele>
        <time>2022-06-19T08:31:10.000Z</time>
      </trkpt>
      <trkpt lat="47.30273" lon="-2.23953">
        <ele>12</ele>
        <time>2022-06-19T08:31:11.000Z</time>
      </trkpt>
      <trkpt lat="47.30271" lon="-2.23929">
        <ele>12</ele>
        <time>2022-06-19T08:31:13.000Z</time>
      </trkpt>
      <trkpt lat="47.30281" lon="-2.23895">
        <ele>12</ele>
        <time>2022-06-19T08:31:18.000Z</time>
      </trkpt>
      <trkpt lat="47.30308" lon="-2.23887">
        <ele>12</ele>
        <time>2022-06-19T08:31:22.000Z</time>
      </trkpt>
      <trkpt lat="47.30352" lon="-2.23869">
        <ele>12</ele>
        <time>2022-06-19T08:31:29.000Z</time>
      </trkpt>
      <trkpt lat="47.30387" lon="-2.23857">
        <ele>11.39999961853</ele>
        <time>2022-06-19T08:31:35.000Z</time>
      </trkpt>
      <trkpt lat="47.30393" lon="-2.23857">
        <ele>11</ele>
        <time>2022-06-19T08:31:36.000Z</time>
      </trkpt>
      <trkpt lat="47.30399" lon="-2.23855">
        <ele>10.60000038147</ele>
        <time>2022-06-19T08:31:37.000Z</time>
      </trkpt>
      <trkpt lat="47.30406" lon="-2.23855">
        <ele>10.199999809265</ele>
        <time>2022-06-19T08:31:38.000Z</time>
      </trkpt>
      <trkpt lat="47.30412" lon="-2.23854">
        <ele>9.8000001907349</ele>
        <time>2022-06-19T08:31:39.000Z</time>
      </trkpt>
      <trkpt lat="47.30428" lon="-2.23851">
        <ele>9.8000001907349</ele>
        <time>2022-06-19T08:31:42.000Z</time>
      </trkpt>
      <trkpt lat="47.30462" lon="-2.23841">
        <ele>9.8000001907349</ele>
        <time>2022-06-19T08:31:49.000Z</time>
      </trkpt>
      <trkpt lat="47.30484" lon="-2.23839">
        <ele>9.8000001907349</ele>
        <time>2022-06-19T08:31:53.000Z</time>
      </trkpt>
      <trkpt lat="47.30495" lon="-2.23844">
        <ele>9.8000001907349</ele>
        <time>2022-06-19T08:31:55.000Z</time>
      </trkpt>
      <trkpt lat="47.30508" lon="-2.23858">
        <ele>9.8000001907349</ele>
        <time>2022-06-19T08:31:58.000Z</time>
      </trkpt>
      <trkpt lat="47.30512" lon="-2.23863">
        <ele>9.8000001907349</ele>
        <time>2022-06-19T08:31:59.000Z</time>
      </trkpt>
      <trkpt lat="47.30518" lon="-2.23873">
        <ele>9.8000001907349</ele>
        <time>2022-06-19T08:32:01.000Z</time>
      </trkpt>
      <trkpt lat="47.30527" lon="-2.23883">
        <ele>9.8000001907349</ele>
        <time>2022-06-19T08:32:04.000Z</time>
      </trkpt>
      <trkpt lat="47.3053" lon="-2.23887">
        <ele>9.8000001907349</ele>
        <time>2022-06-19T08:32:08.000Z</time>
      </trkpt>
      <trkpt lat="47.30531" lon="-2.23892">
        <ele>9.8000001907349</ele>
        <time>2022-06-19T08:32:22.000Z</time>
      </trkpt>
      <trkpt lat="47.30533" lon="-2.23897">
        <ele>9.8000001907349</ele>
        <time>2022-06-19T08:32:24.000Z</time>
      </trkpt>
      <trkpt lat="47.30545" lon="-2.23914">
        <ele>9.8000001907349</ele>
        <time>2022-06-19T08:32:29.000Z</time>
      </trkpt>
      <trkpt lat="47.30548" lon="-2.23918">
        <ele>9.8000001907349</ele>
        <time>2022-06-19T08:32:30.000Z</time>
      </trkpt>
      <trkpt lat="47.3055" lon="-2.23936">
        <ele>9.8000001907349</ele>
        <time>2022-06-19T08:32:33.000Z</time>
      </trkpt>
      <trkpt lat="47.30539" lon="-2.23956">
        <ele>9.8000001907349</ele>
        <time>2022-06-19T08:32:37.000Z</time>
      </trkpt>
      <trkpt lat="47.30532" lon="-2.23964">
        <ele>9.8000001907349</ele>
        <time>2022-06-19T08:32:39.000Z</time>
      </trkpt>
      <trkpt lat="47.30519" lon="-2.23982">
        <ele>10.199999809265</ele>
        <time>2022-06-19T08:32:43.000Z</time>
      </trkpt>
      <trkpt lat="47.30516" lon="-2.23987">
        <ele>10.60000038147</ele>
        <time>2022-06-19T08:32:44.000Z</time>
      </trkpt>
      <trkpt lat="47.30512" lon="-2.23991">
        <ele>11.199999809265</ele>
        <time>2022-06-19T08:32:45.000Z</time>
      </trkpt>
      <trkpt lat="47.30509" lon="-2.23996">
        <ele>11.60000038147</ele>
        <time>2022-06-19T08:32:46.000Z</time>
      </trkpt>
      <trkpt lat="47.30506" lon="-2.24">
        <ele>12</ele>
        <time>2022-06-19T08:32:47.000Z</time>
      </trkpt>
      <trkpt lat="47.30503" lon="-2.24005">
        <ele>12</ele>
        <time>2022-06-19T08:32:48.000Z</time>
      </trkpt>
      <trkpt lat="47.30501" lon="-2.2401">
        <ele>12.39999961853</ele>
        <time>2022-06-19T08:32:49.000Z</time>
      </trkpt>
      <trkpt lat="47.30499" lon="-2.24014">
        <ele>12.800000190735</ele>
        <time>2022-06-19T08:32:50.000Z</time>
      </trkpt>
      <trkpt lat="47.30496" lon="-2.24018">
        <ele>13.199999809265</ele>
        <time>2022-06-19T08:32:51.000Z</time>
      </trkpt>
      <trkpt lat="47.30493" lon="-2.24022">
        <ele>13.60000038147</ele>
        <time>2022-06-19T08:32:52.000Z</time>
      </trkpt>
      <trkpt lat="47.3049" lon="-2.24025">
        <ele>14.199999809265</ele>
        <time>2022-06-19T08:32:53.000Z</time>
      </trkpt>
      <trkpt lat="47.30486" lon="-2.24028">
        <ele>14.199999809265</ele>
        <time>2022-06-19T08:32:54.000Z</time>
      </trkpt>
      <trkpt lat="47.30483" lon="-2.24031">
        <ele>14.60000038147</ele>
        <time>2022-06-19T08:32:55.000Z</time>
      </trkpt>
      <trkpt lat="47.3048" lon="-2.24033">
        <ele>15</ele>
        <time>2022-06-19T08:32:56.000Z</time>
      </trkpt>
      <trkpt lat="47.30477" lon="-2.24035">
        <ele>15.39999961853</ele>
        <time>2022-06-19T08:32:57.000Z</time>
      </trkpt>
      <trkpt lat="47.30473" lon="-2.24036">
        <ele>16</ele>
        <time>2022-06-19T08:32:58.000Z</time>
      </trkpt>
      <trkpt lat="47.3047" lon="-2.24037">
        <ele>16.39999961853</ele>
        <time>2022-06-19T08:32:59.000Z</time>
      </trkpt>
      <trkpt lat="47.3046" lon="-2.24044">
        <ele>16.799999237061</ele>
        <time>2022-06-19T08:33:02.000Z</time>
      </trkpt>
      <trkpt lat="47.30457" lon="-2.24048">
        <ele>17.200000762939</ele>
        <time>2022-06-19T08:33:03.000Z</time>
      </trkpt>
      <trkpt lat="47.30454" lon="-2.24051">
        <ele>17.799999237061</ele>
        <time>2022-06-19T08:33:04.000Z</time>
      </trkpt>
      <trkpt lat="47.30451" lon="-2.24054">
        <ele>18.200000762939</ele>
        <time>2022-06-19T08:33:05.000Z</time>
      </trkpt>
      <trkpt lat="47.30448" lon="-2.24057">
        <ele>18.60000038147</ele>
        <time>2022-06-19T08:33:06.000Z</time>
      </trkpt>
      <trkpt lat="47.30436" lon="-2.24071">
        <ele>18.60000038147</ele>
        <time>2022-06-19T08:33:11.000Z</time>
      </trkpt>
      <trkpt lat="47.30428" lon="-2.24082">
        <ele>19</ele>
        <time>2022-06-19T08:33:14.000Z</time>
      </trkpt>
      <trkpt lat="47.30425" lon="-2.24086">
        <ele>20</ele>
        <time>2022-06-19T08:33:15.000Z</time>
      </trkpt>
      <trkpt lat="47.30423" lon="-2.24088">
        <ele>20.39999961853</ele>
        <time>2022-06-19T08:33:16.000Z</time>
      </trkpt>
      <trkpt lat="47.3042" lon="-2.24091">
        <ele>20.799999237061</ele>
        <time>2022-06-19T08:33:17.000Z</time>
      </trkpt>
      <trkpt lat="47.30418" lon="-2.24093">
        <ele>20.799999237061</ele>
        <time>2022-06-19T08:33:18.000Z</time>
      </trkpt>
      <trkpt lat="47.30407" lon="-2.24105">
        <ele>21.200000762939</ele>
        <time>2022-06-19T08:33:22.000Z</time>
      </trkpt>
      <trkpt lat="47.30404" lon="-2.24109">
        <ele>21.60000038147</ele>
        <time>2022-06-19T08:33:23.000Z</time>
      </trkpt>
      <trkpt lat="47.30402" lon="-2.24111">
        <ele>22</ele>
        <time>2022-06-19T08:33:24.000Z</time>
      </trkpt>
      <trkpt lat="47.30399" lon="-2.24114">
        <ele>22.39999961853</ele>
        <time>2022-06-19T08:33:25.000Z</time>
      </trkpt>
      <trkpt lat="47.30396" lon="-2.24117">
        <ele>22.799999237061</ele>
        <time>2022-06-19T08:33:26.000Z</time>
      </trkpt>
      <trkpt lat="47.3038" lon="-2.24139">
        <ele>22.799999237061</ele>
        <time>2022-06-19T08:33:31.000Z</time>
      </trkpt>
      <trkpt lat="47.3036" lon="-2.2417">
        <ele>22.799999237061</ele>
        <time>2022-06-19T08:33:35.000Z</time>
      </trkpt>
      <trkpt lat="47.30357" lon="-2.24179">
        <ele>22.799999237061</ele>
        <time>2022-06-19T08:33:36.000Z</time>
      </trkpt>
      <trkpt lat="47.30361" lon="-2.24201">
        <ele>22.799999237061</ele>
        <time>2022-06-19T08:33:39.000Z</time>
      </trkpt>
      <trkpt lat="47.30367" lon="-2.2421">
        <ele>22.799999237061</ele>
        <time>2022-06-19T08:33:41.000Z</time>
      </trkpt>
      <trkpt lat="47.30378" lon="-2.24223">
        <ele>22.799999237061</ele>
        <time>2022-06-19T08:33:44.000Z</time>
      </trkpt>
      <trkpt lat="47.30403" lon="-2.24254">
        <ele>22.799999237061</ele>
        <time>2022-06-19T08:33:51.000Z</time>
      </trkpt>
      <trkpt lat="47.3042" lon="-2.2427">
        <ele>22.799999237061</ele>
        <time>2022-06-19T08:33:55.000Z</time>
      </trkpt>
      <trkpt lat="47.30425" lon="-2.24271">
        <ele>22.799999237061</ele>
        <time>2022-06-19T08:33:56.000Z</time>
      </trkpt>
      <trkpt lat="47.30441" lon="-2.24274">
        <ele>22.799999237061</ele>
        <time>2022-06-19T08:33:59.000Z</time>
      </trkpt>
      <trkpt lat="47.30453" lon="-2.24277">
        <ele>22.799999237061</ele>
        <time>2022-06-19T08:34:01.000Z</time>
      </trkpt>
      <trkpt lat="47.30459" lon="-2.24279">
        <ele>22.799999237061</ele>
        <time>2022-06-19T08:34:02.000Z</time>
      </trkpt>
      <trkpt lat="47.30479" lon="-2.24287">
        <ele>22.799999237061</ele>
        <time>2022-06-19T08:34:06.000Z</time>
      </trkpt>
      <trkpt lat="47.30498" lon="-2.243">
        <ele>22.799999237061</ele>
        <time>2022-06-19T08:34:10.000Z</time>
      </trkpt>
      <trkpt lat="47.30506" lon="-2.2431">
        <ele>22.799999237061</ele>
        <time>2022-06-19T08:34:12.000Z</time>
      </trkpt>
      <trkpt lat="47.30514" lon="-2.24318">
        <ele>22.799999237061</ele>
        <time>2022-06-19T08:34:14.000Z</time>
      </trkpt>
      <trkpt lat="47.30528" lon="-2.24335">
        <ele>22.799999237061</ele>
        <time>2022-06-19T08:34:18.000Z</time>
      </trkpt>
      <trkpt lat="47.30532" lon="-2.24339">
        <ele>22.799999237061</ele>
        <time>2022-06-19T08:34:19.000Z</time>
      </trkpt>
      <trkpt lat="47.30546" lon="-2.24346">
        <ele>22.799999237061</ele>
        <time>2022-06-19T08:34:23.000Z</time>
      </trkpt>
      <trkpt lat="47.30552" lon="-2.24348">
        <ele>22.799999237061</ele>
        <time>2022-06-19T08:34:26.000Z</time>
      </trkpt>
      <trkpt lat="47.30555" lon="-2.24359">
        <ele>20.799999237061</ele>
        <time>2022-06-19T08:46:31.000Z</time>
      </trkpt>
      <trkpt lat="47.30563" lon="-2.24374">
        <ele>20.799999237061</ele>
        <time>2022-06-19T08:46:35.000Z</time>
      </trkpt>
      <trkpt lat="47.30573" lon="-2.24384">
        <ele>20.39999961853</ele>
        <time>2022-06-19T08:46:38.000Z</time>
      </trkpt>
      <trkpt lat="47.30576" lon="-2.24388">
        <ele>20</ele>
        <time>2022-06-19T08:46:39.000Z</time>
      </trkpt>
      <trkpt lat="47.30578" lon="-2.2439">
        <ele>19.60000038147</ele>
        <time>2022-06-19T08:46:40.000Z</time>
      </trkpt>
      <trkpt lat="47.30578" lon="-2.24391">
        <ele>19.200000762939</ele>
        <time>2022-06-19T08:46:41.000Z</time>
      </trkpt>
      <trkpt lat="47.30578" lon="-2.2439">
        <ele>18.799999237061</ele>
        <time>2022-06-19T08:46:42.000Z</time>
      </trkpt>
      <trkpt lat="47.30581" lon="-2.24393">
        <ele>18.799999237061</ele>
        <time>2022-06-19T08:46:46.000Z</time>
      </trkpt>
      <trkpt lat="47.30583" lon="-2.24395">
        <ele>18.799999237061</ele>
        <time>2022-06-19T08:46:47.000Z</time>
      </trkpt>
      <trkpt lat="47.30599" lon="-2.24409">
        <ele>18.799999237061</ele>
        <time>2022-06-19T08:46:52.000Z</time>
      </trkpt>
      <trkpt lat="47.30619" lon="-2.24418">
        <ele>18.799999237061</ele>
        <time>2022-06-19T08:46:56.000Z</time>
      </trkpt>
      <trkpt lat="47.30623" lon="-2.2442">
        <ele>18.799999237061</ele>
        <time>2022-06-19T08:46:57.000Z</time>
      </trkpt>
      <trkpt lat="47.30627" lon="-2.24423">
        <ele>18.200000762939</ele>
        <time>2022-06-19T08:46:58.000Z</time>
      </trkpt>
      <trkpt lat="47.3063" lon="-2.24427">
        <ele>17.799999237061</ele>
        <time>2022-06-19T08:46:59.000Z</time>
      </trkpt>
      <trkpt lat="47.30632" lon="-2.24434">
        <ele>17.39999961853</ele>
        <time>2022-06-19T08:47:00.000Z</time>
      </trkpt>
      <trkpt lat="47.30632" lon="-2.24442">
        <ele>17</ele>
        <time>2022-06-19T08:47:01.000Z</time>
      </trkpt>
      <trkpt lat="47.30631" lon="-2.24451">
        <ele>16.60000038147</ele>
        <time>2022-06-19T08:47:02.000Z</time>
      </trkpt>
      <trkpt lat="47.30628" lon="-2.24468">
        <ele>16.200000762939</ele>
        <time>2022-06-19T08:47:04.000Z</time>
      </trkpt>
      <trkpt lat="47.30627" lon="-2.24477">
        <ele>15.800000190735</ele>
        <time>2022-06-19T08:47:05.000Z</time>
      </trkpt>
      <trkpt lat="47.30625" lon="-2.24487">
        <ele>15.39999961853</ele>
        <time>2022-06-19T08:47:06.000Z</time>
      </trkpt>
      <trkpt lat="47.30624" lon="-2.24497">
        <ele>15</ele>
        <time>2022-06-19T08:47:07.000Z</time>
      </trkpt>
      <trkpt lat="47.30622" lon="-2.24506">
        <ele>14.60000038147</ele>
        <time>2022-06-19T08:47:08.000Z</time>
      </trkpt>
      <trkpt lat="47.3062" lon="-2.24527">
        <ele>14</ele>
        <time>2022-06-19T08:47:10.000Z</time>
      </trkpt>
      <trkpt lat="47.30619" lon="-2.24538">
        <ele>13.60000038147</ele>
        <time>2022-06-19T08:47:11.000Z</time>
      </trkpt>
      <trkpt lat="47.30618" lon="-2.24548">
        <ele>13.199999809265</ele>
        <time>2022-06-19T08:47:12.000Z</time>
      </trkpt>
      <trkpt lat="47.30616" lon="-2.24559">
        <ele>12.60000038147</ele>
        <time>2022-06-19T08:47:13.000Z</time>
      </trkpt>
      <trkpt lat="47.30615" lon="-2.24569">
        <ele>12.199999809265</ele>
        <time>2022-06-19T08:47:14.000Z</time>
      </trkpt>
      <trkpt lat="47.30614" lon="-2.2458">
        <ele>11.39999961853</ele>
        <time>2022-06-19T08:47:15.000Z</time>
      </trkpt>
      <trkpt lat="47.30613" lon="-2.24591">
        <ele>11</ele>
        <time>2022-06-19T08:47:16.000Z</time>
      </trkpt>
      <trkpt lat="47.30613" lon="-2.24602">
        <ele>10.39999961853</ele>
        <time>2022-06-19T08:47:17.000Z</time>
      </trkpt>
      <trkpt lat="47.30613" lon="-2.24614">
        <ele>10</ele>
        <time>2022-06-19T08:47:18.000Z</time>
      </trkpt>
      <trkpt lat="47.30615" lon="-2.24625">
        <ele>10</ele>
        <time>2022-06-19T08:47:19.000Z</time>
      </trkpt>
      <trkpt lat="47.30626" lon="-2.24666">
        <ele>10</ele>
        <time>2022-06-19T08:47:23.000Z</time>
      </trkpt>
      <trkpt lat="47.30635" lon="-2.24693">
        <ele>9.6000003814697</ele>
        <time>2022-06-19T08:47:26.000Z</time>
      </trkpt>
      <trkpt lat="47.30638" lon="-2.24701">
        <ele>9.1999998092651</ele>
        <time>2022-06-19T08:47:27.000Z</time>
      </trkpt>
      <trkpt lat="47.3064" lon="-2.2471">
        <ele>8.8000001907349</ele>
        <time>2022-06-19T08:47:28.000Z</time>
      </trkpt>
      <trkpt lat="47.30643" lon="-2.24719">
        <ele>8.3999996185303</ele>
        <time>2022-06-19T08:47:29.000Z</time>
      </trkpt>
      <trkpt lat="47.30646" lon="-2.24727">
        <ele>8</ele>
        <time>2022-06-19T08:47:30.000Z</time>
      </trkpt>
      <trkpt lat="47.30649" lon="-2.24735">
        <ele>8</ele>
        <time>2022-06-19T08:47:31.000Z</time>
      </trkpt>
      <trkpt lat="47.30669" lon="-2.24779">
        <ele>8</ele>
        <time>2022-06-19T08:47:37.000Z</time>
      </trkpt>
      <trkpt lat="47.30697" lon="-2.24814">
        <ele>8</ele>
        <time>2022-06-19T08:47:43.000Z</time>
      </trkpt>
      <trkpt lat="47.30709" lon="-2.24837">
        <ele>8</ele>
        <time>2022-06-19T08:47:47.000Z</time>
      </trkpt>
      <trkpt lat="47.30732" lon="-2.24874">
        <ele>8</ele>
        <time>2022-06-19T08:47:53.000Z</time>
      </trkpt>
      <trkpt lat="47.30754" lon="-2.24891">
        <ele>8</ele>
        <time>2022-06-19T08:47:57.000Z</time>
      </trkpt>
      <trkpt lat="47.3076" lon="-2.24894">
        <ele>8</ele>
        <time>2022-06-19T08:47:58.000Z</time>
      </trkpt>
      <trkpt lat="47.30813" lon="-2.24916">
        <ele>8</ele>
        <time>2022-06-19T08:48:07.000Z</time>
      </trkpt>
      <trkpt lat="47.30824" lon="-2.24917">
        <ele>8</ele>
        <time>2022-06-19T08:48:09.000Z</time>
      </trkpt>
      <trkpt lat="47.30841" lon="-2.24914">
        <ele>8</ele>
        <time>2022-06-19T08:48:12.000Z</time>
      </trkpt>
      <trkpt lat="47.3086" lon="-2.24894">
        <ele>8</ele>
        <time>2022-06-19T08:48:16.000Z</time>
      </trkpt>
      <trkpt lat="47.30869" lon="-2.2488">
        <ele>8</ele>
        <time>2022-06-19T08:48:18.000Z</time>
      </trkpt>
      <trkpt lat="47.30896" lon="-2.24842">
        <ele>8</ele>
        <time>2022-06-19T08:48:24.000Z</time>
      </trkpt>
      <trkpt lat="47.30937" lon="-2.24788">
        <ele>8</ele>
        <time>2022-06-19T08:48:33.000Z</time>
      </trkpt>
      <trkpt lat="47.30954" lon="-2.24768">
        <ele>8</ele>
        <time>2022-06-19T08:48:37.000Z</time>
      </trkpt>
      <trkpt lat="47.30963" lon="-2.24761">
        <ele>8</ele>
        <time>2022-06-19T08:48:39.000Z</time>
      </trkpt>
      <trkpt lat="47.30992" lon="-2.24751">
        <ele>8</ele>
        <time>2022-06-19T08:48:44.000Z</time>
      </trkpt>
      <trkpt lat="47.31018" lon="-2.24754">
        <ele>8</ele>
        <time>2022-06-19T08:48:48.000Z</time>
      </trkpt>
      <trkpt lat="47.31024" lon="-2.24756">
        <ele>8</ele>
        <time>2022-06-19T08:48:49.000Z</time>
      </trkpt>
      <trkpt lat="47.31047" lon="-2.24765">
        <ele>8</ele>
        <time>2022-06-19T08:48:53.000Z</time>
      </trkpt>
      <trkpt lat="47.31057" lon="-2.24769">
        <ele>8</ele>
        <time>2022-06-19T08:48:55.000Z</time>
      </trkpt>
      <trkpt lat="47.31091" lon="-2.24775">
        <ele>8</ele>
        <time>2022-06-19T08:49:01.000Z</time>
      </trkpt>
      <trkpt lat="47.31102" lon="-2.24773">
        <ele>8</ele>
        <time>2022-06-19T08:49:03.000Z</time>
      </trkpt>
      <trkpt lat="47.31119" lon="-2.24766">
        <ele>8</ele>
        <time>2022-06-19T08:49:06.000Z</time>
      </trkpt>
      <trkpt lat="47.31142" lon="-2.24748">
        <ele>8</ele>
        <time>2022-06-19T08:49:11.000Z</time>
      </trkpt>
      <trkpt lat="47.31146" lon="-2.24745">
        <ele>8</ele>
        <time>2022-06-19T08:49:12.000Z</time>
      </trkpt>
      <trkpt lat="47.31157" lon="-2.24733">
        <ele>8</ele>
        <time>2022-06-19T08:49:15.000Z</time>
      </trkpt>
      <trkpt lat="47.31163" lon="-2.24723">
        <ele>8</ele>
        <time>2022-06-19T08:49:17.000Z</time>
      </trkpt>
      <trkpt lat="47.3117" lon="-2.24712">
        <ele>8</ele>
        <time>2022-06-19T08:49:19.000Z</time>
      </trkpt>
      <trkpt lat="47.31174" lon="-2.24708">
        <ele>8</ele>
        <time>2022-06-19T08:49:20.000Z</time>
      </trkpt>
      <trkpt lat="47.31177" lon="-2.24703">
        <ele>8</ele>
        <time>2022-06-19T08:49:21.000Z</time>
      </trkpt>
      <trkpt lat="47.31192" lon="-2.24683">
        <ele>8</ele>
        <time>2022-06-19T08:49:25.000Z</time>
      </trkpt>
      <trkpt lat="47.31213" lon="-2.24659">
        <ele>8</ele>
        <time>2022-06-19T08:49:30.000Z</time>
      </trkpt>
      <trkpt lat="47.3123" lon="-2.24641">
        <ele>8</ele>
        <time>2022-06-19T08:49:34.000Z</time>
      </trkpt>
      <trkpt lat="47.31242" lon="-2.24626">
        <ele>8</ele>
        <time>2022-06-19T08:49:37.000Z</time>
      </trkpt>
      <trkpt lat="47.31269" lon="-2.24599">
        <ele>8</ele>
        <time>2022-06-19T08:49:43.000Z</time>
      </trkpt>
      <trkpt lat="47.31303" lon="-2.24565">
        <ele>8</ele>
        <time>2022-06-19T08:49:50.000Z</time>
      </trkpt>
      <trkpt lat="47.31337" lon="-2.24532">
        <ele>8</ele>
        <time>2022-06-19T08:49:57.000Z</time>
      </trkpt>
      <trkpt lat="47.31364" lon="-2.24502">
        <ele>8</ele>
        <time>2022-06-19T08:50:03.000Z</time>
      </trkpt>
      <trkpt lat="47.31397" lon="-2.24469">
        <ele>8</ele>
        <time>2022-06-19T08:50:10.000Z</time>
      </trkpt>
      <trkpt lat="47.31432" lon="-2.24431">
        <ele>8</ele>
        <time>2022-06-19T08:50:18.000Z</time>
      </trkpt>
      <trkpt lat="47.3144" lon="-2.24421">
        <ele>8</ele>
        <time>2022-06-19T08:50:20.000Z</time>
      </trkpt>
      <trkpt lat="47.31452" lon="-2.24405">
        <ele>8</ele>
        <time>2022-06-19T08:50:23.000Z</time>
      </trkpt>
      <trkpt lat="47.31461" lon="-2.24396">
        <ele>8</ele>
        <time>2022-06-19T08:50:25.000Z</time>
      </trkpt>
      <trkpt lat="47.3147" lon="-2.24391">
        <ele>8</ele>
        <time>2022-06-19T08:50:27.000Z</time>
      </trkpt>
      <trkpt lat="47.31479" lon="-2.24388">
        <ele>8</ele>
        <time>2022-06-19T08:50:29.000Z</time>
      </trkpt>
      <trkpt lat="47.3149" lon="-2.24381">
        <ele>8</ele>
        <time>2022-06-19T08:50:32.000Z</time>
      </trkpt>
      <trkpt lat="47.31504" lon="-2.24375">
        <ele>8</ele>
        <time>2022-06-19T08:50:37.000Z</time>
      </trkpt>
      <trkpt lat="47.31506" lon="-2.24371">
        <ele>8</ele>
        <time>2022-06-19T08:50:39.000Z</time>
      </trkpt>
      <trkpt lat="47.31506" lon="-2.24369">
        <ele>8</ele>
        <time>2022-06-19T08:50:41.000Z</time>
      </trkpt>
      <trkpt lat="47.31506" lon="-2.24368">
        <ele>8</ele>
        <time>2022-06-19T08:50:42.000Z</time>
      </trkpt>
      <trkpt lat="47.31504" lon="-2.24366">
        <ele>8</ele>
        <time>2022-06-19T08:50:51.000Z</time>
      </trkpt>
      <trkpt lat="47.31502" lon="-2.24361">
        <ele>8</ele>
        <time>2022-06-19T08:50:53.000Z</time>
      </trkpt>
      <trkpt lat="47.31499" lon="-2.24355">
        <ele>8</ele>
        <time>2022-06-19T08:50:56.000Z</time>
      </trkpt>
      <trkpt lat="47.31493" lon="-2.24343">
        <ele>8</ele>
        <time>2022-06-19T08:51:00.000Z</time>
      </trkpt>
      <trkpt lat="47.31484" lon="-2.24329">
        <ele>8</ele>
        <time>2022-06-19T08:51:06.000Z</time>
      </trkpt>
      <trkpt lat="47.31486" lon="-2.24315">
        <ele>8</ele>
        <time>2022-06-19T08:51:09.000Z</time>
      </trkpt>
      <trkpt lat="47.31488" lon="-2.2431">
        <ele>8</ele>
        <time>2022-06-19T08:51:10.000Z</time>
      </trkpt>
      <trkpt lat="47.3149" lon="-2.24296">
        <ele>8</ele>
        <time>2022-06-19T08:51:14.000Z</time>
      </trkpt>
      <trkpt lat="47.31496" lon="-2.24288">
        <ele>8</ele>
        <time>2022-06-19T08:51:17.000Z</time>
      </trkpt>
      <trkpt lat="47.31503" lon="-2.24287">
        <ele>8</ele>
        <time>2022-06-19T08:51:19.000Z</time>
      </trkpt>
      <trkpt lat="47.31525" lon="-2.24284">
        <ele>8</ele>
        <time>2022-06-19T08:51:25.000Z</time>
      </trkpt>
      <trkpt lat="47.31541" lon="-2.24292">
        <ele>8</ele>
        <time>2022-06-19T08:51:29.000Z</time>
      </trkpt>
      <trkpt lat="47.31554" lon="-2.24313">
        <ele>8</ele>
        <time>2022-06-19T08:51:34.000Z</time>
      </trkpt>
      <trkpt lat="47.3156" lon="-2.24323">
        <ele>8</ele>
        <time>2022-06-19T08:51:36.000Z</time>
      </trkpt>
      <trkpt lat="47.31571" lon="-2.24332">
        <ele>8</ele>
        <time>2022-06-19T08:51:39.000Z</time>
      </trkpt>
      <trkpt lat="47.31586" lon="-2.24342">
        <ele>8</ele>
        <time>2022-06-19T08:51:43.000Z</time>
      </trkpt>
      <trkpt lat="47.31598" lon="-2.24358">
        <ele>8</ele>
        <time>2022-06-19T08:51:47.000Z</time>
      </trkpt>
      <trkpt lat="47.31602" lon="-2.24378">
        <ele>8</ele>
        <time>2022-06-19T08:51:52.000Z</time>
      </trkpt>
      <trkpt lat="47.316" lon="-2.24385">
        <ele>8</ele>
        <time>2022-06-19T08:51:56.000Z</time>
      </trkpt>
      <trkpt lat="47.31596" lon="-2.24384">
        <ele>8</ele>
        <time>2022-06-19T08:51:59.000Z</time>
      </trkpt>
      <trkpt lat="47.31588" lon="-2.24383">
        <ele>8</ele>
        <time>2022-06-19T08:52:01.000Z</time>
      </trkpt>
      <trkpt lat="47.31581" lon="-2.24383">
        <ele>8</ele>
        <time>2022-06-19T08:52:03.000Z</time>
      </trkpt>
      <trkpt lat="47.31571" lon="-2.24381">
        <ele>8</ele>
        <time>2022-06-19T08:52:06.000Z</time>
      </trkpt>
      <trkpt lat="47.31546" lon="-2.24375">
        <ele>8</ele>
        <time>2022-06-19T08:52:11.000Z</time>
      </trkpt>
      <trkpt lat="47.31532" lon="-2.24366">
        <ele>8</ele>
        <time>2022-06-19T08:52:15.000Z</time>
      </trkpt>
      <trkpt lat="47.3153" lon="-2.24364">
        <ele>8</ele>
        <time>2022-06-19T08:52:16.000Z</time>
      </trkpt>
      <trkpt lat="47.31527" lon="-2.2435">
        <ele>8</ele>
        <time>2022-06-19T08:52:19.000Z</time>
      </trkpt>
      <trkpt lat="47.31527" lon="-2.24325">
        <ele>8</ele>
        <time>2022-06-19T08:52:23.000Z</time>
      </trkpt>
      <trkpt lat="47.31525" lon="-2.24314">
        <ele>8</ele>
        <time>2022-06-19T08:52:25.000Z</time>
      </trkpt>
      <trkpt lat="47.31522" lon="-2.24307">
        <ele>8</ele>
        <time>2022-06-19T08:52:27.000Z</time>
      </trkpt>
      <trkpt lat="47.31506" lon="-2.24287">
        <ele>8</ele>
        <time>2022-06-19T08:52:32.000Z</time>
      </trkpt>
      <trkpt lat="47.31493" lon="-2.24283">
        <ele>8</ele>
        <time>2022-06-19T08:52:35.000Z</time>
      </trkpt>
      <trkpt lat="47.31487" lon="-2.24282">
        <ele>8</ele>
        <time>2022-06-19T08:52:37.000Z</time>
      </trkpt>
      <trkpt lat="47.31484" lon="-2.2428">
        <ele>8</ele>
        <time>2022-06-19T08:52:39.000Z</time>
      </trkpt>
      <trkpt lat="47.31471" lon="-2.24279">
        <ele>8</ele>
        <time>2022-06-19T08:52:45.000Z</time>
      </trkpt>
      <trkpt lat="47.31467" lon="-2.24277">
        <ele>8</ele>
        <time>2022-06-19T08:52:47.000Z</time>
      </trkpt>
      <trkpt lat="47.31464" lon="-2.24271">
        <ele>8</ele>
        <time>2022-06-19T08:52:49.000Z</time>
      </trkpt>
      <trkpt lat="47.31469" lon="-2.24262">
        <ele>8</ele>
        <time>2022-06-19T08:52:52.000Z</time>
      </trkpt>
      <trkpt lat="47.31484" lon="-2.24257">
        <ele>8</ele>
        <time>2022-06-19T08:52:57.000Z</time>
      </trkpt>
      <trkpt lat="47.31488" lon="-2.24258">
        <ele>8</ele>
        <time>2022-06-19T08:52:58.000Z</time>
      </trkpt>
      <trkpt lat="47.31507" lon="-2.24262">
        <ele>8</ele>
        <time>2022-06-19T08:53:03.000Z</time>
      </trkpt>
      <trkpt lat="47.31517" lon="-2.24262">
        <ele>7.5999999046326</ele>
        <time>2022-06-19T08:53:05.000Z</time>
      </trkpt>
      <trkpt lat="47.31521" lon="-2.24262">
        <ele>7.1999998092651</ele>
        <time>2022-06-19T08:53:06.000Z</time>
      </trkpt>
      <trkpt lat="47.31525" lon="-2.24261">
        <ele>6.8000001907349</ele>
        <time>2022-06-19T08:53:07.000Z</time>
      </trkpt>
      <trkpt lat="47.31529" lon="-2.24262">
        <ele>6.4000000953674</ele>
        <time>2022-06-19T08:53:08.000Z</time>
      </trkpt>
      <trkpt lat="47.31532" lon="-2.24264">
        <ele>6</ele>
        <time>2022-06-19T08:53:09.000Z</time>
      </trkpt>
      <trkpt lat="47.31542" lon="-2.24272">
        <ele>6</ele>
        <time>2022-06-19T08:53:12.000Z</time>
      </trkpt>
      <trkpt lat="47.31546" lon="-2.24275">
        <ele>6</ele>
        <time>2022-06-19T08:53:13.000Z</time>
      </trkpt>
      <trkpt lat="47.31555" lon="-2.24288">
        <ele>6</ele>
        <time>2022-06-19T08:53:17.000Z</time>
      </trkpt>
      <trkpt lat="47.31572" lon="-2.24306">
        <ele>6</ele>
        <time>2022-06-19T08:53:23.000Z</time>
      </trkpt>
      <trkpt lat="47.31582" lon="-2.24316">
        <ele>6</ele>
        <time>2022-06-19T08:53:26.000Z</time>
      </trkpt>
      <trkpt lat="47.31589" lon="-2.24325">
        <ele>6</ele>
        <time>2022-06-19T08:53:28.000Z</time>
      </trkpt>
      <trkpt lat="47.31604" lon="-2.24352">
        <ele>6</ele>
        <time>2022-06-19T08:53:33.000Z</time>
      </trkpt>
      <trkpt lat="47.31623" lon="-2.24387">
        <ele>6</ele>
        <time>2022-06-19T08:53:39.000Z</time>
      </trkpt>
      <trkpt lat="47.31648" lon="-2.24418">
        <ele>6</ele>
        <time>2022-06-19T08:53:45.000Z</time>
      </trkpt>
      <trkpt lat="47.31663" lon="-2.24435">
        <ele>6</ele>
        <time>2022-06-19T08:53:50.000Z</time>
      </trkpt>
      <trkpt lat="47.31671" lon="-2.24442">
        <ele>6</ele>
        <time>2022-06-19T08:53:55.000Z</time>
      </trkpt>
      <trkpt lat="47.31667" lon="-2.24445">
        <ele>6</ele>
        <time>2022-06-19T08:53:57.000Z</time>
      </trkpt>
      <trkpt lat="47.31664" lon="-2.24447">
        <ele>6</ele>
        <time>2022-06-19T08:53:59.000Z</time>
      </trkpt>
      <trkpt lat="47.31659" lon="-2.24452">
        <ele>6</ele>
        <time>2022-06-19T08:54:01.000Z</time>
      </trkpt>
      <trkpt lat="47.31654" lon="-2.24456">
        <ele>6</ele>
        <time>2022-06-19T08:54:03.000Z</time>
      </trkpt>
      <trkpt lat="47.31638" lon="-2.24465">
        <ele>6</ele>
        <time>2022-06-19T08:54:08.000Z</time>
      </trkpt>
      <trkpt lat="47.31628" lon="-2.24475">
        <ele>6</ele>
        <time>2022-06-19T08:54:12.000Z</time>
      </trkpt>
      <trkpt lat="47.31613" lon="-2.24482">
        <ele>6</ele>
        <time>2022-06-19T08:54:17.000Z</time>
      </trkpt>
      <trkpt lat="47.31609" lon="-2.24499">
        <ele>6</ele>
        <time>2022-06-19T08:54:23.000Z</time>
      </trkpt>
      <trkpt lat="47.31599" lon="-2.24508">
        <ele>6</ele>
        <time>2022-06-19T08:54:28.000Z</time>
      </trkpt>
      <trkpt lat="47.31596" lon="-2.24508">
        <ele>6</ele>
        <time>2022-06-19T08:54:29.000Z</time>
      </trkpt>
      <trkpt lat="47.3159" lon="-2.24505">
        <ele>6</ele>
        <time>2022-06-19T08:54:31.000Z</time>
      </trkpt>
      <trkpt lat="47.31585" lon="-2.24497">
        <ele>6</ele>
        <time>2022-06-19T08:54:33.000Z</time>
      </trkpt>
      <trkpt lat="47.31577" lon="-2.24492">
        <ele>6</ele>
        <time>2022-06-19T08:54:36.000Z</time>
      </trkpt>
      <trkpt lat="47.31575" lon="-2.24492">
        <ele>6</ele>
        <time>2022-06-19T08:54:37.000Z</time>
      </trkpt>
      <trkpt lat="47.31563" lon="-2.24497">
        <ele>6</ele>
        <time>2022-06-19T08:54:41.000Z</time>
      </trkpt>
      <trkpt lat="47.31553" lon="-2.24483">
        <ele>6</ele>
        <time>2022-06-19T08:54:45.000Z</time>
      </trkpt>
      <trkpt lat="47.31533" lon="-2.24465">
        <ele>6</ele>
        <time>2022-06-19T08:54:51.000Z</time>
      </trkpt>
      <trkpt lat="47.3152" lon="-2.24444">
        <ele>6</ele>
        <time>2022-06-19T08:54:56.000Z</time>
      </trkpt>
      <trkpt lat="47.31513" lon="-2.244">
        <ele>6</ele>
        <time>2022-06-19T08:55:04.000Z</time>
      </trkpt>
      <trkpt lat="47.31514" lon="-2.24383">
        <ele>6</ele>
        <time>2022-06-19T08:55:09.000Z</time>
      </trkpt>
      <trkpt lat="47.31511" lon="-2.24372">
        <ele>6</ele>
        <time>2022-06-19T08:55:16.000Z</time>
      </trkpt>
      <trkpt lat="47.31505" lon="-2.24363">
        <ele>6</ele>
        <time>2022-06-19T08:55:21.000Z</time>
      </trkpt>
      <trkpt lat="47.31502" lon="-2.24358">
        <ele>6</ele>
        <time>2022-06-19T08:55:23.000Z</time>
      </trkpt>
      <trkpt lat="47.31492" lon="-2.24339">
        <ele>6</ele>
        <time>2022-06-19T08:55:30.000Z</time>
      </trkpt>
      <trkpt lat="47.31483" lon="-2.24326">
        <ele>6</ele>
        <time>2022-06-19T08:55:35.000Z</time>
      </trkpt>
      <trkpt lat="47.31483" lon="-2.2432">
        <ele>6</ele>
        <time>2022-06-19T08:55:36.000Z</time>
      </trkpt>
      <trkpt lat="47.31485" lon="-2.24309">
        <ele>6</ele>
        <time>2022-06-19T08:55:38.000Z</time>
      </trkpt>
      <trkpt lat="47.31486" lon="-2.24288">
        <ele>6</ele>
        <time>2022-06-19T08:55:43.000Z</time>
      </trkpt>
      <trkpt lat="47.31483" lon="-2.24282">
        <ele>6</ele>
        <time>2022-06-19T08:55:47.000Z</time>
      </trkpt>
      <trkpt lat="47.31481" lon="-2.24281">
        <ele>6</ele>
        <time>2022-06-19T08:55:48.000Z</time>
      </trkpt>
      <trkpt lat="47.31472" lon="-2.24281">
        <ele>6</ele>
        <time>2022-06-19T08:55:51.000Z</time>
      </trkpt>
      <trkpt lat="47.31467" lon="-2.24278">
        <ele>6</ele>
        <time>2022-06-19T08:55:53.000Z</time>
      </trkpt>
      <trkpt lat="47.31469" lon="-2.24268">
        <ele>6</ele>
        <time>2022-06-19T08:55:56.000Z</time>
      </trkpt>
      <trkpt lat="47.31471" lon="-2.24265">
        <ele>6</ele>
        <time>2022-06-19T08:55:57.000Z</time>
      </trkpt>
      <trkpt lat="47.31482" lon="-2.24259">
        <ele>6</ele>
        <time>2022-06-19T08:56:01.000Z</time>
      </trkpt>
      <trkpt lat="47.31507" lon="-2.24262">
        <ele>6</ele>
        <time>2022-06-19T08:56:08.000Z</time>
      </trkpt>
      <trkpt lat="47.31528" lon="-2.24264">
        <ele>6</ele>
        <time>2022-06-19T08:56:13.000Z</time>
      </trkpt>
      <trkpt lat="47.31546" lon="-2.24276">
        <ele>6</ele>
        <time>2022-06-19T08:56:18.000Z</time>
      </trkpt>
      <trkpt lat="47.31561" lon="-2.24294">
        <ele>6</ele>
        <time>2022-06-19T08:56:24.000Z</time>
      </trkpt>
      <trkpt lat="47.31576" lon="-2.24306">
        <ele>6</ele>
        <time>2022-06-19T08:56:29.000Z</time>
      </trkpt>
      <trkpt lat="47.31593" lon="-2.24325">
        <ele>6</ele>
        <time>2022-06-19T08:56:35.000Z</time>
      </trkpt>
      <trkpt lat="47.31608" lon="-2.2436">
        <ele>6</ele>
        <time>2022-06-19T08:56:42.000Z</time>
      </trkpt>
      <trkpt lat="47.31622" lon="-2.24384">
        <ele>6</ele>
        <time>2022-06-19T08:56:48.000Z</time>
      </trkpt>
      <trkpt lat="47.31634" lon="-2.244">
        <ele>6</ele>
        <time>2022-06-19T08:56:52.000Z</time>
      </trkpt>
      <trkpt lat="47.31649" lon="-2.24418">
        <ele>6</ele>
        <time>2022-06-19T08:56:56.000Z</time>
      </trkpt>
      <trkpt lat="47.3165" lon="-2.24423">
        <ele>6</ele>
        <time>2022-06-19T08:56:57.000Z</time>
      </trkpt>
      <trkpt lat="47.31643" lon="-2.24426">
        <ele>6</ele>
        <time>2022-06-19T08:57:00.000Z</time>
      </trkpt>
      <trkpt lat="47.31633" lon="-2.24427">
        <ele>6</ele>
        <time>2022-06-19T08:57:05.000Z</time>
      </trkpt>
      <trkpt lat="47.31631" lon="-2.24429">
        <ele>6</ele>
        <time>2022-06-19T08:57:06.000Z</time>
      </trkpt>
      <trkpt lat="47.3162" lon="-2.2444">
        <ele>6</ele>
        <time>2022-06-19T08:57:11.000Z</time>
      </trkpt>
      <trkpt lat="47.31611" lon="-2.24447">
        <ele>6</ele>
        <time>2022-06-19T08:57:16.000Z</time>
      </trkpt>
      <trkpt lat="47.31598" lon="-2.24463">
        <ele>6</ele>
        <time>2022-06-19T08:57:21.000Z</time>
      </trkpt>
      <trkpt lat="47.31584" lon="-2.24476">
        <ele>5.5999999046326</ele>
        <time>2022-06-19T08:57:27.000Z</time>
      </trkpt>
      <trkpt lat="47.31581" lon="-2.24476">
        <ele>5</ele>
        <time>2022-06-19T08:57:28.000Z</time>
      </trkpt>
      <trkpt lat="47.31578" lon="-2.24476">
        <ele>4.5999999046326</ele>
        <time>2022-06-19T08:57:29.000Z</time>
      </trkpt>
      <trkpt lat="47.31575" lon="-2.24475">
        <ele>4.1999998092651</ele>
        <time>2022-06-19T08:57:30.000Z</time>
      </trkpt>
      <trkpt lat="47.3157" lon="-2.24474">
        <ele>3.7999999523163</ele>
        <time>2022-06-19T08:57:31.000Z</time>
      </trkpt>
      <trkpt lat="47.31545" lon="-2.24452">
        <ele>3.7999999523163</ele>
        <time>2022-06-19T08:57:37.000Z</time>
      </trkpt>
      <trkpt lat="47.31524" lon="-2.24415">
        <ele>3.7999999523163</ele>
        <time>2022-06-19T08:57:44.000Z</time>
      </trkpt>
      <trkpt lat="47.3152" lon="-2.24393">
        <ele>3.7999999523163</ele>
        <time>2022-06-19T08:57:49.000Z</time>
      </trkpt>
      <trkpt lat="47.31514" lon="-2.24383">
        <ele>3.7999999523163</ele>
        <time>2022-06-19T08:57:55.000Z</time>
      </trkpt>
      <trkpt lat="47.31513" lon="-2.24382">
        <ele>3.7999999523163</ele>
        <time>2022-06-19T08:57:56.000Z</time>
      </trkpt>
      <trkpt lat="47.31511" lon="-2.24382">
        <ele>3.7999999523163</ele>
        <time>2022-06-19T08:58:26.000Z</time>
      </trkpt>
      <trkpt lat="47.31505" lon="-2.24384">
        <ele>3.7999999523163</ele>
        <time>2022-06-19T08:58:29.000Z</time>
      </trkpt>
      <trkpt lat="47.31489" lon="-2.2439">
        <ele>3.7999999523163</ele>
        <time>2022-06-19T08:58:34.000Z</time>
      </trkpt>
      <trkpt lat="47.31467" lon="-2.24403">
        <ele>3.7999999523163</ele>
        <time>2022-06-19T08:58:39.000Z</time>
      </trkpt>
      <trkpt lat="47.31447" lon="-2.2442">
        <ele>3.7999999523163</ele>
        <time>2022-06-19T08:58:43.000Z</time>
      </trkpt>
      <trkpt lat="47.31416" lon="-2.24453">
        <ele>3.7999999523163</ele>
        <time>2022-06-19T08:58:50.000Z</time>
      </trkpt>
      <trkpt lat="47.31383" lon="-2.24483">
        <ele>3.7999999523163</ele>
        <time>2022-06-19T08:58:57.000Z</time>
      </trkpt>
      <trkpt lat="47.31348" lon="-2.24522">
        <ele>3.7999999523163</ele>
        <time>2022-06-19T08:59:05.000Z</time>
      </trkpt>
      <trkpt lat="47.31318" lon="-2.24549">
        <ele>3.7999999523163</ele>
        <time>2022-06-19T08:59:11.000Z</time>
      </trkpt>
      <trkpt lat="47.31314" lon="-2.24554">
        <ele>3.7999999523163</ele>
        <time>2022-06-19T08:59:12.000Z</time>
      </trkpt>
      <trkpt lat="47.31296" lon="-2.24574">
        <ele>3.7999999523163</ele>
        <time>2022-06-19T08:59:16.000Z</time>
      </trkpt>
      <trkpt lat="47.31291" lon="-2.24578">
        <ele>3.7999999523163</ele>
        <time>2022-06-19T08:59:17.000Z</time>
      </trkpt>
      <trkpt lat="47.31264" lon="-2.24604">
        <ele>3.7999999523163</ele>
        <time>2022-06-19T08:59:23.000Z</time>
      </trkpt>
      <trkpt lat="47.31237" lon="-2.24633">
        <ele>3.7999999523163</ele>
        <time>2022-06-19T08:59:30.000Z</time>
      </trkpt>
      <trkpt lat="47.31221" lon="-2.24654">
        <ele>3.7999999523163</ele>
        <time>2022-06-19T08:59:34.000Z</time>
      </trkpt>
      <trkpt lat="47.31217" lon="-2.24658">
        <ele>3.7999999523163</ele>
        <time>2022-06-19T08:59:35.000Z</time>
      </trkpt>
      <trkpt lat="47.31183" lon="-2.24695">
        <ele>3.7999999523163</ele>
        <time>2022-06-19T08:59:42.000Z</time>
      </trkpt>
      <trkpt lat="47.31176" lon="-2.24708">
        <ele>3.7999999523163</ele>
        <time>2022-06-19T08:59:44.000Z</time>
      </trkpt>
      <trkpt lat="47.31175" lon="-2.24716">
        <ele>3.7999999523163</ele>
        <time>2022-06-19T08:59:45.000Z</time>
      </trkpt>
      <trkpt lat="47.31168" lon="-2.24741">
        <ele>3.7999999523163</ele>
        <time>2022-06-19T08:59:49.000Z</time>
      </trkpt>
      <trkpt lat="47.31161" lon="-2.24751">
        <ele>3.7999999523163</ele>
        <time>2022-06-19T08:59:51.000Z</time>
      </trkpt>
      <trkpt lat="47.31149" lon="-2.24767">
        <ele>3.7999999523163</ele>
        <time>2022-06-19T08:59:54.000Z</time>
      </trkpt>
      <trkpt lat="47.31145" lon="-2.2477">
        <ele>3.7999999523163</ele>
        <time>2022-06-19T08:59:55.000Z</time>
      </trkpt>
      <trkpt lat="47.31138" lon="-2.24775">
        <ele>3.7999999523163</ele>
        <time>2022-06-19T08:59:57.000Z</time>
      </trkpt>
      <trkpt lat="47.31131" lon="-2.24788">
        <ele>3.4000000953674</ele>
        <time>2022-06-19T09:00:00.000Z</time>
      </trkpt>
      <trkpt lat="47.31131" lon="-2.24794">
        <ele>3</ele>
        <time>2022-06-19T09:00:01.000Z</time>
      </trkpt>
      <trkpt lat="47.31131" lon="-2.24801">
        <ele>2.5999999046326</ele>
        <time>2022-06-19T09:00:02.000Z</time>
      </trkpt>
      <trkpt lat="47.31132" lon="-2.24808">
        <ele>2.2000000476837</ele>
        <time>2022-06-19T09:00:03.000Z</time>
      </trkpt>
      <trkpt lat="47.31134" lon="-2.24816">
        <ele>1.7999999523163</ele>
        <time>2022-06-19T09:00:04.000Z</time>
      </trkpt>
      <trkpt lat="47.31137" lon="-2.2483">
        <ele>1.7999999523163</ele>
        <time>2022-06-19T09:00:06.000Z</time>
      </trkpt>
      <trkpt lat="47.31139" lon="-2.24838">
        <ele>1.7999999523163</ele>
        <time>2022-06-19T09:00:07.000Z</time>
      </trkpt>
      <trkpt lat="47.31149" lon="-2.24876">
        <ele>1.7999999523163</ele>
        <time>2022-06-19T09:00:12.000Z</time>
      </trkpt>
      <trkpt lat="47.31159" lon="-2.24935">
        <ele>1.7999999523163</ele>
        <time>2022-06-19T09:00:19.000Z</time>
      </trkpt>
      <trkpt lat="47.31167" lon="-2.24977">
        <ele>1.7999999523163</ele>
        <time>2022-06-19T09:00:24.000Z</time>
      </trkpt>
      <trkpt lat="47.31169" lon="-2.24984">
        <ele>1.7999999523163</ele>
        <time>2022-06-19T09:00:25.000Z</time>
      </trkpt>
      <trkpt lat="47.31184" lon="-2.24994">
        <ele>1.7999999523163</ele>
        <time>2022-06-19T09:00:28.000Z</time>
      </trkpt>
      <trkpt lat="47.31197" lon="-2.25012">
        <ele>1.7999999523163</ele>
        <time>2022-06-19T09:00:31.000Z</time>
      </trkpt>
      <trkpt lat="47.31206" lon="-2.25035">
        <ele>1.7999999523163</ele>
        <time>2022-06-19T09:00:34.000Z</time>
      </trkpt>
      <trkpt lat="47.31215" lon="-2.25059">
        <ele>1.7999999523163</ele>
        <time>2022-06-19T09:00:37.000Z</time>
      </trkpt>
      <trkpt lat="47.31233" lon="-2.25103">
        <ele>1.7999999523163</ele>
        <time>2022-06-19T09:00:43.000Z</time>
      </trkpt>
      <trkpt lat="47.31252" lon="-2.25139">
        <ele>1.7999999523163</ele>
        <time>2022-06-19T09:00:48.000Z</time>
      </trkpt>
      <trkpt lat="47.3128" lon="-2.25188">
        <ele>1.7999999523163</ele>
        <time>2022-06-19T09:00:55.000Z</time>
      </trkpt>
      <trkpt lat="47.31308" lon="-2.25223">
        <ele>1.7999999523163</ele>
        <time>2022-06-19T09:01:01.000Z</time>
      </trkpt>
      <trkpt lat="47.31327" lon="-2.25247">
        <ele>1.7999999523163</ele>
        <time>2022-06-19T09:01:05.000Z</time>
      </trkpt>
      <trkpt lat="47.31337" lon="-2.25259">
        <ele>1.7999999523163</ele>
        <time>2022-06-19T09:01:07.000Z</time>
      </trkpt>
      <trkpt lat="47.31354" lon="-2.25288">
        <ele>1.7999999523163</ele>
        <time>2022-06-19T09:01:11.000Z</time>
      </trkpt>
      <trkpt lat="47.31356" lon="-2.25296">
        <ele>1.7999999523163</ele>
        <time>2022-06-19T09:01:12.000Z</time>
      </trkpt>
      <trkpt lat="47.3136" lon="-2.25336">
        <ele>1.7999999523163</ele>
        <time>2022-06-19T09:01:16.000Z</time>
      </trkpt>
      <trkpt lat="47.31361" lon="-2.25346">
        <ele>1.7999999523163</ele>
        <time>2022-06-19T09:01:17.000Z</time>
      </trkpt>
      <trkpt lat="47.31368" lon="-2.25376">
        <ele>1.7999999523163</ele>
        <time>2022-06-19T09:01:20.000Z</time>
      </trkpt>
      <trkpt lat="47.31376" lon="-2.25391">
        <ele>1.7999999523163</ele>
        <time>2022-06-19T09:01:22.000Z</time>
      </trkpt>
      <trkpt lat="47.31404" lon="-2.25425">
        <ele>1.7999999523163</ele>
        <time>2022-06-19T09:01:28.000Z</time>
      </trkpt>
      <trkpt lat="47.31412" lon="-2.2544">
        <ele>1.7999999523163</ele>
        <time>2022-06-19T09:01:30.000Z</time>
      </trkpt>
      <trkpt lat="47.31421" lon="-2.25463">
        <ele>1.7999999523163</ele>
        <time>2022-06-19T09:01:33.000Z</time>
      </trkpt>
      <trkpt lat="47.31453" lon="-2.25529">
        <ele>1.7999999523163</ele>
        <time>2022-06-19T09:01:42.000Z</time>
      </trkpt>
      <trkpt lat="47.31482" lon="-2.25559">
        <ele>1.7999999523163</ele>
        <time>2022-06-19T09:01:48.000Z</time>
      </trkpt>
      <trkpt lat="47.31495" lon="-2.25574">
        <ele>1.7999999523163</ele>
        <time>2022-06-19T09:01:51.000Z</time>
      </trkpt>
      <trkpt lat="47.31508" lon="-2.25595">
        <ele>1.7999999523163</ele>
        <time>2022-06-19T09:01:54.000Z</time>
      </trkpt>
      <trkpt lat="47.31513" lon="-2.2561">
        <ele>1.7999999523163</ele>
        <time>2022-06-19T09:01:56.000Z</time>
      </trkpt>
      <trkpt lat="47.3152" lon="-2.25634">
        <ele>1.7999999523163</ele>
        <time>2022-06-19T09:01:59.000Z</time>
      </trkpt>
      <trkpt lat="47.31529" lon="-2.25681">
        <ele>1.7999999523163</ele>
        <time>2022-06-19T09:02:05.000Z</time>
      </trkpt>
      <trkpt lat="47.31539" lon="-2.2573">
        <ele>1.7999999523163</ele>
        <time>2022-06-19T09:02:11.000Z</time>
      </trkpt>
      <trkpt lat="47.31549" lon="-2.25799">
        <ele>1.7999999523163</ele>
        <time>2022-06-19T09:02:19.000Z</time>
      </trkpt>
      <trkpt lat="47.31556" lon="-2.25862">
        <ele>1.7999999523163</ele>
        <time>2022-06-19T09:02:26.000Z</time>
      </trkpt>
      <trkpt lat="47.3155" lon="-2.25884">
        <ele>1.7999999523163</ele>
        <time>2022-06-19T09:02:29.000Z</time>
      </trkpt>
      <trkpt lat="47.31533" lon="-2.25907">
        <ele>1.7999999523163</ele>
        <time>2022-06-19T09:02:33.000Z</time>
      </trkpt>
      <trkpt lat="47.31529" lon="-2.25914">
        <ele>1.7999999523163</ele>
        <time>2022-06-19T09:02:34.000Z</time>
      </trkpt>
      <trkpt lat="47.31512" lon="-2.25947">
        <ele>1.7999999523163</ele>
        <time>2022-06-19T09:02:39.000Z</time>
      </trkpt>
      <trkpt lat="47.31496" lon="-2.25974">
        <ele>1.7999999523163</ele>
        <time>2022-06-19T09:02:45.000Z</time>
      </trkpt>
      <trkpt lat="47.31489" lon="-2.25985">
        <ele>1.7999999523163</ele>
        <time>2022-06-19T09:02:51.000Z</time>
      </trkpt>
      <trkpt lat="47.31482" lon="-2.25995">
        <ele>1.7999999523163</ele>
        <time>2022-06-19T09:02:58.000Z</time>
      </trkpt>
      <trkpt lat="47.31472" lon="-2.26011">
        <ele>1.7999999523163</ele>
        <time>2022-06-19T09:03:06.000Z</time>
      </trkpt>
      <trkpt lat="47.31464" lon="-2.26027">
        <ele>1.7999999523163</ele>
        <time>2022-06-19T09:03:12.000Z</time>
      </trkpt>
      <trkpt lat="47.31449" lon="-2.2605">
        <ele>1.7999999523163</ele>
        <time>2022-06-19T09:03:18.000Z</time>
      </trkpt>
      <trkpt lat="47.31438" lon="-2.26065">
        <ele>1.7999999523163</ele>
        <time>2022-06-19T09:03:21.000Z</time>
      </trkpt>
      <trkpt lat="47.31431" lon="-2.26078">
        <ele>1.7999999523163</ele>
        <time>2022-06-19T09:03:23.000Z</time>
      </trkpt>
      <trkpt lat="47.31429" lon="-2.26084">
        <ele>1.7999999523163</ele>
        <time>2022-06-19T09:03:24.000Z</time>
      </trkpt>
      <trkpt lat="47.31415" lon="-2.26116">
        <ele>1.7999999523163</ele>
        <time>2022-06-19T09:03:29.000Z</time>
      </trkpt>
      <trkpt lat="47.31412" lon="-2.26121">
        <ele>1.7999999523163</ele>
        <time>2022-06-19T09:03:30.000Z</time>
      </trkpt>
      <trkpt lat="47.31397" lon="-2.26137">
        <ele>1.7999999523163</ele>
        <time>2022-06-19T09:03:34.000Z</time>
      </trkpt>
      <trkpt lat="47.31374" lon="-2.26153">
        <ele>1.7999999523163</ele>
        <time>2022-06-19T09:03:40.000Z</time>
      </trkpt>
      <trkpt lat="47.31368" lon="-2.26138">
        <ele>1.7999999523163</ele>
        <time>2022-06-19T09:03:43.000Z</time>
      </trkpt>
      <trkpt lat="47.31367" lon="-2.26132">
        <ele>1.7999999523163</ele>
        <time>2022-06-19T09:03:44.000Z</time>
      </trkpt>
      <trkpt lat="47.31357" lon="-2.26107">
        <ele>1.7999999523163</ele>
        <time>2022-06-19T09:03:49.000Z</time>
      </trkpt>
      <trkpt lat="47.31341" lon="-2.2607">
        <ele>1.7999999523163</ele>
        <time>2022-06-19T09:03:56.000Z</time>
      </trkpt>
      <trkpt lat="47.31327" lon="-2.26031">
        <ele>1.7999999523163</ele>
        <time>2022-06-19T09:04:02.000Z</time>
      </trkpt>
      <trkpt lat="47.31324" lon="-2.26026">
        <ele>1.7999999523163</ele>
        <time>2022-06-19T09:04:03.000Z</time>
      </trkpt>
      <trkpt lat="47.31318" lon="-2.26016">
        <ele>2.2000000476837</ele>
        <time>2022-06-19T09:04:05.000Z</time>
      </trkpt>
      <trkpt lat="47.31316" lon="-2.26012">
        <ele>2.5999999046326</ele>
        <time>2022-06-19T09:04:06.000Z</time>
      </trkpt>
      <trkpt lat="47.31313" lon="-2.26006">
        <ele>3</ele>
        <time>2022-06-19T09:04:07.000Z</time>
      </trkpt>
      <trkpt lat="47.31311" lon="-2.26001">
        <ele>3.4000000953674</ele>
        <time>2022-06-19T09:04:08.000Z</time>
      </trkpt>
      <trkpt lat="47.31308" lon="-2.25997">
        <ele>3.7999999523163</ele>
        <time>2022-06-19T09:04:09.000Z</time>
      </trkpt>
      <trkpt lat="47.313" lon="-2.25994">
        <ele>3.7999999523163</ele>
        <time>2022-06-19T09:04:11.000Z</time>
      </trkpt>
      <trkpt lat="47.31296" lon="-2.25995">
        <ele>3.7999999523163</ele>
        <time>2022-06-19T09:04:12.000Z</time>
      </trkpt>
      <trkpt lat="47.31281" lon="-2.26003">
        <ele>3.7999999523163</ele>
        <time>2022-06-19T09:04:15.000Z</time>
      </trkpt>
      <trkpt lat="47.31276" lon="-2.26007">
        <ele>3.7999999523163</ele>
        <time>2022-06-19T09:04:16.000Z</time>
      </trkpt>
      <trkpt lat="47.31256" lon="-2.26021">
        <ele>3.7999999523163</ele>
        <time>2022-06-19T09:04:20.000Z</time>
      </trkpt>
      <trkpt lat="47.31226" lon="-2.26041">
        <ele>3.7999999523163</ele>
        <time>2022-06-19T09:04:26.000Z</time>
      </trkpt>
      <trkpt lat="47.31204" lon="-2.26056">
        <ele>3.4000000953674</ele>
        <time>2022-06-19T09:04:30.000Z</time>
      </trkpt>
      <trkpt lat="47.31199" lon="-2.26059">
        <ele>3</ele>
        <time>2022-06-19T09:04:31.000Z</time>
      </trkpt>
      <trkpt lat="47.31195" lon="-2.26061">
        <ele>2.5999999046326</ele>
        <time>2022-06-19T09:04:32.000Z</time>
      </trkpt>
      <trkpt lat="47.31191" lon="-2.26063">
        <ele>2.2000000476837</ele>
        <time>2022-06-19T09:04:33.000Z</time>
      </trkpt>
      <trkpt lat="47.31187" lon="-2.26063">
        <ele>1.7999999523163</ele>
        <time>2022-06-19T09:04:34.000Z</time>
      </trkpt>
      <trkpt lat="47.31177" lon="-2.26058">
        <ele>1.7999999523163</ele>
        <time>2022-06-19T09:04:36.000Z</time>
      </trkpt>
      <trkpt lat="47.31168" lon="-2.2605">
        <ele>1.7999999523163</ele>
        <time>2022-06-19T09:04:38.000Z</time>
      </trkpt>
      <trkpt lat="47.31145" lon="-2.26034">
        <ele>1.7999999523163</ele>
        <time>2022-06-19T09:04:43.000Z</time>
      </trkpt>
      <trkpt lat="47.31119" lon="-2.26019">
        <ele>2.2000000476837</ele>
        <time>2022-06-19T09:04:49.000Z</time>
      </trkpt>
      <trkpt lat="47.31114" lon="-2.26017">
        <ele>2.5999999046326</ele>
        <time>2022-06-19T09:04:50.000Z</time>
      </trkpt>
      <trkpt lat="47.3111" lon="-2.26015">
        <ele>3</ele>
        <time>2022-06-19T09:04:51.000Z</time>
      </trkpt>
      <trkpt lat="47.31106" lon="-2.26013">
        <ele>3.4000000953674</ele>
        <time>2022-06-19T09:04:52.000Z</time>
      </trkpt>
      <trkpt lat="47.31101" lon="-2.26011">
        <ele>3.7999999523163</ele>
        <time>2022-06-19T09:04:53.000Z</time>
      </trkpt>
      <trkpt lat="47.3108" lon="-2.26008">
        <ele>3.7999999523163</ele>
        <time>2022-06-19T09:04:57.000Z</time>
      </trkpt>
      <trkpt lat="47.31057" lon="-2.26015">
        <ele>3.7999999523163</ele>
        <time>2022-06-19T09:05:02.000Z</time>
      </trkpt>
      <trkpt lat="47.31026" lon="-2.26014">
        <ele>3.7999999523163</ele>
        <time>2022-06-19T09:05:08.000Z</time>
      </trkpt>
      <trkpt lat="47.3101" lon="-2.26013">
        <ele>4.1999998092651</ele>
        <time>2022-06-19T09:05:11.000Z</time>
      </trkpt>
      <trkpt lat="47.31005" lon="-2.26012">
        <ele>4.5999999046326</ele>
        <time>2022-06-19T09:05:12.000Z</time>
      </trkpt>
      <trkpt lat="47.31" lon="-2.26011">
        <ele>5</ele>
        <time>2022-06-19T09:05:13.000Z</time>
      </trkpt>
      <trkpt lat="47.30994" lon="-2.26012">
        <ele>5.8000001907349</ele>
        <time>2022-06-19T09:05:14.000Z</time>
      </trkpt>
      <trkpt lat="47.30968" lon="-2.26013">
        <ele>5.8000001907349</ele>
        <time>2022-06-19T09:05:19.000Z</time>
      </trkpt>
      <trkpt lat="47.30948" lon="-2.26018">
        <ele>5.8000001907349</ele>
        <time>2022-06-19T09:05:23.000Z</time>
      </trkpt>
      <trkpt lat="47.30938" lon="-2.26021">
        <ele>5.8000001907349</ele>
        <time>2022-06-19T09:05:25.000Z</time>
      </trkpt>
      <trkpt lat="47.30921" lon="-2.26024">
        <ele>5.8000001907349</ele>
        <time>2022-06-19T09:05:28.000Z</time>
      </trkpt>
      <trkpt lat="47.30907" lon="-2.26027">
        <ele>5.8000001907349</ele>
        <time>2022-06-19T09:05:31.000Z</time>
      </trkpt>
      <trkpt lat="47.30898" lon="-2.26028">
        <ele>5.8000001907349</ele>
        <time>2022-06-19T09:05:33.000Z</time>
      </trkpt>
      <trkpt lat="47.30882" lon="-2.26029">
        <ele>6.4000000953674</ele>
        <time>2022-06-19T09:05:36.000Z</time>
      </trkpt>
      <trkpt lat="47.30877" lon="-2.26029">
        <ele>6.8000001907349</ele>
        <time>2022-06-19T09:05:37.000Z</time>
      </trkpt>
      <trkpt lat="47.30872" lon="-2.26029">
        <ele>7.1999998092651</ele>
        <time>2022-06-19T09:05:38.000Z</time>
      </trkpt>
      <trkpt lat="47.30867" lon="-2.26029">
        <ele>8</ele>
        <time>2022-06-19T09:05:39.000Z</time>
      </trkpt>
      <trkpt lat="47.30844" lon="-2.26027">
        <ele>8</ele>
        <time>2022-06-19T09:05:44.000Z</time>
      </trkpt>
      <trkpt lat="47.30822" lon="-2.26025">
        <ele>8</ele>
        <time>2022-06-19T09:05:49.000Z</time>
      </trkpt>
      <trkpt lat="47.30817" lon="-2.26019">
        <ele>8.3999996185303</ele>
        <time>2022-06-19T09:05:51.000Z</time>
      </trkpt>
      <trkpt lat="47.30815" lon="-2.26016">
        <ele>8.8000001907349</ele>
        <time>2022-06-19T09:05:52.000Z</time>
      </trkpt>
      <trkpt lat="47.30812" lon="-2.26014">
        <ele>9.1999998092651</ele>
        <time>2022-06-19T09:05:53.000Z</time>
      </trkpt>
      <trkpt lat="47.3081" lon="-2.26015">
        <ele>9.6000003814697</ele>
        <time>2022-06-19T09:05:54.000Z</time>
      </trkpt>
      <trkpt lat="47.30807" lon="-2.26018">
        <ele>10</ele>
        <time>2022-06-19T09:05:55.000Z</time>
      </trkpt>
      <trkpt lat="47.30786" lon="-2.26032">
        <ele>10</ele>
        <time>2022-06-19T09:06:00.000Z</time>
      </trkpt>
      <trkpt lat="47.30755" lon="-2.26048">
        <ele>10</ele>
        <time>2022-06-19T09:06:06.000Z</time>
      </trkpt>
      <trkpt lat="47.30709" lon="-2.26071">
        <ele>10</ele>
        <time>2022-06-19T09:06:15.000Z</time>
      </trkpt>
      <trkpt lat="47.3069" lon="-2.26082">
        <ele>10</ele>
        <time>2022-06-19T09:06:19.000Z</time>
      </trkpt>
      <trkpt lat="47.30681" lon="-2.26087">
        <ele>10</ele>
        <time>2022-06-19T09:06:21.000Z</time>
      </trkpt>
      <trkpt lat="47.30641" lon="-2.26108">
        <ele>10</ele>
        <time>2022-06-19T09:06:29.000Z</time>
      </trkpt>
      <trkpt lat="47.30626" lon="-2.26119">
        <ele>10</ele>
        <time>2022-06-19T09:06:32.000Z</time>
      </trkpt>
      <trkpt lat="47.30621" lon="-2.2613">
        <ele>10</ele>
        <time>2022-06-19T09:06:34.000Z</time>
      </trkpt>
      <trkpt lat="47.30616" lon="-2.26139">
        <ele>10</ele>
        <time>2022-06-19T09:06:36.000Z</time>
      </trkpt>
      <trkpt lat="47.30609" lon="-2.2615">
        <ele>10</ele>
        <time>2022-06-19T09:06:39.000Z</time>
      </trkpt>
      <trkpt lat="47.30595" lon="-2.26176">
        <ele>10</ele>
        <time>2022-06-19T09:06:46.000Z</time>
      </trkpt>
      <trkpt lat="47.30593" lon="-2.2618">
        <ele>9.6000003814697</ele>
        <time>2022-06-19T09:06:47.000Z</time>
      </trkpt>
      <trkpt lat="47.30592" lon="-2.26182">
        <ele>9.1999998092651</ele>
        <time>2022-06-19T09:06:48.000Z</time>
      </trkpt>
      <trkpt lat="47.30591" lon="-2.26184">
        <ele>8.8000001907349</ele>
        <time>2022-06-19T09:06:49.000Z</time>
      </trkpt>
      <trkpt lat="47.30591" lon="-2.26186">
        <ele>8.3999996185303</ele>
        <time>2022-06-19T09:06:50.000Z</time>
      </trkpt>
      <trkpt lat="47.3059" lon="-2.26189">
        <ele>8</ele>
        <time>2022-06-19T09:06:51.000Z</time>
      </trkpt>
      <trkpt lat="47.30584" lon="-2.26213">
        <ele>8</ele>
        <time>2022-06-19T09:06:57.000Z</time>
      </trkpt>
      <trkpt lat="47.30573" lon="-2.26254">
        <ele>8</ele>
        <time>2022-06-19T09:07:03.000Z</time>
      </trkpt>
      <trkpt lat="47.30563" lon="-2.26288">
        <ele>8</ele>
        <time>2022-06-19T09:07:08.000Z</time>
      </trkpt>
      <trkpt lat="47.30561" lon="-2.26294">
        <ele>8</ele>
        <time>2022-06-19T09:07:09.000Z</time>
      </trkpt>
      <trkpt lat="47.3055" lon="-2.26339">
        <ele>8</ele>
        <time>2022-06-19T09:07:15.000Z</time>
      </trkpt>
      <trkpt lat="47.30541" lon="-2.26377">
        <ele>8</ele>
        <time>2022-06-19T09:07:20.000Z</time>
      </trkpt>
      <trkpt lat="47.30538" lon="-2.26383">
        <ele>8</ele>
        <time>2022-06-19T09:07:21.000Z</time>
      </trkpt>
      <trkpt lat="47.30525" lon="-2.26412">
        <ele>8</ele>
        <time>2022-06-19T09:07:26.000Z</time>
      </trkpt>
      <trkpt lat="47.30502" lon="-2.26466">
        <ele>8</ele>
        <time>2022-06-19T09:07:34.000Z</time>
      </trkpt>
      <trkpt lat="47.30491" lon="-2.26492">
        <ele>8</ele>
        <time>2022-06-19T09:07:39.000Z</time>
      </trkpt>
      <trkpt lat="47.30473" lon="-2.26534">
        <ele>8</ele>
        <time>2022-06-19T09:07:47.000Z</time>
      </trkpt>
      <trkpt lat="47.3045" lon="-2.26584">
        <ele>8</ele>
        <time>2022-06-19T09:07:56.000Z</time>
      </trkpt>
      <trkpt lat="47.30444" lon="-2.26596">
        <ele>8</ele>
        <time>2022-06-19T09:07:58.000Z</time>
      </trkpt>
      <trkpt lat="47.30433" lon="-2.26616">
        <ele>8</ele>
        <time>2022-06-19T09:08:01.000Z</time>
      </trkpt>
      <trkpt lat="47.30427" lon="-2.26629">
        <ele>8</ele>
        <time>2022-06-19T09:08:03.000Z</time>
      </trkpt>
      <trkpt lat="47.30418" lon="-2.26648">
        <ele>8</ele>
        <time>2022-06-19T09:08:06.000Z</time>
      </trkpt>
      <trkpt lat="47.30415" lon="-2.26654">
        <ele>8</ele>
        <time>2022-06-19T09:08:07.000Z</time>
      </trkpt>
      <trkpt lat="47.30389" lon="-2.26705">
        <ele>8</ele>
        <time>2022-06-19T09:08:15.000Z</time>
      </trkpt>
      <trkpt lat="47.30365" lon="-2.26749">
        <ele>8</ele>
        <time>2022-06-19T09:08:22.000Z</time>
      </trkpt>
      <trkpt lat="47.30351" lon="-2.26781">
        <ele>8</ele>
        <time>2022-06-19T09:08:27.000Z</time>
      </trkpt>
      <trkpt lat="47.3035" lon="-2.26787">
        <ele>8</ele>
        <time>2022-06-19T09:08:28.000Z</time>
      </trkpt>
      <trkpt lat="47.3035" lon="-2.26811">
        <ele>8</ele>
        <time>2022-06-19T09:08:31.000Z</time>
      </trkpt>
      <trkpt lat="47.3035" lon="-2.26819">
        <ele>8</ele>
        <time>2022-06-19T09:08:32.000Z</time>
      </trkpt>
      <trkpt lat="47.3035" lon="-2.26869">
        <ele>8</ele>
        <time>2022-06-19T09:08:38.000Z</time>
      </trkpt>
      <trkpt lat="47.30354" lon="-2.26901">
        <ele>8</ele>
        <time>2022-06-19T09:08:42.000Z</time>
      </trkpt>
      <trkpt lat="47.30357" lon="-2.26919">
        <ele>8</ele>
        <time>2022-06-19T09:08:44.000Z</time>
      </trkpt>
      <trkpt lat="47.30361" lon="-2.26956">
        <ele>8</ele>
        <time>2022-06-19T09:08:48.000Z</time>
      </trkpt>
      <trkpt lat="47.30362" lon="-2.26974">
        <ele>8</ele>
        <time>2022-06-19T09:08:50.000Z</time>
      </trkpt>
      <trkpt lat="47.30365" lon="-2.2703">
        <ele>8</ele>
        <time>2022-06-19T09:08:57.000Z</time>
      </trkpt>
      <trkpt lat="47.30367" lon="-2.27044">
        <ele>8</ele>
        <time>2022-06-19T09:08:59.000Z</time>
      </trkpt>
      <trkpt lat="47.30373" lon="-2.27053">
        <ele>8</ele>
        <time>2022-06-19T09:09:01.000Z</time>
      </trkpt>
      <trkpt lat="47.30388" lon="-2.27061">
        <ele>8</ele>
        <time>2022-06-19T09:09:04.000Z</time>
      </trkpt>
      <trkpt lat="47.30394" lon="-2.27064">
        <ele>8</ele>
        <time>2022-06-19T09:09:05.000Z</time>
      </trkpt>
      <trkpt lat="47.30401" lon="-2.27077">
        <ele>8</ele>
        <time>2022-06-19T09:09:07.000Z</time>
      </trkpt>
      <trkpt lat="47.30404" lon="-2.27093">
        <ele>8</ele>
        <time>2022-06-19T09:09:09.000Z</time>
      </trkpt>
      <trkpt lat="47.30407" lon="-2.27107">
        <ele>8</ele>
        <time>2022-06-19T09:09:11.000Z</time>
      </trkpt>
      <trkpt lat="47.30409" lon="-2.27122">
        <ele>8</ele>
        <time>2022-06-19T09:09:13.000Z</time>
      </trkpt>
      <trkpt lat="47.3041" lon="-2.27129">
        <ele>7.5999999046326</ele>
        <time>2022-06-19T09:09:14.000Z</time>
      </trkpt>
      <trkpt lat="47.30411" lon="-2.27137">
        <ele>7.1999998092651</ele>
        <time>2022-06-19T09:09:15.000Z</time>
      </trkpt>
      <trkpt lat="47.30411" lon="-2.27144">
        <ele>6.8000001907349</ele>
        <time>2022-06-19T09:09:16.000Z</time>
      </trkpt>
      <trkpt lat="47.3041" lon="-2.27151">
        <ele>6.4000000953674</ele>
        <time>2022-06-19T09:09:17.000Z</time>
      </trkpt>
      <trkpt lat="47.30409" lon="-2.27155">
        <ele>6</ele>
        <time>2022-06-19T09:09:18.000Z</time>
      </trkpt>
      <trkpt lat="47.30406" lon="-2.27158">
        <ele>6</ele>
        <time>2022-06-19T09:09:20.000Z</time>
      </trkpt>
      <trkpt lat="47.30406" lon="-2.27158">
        <ele>6</ele>
        <time>2022-06-19T09:09:21.000Z</time>
      </trkpt>
      <trkpt lat="47.30406" lon="-2.27158">
        <ele>6</ele>
        <time>2022-06-19T09:09:23.000Z</time>
      </trkpt>
      <trkpt lat="47.30401" lon="-2.27159">
        <ele>6</ele>
        <time>2022-06-19T09:09:44.000Z</time>
      </trkpt>
      <trkpt lat="47.30381" lon="-2.27165">
        <ele>6</ele>
        <time>2022-06-19T09:09:49.000Z</time>
      </trkpt>
      <trkpt lat="47.30352" lon="-2.27172">
        <ele>6</ele>
        <time>2022-06-19T09:09:55.000Z</time>
      </trkpt>
      <trkpt lat="47.30335" lon="-2.27174">
        <ele>6</ele>
        <time>2022-06-19T09:09:58.000Z</time>
      </trkpt>
      <trkpt lat="47.3032" lon="-2.27177">
        <ele>6</ele>
        <time>2022-06-19T09:10:01.000Z</time>
      </trkpt>
      <trkpt lat="47.30314" lon="-2.27179">
        <ele>6</ele>
        <time>2022-06-19T09:10:02.000Z</time>
      </trkpt>
      <trkpt lat="47.30294" lon="-2.27183">
        <ele>6</ele>
        <time>2022-06-19T09:10:06.000Z</time>
      </trkpt>
      <trkpt lat="47.30265" lon="-2.27179">
        <ele>6</ele>
        <time>2022-06-19T09:10:12.000Z</time>
      </trkpt>
      <trkpt lat="47.30251" lon="-2.27174">
        <ele>6.4000000953674</ele>
        <time>2022-06-19T09:10:15.000Z</time>
      </trkpt>
      <trkpt lat="47.30246" lon="-2.27172">
        <ele>6.8000001907349</ele>
        <time>2022-06-19T09:10:16.000Z</time>
      </trkpt>
      <trkpt lat="47.30242" lon="-2.2717">
        <ele>7.1999998092651</ele>
        <time>2022-06-19T09:10:17.000Z</time>
      </trkpt>
      <trkpt lat="47.30237" lon="-2.27169">
        <ele>7.5999999046326</ele>
        <time>2022-06-19T09:10:18.000Z</time>
      </trkpt>
      <trkpt lat="47.30234" lon="-2.27166">
        <ele>8</ele>
        <time>2022-06-19T09:10:19.000Z</time>
      </trkpt>
      <trkpt lat="47.30218" lon="-2.2716">
        <ele>8</ele>
        <time>2022-06-19T09:10:23.000Z</time>
      </trkpt>
      <trkpt lat="47.30213" lon="-2.27162">
        <ele>8</ele>
        <time>2022-06-19T09:10:24.000Z</time>
      </trkpt>
      <trkpt lat="47.30198" lon="-2.27174">
        <ele>8</ele>
        <time>2022-06-19T09:10:27.000Z</time>
      </trkpt>
      <trkpt lat="47.30194" lon="-2.27178">
        <ele>8</ele>
        <time>2022-06-19T09:10:28.000Z</time>
      </trkpt>
      <trkpt lat="47.3017" lon="-2.27206">
        <ele>8</ele>
        <time>2022-06-19T09:10:33.000Z</time>
      </trkpt>
      <trkpt lat="47.30143" lon="-2.2724">
        <ele>8</ele>
        <time>2022-06-19T09:10:39.000Z</time>
      </trkpt>
      <trkpt lat="47.30134" lon="-2.27252">
        <ele>8</ele>
        <time>2022-06-19T09:10:41.000Z</time>
      </trkpt>
      <trkpt lat="47.30116" lon="-2.27276">
        <ele>8</ele>
        <time>2022-06-19T09:10:45.000Z</time>
      </trkpt>
      <trkpt lat="47.30093" lon="-2.2731">
        <ele>8</ele>
        <time>2022-06-19T09:10:50.000Z</time>
      </trkpt>
      <trkpt lat="47.30086" lon="-2.27326">
        <ele>8</ele>
        <time>2022-06-19T09:10:52.000Z</time>
      </trkpt>
      <trkpt lat="47.30063" lon="-2.27382">
        <ele>8</ele>
        <time>2022-06-19T09:10:59.000Z</time>
      </trkpt>
      <trkpt lat="47.30041" lon="-2.27424">
        <ele>8</ele>
        <time>2022-06-19T09:11:05.000Z</time>
      </trkpt>
      <trkpt lat="47.30012" lon="-2.27463">
        <ele>8</ele>
        <time>2022-06-19T09:11:11.000Z</time>
      </trkpt>
      <trkpt lat="47.30002" lon="-2.27488">
        <ele>8</ele>
        <time>2022-06-19T09:11:14.000Z</time>
      </trkpt>
      <trkpt lat="47.29995" lon="-2.27503">
        <ele>8</ele>
        <time>2022-06-19T09:11:16.000Z</time>
      </trkpt>
      <trkpt lat="47.2999" lon="-2.2752">
        <ele>8</ele>
        <time>2022-06-19T09:11:18.000Z</time>
      </trkpt>
      <trkpt lat="47.29984" lon="-2.27544">
        <ele>8</ele>
        <time>2022-06-19T09:11:21.000Z</time>
      </trkpt>
      <trkpt lat="47.29978" lon="-2.27569">
        <ele>8.3999996185303</ele>
        <time>2022-06-19T09:11:24.000Z</time>
      </trkpt>
      <trkpt lat="47.29975" lon="-2.27577">
        <ele>8.8000001907349</ele>
        <time>2022-06-19T09:11:25.000Z</time>
      </trkpt>
      <trkpt lat="47.29973" lon="-2.27584">
        <ele>9.1999998092651</ele>
        <time>2022-06-19T09:11:26.000Z</time>
      </trkpt>
      <trkpt lat="47.2997" lon="-2.27593">
        <ele>9.6000003814697</ele>
        <time>2022-06-19T09:11:27.000Z</time>
      </trkpt>
      <trkpt lat="47.29968" lon="-2.276">
        <ele>10</ele>
        <time>2022-06-19T09:11:28.000Z</time>
      </trkpt>
      <trkpt lat="47.29958" lon="-2.27658">
        <ele>10</ele>
        <time>2022-06-19T09:11:35.000Z</time>
      </trkpt>
      <trkpt lat="47.29954" lon="-2.27718">
        <ele>10</ele>
        <time>2022-06-19T09:11:42.000Z</time>
      </trkpt>
      <trkpt lat="47.29952" lon="-2.27744">
        <ele>10.39999961853</ele>
        <time>2022-06-19T09:11:45.000Z</time>
      </trkpt>
      <trkpt lat="47.2995" lon="-2.27752">
        <ele>10.800000190735</ele>
        <time>2022-06-19T09:11:46.000Z</time>
      </trkpt>
      <trkpt lat="47.29949" lon="-2.27761">
        <ele>11.199999809265</ele>
        <time>2022-06-19T09:11:47.000Z</time>
      </trkpt>
      <trkpt lat="47.29949" lon="-2.27769">
        <ele>12</ele>
        <time>2022-06-19T09:11:48.000Z</time>
      </trkpt>
      <trkpt lat="47.29948" lon="-2.27778">
        <ele>12</ele>
        <time>2022-06-19T09:11:49.000Z</time>
      </trkpt>
      <trkpt lat="47.29944" lon="-2.27836">
        <ele>12</ele>
        <time>2022-06-19T09:11:56.000Z</time>
      </trkpt>
      <trkpt lat="47.29938" lon="-2.27895">
        <ele>12</ele>
        <time>2022-06-19T09:12:03.000Z</time>
      </trkpt>
      <trkpt lat="47.29932" lon="-2.27974">
        <ele>12</ele>
        <time>2022-06-19T09:12:12.000Z</time>
      </trkpt>
      <trkpt lat="47.29935" lon="-2.28031">
        <ele>12</ele>
        <time>2022-06-19T09:12:19.000Z</time>
      </trkpt>
      <trkpt lat="47.29938" lon="-2.28038">
        <ele>12</ele>
        <time>2022-06-19T09:12:20.000Z</time>
      </trkpt>
      <trkpt lat="47.29946" lon="-2.28048">
        <ele>12</ele>
        <time>2022-06-19T09:12:22.000Z</time>
      </trkpt>
      <trkpt lat="47.29962" lon="-2.28048">
        <ele>12</ele>
        <time>2022-06-19T09:12:25.000Z</time>
      </trkpt>
      <trkpt lat="47.29972" lon="-2.2804">
        <ele>12</ele>
        <time>2022-06-19T09:12:27.000Z</time>
      </trkpt>
      <trkpt lat="47.29976" lon="-2.28038">
        <ele>12</ele>
        <time>2022-06-19T09:12:28.000Z</time>
      </trkpt>
      <trkpt lat="47.29982" lon="-2.28036">
        <ele>12</ele>
        <time>2022-06-19T09:12:29.000Z</time>
      </trkpt>
      <trkpt lat="47.29989" lon="-2.28048">
        <ele>12</ele>
        <time>2022-06-19T09:12:32.000Z</time>
      </trkpt>
      <trkpt lat="47.29983" lon="-2.28065">
        <ele>12</ele>
        <time>2022-06-19T09:12:35.000Z</time>
      </trkpt>
      <trkpt lat="47.29971" lon="-2.28111">
        <ele>12</ele>
        <time>2022-06-19T09:12:41.000Z</time>
      </trkpt>
      <trkpt lat="47.29961" lon="-2.28142">
        <ele>12</ele>
        <time>2022-06-19T09:12:45.000Z</time>
      </trkpt>
      <trkpt lat="47.29956" lon="-2.28157">
        <ele>12</ele>
        <time>2022-06-19T09:12:47.000Z</time>
      </trkpt>
      <trkpt lat="47.29939" lon="-2.28209">
        <ele>12</ele>
        <time>2022-06-19T09:12:54.000Z</time>
      </trkpt>
      <trkpt lat="47.29938" lon="-2.28245">
        <ele>12</ele>
        <time>2022-06-19T09:12:58.000Z</time>
      </trkpt>
      <trkpt lat="47.29941" lon="-2.28308">
        <ele>12</ele>
        <time>2022-06-19T09:13:05.000Z</time>
      </trkpt>
      <trkpt lat="47.29941" lon="-2.28334">
        <ele>12</ele>
        <time>2022-06-19T09:13:08.000Z</time>
      </trkpt>
      <trkpt lat="47.2994" lon="-2.28343">
        <ele>12</ele>
        <time>2022-06-19T09:13:09.000Z</time>
      </trkpt>
      <trkpt lat="47.29937" lon="-2.28406">
        <ele>12</ele>
        <time>2022-06-19T09:13:16.000Z</time>
      </trkpt>
      <trkpt lat="47.29936" lon="-2.28415">
        <ele>12</ele>
        <time>2022-06-19T09:13:17.000Z</time>
      </trkpt>
      <trkpt lat="47.2993" lon="-2.28437">
        <ele>12</ele>
        <time>2022-06-19T09:13:20.000Z</time>
      </trkpt>
      <trkpt lat="47.29928" lon="-2.28445">
        <ele>12</ele>
        <time>2022-06-19T09:13:21.000Z</time>
      </trkpt>
      <trkpt lat="47.29927" lon="-2.28479">
        <ele>12</ele>
        <time>2022-06-19T09:13:25.000Z</time>
      </trkpt>
      <trkpt lat="47.29927" lon="-2.28487">
        <ele>12</ele>
        <time>2022-06-19T09:13:26.000Z</time>
      </trkpt>
      <trkpt lat="47.29926" lon="-2.28511">
        <ele>12</ele>
        <time>2022-06-19T09:13:29.000Z</time>
      </trkpt>
      <trkpt lat="47.2992" lon="-2.28534">
        <ele>12</ele>
        <time>2022-06-19T09:13:32.000Z</time>
      </trkpt>
      <trkpt lat="47.2992" lon="-2.28541">
        <ele>12</ele>
        <time>2022-06-19T09:13:33.000Z</time>
      </trkpt>
      <trkpt lat="47.29921" lon="-2.28549">
        <ele>12</ele>
        <time>2022-06-19T09:13:34.000Z</time>
      </trkpt>
      <trkpt lat="47.29929" lon="-2.28561">
        <ele>12</ele>
        <time>2022-06-19T09:13:37.000Z</time>
      </trkpt>
      <trkpt lat="47.2994" lon="-2.28567">
        <ele>12</ele>
        <time>2022-06-19T09:13:41.000Z</time>
      </trkpt>
      <trkpt lat="47.2994" lon="-2.2857">
        <ele>12</ele>
        <time>2022-06-19T09:13:42.000Z</time>
      </trkpt>
      <trkpt lat="47.29939" lon="-2.28574">
        <ele>12</ele>
        <time>2022-06-19T09:13:45.000Z</time>
      </trkpt>
      <trkpt lat="47.29939" lon="-2.28575">
        <ele>12</ele>
        <time>2022-06-19T09:13:46.000Z</time>
      </trkpt>
      <trkpt lat="47.29935" lon="-2.28589">
        <ele>12</ele>
        <time>2022-06-19T09:13:51.000Z</time>
      </trkpt>
      <trkpt lat="47.29932" lon="-2.28602">
        <ele>11.60000038147</ele>
        <time>2022-06-19T09:13:54.000Z</time>
      </trkpt>
      <trkpt lat="47.29932" lon="-2.28609">
        <ele>11.199999809265</ele>
        <time>2022-06-19T09:13:55.000Z</time>
      </trkpt>
      <trkpt lat="47.2993" lon="-2.28615">
        <ele>10.800000190735</ele>
        <time>2022-06-19T09:13:56.000Z</time>
      </trkpt>
      <trkpt lat="47.29929" lon="-2.28622">
        <ele>10.39999961853</ele>
        <time>2022-06-19T09:13:57.000Z</time>
      </trkpt>
      <trkpt lat="47.29928" lon="-2.2863">
        <ele>10</ele>
        <time>2022-06-19T09:13:58.000Z</time>
      </trkpt>
      <trkpt lat="47.2992" lon="-2.28656">
        <ele>10</ele>
        <time>2022-06-19T09:14:02.000Z</time>
      </trkpt>
      <trkpt lat="47.29908" lon="-2.28697">
        <ele>10</ele>
        <time>2022-06-19T09:14:08.000Z</time>
      </trkpt>
      <trkpt lat="47.29904" lon="-2.28716">
        <ele>10</ele>
        <time>2022-06-19T09:14:10.000Z</time>
      </trkpt>
      <trkpt lat="47.299" lon="-2.28734">
        <ele>10</ele>
        <time>2022-06-19T09:14:12.000Z</time>
      </trkpt>
      <trkpt lat="47.29898" lon="-2.28744">
        <ele>10</ele>
        <time>2022-06-19T09:14:13.000Z</time>
      </trkpt>
      <trkpt lat="47.2989" lon="-2.28786">
        <ele>10</ele>
        <time>2022-06-19T09:14:18.000Z</time>
      </trkpt>
      <trkpt lat="47.29884" lon="-2.28838">
        <ele>10</ele>
        <time>2022-06-19T09:14:24.000Z</time>
      </trkpt>
      <trkpt lat="47.29876" lon="-2.28884">
        <ele>10</ele>
        <time>2022-06-19T09:14:30.000Z</time>
      </trkpt>
      <trkpt lat="47.29871" lon="-2.28896">
        <ele>10</ele>
        <time>2022-06-19T09:14:32.000Z</time>
      </trkpt>
      <trkpt lat="47.2987" lon="-2.28904">
        <ele>9.6000003814697</ele>
        <time>2022-06-19T09:14:33.000Z</time>
      </trkpt>
      <trkpt lat="47.2987" lon="-2.28912">
        <ele>9.1999998092651</ele>
        <time>2022-06-19T09:14:34.000Z</time>
      </trkpt>
      <trkpt lat="47.2987" lon="-2.28922">
        <ele>8.8000001907349</ele>
        <time>2022-06-19T09:14:35.000Z</time>
      </trkpt>
      <trkpt lat="47.2987" lon="-2.28929">
        <ele>8.3999996185303</ele>
        <time>2022-06-19T09:14:36.000Z</time>
      </trkpt>
      <trkpt lat="47.29871" lon="-2.28935">
        <ele>8</ele>
        <time>2022-06-19T09:14:37.000Z</time>
      </trkpt>
      <trkpt lat="47.29878" lon="-2.28941">
        <ele>8</ele>
        <time>2022-06-19T09:14:39.000Z</time>
      </trkpt>
      <trkpt lat="47.29882" lon="-2.28942">
        <ele>8</ele>
        <time>2022-06-19T09:14:40.000Z</time>
      </trkpt>
      <trkpt lat="47.29887" lon="-2.28943">
        <ele>8</ele>
        <time>2022-06-19T09:14:41.000Z</time>
      </trkpt>
      <trkpt lat="47.29908" lon="-2.28946">
        <ele>8</ele>
        <time>2022-06-19T09:14:45.000Z</time>
      </trkpt>
      <trkpt lat="47.29922" lon="-2.28958">
        <ele>8</ele>
        <time>2022-06-19T09:14:48.000Z</time>
      </trkpt>
      <trkpt lat="47.29926" lon="-2.28963">
        <ele>8</ele>
        <time>2022-06-19T09:14:49.000Z</time>
      </trkpt>
      <trkpt lat="47.29948" lon="-2.29002">
        <ele>8</ele>
        <time>2022-06-19T09:14:55.000Z</time>
      </trkpt>
      <trkpt lat="47.29959" lon="-2.29022">
        <ele>8</ele>
        <time>2022-06-19T09:14:58.000Z</time>
      </trkpt>
      <trkpt lat="47.29974" lon="-2.29047">
        <ele>7.5999999046326</ele>
        <time>2022-06-19T09:15:02.000Z</time>
      </trkpt>
      <trkpt lat="47.29978" lon="-2.29053">
        <ele>7.1999998092651</ele>
        <time>2022-06-19T09:15:03.000Z</time>
      </trkpt>
      <trkpt lat="47.29982" lon="-2.2906">
        <ele>6.1999998092651</ele>
        <time>2022-06-19T09:15:04.000Z</time>
      </trkpt>
      <trkpt lat="47.29985" lon="-2.29066">
        <ele>5.8000001907349</ele>
        <time>2022-06-19T09:15:05.000Z</time>
      </trkpt>
      <trkpt lat="47.29996" lon="-2.29083">
        <ele>5.8000001907349</ele>
        <time>2022-06-19T09:15:08.000Z</time>
      </trkpt>
      <trkpt lat="47.30004" lon="-2.29093">
        <ele>5.8000001907349</ele>
        <time>2022-06-19T09:15:10.000Z</time>
      </trkpt>
      <trkpt lat="47.3002" lon="-2.29108">
        <ele>5.8000001907349</ele>
        <time>2022-06-19T09:15:14.000Z</time>
      </trkpt>
      <trkpt lat="47.30032" lon="-2.29118">
        <ele>5.8000001907349</ele>
        <time>2022-06-19T09:15:17.000Z</time>
      </trkpt>
      <trkpt lat="47.30043" lon="-2.29125">
        <ele>5.8000001907349</ele>
        <time>2022-06-19T09:15:20.000Z</time>
      </trkpt>
      <trkpt lat="47.30061" lon="-2.29141">
        <ele>5.8000001907349</ele>
        <time>2022-06-19T09:15:25.000Z</time>
      </trkpt>
      <trkpt lat="47.30081" lon="-2.29173">
        <ele>5.8000001907349</ele>
        <time>2022-06-19T09:15:30.000Z</time>
      </trkpt>
      <trkpt lat="47.30099" lon="-2.29201">
        <ele>5.4000000953674</ele>
        <time>2022-06-19T09:15:34.000Z</time>
      </trkpt>
      <trkpt lat="47.30103" lon="-2.29208">
        <ele>5</ele>
        <time>2022-06-19T09:15:35.000Z</time>
      </trkpt>
      <trkpt lat="47.30108" lon="-2.29215">
        <ele>4.5999999046326</ele>
        <time>2022-06-19T09:15:36.000Z</time>
      </trkpt>
      <trkpt lat="47.30112" lon="-2.29222">
        <ele>4.1999998092651</ele>
        <time>2022-06-19T09:15:37.000Z</time>
      </trkpt>
      <trkpt lat="47.30117" lon="-2.29229">
        <ele>3.7999999523163</ele>
        <time>2022-06-19T09:15:38.000Z</time>
      </trkpt>
      <trkpt lat="47.30149" lon="-2.29278">
        <ele>3.7999999523163</ele>
        <time>2022-06-19T09:15:45.000Z</time>
      </trkpt>
      <trkpt lat="47.30187" lon="-2.29336">
        <ele>3.7999999523163</ele>
        <time>2022-06-19T09:15:53.000Z</time>
      </trkpt>
      <trkpt lat="47.30191" lon="-2.29343">
        <ele>3.7999999523163</ele>
        <time>2022-06-19T09:15:54.000Z</time>
      </trkpt>
      <trkpt lat="47.30201" lon="-2.29365">
        <ele>3.7999999523163</ele>
        <time>2022-06-19T09:15:58.000Z</time>
      </trkpt>
      <trkpt lat="47.30202" lon="-2.2937">
        <ele>3.7999999523163</ele>
        <time>2022-06-19T09:16:00.000Z</time>
      </trkpt>
      <trkpt lat="47.30202" lon="-2.29374">
        <ele>3.7999999523163</ele>
        <time>2022-06-19T09:16:55.000Z</time>
      </trkpt>
      <trkpt lat="47.30203" lon="-2.29377">
        <ele>3.7999999523163</ele>
        <time>2022-06-19T09:16:56.000Z</time>
      </trkpt>
      <trkpt lat="47.30203" lon="-2.2938">
        <ele>3.7999999523163</ele>
        <time>2022-06-19T09:16:57.000Z</time>
      </trkpt>
      <trkpt lat="47.30208" lon="-2.29392">
        <ele>3.7999999523163</ele>
        <time>2022-06-19T09:17:00.000Z</time>
      </trkpt>
      <trkpt lat="47.3021" lon="-2.29397">
        <ele>3.4000000953674</ele>
        <time>2022-06-19T09:17:01.000Z</time>
      </trkpt>
      <trkpt lat="47.30212" lon="-2.29403">
        <ele>3</ele>
        <time>2022-06-19T09:17:02.000Z</time>
      </trkpt>
      <trkpt lat="47.30214" lon="-2.29408">
        <ele>2.5999999046326</ele>
        <time>2022-06-19T09:17:03.000Z</time>
      </trkpt>
      <trkpt lat="47.30214" lon="-2.29415">
        <ele>2.2000000476837</ele>
        <time>2022-06-19T09:17:04.000Z</time>
      </trkpt>
      <trkpt lat="47.30214" lon="-2.29421">
        <ele>1.7999999523163</ele>
        <time>2022-06-19T09:17:05.000Z</time>
      </trkpt>
      <trkpt lat="47.3021" lon="-2.29433">
        <ele>1.7999999523163</ele>
        <time>2022-06-19T09:17:07.000Z</time>
      </trkpt>
      <trkpt lat="47.30208" lon="-2.29439">
        <ele>1.7999999523163</ele>
        <time>2022-06-19T09:17:08.000Z</time>
      </trkpt>
      <trkpt lat="47.30193" lon="-2.29472">
        <ele>1.7999999523163</ele>
        <time>2022-06-19T09:17:13.000Z</time>
      </trkpt>
      <trkpt lat="47.30171" lon="-2.29521">
        <ele>1.7999999523163</ele>
        <time>2022-06-19T09:17:20.000Z</time>
      </trkpt>
      <trkpt lat="47.30151" lon="-2.29565">
        <ele>1.7999999523163</ele>
        <time>2022-06-19T09:17:26.000Z</time>
      </trkpt>
      <trkpt lat="47.30149" lon="-2.29574">
        <ele>1.7999999523163</ele>
        <time>2022-06-19T09:17:27.000Z</time>
      </trkpt>
      <trkpt lat="47.30145" lon="-2.29611">
        <ele>1.7999999523163</ele>
        <time>2022-06-19T09:17:31.000Z</time>
      </trkpt>
      <trkpt lat="47.30143" lon="-2.29637">
        <ele>1.7999999523163</ele>
        <time>2022-06-19T09:17:34.000Z</time>
      </trkpt>
      <trkpt lat="47.30142" lon="-2.29645">
        <ele>1.7999999523163</ele>
        <time>2022-06-19T09:17:35.000Z</time>
      </trkpt>
      <trkpt lat="47.3014" lon="-2.2965">
        <ele>1.7999999523163</ele>
        <time>2022-06-19T09:17:36.000Z</time>
      </trkpt>
      <trkpt lat="47.30129" lon="-2.29658">
        <ele>1.7999999523163</ele>
        <time>2022-06-19T09:17:39.000Z</time>
      </trkpt>
      <trkpt lat="47.30113" lon="-2.29655">
        <ele>1.7999999523163</ele>
        <time>2022-06-19T09:17:42.000Z</time>
      </trkpt>
      <trkpt lat="47.30103" lon="-2.29651">
        <ele>1.7999999523163</ele>
        <time>2022-06-19T09:17:44.000Z</time>
      </trkpt>
      <trkpt lat="47.30069" lon="-2.29642">
        <ele>1.7999999523163</ele>
        <time>2022-06-19T09:17:52.000Z</time>
      </trkpt>
      <trkpt lat="47.30042" lon="-2.29635">
        <ele>1.7999999523163</ele>
        <time>2022-06-19T09:18:00.000Z</time>
      </trkpt>
      <trkpt lat="47.30031" lon="-2.2964">
        <ele>1.7999999523163</ele>
        <time>2022-06-19T09:18:04.000Z</time>
      </trkpt>
      <trkpt lat="47.30009" lon="-2.29641">
        <ele>1.7999999523163</ele>
        <time>2022-06-19T09:18:10.000Z</time>
      </trkpt>
      <trkpt lat="47.29982" lon="-2.29643">
        <ele>1.7999999523163</ele>
        <time>2022-06-19T09:18:18.000Z</time>
      </trkpt>
      <trkpt lat="47.29968" lon="-2.29645">
        <ele>1.7999999523163</ele>
        <time>2022-06-19T09:18:23.000Z</time>
      </trkpt>
      <trkpt lat="47.29959" lon="-2.29647">
        <ele>1.7999999523163</ele>
        <time>2022-06-19T09:18:28.000Z</time>
      </trkpt>
      <trkpt lat="47.29957" lon="-2.29648">
        <ele>1.7999999523163</ele>
        <time>2022-06-19T09:18:29.000Z</time>
      </trkpt>
      <trkpt lat="47.29954" lon="-2.29649">
        <ele>2.2000000476837</ele>
        <time>2022-06-19T09:18:31.000Z</time>
      </trkpt>
      <trkpt lat="47.29952" lon="-2.2965">
        <ele>2.5999999046326</ele>
        <time>2022-06-19T09:18:32.000Z</time>
      </trkpt>
      <trkpt lat="47.2995" lon="-2.29651">
        <ele>3</ele>
        <time>2022-06-19T09:18:33.000Z</time>
      </trkpt>
      <trkpt lat="47.29948" lon="-2.29652">
        <ele>3.5999999046326</ele>
        <time>2022-06-19T09:18:34.000Z</time>
      </trkpt>
      <trkpt lat="47.29945" lon="-2.29653">
        <ele>4</ele>
        <time>2022-06-19T09:18:35.000Z</time>
      </trkpt>
      <trkpt lat="47.29926" lon="-2.29665">
        <ele>4</ele>
        <time>2022-06-19T09:18:41.000Z</time>
      </trkpt>
      <trkpt lat="47.29917" lon="-2.29673">
        <ele>4</ele>
        <time>2022-06-19T09:18:44.000Z</time>
      </trkpt>
      <trkpt lat="47.29916" lon="-2.29678">
        <ele>4</ele>
        <time>2022-06-19T09:18:45.000Z</time>
      </trkpt>
      <trkpt lat="47.2992" lon="-2.29701">
        <ele>4</ele>
        <time>2022-06-19T09:18:49.000Z</time>
      </trkpt>
      <trkpt lat="47.29922" lon="-2.29707">
        <ele>4</ele>
        <time>2022-06-19T09:18:50.000Z</time>
      </trkpt>
      <trkpt lat="47.29938" lon="-2.2975">
        <ele>4</ele>
        <time>2022-06-19T09:18:57.000Z</time>
      </trkpt>
      <trkpt lat="47.2995" lon="-2.29788">
        <ele>4</ele>
        <time>2022-06-19T09:19:03.000Z</time>
      </trkpt>
      <trkpt lat="47.29948" lon="-2.29801">
        <ele>4</ele>
        <time>2022-06-19T09:19:06.000Z</time>
      </trkpt>
      <trkpt lat="47.29935" lon="-2.29815">
        <ele>4</ele>
        <time>2022-06-19T09:19:11.000Z</time>
      </trkpt>
      <trkpt lat="47.29912" lon="-2.29833">
        <ele>4</ele>
        <time>2022-06-19T09:19:17.000Z</time>
      </trkpt>
      <trkpt lat="47.29907" lon="-2.29853">
        <ele>4</ele>
        <time>2022-06-19T09:19:20.000Z</time>
      </trkpt>
      <trkpt lat="47.29906" lon="-2.2986">
        <ele>4</ele>
        <time>2022-06-19T09:19:21.000Z</time>
      </trkpt>
      <trkpt lat="47.29906" lon="-2.29868">
        <ele>4</ele>
        <time>2022-06-19T09:19:22.000Z</time>
      </trkpt>
      <trkpt lat="47.29908" lon="-2.29893">
        <ele>4</ele>
        <time>2022-06-19T09:19:25.000Z</time>
      </trkpt>
      <trkpt lat="47.29909" lon="-2.29921">
        <ele>4</ele>
        <time>2022-06-19T09:19:28.000Z</time>
      </trkpt>
      <trkpt lat="47.29906" lon="-2.29935">
        <ele>4</ele>
        <time>2022-06-19T09:19:30.000Z</time>
      </trkpt>
      <trkpt lat="47.2989" lon="-2.29943">
        <ele>4</ele>
        <time>2022-06-19T09:19:33.000Z</time>
      </trkpt>
      <trkpt lat="47.29884" lon="-2.29944">
        <ele>4</ele>
        <time>2022-06-19T09:19:34.000Z</time>
      </trkpt>
      <trkpt lat="47.29842" lon="-2.29954">
        <ele>4</ele>
        <time>2022-06-19T09:19:41.000Z</time>
      </trkpt>
      <trkpt lat="47.29836" lon="-2.29955">
        <ele>4</ele>
        <time>2022-06-19T09:19:42.000Z</time>
      </trkpt>
      <trkpt lat="47.29797" lon="-2.29952">
        <ele>4</ele>
        <time>2022-06-19T09:19:48.000Z</time>
      </trkpt>
      <trkpt lat="47.29791" lon="-2.29953">
        <ele>4</ele>
        <time>2022-06-19T09:19:49.000Z</time>
      </trkpt>
      <trkpt lat="47.29772" lon="-2.29961">
        <ele>4</ele>
        <time>2022-06-19T09:19:52.000Z</time>
      </trkpt>
      <trkpt lat="47.29739" lon="-2.29986">
        <ele>4</ele>
        <time>2022-06-19T09:19:58.000Z</time>
      </trkpt>
      <trkpt lat="47.29703" lon="-2.30001">
        <ele>4</ele>
        <time>2022-06-19T09:20:04.000Z</time>
      </trkpt>
      <trkpt lat="47.2967" lon="-2.3">
        <ele>4</ele>
        <time>2022-06-19T09:20:09.000Z</time>
      </trkpt>
      <trkpt lat="47.29665" lon="-2.29998">
        <ele>4</ele>
        <time>2022-06-19T09:20:10.000Z</time>
      </trkpt>
      <trkpt lat="47.29644" lon="-2.29985">
        <ele>4</ele>
        <time>2022-06-19T09:20:14.000Z</time>
      </trkpt>
      <trkpt lat="47.29636" lon="-2.29989">
        <ele>4.4000000953674</ele>
        <time>2022-06-19T09:20:16.000Z</time>
      </trkpt>
      <trkpt lat="47.29631" lon="-2.29994">
        <ele>4.8000001907349</ele>
        <time>2022-06-19T09:20:17.000Z</time>
      </trkpt>
      <trkpt lat="47.29625" lon="-2.29998">
        <ele>5.1999998092651</ele>
        <time>2022-06-19T09:20:18.000Z</time>
      </trkpt>
      <trkpt lat="47.29618" lon="-2.30001">
        <ele>5.5999999046326</ele>
        <time>2022-06-19T09:20:19.000Z</time>
      </trkpt>
      <trkpt lat="47.29611" lon="-2.30004">
        <ele>6</ele>
        <time>2022-06-19T09:20:20.000Z</time>
      </trkpt>
      <trkpt lat="47.29563" lon="-2.30019">
        <ele>6</ele>
        <time>2022-06-19T09:20:27.000Z</time>
      </trkpt>
      <trkpt lat="47.29527" lon="-2.30031">
        <ele>6</ele>
        <time>2022-06-19T09:20:33.000Z</time>
      </trkpt>
      <trkpt lat="47.29521" lon="-2.30031">
        <ele>6</ele>
        <time>2022-06-19T09:20:34.000Z</time>
      </trkpt>
      <trkpt lat="47.29498" lon="-2.30028">
        <ele>6</ele>
        <time>2022-06-19T09:20:38.000Z</time>
      </trkpt>
      <trkpt lat="47.29493" lon="-2.30029">
        <ele>6</ele>
        <time>2022-06-19T09:20:39.000Z</time>
      </trkpt>
      <trkpt lat="47.2946" lon="-2.3003">
        <ele>6</ele>
        <time>2022-06-19T09:20:44.000Z</time>
      </trkpt>
      <trkpt lat="47.29418" lon="-2.30031">
        <ele>6</ele>
        <time>2022-06-19T09:20:51.000Z</time>
      </trkpt>
      <trkpt lat="47.29384" lon="-2.30022">
        <ele>6</ele>
        <time>2022-06-19T09:20:57.000Z</time>
      </trkpt>
      <trkpt lat="47.29374" lon="-2.30017">
        <ele>6</ele>
        <time>2022-06-19T09:20:59.000Z</time>
      </trkpt>
      <trkpt lat="47.2936" lon="-2.30011">
        <ele>6</ele>
        <time>2022-06-19T09:21:02.000Z</time>
      </trkpt>
      <trkpt lat="47.29347" lon="-2.30005">
        <ele>6</ele>
        <time>2022-06-19T09:21:06.000Z</time>
      </trkpt>
      <trkpt lat="47.29345" lon="-2.30007">
        <ele>6.4000000953674</ele>
        <time>2022-06-19T09:21:07.000Z</time>
      </trkpt>
      <trkpt lat="47.29344" lon="-2.3001">
        <ele>7</ele>
        <time>2022-06-19T09:21:08.000Z</time>
      </trkpt>
      <trkpt lat="47.29343" lon="-2.30015">
        <ele>7.4000000953674</ele>
        <time>2022-06-19T09:21:09.000Z</time>
      </trkpt>
      <trkpt lat="47.29342" lon="-2.30021">
        <ele>7.8000001907349</ele>
        <time>2022-06-19T09:21:10.000Z</time>
      </trkpt>
      <trkpt lat="47.29342" lon="-2.30027">
        <ele>8.3999996185303</ele>
        <time>2022-06-19T09:21:11.000Z</time>
      </trkpt>
      <trkpt lat="47.29341" lon="-2.30052">
        <ele>8.3999996185303</ele>
        <time>2022-06-19T09:21:15.000Z</time>
      </trkpt>
      <trkpt lat="47.29336" lon="-2.30096">
        <ele>8.3999996185303</ele>
        <time>2022-06-19T09:21:23.000Z</time>
      </trkpt>
      <trkpt lat="47.29329" lon="-2.30125">
        <ele>8.3999996185303</ele>
        <time>2022-06-19T09:21:29.000Z</time>
      </trkpt>
      <trkpt lat="47.29326" lon="-2.30135">
        <ele>8</ele>
        <time>2022-06-19T09:21:31.000Z</time>
      </trkpt>
      <trkpt lat="47.29323" lon="-2.30138">
        <ele>7.5999999046326</ele>
        <time>2022-06-19T09:21:32.000Z</time>
      </trkpt>
      <trkpt lat="47.29318" lon="-2.30139">
        <ele>7.1999998092651</ele>
        <time>2022-06-19T09:21:33.000Z</time>
      </trkpt>
      <trkpt lat="47.29314" lon="-2.30139">
        <ele>6.8000001907349</ele>
        <time>2022-06-19T09:21:34.000Z</time>
      </trkpt>
      <trkpt lat="47.29309" lon="-2.30139">
        <ele>6.4000000953674</ele>
        <time>2022-06-19T09:21:35.000Z</time>
      </trkpt>
      <trkpt lat="47.2929" lon="-2.3014">
        <ele>6.4000000953674</ele>
        <time>2022-06-19T09:21:39.000Z</time>
      </trkpt>
      <trkpt lat="47.29286" lon="-2.30141">
        <ele>6.4000000953674</ele>
        <time>2022-06-19T09:21:40.000Z</time>
      </trkpt>
      <trkpt lat="47.29273" lon="-2.30142">
        <ele>6.4000000953674</ele>
        <time>2022-06-19T09:21:43.000Z</time>
      </trkpt>
      <trkpt lat="47.2926" lon="-2.30145">
        <ele>6.4000000953674</ele>
        <time>2022-06-19T09:21:46.000Z</time>
      </trkpt>
      <trkpt lat="47.29247" lon="-2.30146">
        <ele>6.4000000953674</ele>
        <time>2022-06-19T09:21:49.000Z</time>
      </trkpt>
      <trkpt lat="47.29234" lon="-2.30149">
        <ele>6.4000000953674</ele>
        <time>2022-06-19T09:21:52.000Z</time>
      </trkpt>
      <trkpt lat="47.29197" lon="-2.30169">
        <ele>6.4000000953674</ele>
        <time>2022-06-19T09:22:00.000Z</time>
      </trkpt>
      <trkpt lat="47.29164" lon="-2.30188">
        <ele>6.4000000953674</ele>
        <time>2022-06-19T09:22:07.000Z</time>
      </trkpt>
      <trkpt lat="47.2913" lon="-2.30207">
        <ele>6.4000000953674</ele>
        <time>2022-06-19T09:22:14.000Z</time>
      </trkpt>
      <trkpt lat="47.29098" lon="-2.30226">
        <ele>6.8000001907349</ele>
        <time>2022-06-19T09:22:20.000Z</time>
      </trkpt>
      <trkpt lat="47.29092" lon="-2.30228">
        <ele>7.1999998092651</ele>
        <time>2022-06-19T09:22:21.000Z</time>
      </trkpt>
      <trkpt lat="47.29087" lon="-2.3023">
        <ele>7.5999999046326</ele>
        <time>2022-06-19T09:22:22.000Z</time>
      </trkpt>
      <trkpt lat="47.29082" lon="-2.30233">
        <ele>8</ele>
        <time>2022-06-19T09:22:23.000Z</time>
      </trkpt>
      <trkpt lat="47.29076" lon="-2.30235">
        <ele>8.3999996185303</ele>
        <time>2022-06-19T09:22:24.000Z</time>
      </trkpt>
      <trkpt lat="47.29057" lon="-2.30244">
        <ele>8.3999996185303</ele>
        <time>2022-06-19T09:22:28.000Z</time>
      </trkpt>
      <trkpt lat="47.29028" lon="-2.30251">
        <ele>8.3999996185303</ele>
        <time>2022-06-19T09:22:34.000Z</time>
      </trkpt>
      <trkpt lat="47.2899" lon="-2.30258">
        <ele>8.3999996185303</ele>
        <time>2022-06-19T09:22:41.000Z</time>
      </trkpt>
      <trkpt lat="47.28975" lon="-2.30265">
        <ele>8.3999996185303</ele>
        <time>2022-06-19T09:22:45.000Z</time>
      </trkpt>
      <trkpt lat="47.28973" lon="-2.30286">
        <ele>8.3999996185303</ele>
        <time>2022-06-19T09:22:48.000Z</time>
      </trkpt>
      <trkpt lat="47.28974" lon="-2.30299">
        <ele>8.3999996185303</ele>
        <time>2022-06-19T09:22:50.000Z</time>
      </trkpt>
      <trkpt lat="47.28975" lon="-2.30334">
        <ele>8.3999996185303</ele>
        <time>2022-06-19T09:22:55.000Z</time>
      </trkpt>
      <trkpt lat="47.28975" lon="-2.3034">
        <ele>8.3999996185303</ele>
        <time>2022-06-19T09:22:56.000Z</time>
      </trkpt>
      <trkpt lat="47.28974" lon="-2.30366">
        <ele>8.3999996185303</ele>
        <time>2022-06-19T09:23:00.000Z</time>
      </trkpt>
      <trkpt lat="47.28975" lon="-2.30406">
        <ele>8.3999996185303</ele>
        <time>2022-06-19T09:23:07.000Z</time>
      </trkpt>
      <trkpt lat="47.28977" lon="-2.30418">
        <ele>8.8000001907349</ele>
        <time>2022-06-19T09:23:09.000Z</time>
      </trkpt>
      <trkpt lat="47.28978" lon="-2.30424">
        <ele>9.1999998092651</ele>
        <time>2022-06-19T09:23:10.000Z</time>
      </trkpt>
      <trkpt lat="47.28979" lon="-2.3043">
        <ele>9.6000003814697</ele>
        <time>2022-06-19T09:23:11.000Z</time>
      </trkpt>
      <trkpt lat="47.28981" lon="-2.30437">
        <ele>10</ele>
        <time>2022-06-19T09:23:12.000Z</time>
      </trkpt>
      <trkpt lat="47.28982" lon="-2.30443">
        <ele>10.39999961853</ele>
        <time>2022-06-19T09:23:13.000Z</time>
      </trkpt>
      <trkpt lat="47.28983" lon="-2.3045">
        <ele>10.39999961853</ele>
        <time>2022-06-19T09:23:14.000Z</time>
      </trkpt>
      <trkpt lat="47.2899" lon="-2.30498">
        <ele>10.39999961853</ele>
        <time>2022-06-19T09:23:21.000Z</time>
      </trkpt>
      <trkpt lat="47.28995" lon="-2.30528">
        <ele>10.39999961853</ele>
        <time>2022-06-19T09:23:26.000Z</time>
      </trkpt>
      <trkpt lat="47.29001" lon="-2.30567">
        <ele>10.39999961853</ele>
        <time>2022-06-19T09:23:32.000Z</time>
      </trkpt>
      <trkpt lat="47.29007" lon="-2.30619">
        <ele>10.39999961853</ele>
        <time>2022-06-19T09:23:39.000Z</time>
      </trkpt>
      <trkpt lat="47.29006" lon="-2.30641">
        <ele>10.39999961853</ele>
        <time>2022-06-19T09:23:42.000Z</time>
      </trkpt>
      <trkpt lat="47.29007" lon="-2.30655">
        <ele>10.39999961853</ele>
        <time>2022-06-19T09:23:44.000Z</time>
      </trkpt>
      <trkpt lat="47.29007" lon="-2.3071">
        <ele>10.39999961853</ele>
        <time>2022-06-19T09:23:51.000Z</time>
      </trkpt>
      <trkpt lat="47.2901" lon="-2.3077">
        <ele>10.39999961853</ele>
        <time>2022-06-19T09:23:58.000Z</time>
      </trkpt>
      <trkpt lat="47.29019" lon="-2.30813">
        <ele>10.39999961853</ele>
        <time>2022-06-19T09:24:03.000Z</time>
      </trkpt>
      <trkpt lat="47.29025" lon="-2.30864">
        <ele>10.39999961853</ele>
        <time>2022-06-19T09:24:09.000Z</time>
      </trkpt>
      <trkpt lat="47.29028" lon="-2.30896">
        <ele>10.800000190735</ele>
        <time>2022-06-19T09:24:13.000Z</time>
      </trkpt>
      <trkpt lat="47.29028" lon="-2.30903">
        <ele>11.199999809265</ele>
        <time>2022-06-19T09:24:14.000Z</time>
      </trkpt>
      <trkpt lat="47.29029" lon="-2.30911">
        <ele>11.60000038147</ele>
        <time>2022-06-19T09:24:15.000Z</time>
      </trkpt>
      <trkpt lat="47.29029" lon="-2.30919">
        <ele>12</ele>
        <time>2022-06-19T09:24:16.000Z</time>
      </trkpt>
      <trkpt lat="47.2903" lon="-2.30927">
        <ele>12.39999961853</ele>
        <time>2022-06-19T09:24:17.000Z</time>
      </trkpt>
      <trkpt lat="47.2903" lon="-2.30942">
        <ele>12.800000190735</ele>
        <time>2022-06-19T09:24:19.000Z</time>
      </trkpt>
      <trkpt lat="47.2903" lon="-2.3095">
        <ele>13.39999961853</ele>
        <time>2022-06-19T09:24:20.000Z</time>
      </trkpt>
      <trkpt lat="47.2903" lon="-2.30958">
        <ele>13.800000190735</ele>
        <time>2022-06-19T09:24:21.000Z</time>
      </trkpt>
      <trkpt lat="47.2903" lon="-2.30966">
        <ele>14.199999809265</ele>
        <time>2022-06-19T09:24:22.000Z</time>
      </trkpt>
      <trkpt lat="47.29031" lon="-2.30974">
        <ele>14.60000038147</ele>
        <time>2022-06-19T09:24:23.000Z</time>
      </trkpt>
      <trkpt lat="47.29032" lon="-2.3099">
        <ele>14.60000038147</ele>
        <time>2022-06-19T09:24:25.000Z</time>
      </trkpt>
      <trkpt lat="47.29032" lon="-2.31038">
        <ele>15.60000038147</ele>
        <time>2022-06-19T09:24:31.000Z</time>
      </trkpt>
      <trkpt lat="47.29032" lon="-2.31046">
        <ele>16</ele>
        <time>2022-06-19T09:24:32.000Z</time>
      </trkpt>
      <trkpt lat="47.29032" lon="-2.31054">
        <ele>16.39999961853</ele>
        <time>2022-06-19T09:24:33.000Z</time>
      </trkpt>
      <trkpt lat="47.29032" lon="-2.31062">
        <ele>16.799999237061</ele>
        <time>2022-06-19T09:24:34.000Z</time>
      </trkpt>
      <trkpt lat="47.29034" lon="-2.31094">
        <ele>17.200000762939</ele>
        <time>2022-06-19T09:24:38.000Z</time>
      </trkpt>
      <trkpt lat="47.29034" lon="-2.31102">
        <ele>17.60000038147</ele>
        <time>2022-06-19T09:24:39.000Z</time>
      </trkpt>
      <trkpt lat="47.29035" lon="-2.31109">
        <ele>18</ele>
        <time>2022-06-19T09:24:40.000Z</time>
      </trkpt>
      <trkpt lat="47.29035" lon="-2.31117">
        <ele>18.39999961853</ele>
        <time>2022-06-19T09:24:41.000Z</time>
      </trkpt>
      <trkpt lat="47.29036" lon="-2.31125">
        <ele>18.799999237061</ele>
        <time>2022-06-19T09:24:42.000Z</time>
      </trkpt>
      <trkpt lat="47.29038" lon="-2.31148">
        <ele>18.799999237061</ele>
        <time>2022-06-19T09:24:45.000Z</time>
      </trkpt>
      <trkpt lat="47.2904" lon="-2.31164">
        <ele>18.799999237061</ele>
        <time>2022-06-19T09:24:47.000Z</time>
      </trkpt>
      <trkpt lat="47.29042" lon="-2.31189">
        <ele>19.200000762939</ele>
        <time>2022-06-19T09:24:50.000Z</time>
      </trkpt>
      <trkpt lat="47.29043" lon="-2.31198">
        <ele>19.799999237061</ele>
        <time>2022-06-19T09:24:51.000Z</time>
      </trkpt>
      <trkpt lat="47.29044" lon="-2.31206">
        <ele>20.200000762939</ele>
        <time>2022-06-19T09:24:52.000Z</time>
      </trkpt>
      <trkpt lat="47.29043" lon="-2.31215">
        <ele>20.60000038147</ele>
        <time>2022-06-19T09:24:53.000Z</time>
      </trkpt>
      <trkpt lat="47.29042" lon="-2.31224">
        <ele>21</ele>
        <time>2022-06-19T09:24:54.000Z</time>
      </trkpt>
      <trkpt lat="47.2903" lon="-2.31256">
        <ele>21</ele>
        <time>2022-06-19T09:24:58.000Z</time>
      </trkpt>
      <trkpt lat="47.29006" lon="-2.31308">
        <ele>21</ele>
        <time>2022-06-19T09:25:05.000Z</time>
      </trkpt>
      <trkpt lat="47.28986" lon="-2.31346">
        <ele>21</ele>
        <time>2022-06-19T09:25:11.000Z</time>
      </trkpt>
      <trkpt lat="47.28974" lon="-2.31364">
        <ele>21</ele>
        <time>2022-06-19T09:25:14.000Z</time>
      </trkpt>
      <trkpt lat="47.28969" lon="-2.31369">
        <ele>21.39999961853</ele>
        <time>2022-06-19T09:25:15.000Z</time>
      </trkpt>
      <trkpt lat="47.28964" lon="-2.31374">
        <ele>21.799999237061</ele>
        <time>2022-06-19T09:25:16.000Z</time>
      </trkpt>
      <trkpt lat="47.28959" lon="-2.31379">
        <ele>22.200000762939</ele>
        <time>2022-06-19T09:25:17.000Z</time>
      </trkpt>
      <trkpt lat="47.28954" lon="-2.31383">
        <ele>22.60000038147</ele>
        <time>2022-06-19T09:25:18.000Z</time>
      </trkpt>
      <trkpt lat="47.28948" lon="-2.31386">
        <ele>23</ele>
        <time>2022-06-19T09:25:19.000Z</time>
      </trkpt>
      <trkpt lat="47.28936" lon="-2.3139">
        <ele>23</ele>
        <time>2022-06-19T09:25:21.000Z</time>
      </trkpt>
      <trkpt lat="47.28923" lon="-2.31391">
        <ele>23</ele>
        <time>2022-06-19T09:25:23.000Z</time>
      </trkpt>
      <trkpt lat="47.28892" lon="-2.31393">
        <ele>23</ele>
        <time>2022-06-19T09:25:28.000Z</time>
      </trkpt>
      <trkpt lat="47.28854" lon="-2.31405">
        <ele>23</ele>
        <time>2022-06-19T09:25:34.000Z</time>
      </trkpt>
      <trkpt lat="47.28808" lon="-2.31432">
        <ele>23</ele>
        <time>2022-06-19T09:25:42.000Z</time>
      </trkpt>
      <trkpt lat="47.28769" lon="-2.31458">
        <ele>23</ele>
        <time>2022-06-19T09:25:49.000Z</time>
      </trkpt>
      <trkpt lat="47.28728" lon="-2.31482">
        <ele>23</ele>
        <time>2022-06-19T09:25:56.000Z</time>
      </trkpt>
      <trkpt lat="47.28711" lon="-2.31489">
        <ele>23.39999961853</ele>
        <time>2022-06-19T09:25:59.000Z</time>
      </trkpt>
      <trkpt lat="47.28706" lon="-2.31492">
        <ele>23.799999237061</ele>
        <time>2022-06-19T09:26:00.000Z</time>
      </trkpt>
      <trkpt lat="47.287" lon="-2.31493">
        <ele>24.200000762939</ele>
        <time>2022-06-19T09:26:01.000Z</time>
      </trkpt>
      <trkpt lat="47.28693" lon="-2.31494">
        <ele>24.60000038147</ele>
        <time>2022-06-19T09:26:02.000Z</time>
      </trkpt>
      <trkpt lat="47.28687" lon="-2.31493">
        <ele>25</ele>
        <time>2022-06-19T09:26:03.000Z</time>
      </trkpt>
      <trkpt lat="47.28674" lon="-2.31478">
        <ele>25</ele>
        <time>2022-06-19T09:26:06.000Z</time>
      </trkpt>
      <trkpt lat="47.28669" lon="-2.31467">
        <ele>25</ele>
        <time>2022-06-19T09:26:08.000Z</time>
      </trkpt>
      <trkpt lat="47.28668" lon="-2.31461">
        <ele>25</ele>
        <time>2022-06-19T09:26:09.000Z</time>
      </trkpt>
      <trkpt lat="47.28662" lon="-2.31454">
        <ele>25</ele>
        <time>2022-06-19T09:26:12.000Z</time>
      </trkpt>
      <trkpt lat="47.28647" lon="-2.31459">
        <ele>25</ele>
        <time>2022-06-19T09:26:17.000Z</time>
      </trkpt>
      <trkpt lat="47.28629" lon="-2.31469">
        <ele>25</ele>
        <time>2022-06-19T09:26:25.000Z</time>
      </trkpt>
      <trkpt lat="47.28621" lon="-2.31477">
        <ele>25</ele>
        <time>2022-06-19T09:26:30.000Z</time>
      </trkpt>
      <trkpt lat="47.28621" lon="-2.3148">
        <ele>25.39999961853</ele>
        <time>2022-06-19T09:26:31.000Z</time>
      </trkpt>
      <trkpt lat="47.2862" lon="-2.31481">
        <ele>26</ele>
        <time>2022-06-19T09:26:32.000Z</time>
      </trkpt>
      <trkpt lat="47.2862" lon="-2.3148">
        <ele>26.39999961853</ele>
        <time>2022-06-19T09:26:33.000Z</time>
      </trkpt>
      <trkpt lat="47.2862" lon="-2.31481">
        <ele>27.200000762939</ele>
        <time>2022-06-19T09:26:52.000Z</time>
      </trkpt>
      <trkpt lat="47.28623" lon="-2.31502">
        <ele>27.200000762939</ele>
        <time>2022-06-19T09:26:58.000Z</time>
      </trkpt>
      <trkpt lat="47.28626" lon="-2.3154">
        <ele>27.200000762939</ele>
        <time>2022-06-19T09:27:04.000Z</time>
      </trkpt>
      <trkpt lat="47.28624" lon="-2.31602">
        <ele>27.200000762939</ele>
        <time>2022-06-19T09:27:12.000Z</time>
      </trkpt>
      <trkpt lat="47.28625" lon="-2.3167">
        <ele>27.200000762939</ele>
        <time>2022-06-19T09:27:20.000Z</time>
      </trkpt>
      <trkpt lat="47.28634" lon="-2.31739">
        <ele>27.200000762939</ele>
        <time>2022-06-19T09:27:28.000Z</time>
      </trkpt>
      <trkpt lat="47.28646" lon="-2.31813">
        <ele>27.200000762939</ele>
        <time>2022-06-19T09:27:37.000Z</time>
      </trkpt>
      <trkpt lat="47.28654" lon="-2.31882">
        <ele>27.200000762939</ele>
        <time>2022-06-19T09:27:45.000Z</time>
      </trkpt>
      <trkpt lat="47.28662" lon="-2.31955">
        <ele>27.200000762939</ele>
        <time>2022-06-19T09:27:53.000Z</time>
      </trkpt>
      <trkpt lat="47.28665" lon="-2.31974">
        <ele>26.799999237061</ele>
        <time>2022-06-19T09:27:55.000Z</time>
      </trkpt>
      <trkpt lat="47.28666" lon="-2.31983">
        <ele>26.200000762939</ele>
        <time>2022-06-19T09:27:56.000Z</time>
      </trkpt>
      <trkpt lat="47.28668" lon="-2.31993">
        <ele>25.799999237061</ele>
        <time>2022-06-19T09:27:57.000Z</time>
      </trkpt>
      <trkpt lat="47.2867" lon="-2.32002">
        <ele>25.39999961853</ele>
        <time>2022-06-19T09:27:58.000Z</time>
      </trkpt>
      <trkpt lat="47.28671" lon="-2.32011">
        <ele>24.799999237061</ele>
        <time>2022-06-19T09:27:59.000Z</time>
      </trkpt>
      <trkpt lat="47.28676" lon="-2.32029">
        <ele>24.799999237061</ele>
        <time>2022-06-19T09:28:01.000Z</time>
      </trkpt>
      <trkpt lat="47.28692" lon="-2.3211">
        <ele>24.799999237061</ele>
        <time>2022-06-19T09:28:10.000Z</time>
      </trkpt>
      <trkpt lat="47.28692" lon="-2.32129">
        <ele>24.799999237061</ele>
        <time>2022-06-19T09:28:12.000Z</time>
      </trkpt>
      <trkpt lat="47.2869" lon="-2.32149">
        <ele>24.799999237061</ele>
        <time>2022-06-19T09:28:14.000Z</time>
      </trkpt>
      <trkpt lat="47.28676" lon="-2.32185">
        <ele>24.799999237061</ele>
        <time>2022-06-19T09:28:18.000Z</time>
      </trkpt>
      <trkpt lat="47.28671" lon="-2.32193">
        <ele>24.799999237061</ele>
        <time>2022-06-19T09:28:19.000Z</time>
      </trkpt>
      <trkpt lat="47.28661" lon="-2.32209">
        <ele>24.39999961853</ele>
        <time>2022-06-19T09:28:21.000Z</time>
      </trkpt>
      <trkpt lat="47.28655" lon="-2.32216">
        <ele>24</ele>
        <time>2022-06-19T09:28:22.000Z</time>
      </trkpt>
      <trkpt lat="47.2865" lon="-2.32222">
        <ele>23.60000038147</ele>
        <time>2022-06-19T09:28:23.000Z</time>
      </trkpt>
      <trkpt lat="47.28643" lon="-2.32228">
        <ele>23</ele>
        <time>2022-06-19T09:28:24.000Z</time>
      </trkpt>
      <trkpt lat="47.28636" lon="-2.32233">
        <ele>22.60000038147</ele>
        <time>2022-06-19T09:28:25.000Z</time>
      </trkpt>
      <trkpt lat="47.28621" lon="-2.32243">
        <ele>22.60000038147</ele>
        <time>2022-06-19T09:28:27.000Z</time>
      </trkpt>
      <trkpt lat="47.28608" lon="-2.32253">
        <ele>22.200000762939</ele>
        <time>2022-06-19T09:28:29.000Z</time>
      </trkpt>
      <trkpt lat="47.28602" lon="-2.32258">
        <ele>21.799999237061</ele>
        <time>2022-06-19T09:28:30.000Z</time>
      </trkpt>
      <trkpt lat="47.28595" lon="-2.32263">
        <ele>21.200000762939</ele>
        <time>2022-06-19T09:28:31.000Z</time>
      </trkpt>
      <trkpt lat="47.28589" lon="-2.32268">
        <ele>20.799999237061</ele>
        <time>2022-06-19T09:28:32.000Z</time>
      </trkpt>
      <trkpt lat="47.28583" lon="-2.32273">
        <ele>20.39999961853</ele>
        <time>2022-06-19T09:28:33.000Z</time>
      </trkpt>
      <trkpt lat="47.2856" lon="-2.32295">
        <ele>20.39999961853</ele>
        <time>2022-06-19T09:28:37.000Z</time>
      </trkpt>
      <trkpt lat="47.28547" lon="-2.3231">
        <ele>20.39999961853</ele>
        <time>2022-06-19T09:28:39.000Z</time>
      </trkpt>
      <trkpt lat="47.28517" lon="-2.32335">
        <ele>20</ele>
        <time>2022-06-19T09:28:43.000Z</time>
      </trkpt>
      <trkpt lat="47.2851" lon="-2.3234">
        <ele>19.60000038147</ele>
        <time>2022-06-19T09:28:44.000Z</time>
      </trkpt>
      <trkpt lat="47.28502" lon="-2.32344">
        <ele>19.200000762939</ele>
        <time>2022-06-19T09:28:45.000Z</time>
      </trkpt>
      <trkpt lat="47.28495" lon="-2.32349">
        <ele>18.60000038147</ele>
        <time>2022-06-19T09:28:46.000Z</time>
      </trkpt>
      <trkpt lat="47.28487" lon="-2.32354">
        <ele>18.200000762939</ele>
        <time>2022-06-19T09:28:47.000Z</time>
      </trkpt>
      <trkpt lat="47.28459" lon="-2.32371">
        <ele>18.200000762939</ele>
        <time>2022-06-19T09:28:51.000Z</time>
      </trkpt>
      <trkpt lat="47.28433" lon="-2.32388">
        <ele>17.799999237061</ele>
        <time>2022-06-19T09:28:55.000Z</time>
      </trkpt>
      <trkpt lat="47.28427" lon="-2.32392">
        <ele>17.39999961853</ele>
        <time>2022-06-19T09:28:56.000Z</time>
      </trkpt>
      <trkpt lat="47.28421" lon="-2.32396">
        <ele>17</ele>
        <time>2022-06-19T09:28:57.000Z</time>
      </trkpt>
      <trkpt lat="47.28415" lon="-2.324">
        <ele>16.60000038147</ele>
        <time>2022-06-19T09:28:58.000Z</time>
      </trkpt>
      <trkpt lat="47.28409" lon="-2.32403">
        <ele>16.200000762939</ele>
        <time>2022-06-19T09:28:59.000Z</time>
      </trkpt>
      <trkpt lat="47.28386" lon="-2.32417">
        <ele>16.200000762939</ele>
        <time>2022-06-19T09:29:03.000Z</time>
      </trkpt>
      <trkpt lat="47.28377" lon="-2.32427">
        <ele>16.200000762939</ele>
        <time>2022-06-19T09:29:05.000Z</time>
      </trkpt>
      <trkpt lat="47.28375" lon="-2.32434">
        <ele>16.200000762939</ele>
        <time>2022-06-19T09:29:06.000Z</time>
      </trkpt>
      <trkpt lat="47.28378" lon="-2.32454">
        <ele>16.200000762939</ele>
        <time>2022-06-19T09:29:09.000Z</time>
      </trkpt>
      <trkpt lat="47.28389" lon="-2.3251">
        <ele>16.200000762939</ele>
        <time>2022-06-19T09:29:17.000Z</time>
      </trkpt>
      <trkpt lat="47.28391" lon="-2.32516">
        <ele>16.200000762939</ele>
        <time>2022-06-19T09:29:18.000Z</time>
      </trkpt>
      <trkpt lat="47.28387" lon="-2.32525">
        <ele>16.200000762939</ele>
        <time>2022-06-19T09:29:21.000Z</time>
      </trkpt>
      <trkpt lat="47.28385" lon="-2.32526">
        <ele>16.200000762939</ele>
        <time>2022-06-19T09:29:22.000Z</time>
      </trkpt>
      <trkpt lat="47.28375" lon="-2.32527">
        <ele>15.800000190735</ele>
        <time>2022-06-19T09:29:25.000Z</time>
      </trkpt>
      <trkpt lat="47.28371" lon="-2.32526">
        <ele>15.39999961853</ele>
        <time>2022-06-19T09:29:26.000Z</time>
      </trkpt>
      <trkpt lat="47.28367" lon="-2.32526">
        <ele>15</ele>
        <time>2022-06-19T09:29:27.000Z</time>
      </trkpt>
      <trkpt lat="47.28362" lon="-2.32526">
        <ele>14</ele>
        <time>2022-06-19T09:29:28.000Z</time>
      </trkpt>
      <trkpt lat="47.28351" lon="-2.32526">
        <ele>14</ele>
        <time>2022-06-19T09:29:30.000Z</time>
      </trkpt>
      <trkpt lat="47.28305" lon="-2.32526">
        <ele>14</ele>
        <time>2022-06-19T09:29:38.000Z</time>
      </trkpt>
      <trkpt lat="47.28273" lon="-2.3252">
        <ele>14</ele>
        <time>2022-06-19T09:29:44.000Z</time>
      </trkpt>
      <trkpt lat="47.28268" lon="-2.32517">
        <ele>14</ele>
        <time>2022-06-19T09:29:45.000Z</time>
      </trkpt>
      <trkpt lat="47.28251" lon="-2.32498">
        <ele>14</ele>
        <time>2022-06-19T09:29:49.000Z</time>
      </trkpt>
      <trkpt lat="47.28247" lon="-2.32493">
        <ele>14</ele>
        <time>2022-06-19T09:29:50.000Z</time>
      </trkpt>
      <trkpt lat="47.28242" lon="-2.32488">
        <ele>14</ele>
        <time>2022-06-19T09:29:51.000Z</time>
      </trkpt>
      <trkpt lat="47.28228" lon="-2.32475">
        <ele>14</ele>
        <time>2022-06-19T09:29:54.000Z</time>
      </trkpt>
      <trkpt lat="47.28223" lon="-2.32471">
        <ele>14</ele>
        <time>2022-06-19T09:29:55.000Z</time>
      </trkpt>
      <trkpt lat="47.28196" lon="-2.3246">
        <ele>14</ele>
        <time>2022-06-19T09:30:01.000Z</time>
      </trkpt>
      <trkpt lat="47.28157" lon="-2.32455">
        <ele>14</ele>
        <time>2022-06-19T09:30:08.000Z</time>
      </trkpt>
      <trkpt lat="47.28152" lon="-2.32455">
        <ele>14</ele>
        <time>2022-06-19T09:30:09.000Z</time>
      </trkpt>
      <trkpt lat="47.28136" lon="-2.32456">
        <ele>14</ele>
        <time>2022-06-19T09:30:12.000Z</time>
      </trkpt>
      <trkpt lat="47.28126" lon="-2.32455">
        <ele>14.39999961853</ele>
        <time>2022-06-19T09:30:14.000Z</time>
      </trkpt>
      <trkpt lat="47.28122" lon="-2.32454">
        <ele>14.800000190735</ele>
        <time>2022-06-19T09:30:15.000Z</time>
      </trkpt>
      <trkpt lat="47.28118" lon="-2.32453">
        <ele>15.39999961853</ele>
        <time>2022-06-19T09:30:16.000Z</time>
      </trkpt>
      <trkpt lat="47.28112" lon="-2.32451">
        <ele>15.800000190735</ele>
        <time>2022-06-19T09:30:17.000Z</time>
      </trkpt>
      <trkpt lat="47.28107" lon="-2.32449">
        <ele>16.200000762939</ele>
        <time>2022-06-19T09:30:18.000Z</time>
      </trkpt>
      <trkpt lat="47.28099" lon="-2.32442">
        <ele>16.200000762939</ele>
        <time>2022-06-19T09:30:20.000Z</time>
      </trkpt>
      <trkpt lat="47.28091" lon="-2.32435">
        <ele>16.200000762939</ele>
        <time>2022-06-19T09:30:22.000Z</time>
      </trkpt>
      <trkpt lat="47.28077" lon="-2.3243">
        <ele>16.200000762939</ele>
        <time>2022-06-19T09:30:25.000Z</time>
      </trkpt>
      <trkpt lat="47.28066" lon="-2.3243">
        <ele>16.200000762939</ele>
        <time>2022-06-19T09:30:27.000Z</time>
      </trkpt>
      <trkpt lat="47.2805" lon="-2.32428">
        <ele>16.200000762939</ele>
        <time>2022-06-19T09:30:30.000Z</time>
      </trkpt>
      <trkpt lat="47.28039" lon="-2.32427">
        <ele>16.200000762939</ele>
        <time>2022-06-19T09:30:32.000Z</time>
      </trkpt>
      <trkpt lat="47.28013" lon="-2.32422">
        <ele>16.200000762939</ele>
        <time>2022-06-19T09:30:36.000Z</time>
      </trkpt>
      <trkpt lat="47.27975" lon="-2.32411">
        <ele>16.200000762939</ele>
        <time>2022-06-19T09:30:43.000Z</time>
      </trkpt>
      <trkpt lat="47.27958" lon="-2.32403">
        <ele>16.200000762939</ele>
        <time>2022-06-19T09:30:47.000Z</time>
      </trkpt>
      <trkpt lat="47.27954" lon="-2.32402">
        <ele>16.200000762939</ele>
        <time>2022-06-19T09:30:48.000Z</time>
      </trkpt>
      <trkpt lat="47.27934" lon="-2.32397">
        <ele>16.200000762939</ele>
        <time>2022-06-19T09:30:53.000Z</time>
      </trkpt>
      <trkpt lat="47.27917" lon="-2.32393">
        <ele>16.200000762939</ele>
        <time>2022-06-19T09:30:59.000Z</time>
      </trkpt>
      <trkpt lat="47.279" lon="-2.32386">
        <ele>16.200000762939</ele>
        <time>2022-06-19T09:31:06.000Z</time>
      </trkpt>
      <trkpt lat="47.27893" lon="-2.32387">
        <ele>16.60000038147</ele>
        <time>2022-06-19T09:31:09.000Z</time>
      </trkpt>
      <trkpt lat="47.27891" lon="-2.32389">
        <ele>17</ele>
        <time>2022-06-19T09:31:10.000Z</time>
      </trkpt>
      <trkpt lat="47.27889" lon="-2.3239">
        <ele>17.39999961853</ele>
        <time>2022-06-19T09:31:11.000Z</time>
      </trkpt>
      <trkpt lat="47.27887" lon="-2.3239">
        <ele>17.799999237061</ele>
        <time>2022-06-19T09:31:12.000Z</time>
      </trkpt>
      <trkpt lat="47.27885" lon="-2.3239">
        <ele>18.200000762939</ele>
        <time>2022-06-19T09:31:13.000Z</time>
      </trkpt>
      <trkpt lat="47.27872" lon="-2.32387">
        <ele>18.200000762939</ele>
        <time>2022-06-19T09:31:18.000Z</time>
      </trkpt>
      <trkpt lat="47.27855" lon="-2.32381">
        <ele>18.200000762939</ele>
        <time>2022-06-19T09:31:23.000Z</time>
      </trkpt>
      <trkpt lat="47.27833" lon="-2.32381">
        <ele>18.200000762939</ele>
        <time>2022-06-19T09:31:29.000Z</time>
      </trkpt>
      <trkpt lat="47.27823" lon="-2.32382">
        <ele>18.60000038147</ele>
        <time>2022-06-19T09:31:32.000Z</time>
      </trkpt>
      <trkpt lat="47.2782" lon="-2.32382">
        <ele>19</ele>
        <time>2022-06-19T09:31:33.000Z</time>
      </trkpt>
      <trkpt lat="47.27815" lon="-2.32383">
        <ele>19.39999961853</ele>
        <time>2022-06-19T09:31:34.000Z</time>
      </trkpt>
      <trkpt lat="47.2781" lon="-2.32383">
        <ele>19.799999237061</ele>
        <time>2022-06-19T09:31:35.000Z</time>
      </trkpt>
      <trkpt lat="47.27806" lon="-2.32384">
        <ele>20.200000762939</ele>
        <time>2022-06-19T09:31:36.000Z</time>
      </trkpt>
      <trkpt lat="47.27793" lon="-2.32385">
        <ele>20.200000762939</ele>
        <time>2022-06-19T09:31:41.000Z</time>
      </trkpt>
      <trkpt lat="47.27774" lon="-2.3238">
        <ele>20.200000762939</ele>
        <time>2022-06-19T09:31:46.000Z</time>
      </trkpt>
      <trkpt lat="47.27755" lon="-2.32368">
        <ele>20.200000762939</ele>
        <time>2022-06-19T09:31:51.000Z</time>
      </trkpt>
      <trkpt lat="47.27732" lon="-2.32355">
        <ele>20.200000762939</ele>
        <time>2022-06-19T09:31:58.000Z</time>
      </trkpt>
      <trkpt lat="47.27715" lon="-2.32345">
        <ele>20.200000762939</ele>
        <time>2022-06-19T09:32:03.000Z</time>
      </trkpt>
      <trkpt lat="47.27697" lon="-2.32332">
        <ele>20.200000762939</ele>
        <time>2022-06-19T09:32:09.000Z</time>
      </trkpt>
      <trkpt lat="47.27664" lon="-2.3232">
        <ele>20.200000762939</ele>
        <time>2022-06-19T09:32:17.000Z</time>
      </trkpt>
      <trkpt lat="47.27633" lon="-2.32305">
        <ele>20.200000762939</ele>
        <time>2022-06-19T09:32:25.000Z</time>
      </trkpt>
      <trkpt lat="47.27615" lon="-2.32293">
        <ele>20.200000762939</ele>
        <time>2022-06-19T09:32:30.000Z</time>
      </trkpt>
      <trkpt lat="47.276" lon="-2.32284">
        <ele>20.200000762939</ele>
        <time>2022-06-19T09:32:34.000Z</time>
      </trkpt>
      <trkpt lat="47.27596" lon="-2.32279">
        <ele>19.799999237061</ele>
        <time>2022-06-19T09:32:35.000Z</time>
      </trkpt>
      <trkpt lat="47.27591" lon="-2.32274">
        <ele>19.39999961853</ele>
        <time>2022-06-19T09:32:36.000Z</time>
      </trkpt>
      <trkpt lat="47.27586" lon="-2.32269">
        <ele>19</ele>
        <time>2022-06-19T09:32:37.000Z</time>
      </trkpt>
      <trkpt lat="47.2758" lon="-2.32265">
        <ele>18.60000038147</ele>
        <time>2022-06-19T09:32:38.000Z</time>
      </trkpt>
      <trkpt lat="47.27575" lon="-2.3226">
        <ele>18.200000762939</ele>
        <time>2022-06-19T09:32:39.000Z</time>
      </trkpt>
      <trkpt lat="47.27548" lon="-2.32237">
        <ele>17.799999237061</ele>
        <time>2022-06-19T09:32:44.000Z</time>
      </trkpt>
      <trkpt lat="47.27544" lon="-2.32234">
        <ele>17.39999961853</ele>
        <time>2022-06-19T09:32:45.000Z</time>
      </trkpt>
      <trkpt lat="47.27542" lon="-2.32233">
        <ele>16.799999237061</ele>
        <time>2022-06-19T09:32:46.000Z</time>
      </trkpt>
      <trkpt lat="47.27541" lon="-2.32231">
        <ele>16</ele>
        <time>2022-06-19T09:32:47.000Z</time>
      </trkpt>
      <trkpt lat="47.27539" lon="-2.32229">
        <ele>16</ele>
        <time>2022-06-19T09:32:50.000Z</time>
      </trkpt>
      <trkpt lat="47.27538" lon="-2.32229">
        <ele>16</ele>
        <time>2022-06-19T09:32:51.000Z</time>
      </trkpt>
      <trkpt lat="47.27534" lon="-2.3222">
        <ele>14</ele>
        <time>2022-06-19T09:34:10.000Z</time>
      </trkpt>
      <trkpt lat="47.2753" lon="-2.32214">
        <ele>14</ele>
        <time>2022-06-19T09:34:12.000Z</time>
      </trkpt>
      <trkpt lat="47.2752" lon="-2.32205">
        <ele>14</ele>
        <time>2022-06-19T09:34:15.000Z</time>
      </trkpt>
      <trkpt lat="47.27516" lon="-2.32201">
        <ele>14</ele>
        <time>2022-06-19T09:34:16.000Z</time>
      </trkpt>
      <trkpt lat="47.27495" lon="-2.32172">
        <ele>14</ele>
        <time>2022-06-19T09:34:22.000Z</time>
      </trkpt>
      <trkpt lat="47.27491" lon="-2.32166">
        <ele>13.60000038147</ele>
        <time>2022-06-19T09:34:23.000Z</time>
      </trkpt>
      <trkpt lat="47.27486" lon="-2.32161">
        <ele>13</ele>
        <time>2022-06-19T09:34:24.000Z</time>
      </trkpt>
      <trkpt lat="47.27482" lon="-2.32155">
        <ele>12.199999809265</ele>
        <time>2022-06-19T09:34:25.000Z</time>
      </trkpt>
      <trkpt lat="47.27478" lon="-2.32151">
        <ele>11.800000190735</ele>
        <time>2022-06-19T09:34:26.000Z</time>
      </trkpt>
      <trkpt lat="47.27469" lon="-2.32141">
        <ele>11.800000190735</ele>
        <time>2022-06-19T09:34:28.000Z</time>
      </trkpt>
      <trkpt lat="47.27429" lon="-2.32087">
        <ele>11.800000190735</ele>
        <time>2022-06-19T09:34:38.000Z</time>
      </trkpt>
      <trkpt lat="47.27421" lon="-2.32077">
        <ele>11.39999961853</ele>
        <time>2022-06-19T09:34:40.000Z</time>
      </trkpt>
      <trkpt lat="47.27416" lon="-2.32072">
        <ele>11</ele>
        <time>2022-06-19T09:34:41.000Z</time>
      </trkpt>
      <trkpt lat="47.27412" lon="-2.32067">
        <ele>10.60000038147</ele>
        <time>2022-06-19T09:34:42.000Z</time>
      </trkpt>
      <trkpt lat="47.27407" lon="-2.32062">
        <ele>10</ele>
        <time>2022-06-19T09:34:43.000Z</time>
      </trkpt>
      <trkpt lat="47.27402" lon="-2.32057">
        <ele>9.6000003814697</ele>
        <time>2022-06-19T09:34:44.000Z</time>
      </trkpt>
      <trkpt lat="47.27397" lon="-2.32051">
        <ele>9.6000003814697</ele>
        <time>2022-06-19T09:34:45.000Z</time>
      </trkpt>
      <trkpt lat="47.27368" lon="-2.32019">
        <ele>9.1999998092651</ele>
        <time>2022-06-19T09:34:50.000Z</time>
      </trkpt>
      <trkpt lat="47.27361" lon="-2.32012">
        <ele>8.8000001907349</ele>
        <time>2022-06-19T09:34:51.000Z</time>
      </trkpt>
      <trkpt lat="47.27355" lon="-2.32005">
        <ele>8.3999996185303</ele>
        <time>2022-06-19T09:34:52.000Z</time>
      </trkpt>
      <trkpt lat="47.27349" lon="-2.31998">
        <ele>8</ele>
        <time>2022-06-19T09:34:53.000Z</time>
      </trkpt>
      <trkpt lat="47.27342" lon="-2.31991">
        <ele>7.5999999046326</ele>
        <time>2022-06-19T09:34:54.000Z</time>
      </trkpt>
      <trkpt lat="47.27313" lon="-2.31961">
        <ele>7.5999999046326</ele>
        <time>2022-06-19T09:34:59.000Z</time>
      </trkpt>
      <trkpt lat="47.27303" lon="-2.31951">
        <ele>7.5999999046326</ele>
        <time>2022-06-19T09:35:01.000Z</time>
      </trkpt>
      <trkpt lat="47.27287" lon="-2.3194">
        <ele>7.5999999046326</ele>
        <time>2022-06-19T09:35:04.000Z</time>
      </trkpt>
      <trkpt lat="47.27282" lon="-2.31937">
        <ele>7.5999999046326</ele>
        <time>2022-06-19T09:35:05.000Z</time>
      </trkpt>
      <trkpt lat="47.27261" lon="-2.31931">
        <ele>7.5999999046326</ele>
        <time>2022-06-19T09:35:09.000Z</time>
      </trkpt>
      <trkpt lat="47.27229" lon="-2.31921">
        <ele>7.5999999046326</ele>
        <time>2022-06-19T09:35:15.000Z</time>
      </trkpt>
      <trkpt lat="47.27224" lon="-2.3192">
        <ele>7.5999999046326</ele>
        <time>2022-06-19T09:35:16.000Z</time>
      </trkpt>
      <trkpt lat="47.27212" lon="-2.31928">
        <ele>7.5999999046326</ele>
        <time>2022-06-19T09:35:19.000Z</time>
      </trkpt>
      <trkpt lat="47.27202" lon="-2.31946">
        <ele>7.5999999046326</ele>
        <time>2022-06-19T09:35:22.000Z</time>
      </trkpt>
      <trkpt lat="47.27195" lon="-2.31958">
        <ele>7.5999999046326</ele>
        <time>2022-06-19T09:35:24.000Z</time>
      </trkpt>
      <trkpt lat="47.27191" lon="-2.31963">
        <ele>7.5999999046326</ele>
        <time>2022-06-19T09:35:25.000Z</time>
      </trkpt>
      <trkpt lat="47.27173" lon="-2.31987">
        <ele>7.1999998092651</ele>
        <time>2022-06-19T09:35:29.000Z</time>
      </trkpt>
      <trkpt lat="47.27168" lon="-2.31992">
        <ele>6.8000001907349</ele>
        <time>2022-06-19T09:35:30.000Z</time>
      </trkpt>
      <trkpt lat="47.27164" lon="-2.31996">
        <ele>6.4000000953674</ele>
        <time>2022-06-19T09:35:31.000Z</time>
      </trkpt>
      <trkpt lat="47.2716" lon="-2.31996">
        <ele>6</ele>
        <time>2022-06-19T09:35:32.000Z</time>
      </trkpt>
      <trkpt lat="47.27157" lon="-2.31995">
        <ele>5.5999999046326</ele>
        <time>2022-06-19T09:35:33.000Z</time>
      </trkpt>
      <trkpt lat="47.2715" lon="-2.31991">
        <ele>5.5999999046326</ele>
        <time>2022-06-19T09:35:35.000Z</time>
      </trkpt>
      <trkpt lat="47.27146" lon="-2.31989">
        <ele>5.5999999046326</ele>
        <time>2022-06-19T09:35:36.000Z</time>
      </trkpt>
      <trkpt lat="47.27136" lon="-2.31984">
        <ele>5.5999999046326</ele>
        <time>2022-06-19T09:35:38.000Z</time>
      </trkpt>
      <trkpt lat="47.27124" lon="-2.31975">
        <ele>5.5999999046326</ele>
        <time>2022-06-19T09:35:40.000Z</time>
      </trkpt>
      <trkpt lat="47.27103" lon="-2.31968">
        <ele>5.5999999046326</ele>
        <time>2022-06-19T09:35:44.000Z</time>
      </trkpt>
      <trkpt lat="47.27093" lon="-2.31967">
        <ele>5.5999999046326</ele>
        <time>2022-06-19T09:35:46.000Z</time>
      </trkpt>
      <trkpt lat="47.27071" lon="-2.31964">
        <ele>5.5999999046326</ele>
        <time>2022-06-19T09:35:50.000Z</time>
      </trkpt>
      <trkpt lat="47.27066" lon="-2.31963">
        <ele>6</ele>
        <time>2022-06-19T09:35:51.000Z</time>
      </trkpt>
      <trkpt lat="47.27061" lon="-2.31962">
        <ele>6.4000000953674</ele>
        <time>2022-06-19T09:35:52.000Z</time>
      </trkpt>
      <trkpt lat="47.27055" lon="-2.31961">
        <ele>6.8000001907349</ele>
        <time>2022-06-19T09:35:53.000Z</time>
      </trkpt>
      <trkpt lat="47.2705" lon="-2.31961">
        <ele>7.1999998092651</ele>
        <time>2022-06-19T09:35:54.000Z</time>
      </trkpt>
      <trkpt lat="47.27046" lon="-2.31963">
        <ele>7.5999999046326</ele>
        <time>2022-06-19T09:35:55.000Z</time>
      </trkpt>
      <trkpt lat="47.27042" lon="-2.31965">
        <ele>7.5999999046326</ele>
        <time>2022-06-19T09:35:56.000Z</time>
      </trkpt>
      <trkpt lat="47.27038" lon="-2.31968">
        <ele>7.5999999046326</ele>
        <time>2022-06-19T09:35:57.000Z</time>
      </trkpt>
      <trkpt lat="47.27015" lon="-2.31981">
        <ele>7.5999999046326</ele>
        <time>2022-06-19T09:36:02.000Z</time>
      </trkpt>
      <trkpt lat="47.27011" lon="-2.31985">
        <ele>7.5999999046326</ele>
        <time>2022-06-19T09:36:03.000Z</time>
      </trkpt>
      <trkpt lat="47.27006" lon="-2.31988">
        <ele>7.5999999046326</ele>
        <time>2022-06-19T09:36:04.000Z</time>
      </trkpt>
      <trkpt lat="47.26992" lon="-2.31993">
        <ele>7.5999999046326</ele>
        <time>2022-06-19T09:36:07.000Z</time>
      </trkpt>
      <trkpt lat="47.26966" lon="-2.31999">
        <ele>7.5999999046326</ele>
        <time>2022-06-19T09:36:13.000Z</time>
      </trkpt>
      <trkpt lat="47.26962" lon="-2.31999">
        <ele>7.5999999046326</ele>
        <time>2022-06-19T09:36:14.000Z</time>
      </trkpt>
      <trkpt lat="47.26958" lon="-2.31997">
        <ele>8.1999998092651</ele>
        <time>2022-06-19T09:36:15.000Z</time>
      </trkpt>
      <trkpt lat="47.26955" lon="-2.31994">
        <ele>8.6000003814697</ele>
        <time>2022-06-19T09:36:16.000Z</time>
      </trkpt>
      <trkpt lat="47.26952" lon="-2.3199">
        <ele>9</ele>
        <time>2022-06-19T09:36:17.000Z</time>
      </trkpt>
      <trkpt lat="47.2695" lon="-2.31986">
        <ele>9.3999996185303</ele>
        <time>2022-06-19T09:36:18.000Z</time>
      </trkpt>
      <trkpt lat="47.26947" lon="-2.31982">
        <ele>9.8000001907349</ele>
        <time>2022-06-19T09:36:19.000Z</time>
      </trkpt>
      <trkpt lat="47.26938" lon="-2.31968">
        <ele>9.8000001907349</ele>
        <time>2022-06-19T09:36:22.000Z</time>
      </trkpt>
      <trkpt lat="47.26935" lon="-2.31964">
        <ele>9.8000001907349</ele>
        <time>2022-06-19T09:36:23.000Z</time>
      </trkpt>
      <trkpt lat="47.26919" lon="-2.31948">
        <ele>10.199999809265</ele>
        <time>2022-06-19T09:36:27.000Z</time>
      </trkpt>
      <trkpt lat="47.26915" lon="-2.31943">
        <ele>10.60000038147</ele>
        <time>2022-06-19T09:36:28.000Z</time>
      </trkpt>
      <trkpt lat="47.26912" lon="-2.31939">
        <ele>11.60000038147</ele>
        <time>2022-06-19T09:36:29.000Z</time>
      </trkpt>
      <trkpt lat="47.26909" lon="-2.31933">
        <ele>12</ele>
        <time>2022-06-19T09:36:30.000Z</time>
      </trkpt>
      <trkpt lat="47.26896" lon="-2.31913">
        <ele>12.39999961853</ele>
        <time>2022-06-19T09:36:34.000Z</time>
      </trkpt>
      <trkpt lat="47.26893" lon="-2.31908">
        <ele>12.800000190735</ele>
        <time>2022-06-19T09:36:35.000Z</time>
      </trkpt>
      <trkpt lat="47.26889" lon="-2.31905">
        <ele>13.199999809265</ele>
        <time>2022-06-19T09:36:36.000Z</time>
      </trkpt>
      <trkpt lat="47.26884" lon="-2.31902">
        <ele>13.60000038147</ele>
        <time>2022-06-19T09:36:37.000Z</time>
      </trkpt>
      <trkpt lat="47.26879" lon="-2.31899">
        <ele>14.199999809265</ele>
        <time>2022-06-19T09:36:38.000Z</time>
      </trkpt>
      <trkpt lat="47.26866" lon="-2.31897">
        <ele>14.199999809265</ele>
        <time>2022-06-19T09:36:41.000Z</time>
      </trkpt>
      <trkpt lat="47.26857" lon="-2.31894">
        <ele>14.199999809265</ele>
        <time>2022-06-19T09:36:43.000Z</time>
      </trkpt>
      <trkpt lat="47.26848" lon="-2.31888">
        <ele>14.60000038147</ele>
        <time>2022-06-19T09:36:45.000Z</time>
      </trkpt>
      <trkpt lat="47.26844" lon="-2.31882">
        <ele>15</ele>
        <time>2022-06-19T09:36:46.000Z</time>
      </trkpt>
      <trkpt lat="47.26841" lon="-2.31877">
        <ele>15.39999961853</ele>
        <time>2022-06-19T09:36:47.000Z</time>
      </trkpt>
      <trkpt lat="47.26838" lon="-2.31871">
        <ele>15.800000190735</ele>
        <time>2022-06-19T09:36:48.000Z</time>
      </trkpt>
      <trkpt lat="47.26836" lon="-2.31865">
        <ele>16.200000762939</ele>
        <time>2022-06-19T09:36:49.000Z</time>
      </trkpt>
      <trkpt lat="47.26831" lon="-2.31854">
        <ele>16.200000762939</ele>
        <time>2022-06-19T09:36:51.000Z</time>
      </trkpt>
      <trkpt lat="47.26827" lon="-2.31843">
        <ele>16.60000038147</ele>
        <time>2022-06-19T09:36:53.000Z</time>
      </trkpt>
      <trkpt lat="47.26825" lon="-2.31839">
        <ele>17</ele>
        <time>2022-06-19T09:36:54.000Z</time>
      </trkpt>
      <trkpt lat="47.26824" lon="-2.31833">
        <ele>17.39999961853</ele>
        <time>2022-06-19T09:36:55.000Z</time>
      </trkpt>
      <trkpt lat="47.26822" lon="-2.31829">
        <ele>17.799999237061</ele>
        <time>2022-06-19T09:36:56.000Z</time>
      </trkpt>
      <trkpt lat="47.26821" lon="-2.31824">
        <ele>18.200000762939</ele>
        <time>2022-06-19T09:36:57.000Z</time>
      </trkpt>
      <trkpt lat="47.26817" lon="-2.3181">
        <ele>18.200000762939</ele>
        <time>2022-06-19T09:37:01.000Z</time>
      </trkpt>
      <trkpt lat="47.26815" lon="-2.3181">
        <ele>18.200000762939</ele>
        <time>2022-06-19T09:37:02.000Z</time>
      </trkpt>
      <trkpt lat="47.26806" lon="-2.31814">
        <ele>18.200000762939</ele>
        <time>2022-06-19T09:37:05.000Z</time>
      </trkpt>
      <trkpt lat="47.26802" lon="-2.31816">
        <ele>18.200000762939</ele>
        <time>2022-06-19T09:37:06.000Z</time>
      </trkpt>
      <trkpt lat="47.26798" lon="-2.31818">
        <ele>18.200000762939</ele>
        <time>2022-06-19T09:37:07.000Z</time>
      </trkpt>
      <trkpt lat="47.26789" lon="-2.31823">
        <ele>18.200000762939</ele>
        <time>2022-06-19T09:37:09.000Z</time>
      </trkpt>
      <trkpt lat="47.26785" lon="-2.31826">
        <ele>18.60000038147</ele>
        <time>2022-06-19T09:37:10.000Z</time>
      </trkpt>
      <trkpt lat="47.2678" lon="-2.31828">
        <ele>19</ele>
        <time>2022-06-19T09:37:11.000Z</time>
      </trkpt>
      <trkpt lat="47.26776" lon="-2.31831">
        <ele>19.60000038147</ele>
        <time>2022-06-19T09:37:12.000Z</time>
      </trkpt>
      <trkpt lat="47.26772" lon="-2.31834">
        <ele>20</ele>
        <time>2022-06-19T09:37:13.000Z</time>
      </trkpt>
      <trkpt lat="47.26768" lon="-2.31837">
        <ele>20.39999961853</ele>
        <time>2022-06-19T09:37:14.000Z</time>
      </trkpt>
      <trkpt lat="47.26763" lon="-2.3184">
        <ele>20.39999961853</ele>
        <time>2022-06-19T09:37:15.000Z</time>
      </trkpt>
      <trkpt lat="47.26755" lon="-2.31847">
        <ele>20.39999961853</ele>
        <time>2022-06-19T09:37:17.000Z</time>
      </trkpt>
      <trkpt lat="47.26733" lon="-2.31857">
        <ele>20.39999961853</ele>
        <time>2022-06-19T09:37:23.000Z</time>
      </trkpt>
      <trkpt lat="47.26731" lon="-2.31854">
        <ele>20.39999961853</ele>
        <time>2022-06-19T09:37:24.000Z</time>
      </trkpt>
      <trkpt lat="47.26727" lon="-2.31842">
        <ele>20.39999961853</ele>
        <time>2022-06-19T09:37:26.000Z</time>
      </trkpt>
      <trkpt lat="47.26712" lon="-2.31793">
        <ele>20.39999961853</ele>
        <time>2022-06-19T09:37:34.000Z</time>
      </trkpt>
      <trkpt lat="47.26697" lon="-2.31739">
        <ele>20.799999237061</ele>
        <time>2022-06-19T09:37:42.000Z</time>
      </trkpt>
      <trkpt lat="47.26696" lon="-2.31732">
        <ele>21.60000038147</ele>
        <time>2022-06-19T09:37:43.000Z</time>
      </trkpt>
      <trkpt lat="47.26694" lon="-2.31725">
        <ele>22.200000762939</ele>
        <time>2022-06-19T09:37:44.000Z</time>
      </trkpt>
      <trkpt lat="47.26691" lon="-2.31718">
        <ele>22.60000038147</ele>
        <time>2022-06-19T09:37:45.000Z</time>
      </trkpt>
      <trkpt lat="47.26682" lon="-2.31688">
        <ele>22.60000038147</ele>
        <time>2022-06-19T09:37:49.000Z</time>
      </trkpt>
      <trkpt lat="47.26663" lon="-2.31632">
        <ele>22.60000038147</ele>
        <time>2022-06-19T09:37:56.000Z</time>
      </trkpt>
      <trkpt lat="47.26639" lon="-2.31571">
        <ele>22.60000038147</ele>
        <time>2022-06-19T09:38:04.000Z</time>
      </trkpt>
      <trkpt lat="47.26634" lon="-2.31559">
        <ele>22.60000038147</ele>
        <time>2022-06-19T09:38:06.000Z</time>
      </trkpt>
      <trkpt lat="47.26623" lon="-2.31558">
        <ele>22.200000762939</ele>
        <time>2022-06-19T09:38:08.000Z</time>
      </trkpt>
      <trkpt lat="47.26618" lon="-2.31561">
        <ele>21.60000038147</ele>
        <time>2022-06-19T09:38:09.000Z</time>
      </trkpt>
      <trkpt lat="47.26612" lon="-2.31565">
        <ele>21.200000762939</ele>
        <time>2022-06-19T09:38:10.000Z</time>
      </trkpt>
      <trkpt lat="47.26605" lon="-2.31569">
        <ele>20.799999237061</ele>
        <time>2022-06-19T09:38:11.000Z</time>
      </trkpt>
      <trkpt lat="47.26599" lon="-2.31573">
        <ele>20.39999961853</ele>
        <time>2022-06-19T09:38:12.000Z</time>
      </trkpt>
      <trkpt lat="47.26585" lon="-2.31585">
        <ele>19.799999237061</ele>
        <time>2022-06-19T09:38:14.000Z</time>
      </trkpt>
      <trkpt lat="47.26577" lon="-2.31591">
        <ele>19.39999961853</ele>
        <time>2022-06-19T09:38:15.000Z</time>
      </trkpt>
      <trkpt lat="47.2657" lon="-2.31598">
        <ele>19</ele>
        <time>2022-06-19T09:38:16.000Z</time>
      </trkpt>
      <trkpt lat="47.26562" lon="-2.31604">
        <ele>18.60000038147</ele>
        <time>2022-06-19T09:38:17.000Z</time>
      </trkpt>
      <trkpt lat="47.26554" lon="-2.31611">
        <ele>18</ele>
        <time>2022-06-19T09:38:18.000Z</time>
      </trkpt>
      <trkpt lat="47.26547" lon="-2.31616">
        <ele>17.39999961853</ele>
        <time>2022-06-19T09:38:19.000Z</time>
      </trkpt>
      <trkpt lat="47.26539" lon="-2.31621">
        <ele>16.799999237061</ele>
        <time>2022-06-19T09:38:20.000Z</time>
      </trkpt>
      <trkpt lat="47.26531" lon="-2.31627">
        <ele>16.200000762939</ele>
        <time>2022-06-19T09:38:21.000Z</time>
      </trkpt>
      <trkpt lat="47.26522" lon="-2.31633">
        <ele>15.800000190735</ele>
        <time>2022-06-19T09:38:22.000Z</time>
      </trkpt>
      <trkpt lat="47.26512" lon="-2.31638">
        <ele>15.199999809265</ele>
        <time>2022-06-19T09:38:23.000Z</time>
      </trkpt>
      <trkpt lat="47.26503" lon="-2.31641">
        <ele>14.60000038147</ele>
        <time>2022-06-19T09:38:24.000Z</time>
      </trkpt>
      <trkpt lat="47.26493" lon="-2.31645">
        <ele>14.199999809265</ele>
        <time>2022-06-19T09:38:25.000Z</time>
      </trkpt>
      <trkpt lat="47.26483" lon="-2.31648">
        <ele>13.60000038147</ele>
        <time>2022-06-19T09:38:26.000Z</time>
      </trkpt>
      <trkpt lat="47.26473" lon="-2.3165">
        <ele>13.199999809265</ele>
        <time>2022-06-19T09:38:27.000Z</time>
      </trkpt>
      <trkpt lat="47.26463" lon="-2.31652">
        <ele>12.60000038147</ele>
        <time>2022-06-19T09:38:28.000Z</time>
      </trkpt>
      <trkpt lat="47.26453" lon="-2.31654">
        <ele>12.199999809265</ele>
        <time>2022-06-19T09:38:29.000Z</time>
      </trkpt>
      <trkpt lat="47.26443" lon="-2.31655">
        <ele>11.60000038147</ele>
        <time>2022-06-19T09:38:30.000Z</time>
      </trkpt>
      <trkpt lat="47.26434" lon="-2.31656">
        <ele>11</ele>
        <time>2022-06-19T09:38:31.000Z</time>
      </trkpt>
      <trkpt lat="47.26425" lon="-2.31656">
        <ele>10</ele>
        <time>2022-06-19T09:38:32.000Z</time>
      </trkpt>
      <trkpt lat="47.26416" lon="-2.31657">
        <ele>9.3999996185303</ele>
        <time>2022-06-19T09:38:33.000Z</time>
      </trkpt>
      <trkpt lat="47.26407" lon="-2.3166">
        <ele>9.3999996185303</ele>
        <time>2022-06-19T09:38:34.000Z</time>
      </trkpt>
      <trkpt lat="47.26392" lon="-2.31669">
        <ele>9</ele>
        <time>2022-06-19T09:38:36.000Z</time>
      </trkpt>
      <trkpt lat="47.26383" lon="-2.31674">
        <ele>8.6000003814697</ele>
        <time>2022-06-19T09:38:37.000Z</time>
      </trkpt>
      <trkpt lat="47.26376" lon="-2.31678">
        <ele>8.1999998092651</ele>
        <time>2022-06-19T09:38:38.000Z</time>
      </trkpt>
      <trkpt lat="47.26368" lon="-2.31683">
        <ele>7.8000001907349</ele>
        <time>2022-06-19T09:38:39.000Z</time>
      </trkpt>
      <trkpt lat="47.2636" lon="-2.31688">
        <ele>7.4000000953674</ele>
        <time>2022-06-19T09:38:40.000Z</time>
      </trkpt>
      <trkpt lat="47.26345" lon="-2.31697">
        <ele>7.4000000953674</ele>
        <time>2022-06-19T09:38:42.000Z</time>
      </trkpt>
      <trkpt lat="47.26309" lon="-2.31714">
        <ele>6.8000001907349</ele>
        <time>2022-06-19T09:38:47.000Z</time>
      </trkpt>
      <trkpt lat="47.26303" lon="-2.31716">
        <ele>6.4000000953674</ele>
        <time>2022-06-19T09:38:48.000Z</time>
      </trkpt>
      <trkpt lat="47.26296" lon="-2.31715">
        <ele>5.8000001907349</ele>
        <time>2022-06-19T09:38:49.000Z</time>
      </trkpt>
      <trkpt lat="47.26292" lon="-2.31712">
        <ele>5.4000000953674</ele>
        <time>2022-06-19T09:38:50.000Z</time>
      </trkpt>
      <trkpt lat="47.26287" lon="-2.31706">
        <ele>4.8000001907349</ele>
        <time>2022-06-19T09:38:51.000Z</time>
      </trkpt>
      <trkpt lat="47.26281" lon="-2.31695">
        <ele>4.8000001907349</ele>
        <time>2022-06-19T09:38:53.000Z</time>
      </trkpt>
      <trkpt lat="47.26271" lon="-2.31672">
        <ele>4.8000001907349</ele>
        <time>2022-06-19T09:38:56.000Z</time>
      </trkpt>
      <trkpt lat="47.26263" lon="-2.31657">
        <ele>4.8000001907349</ele>
        <time>2022-06-19T09:38:58.000Z</time>
      </trkpt>
      <trkpt lat="47.26244" lon="-2.3162">
        <ele>4.8000001907349</ele>
        <time>2022-06-19T09:39:03.000Z</time>
      </trkpt>
      <trkpt lat="47.26239" lon="-2.31614">
        <ele>4.8000001907349</ele>
        <time>2022-06-19T09:39:04.000Z</time>
      </trkpt>
      <trkpt lat="47.26222" lon="-2.31599">
        <ele>4.8000001907349</ele>
        <time>2022-06-19T09:39:07.000Z</time>
      </trkpt>
      <trkpt lat="47.26216" lon="-2.31596">
        <ele>4.8000001907349</ele>
        <time>2022-06-19T09:39:08.000Z</time>
      </trkpt>
      <trkpt lat="47.26192" lon="-2.31596">
        <ele>4.8000001907349</ele>
        <time>2022-06-19T09:39:12.000Z</time>
      </trkpt>
      <trkpt lat="47.2618" lon="-2.316">
        <ele>4.8000001907349</ele>
        <time>2022-06-19T09:39:14.000Z</time>
      </trkpt>
      <trkpt lat="47.26148" lon="-2.31611">
        <ele>4.4000000953674</ele>
        <time>2022-06-19T09:39:19.000Z</time>
      </trkpt>
      <trkpt lat="47.26143" lon="-2.31613">
        <ele>4</ele>
        <time>2022-06-19T09:39:20.000Z</time>
      </trkpt>
      <trkpt lat="47.26137" lon="-2.31614">
        <ele>3.5999999046326</ele>
        <time>2022-06-19T09:39:21.000Z</time>
      </trkpt>
      <trkpt lat="47.26131" lon="-2.31615">
        <ele>2.7999999523163</ele>
        <time>2022-06-19T09:39:22.000Z</time>
      </trkpt>
      <trkpt lat="47.26119" lon="-2.31616">
        <ele>2.7999999523163</ele>
        <time>2022-06-19T09:39:24.000Z</time>
      </trkpt>
      <trkpt lat="47.26108" lon="-2.31615">
        <ele>2.7999999523163</ele>
        <time>2022-06-19T09:39:26.000Z</time>
      </trkpt>
      <trkpt lat="47.26099" lon="-2.31607">
        <ele>2.7999999523163</ele>
        <time>2022-06-19T09:39:28.000Z</time>
      </trkpt>
      <trkpt lat="47.26091" lon="-2.3159">
        <ele>2.7999999523163</ele>
        <time>2022-06-19T09:39:31.000Z</time>
      </trkpt>
      <trkpt lat="47.26088" lon="-2.31586">
        <ele>2.7999999523163</ele>
        <time>2022-06-19T09:39:32.000Z</time>
      </trkpt>
      <trkpt lat="47.26083" lon="-2.31584">
        <ele>2.7999999523163</ele>
        <time>2022-06-19T09:39:34.000Z</time>
      </trkpt>
      <trkpt lat="47.26081" lon="-2.31582">
        <ele>2.7999999523163</ele>
        <time>2022-06-19T09:39:35.000Z</time>
      </trkpt>
      <trkpt lat="47.26073" lon="-2.31572">
        <ele>2.7999999523163</ele>
        <time>2022-06-19T09:39:38.000Z</time>
      </trkpt>
      <trkpt lat="47.26068" lon="-2.31561">
        <ele>2.7999999523163</ele>
        <time>2022-06-19T09:39:40.000Z</time>
      </trkpt>
      <trkpt lat="47.2606" lon="-2.31542">
        <ele>2.7999999523163</ele>
        <time>2022-06-19T09:39:43.000Z</time>
      </trkpt>
      <trkpt lat="47.26053" lon="-2.31529">
        <ele>2.7999999523163</ele>
        <time>2022-06-19T09:39:45.000Z</time>
      </trkpt>
      <trkpt lat="47.26044" lon="-2.31517">
        <ele>3.2000000476837</ele>
        <time>2022-06-19T09:39:47.000Z</time>
      </trkpt>
      <trkpt lat="47.2604" lon="-2.31514">
        <ele>3.7999999523163</ele>
        <time>2022-06-19T09:39:48.000Z</time>
      </trkpt>
      <trkpt lat="47.26035" lon="-2.31513">
        <ele>4.1999998092651</ele>
        <time>2022-06-19T09:39:49.000Z</time>
      </trkpt>
      <trkpt lat="47.26031" lon="-2.31518">
        <ele>4.5999999046326</ele>
        <time>2022-06-19T09:39:50.000Z</time>
      </trkpt>
      <trkpt lat="47.26029" lon="-2.31524">
        <ele>5</ele>
        <time>2022-06-19T09:39:51.000Z</time>
      </trkpt>
      <trkpt lat="47.26026" lon="-2.3154">
        <ele>5</ele>
        <time>2022-06-19T09:39:53.000Z</time>
      </trkpt>
      <trkpt lat="47.26024" lon="-2.31547">
        <ele>5</ele>
        <time>2022-06-19T09:39:54.000Z</time>
      </trkpt>
      <trkpt lat="47.26021" lon="-2.31554">
        <ele>5</ele>
        <time>2022-06-19T09:39:55.000Z</time>
      </trkpt>
      <trkpt lat="47.26005" lon="-2.3156">
        <ele>5</ele>
        <time>2022-06-19T09:39:59.000Z</time>
      </trkpt>
      <trkpt lat="47.25998" lon="-2.31549">
        <ele>5</ele>
        <time>2022-06-19T09:40:01.000Z</time>
      </trkpt>
      <trkpt lat="47.25994" lon="-2.31544">
        <ele>5</ele>
        <time>2022-06-19T09:40:02.000Z</time>
      </trkpt>
      <trkpt lat="47.25987" lon="-2.31533">
        <ele>5</ele>
        <time>2022-06-19T09:40:04.000Z</time>
      </trkpt>
      <trkpt lat="47.25974" lon="-2.31505">
        <ele>5</ele>
        <time>2022-06-19T09:40:08.000Z</time>
      </trkpt>
      <trkpt lat="47.25965" lon="-2.31483">
        <ele>5</ele>
        <time>2022-06-19T09:40:11.000Z</time>
      </trkpt>
      <trkpt lat="47.25957" lon="-2.31474">
        <ele>5</ele>
        <time>2022-06-19T09:40:13.000Z</time>
      </trkpt>
      <trkpt lat="47.25951" lon="-2.31464">
        <ele>5</ele>
        <time>2022-06-19T09:40:15.000Z</time>
      </trkpt>
      <trkpt lat="47.25947" lon="-2.31451">
        <ele>5</ele>
        <time>2022-06-19T09:40:17.000Z</time>
      </trkpt>
      <trkpt lat="47.25946" lon="-2.31439">
        <ele>5</ele>
        <time>2022-06-19T09:40:19.000Z</time>
      </trkpt>
      <trkpt lat="47.25951" lon="-2.31421">
        <ele>5</ele>
        <time>2022-06-19T09:40:22.000Z</time>
      </trkpt>
      <trkpt lat="47.25965" lon="-2.3142">
        <ele>5</ele>
        <time>2022-06-19T09:40:25.000Z</time>
      </trkpt>
      <trkpt lat="47.25981" lon="-2.3142">
        <ele>5</ele>
        <time>2022-06-19T09:40:28.000Z</time>
      </trkpt>
      <trkpt lat="47.25988" lon="-2.31408">
        <ele>5</ele>
        <time>2022-06-19T09:40:31.000Z</time>
      </trkpt>
      <trkpt lat="47.25992" lon="-2.31399">
        <ele>5.4000000953674</ele>
        <time>2022-06-19T09:40:33.000Z</time>
      </trkpt>
      <trkpt lat="47.25994" lon="-2.31393">
        <ele>5.8000001907349</ele>
        <time>2022-06-19T09:40:34.000Z</time>
      </trkpt>
      <trkpt lat="47.25995" lon="-2.31389">
        <ele>6.1999998092651</ele>
        <time>2022-06-19T09:40:35.000Z</time>
      </trkpt>
      <trkpt lat="47.25997" lon="-2.31386">
        <ele>6.5999999046326</ele>
        <time>2022-06-19T09:40:36.000Z</time>
      </trkpt>
      <trkpt lat="47.25999" lon="-2.31386">
        <ele>7</ele>
        <time>2022-06-19T09:40:37.000Z</time>
      </trkpt>
      <trkpt lat="47.26008" lon="-2.31373">
        <ele>7</ele>
        <time>2022-06-19T09:40:41.000Z</time>
      </trkpt>
      <trkpt lat="47.26009" lon="-2.31361">
        <ele>7</ele>
        <time>2022-06-19T09:40:43.000Z</time>
      </trkpt>
      <trkpt lat="47.26011" lon="-2.31349">
        <ele>7.4000000953674</ele>
        <time>2022-06-19T09:40:45.000Z</time>
      </trkpt>
      <trkpt lat="47.26013" lon="-2.31343">
        <ele>8</ele>
        <time>2022-06-19T09:40:46.000Z</time>
      </trkpt>
      <trkpt lat="47.26015" lon="-2.31338">
        <ele>8.3999996185303</ele>
        <time>2022-06-19T09:40:47.000Z</time>
      </trkpt>
      <trkpt lat="47.26016" lon="-2.31332">
        <ele>8.8000001907349</ele>
        <time>2022-06-19T09:40:48.000Z</time>
      </trkpt>
      <trkpt lat="47.26017" lon="-2.31326">
        <ele>9.1999998092651</ele>
        <time>2022-06-19T09:40:49.000Z</time>
      </trkpt>
      <trkpt lat="47.26018" lon="-2.3132">
        <ele>9.1999998092651</ele>
        <time>2022-06-19T09:40:50.000Z</time>
      </trkpt>
      <trkpt lat="47.26024" lon="-2.31297">
        <ele>9.6000003814697</ele>
        <time>2022-06-19T09:40:54.000Z</time>
      </trkpt>
      <trkpt lat="47.26026" lon="-2.31291">
        <ele>10</ele>
        <time>2022-06-19T09:40:55.000Z</time>
      </trkpt>
      <trkpt lat="47.26027" lon="-2.31285">
        <ele>10.39999961853</ele>
        <time>2022-06-19T09:40:56.000Z</time>
      </trkpt>
      <trkpt lat="47.26028" lon="-2.3128">
        <ele>10.800000190735</ele>
        <time>2022-06-19T09:40:57.000Z</time>
      </trkpt>
      <trkpt lat="47.2603" lon="-2.31275">
        <ele>11.199999809265</ele>
        <time>2022-06-19T09:40:58.000Z</time>
      </trkpt>
      <trkpt lat="47.26027" lon="-2.31262">
        <ele>11.199999809265</ele>
        <time>2022-06-19T09:41:01.000Z</time>
      </trkpt>
      <trkpt lat="47.26015" lon="-2.31257">
        <ele>11.199999809265</ele>
        <time>2022-06-19T09:41:04.000Z</time>
      </trkpt>
      <trkpt lat="47.26011" lon="-2.31257">
        <ele>11.199999809265</ele>
        <time>2022-06-19T09:41:05.000Z</time>
      </trkpt>
      <trkpt lat="47.25977" lon="-2.31251">
        <ele>11.199999809265</ele>
        <time>2022-06-19T09:41:12.000Z</time>
      </trkpt>
      <trkpt lat="47.25941" lon="-2.31239">
        <ele>11.199999809265</ele>
        <time>2022-06-19T09:41:19.000Z</time>
      </trkpt>
      <trkpt lat="47.25936" lon="-2.31234">
        <ele>11.199999809265</ele>
        <time>2022-06-19T09:41:20.000Z</time>
      </trkpt>
      <trkpt lat="47.25923" lon="-2.31218">
        <ele>11.199999809265</ele>
        <time>2022-06-19T09:41:23.000Z</time>
      </trkpt>
      <trkpt lat="47.25911" lon="-2.3119">
        <ele>11.199999809265</ele>
        <time>2022-06-19T09:41:27.000Z</time>
      </trkpt>
      <trkpt lat="47.25902" lon="-2.31163">
        <ele>11.800000190735</ele>
        <time>2022-06-19T09:41:31.000Z</time>
      </trkpt>
      <trkpt lat="47.259" lon="-2.31157">
        <ele>12.199999809265</ele>
        <time>2022-06-19T09:41:32.000Z</time>
      </trkpt>
      <trkpt lat="47.25896" lon="-2.31152">
        <ele>12.60000038147</ele>
        <time>2022-06-19T09:41:33.000Z</time>
      </trkpt>
      <trkpt lat="47.25892" lon="-2.31147">
        <ele>13</ele>
        <time>2022-06-19T09:41:34.000Z</time>
      </trkpt>
      <trkpt lat="47.25889" lon="-2.31143">
        <ele>13.39999961853</ele>
        <time>2022-06-19T09:41:35.000Z</time>
      </trkpt>
      <trkpt lat="47.25879" lon="-2.31135">
        <ele>13.39999961853</ele>
        <time>2022-06-19T09:41:37.000Z</time>
      </trkpt>
      <trkpt lat="47.25868" lon="-2.31126">
        <ele>13.39999961853</ele>
        <time>2022-06-19T09:41:39.000Z</time>
      </trkpt>
      <trkpt lat="47.2585" lon="-2.31108">
        <ele>13.39999961853</ele>
        <time>2022-06-19T09:41:43.000Z</time>
      </trkpt>
      <trkpt lat="47.25836" lon="-2.31088">
        <ele>13.39999961853</ele>
        <time>2022-06-19T09:41:47.000Z</time>
      </trkpt>
      <trkpt lat="47.25831" lon="-2.31088">
        <ele>13.39999961853</ele>
        <time>2022-06-19T09:41:48.000Z</time>
      </trkpt>
      <trkpt lat="47.2582" lon="-2.311">
        <ele>13.39999961853</ele>
        <time>2022-06-19T09:41:51.000Z</time>
      </trkpt>
      <trkpt lat="47.258" lon="-2.31123">
        <ele>13.39999961853</ele>
        <time>2022-06-19T09:41:56.000Z</time>
      </trkpt>
      <trkpt lat="47.25795" lon="-2.31127">
        <ele>13.39999961853</ele>
        <time>2022-06-19T09:41:57.000Z</time>
      </trkpt>
      <trkpt lat="47.25787" lon="-2.31126">
        <ele>13.39999961853</ele>
        <time>2022-06-19T09:41:59.000Z</time>
      </trkpt>
      <trkpt lat="47.25777" lon="-2.31107">
        <ele>13.39999961853</ele>
        <time>2022-06-19T09:42:02.000Z</time>
      </trkpt>
      <trkpt lat="47.25774" lon="-2.311">
        <ele>13.39999961853</ele>
        <time>2022-06-19T09:42:03.000Z</time>
      </trkpt>
      <trkpt lat="47.25766" lon="-2.3108">
        <ele>13.800000190735</ele>
        <time>2022-06-19T09:42:06.000Z</time>
      </trkpt>
      <trkpt lat="47.25763" lon="-2.31073">
        <ele>14.199999809265</ele>
        <time>2022-06-19T09:42:07.000Z</time>
      </trkpt>
      <trkpt lat="47.25761" lon="-2.31067">
        <ele>14.60000038147</ele>
        <time>2022-06-19T09:42:08.000Z</time>
      </trkpt>
      <trkpt lat="47.25759" lon="-2.3106">
        <ele>15</ele>
        <time>2022-06-19T09:42:09.000Z</time>
      </trkpt>
      <trkpt lat="47.25759" lon="-2.31053">
        <ele>15.39999961853</ele>
        <time>2022-06-19T09:42:10.000Z</time>
      </trkpt>
      <trkpt lat="47.25763" lon="-2.3103">
        <ele>15.39999961853</ele>
        <time>2022-06-19T09:42:14.000Z</time>
      </trkpt>
      <trkpt lat="47.25765" lon="-2.31017">
        <ele>16.39999961853</ele>
        <time>2022-06-19T09:42:16.000Z</time>
      </trkpt>
      <trkpt lat="47.25766" lon="-2.31011">
        <ele>16.799999237061</ele>
        <time>2022-06-19T09:42:17.000Z</time>
      </trkpt>
      <trkpt lat="47.25768" lon="-2.31004">
        <ele>17.200000762939</ele>
        <time>2022-06-19T09:42:18.000Z</time>
      </trkpt>
      <trkpt lat="47.2577" lon="-2.30997">
        <ele>17.799999237061</ele>
        <time>2022-06-19T09:42:19.000Z</time>
      </trkpt>
      <trkpt lat="47.25771" lon="-2.30991">
        <ele>17.799999237061</ele>
        <time>2022-06-19T09:42:20.000Z</time>
      </trkpt>
      <trkpt lat="47.25779" lon="-2.3096">
        <ele>18.200000762939</ele>
        <time>2022-06-19T09:42:25.000Z</time>
      </trkpt>
      <trkpt lat="47.2578" lon="-2.30955">
        <ele>18.60000038147</ele>
        <time>2022-06-19T09:42:26.000Z</time>
      </trkpt>
      <trkpt lat="47.25782" lon="-2.30948">
        <ele>19</ele>
        <time>2022-06-19T09:42:27.000Z</time>
      </trkpt>
      <trkpt lat="47.25783" lon="-2.30944">
        <ele>19.39999961853</ele>
        <time>2022-06-19T09:42:28.000Z</time>
      </trkpt>
      <trkpt lat="47.25782" lon="-2.30939">
        <ele>19.799999237061</ele>
        <time>2022-06-19T09:42:29.000Z</time>
      </trkpt>
      <trkpt lat="47.25779" lon="-2.30937">
        <ele>19.799999237061</ele>
        <time>2022-06-19T09:42:30.000Z</time>
      </trkpt>
      <trkpt lat="47.25767" lon="-2.30931">
        <ele>19.799999237061</ele>
        <time>2022-06-19T09:42:33.000Z</time>
      </trkpt>
      <trkpt lat="47.2575" lon="-2.30926">
        <ele>19.799999237061</ele>
        <time>2022-06-19T09:42:37.000Z</time>
      </trkpt>
      <trkpt lat="47.25735" lon="-2.30922">
        <ele>19.799999237061</ele>
        <time>2022-06-19T09:42:40.000Z</time>
      </trkpt>
      <trkpt lat="47.25721" lon="-2.30917">
        <ele>19.799999237061</ele>
        <time>2022-06-19T09:42:43.000Z</time>
      </trkpt>
      <trkpt lat="47.25687" lon="-2.30906">
        <ele>19.799999237061</ele>
        <time>2022-06-19T09:42:50.000Z</time>
      </trkpt>
      <trkpt lat="47.25676" lon="-2.30904">
        <ele>19.799999237061</ele>
        <time>2022-06-19T09:42:52.000Z</time>
      </trkpt>
      <trkpt lat="47.25665" lon="-2.30907">
        <ele>19.799999237061</ele>
        <time>2022-06-19T09:42:54.000Z</time>
      </trkpt>
      <trkpt lat="47.2565" lon="-2.30897">
        <ele>19.799999237061</ele>
        <time>2022-06-19T09:42:57.000Z</time>
      </trkpt>
      <trkpt lat="47.2564" lon="-2.30887">
        <ele>19.799999237061</ele>
        <time>2022-06-19T09:43:00.000Z</time>
      </trkpt>
      <trkpt lat="47.25637" lon="-2.30885">
        <ele>19.799999237061</ele>
        <time>2022-06-19T09:43:01.000Z</time>
      </trkpt>
      <trkpt lat="47.25624" lon="-2.30889">
        <ele>19.799999237061</ele>
        <time>2022-06-19T09:43:06.000Z</time>
      </trkpt>
      <trkpt lat="47.25619" lon="-2.30911">
        <ele>19.799999237061</ele>
        <time>2022-06-19T09:43:10.000Z</time>
      </trkpt>
      <trkpt lat="47.2561" lon="-2.30952">
        <ele>19.799999237061</ele>
        <time>2022-06-19T09:43:16.000Z</time>
      </trkpt>
      <trkpt lat="47.25604" lon="-2.30974">
        <ele>19.799999237061</ele>
        <time>2022-06-19T09:43:19.000Z</time>
      </trkpt>
      <trkpt lat="47.25593" lon="-2.30992">
        <ele>19.799999237061</ele>
        <time>2022-06-19T09:43:22.000Z</time>
      </trkpt>
      <trkpt lat="47.25586" lon="-2.31005">
        <ele>19.39999961853</ele>
        <time>2022-06-19T09:43:24.000Z</time>
      </trkpt>
      <trkpt lat="47.25582" lon="-2.31011">
        <ele>19</ele>
        <time>2022-06-19T09:43:25.000Z</time>
      </trkpt>
      <trkpt lat="47.25579" lon="-2.31018">
        <ele>18.39999961853</ele>
        <time>2022-06-19T09:43:26.000Z</time>
      </trkpt>
      <trkpt lat="47.25576" lon="-2.31024">
        <ele>18</ele>
        <time>2022-06-19T09:43:27.000Z</time>
      </trkpt>
      <trkpt lat="47.25574" lon="-2.31029">
        <ele>17.60000038147</ele>
        <time>2022-06-19T09:43:28.000Z</time>
      </trkpt>
      <trkpt lat="47.25561" lon="-2.31041">
        <ele>17.60000038147</ele>
        <time>2022-06-19T09:43:32.000Z</time>
      </trkpt>
      <trkpt lat="47.25541" lon="-2.31036">
        <ele>17.60000038147</ele>
        <time>2022-06-19T09:43:36.000Z</time>
      </trkpt>
      <trkpt lat="47.25522" lon="-2.31031">
        <ele>17.60000038147</ele>
        <time>2022-06-19T09:43:40.000Z</time>
      </trkpt>
      <trkpt lat="47.25517" lon="-2.31027">
        <ele>17.60000038147</ele>
        <time>2022-06-19T09:43:41.000Z</time>
      </trkpt>
      <trkpt lat="47.25512" lon="-2.31007">
        <ele>17.60000038147</ele>
        <time>2022-06-19T09:43:45.000Z</time>
      </trkpt>
      <trkpt lat="47.25515" lon="-2.30982">
        <ele>17.60000038147</ele>
        <time>2022-06-19T09:43:49.000Z</time>
      </trkpt>
      <trkpt lat="47.25516" lon="-2.30975">
        <ele>17.60000038147</ele>
        <time>2022-06-19T09:43:50.000Z</time>
      </trkpt>
      <trkpt lat="47.2552" lon="-2.30954">
        <ele>18</ele>
        <time>2022-06-19T09:43:53.000Z</time>
      </trkpt>
      <trkpt lat="47.25522" lon="-2.30946">
        <ele>19</ele>
        <time>2022-06-19T09:43:54.000Z</time>
      </trkpt>
      <trkpt lat="47.25523" lon="-2.30938">
        <ele>19.39999961853</ele>
        <time>2022-06-19T09:43:55.000Z</time>
      </trkpt>
      <trkpt lat="47.25526" lon="-2.30932">
        <ele>19.799999237061</ele>
        <time>2022-06-19T09:43:56.000Z</time>
      </trkpt>
      <trkpt lat="47.25528" lon="-2.30911">
        <ele>19.799999237061</ele>
        <time>2022-06-19T09:43:59.000Z</time>
      </trkpt>
      <trkpt lat="47.25522" lon="-2.30891">
        <ele>19.799999237061</ele>
        <time>2022-06-19T09:44:02.000Z</time>
      </trkpt>
      <trkpt lat="47.25523" lon="-2.30869">
        <ele>19.799999237061</ele>
        <time>2022-06-19T09:44:05.000Z</time>
      </trkpt>
      <trkpt lat="47.25524" lon="-2.30861">
        <ele>19.799999237061</ele>
        <time>2022-06-19T09:44:06.000Z</time>
      </trkpt>
      <trkpt lat="47.25534" lon="-2.30815">
        <ele>19.799999237061</ele>
        <time>2022-06-19T09:44:13.000Z</time>
      </trkpt>
      <trkpt lat="47.25534" lon="-2.30799">
        <ele>19.799999237061</ele>
        <time>2022-06-19T09:44:16.000Z</time>
      </trkpt>
      <trkpt lat="47.25532" lon="-2.30797">
        <ele>19.799999237061</ele>
        <time>2022-06-19T09:44:17.000Z</time>
      </trkpt>
      <trkpt lat="47.25522" lon="-2.30789">
        <ele>19.799999237061</ele>
        <time>2022-06-19T09:44:20.000Z</time>
      </trkpt>
      <trkpt lat="47.25522" lon="-2.30767">
        <ele>19.799999237061</ele>
        <time>2022-06-19T09:44:24.000Z</time>
      </trkpt>
      <trkpt lat="47.25524" lon="-2.30761">
        <ele>19.799999237061</ele>
        <time>2022-06-19T09:44:25.000Z</time>
      </trkpt>
      <trkpt lat="47.25531" lon="-2.30751">
        <ele>19.799999237061</ele>
        <time>2022-06-19T09:44:27.000Z</time>
      </trkpt>
      <trkpt lat="47.25536" lon="-2.30738">
        <ele>19.799999237061</ele>
        <time>2022-06-19T09:44:29.000Z</time>
      </trkpt>
      <trkpt lat="47.25536" lon="-2.3073">
        <ele>19.799999237061</ele>
        <time>2022-06-19T09:44:30.000Z</time>
      </trkpt>
      <trkpt lat="47.25535" lon="-2.30698">
        <ele>19.799999237061</ele>
        <time>2022-06-19T09:44:34.000Z</time>
      </trkpt>
      <trkpt lat="47.25532" lon="-2.30649">
        <ele>19.799999237061</ele>
        <time>2022-06-19T09:44:40.000Z</time>
      </trkpt>
      <trkpt lat="47.25529" lon="-2.306">
        <ele>19.799999237061</ele>
        <time>2022-06-19T09:44:46.000Z</time>
      </trkpt>
      <trkpt lat="47.25529" lon="-2.30591">
        <ele>19.799999237061</ele>
        <time>2022-06-19T09:44:47.000Z</time>
      </trkpt>
      <trkpt lat="47.25528" lon="-2.30576">
        <ele>19.799999237061</ele>
        <time>2022-06-19T09:44:49.000Z</time>
      </trkpt>
      <trkpt lat="47.25527" lon="-2.3057">
        <ele>20.200000762939</ele>
        <time>2022-06-19T09:44:50.000Z</time>
      </trkpt>
      <trkpt lat="47.25527" lon="-2.30564">
        <ele>20.60000038147</ele>
        <time>2022-06-19T09:44:51.000Z</time>
      </trkpt>
      <trkpt lat="47.25527" lon="-2.30557">
        <ele>21</ele>
        <time>2022-06-19T09:44:52.000Z</time>
      </trkpt>
      <trkpt lat="47.25527" lon="-2.3055">
        <ele>21.39999961853</ele>
        <time>2022-06-19T09:44:53.000Z</time>
      </trkpt>
      <trkpt lat="47.25527" lon="-2.30543">
        <ele>21.799999237061</ele>
        <time>2022-06-19T09:44:54.000Z</time>
      </trkpt>
      <trkpt lat="47.25526" lon="-2.3052">
        <ele>21.799999237061</ele>
        <time>2022-06-19T09:44:57.000Z</time>
      </trkpt>
      <trkpt lat="47.25523" lon="-2.30467">
        <ele>21.799999237061</ele>
        <time>2022-06-19T09:45:04.000Z</time>
      </trkpt>
      <trkpt lat="47.25521" lon="-2.30422">
        <ele>21.799999237061</ele>
        <time>2022-06-19T09:45:10.000Z</time>
      </trkpt>
      <trkpt lat="47.2552" lon="-2.30401">
        <ele>21.799999237061</ele>
        <time>2022-06-19T09:45:14.000Z</time>
      </trkpt>
      <trkpt lat="47.25522" lon="-2.30398">
        <ele>21.799999237061</ele>
        <time>2022-06-19T09:45:15.000Z</time>
      </trkpt>
      <trkpt lat="47.25528" lon="-2.30393">
        <ele>21.799999237061</ele>
        <time>2022-06-19T09:45:17.000Z</time>
      </trkpt>
      <trkpt lat="47.25547" lon="-2.30379">
        <ele>21.799999237061</ele>
        <time>2022-06-19T09:45:22.000Z</time>
      </trkpt>
      <trkpt lat="47.25562" lon="-2.30375">
        <ele>21.799999237061</ele>
        <time>2022-06-19T09:45:25.000Z</time>
      </trkpt>
      <trkpt lat="47.25567" lon="-2.30374">
        <ele>21.799999237061</ele>
        <time>2022-06-19T09:45:26.000Z</time>
      </trkpt>
      <trkpt lat="47.25609" lon="-2.30362">
        <ele>21.799999237061</ele>
        <time>2022-06-19T09:45:34.000Z</time>
      </trkpt>
      <trkpt lat="47.25629" lon="-2.30349">
        <ele>21.799999237061</ele>
        <time>2022-06-19T09:45:38.000Z</time>
      </trkpt>
      <trkpt lat="47.25631" lon="-2.30341">
        <ele>21.799999237061</ele>
        <time>2022-06-19T09:45:39.000Z</time>
      </trkpt>
      <trkpt lat="47.25631" lon="-2.30315">
        <ele>21.799999237061</ele>
        <time>2022-06-19T09:45:42.000Z</time>
      </trkpt>
      <trkpt lat="47.25627" lon="-2.30284">
        <ele>21.799999237061</ele>
        <time>2022-06-19T09:45:46.000Z</time>
      </trkpt>
      <trkpt lat="47.25626" lon="-2.30276">
        <ele>21.799999237061</ele>
        <time>2022-06-19T09:45:47.000Z</time>
      </trkpt>
      <trkpt lat="47.25617" lon="-2.30218">
        <ele>21.799999237061</ele>
        <time>2022-06-19T09:45:54.000Z</time>
      </trkpt>
      <trkpt lat="47.256" lon="-2.30198">
        <ele>21.799999237061</ele>
        <time>2022-06-19T09:45:58.000Z</time>
      </trkpt>
      <trkpt lat="47.25596" lon="-2.30194">
        <ele>21.799999237061</ele>
        <time>2022-06-19T09:45:59.000Z</time>
      </trkpt>
      <trkpt lat="47.2559" lon="-2.30192">
        <ele>21.799999237061</ele>
        <time>2022-06-19T09:46:00.000Z</time>
      </trkpt>
      <trkpt lat="47.25576" lon="-2.30185">
        <ele>21.799999237061</ele>
        <time>2022-06-19T09:46:03.000Z</time>
      </trkpt>
      <trkpt lat="47.2557" lon="-2.30183">
        <ele>21.799999237061</ele>
        <time>2022-06-19T09:46:04.000Z</time>
      </trkpt>
      <trkpt lat="47.25555" lon="-2.30186">
        <ele>21.799999237061</ele>
        <time>2022-06-19T09:46:07.000Z</time>
      </trkpt>
      <trkpt lat="47.25551" lon="-2.30189">
        <ele>21.799999237061</ele>
        <time>2022-06-19T09:46:08.000Z</time>
      </trkpt>
      <trkpt lat="47.25526" lon="-2.30199">
        <ele>21.799999237061</ele>
        <time>2022-06-19T09:46:13.000Z</time>
      </trkpt>
      <trkpt lat="47.25508" lon="-2.30198">
        <ele>21.799999237061</ele>
        <time>2022-06-19T09:46:17.000Z</time>
      </trkpt>
      <trkpt lat="47.25499" lon="-2.30211">
        <ele>21.799999237061</ele>
        <time>2022-06-19T09:46:20.000Z</time>
      </trkpt>
      <trkpt lat="47.2549" lon="-2.30225">
        <ele>21.799999237061</ele>
        <time>2022-06-19T09:46:23.000Z</time>
      </trkpt>
      <trkpt lat="47.25486" lon="-2.30238">
        <ele>21.799999237061</ele>
        <time>2022-06-19T09:46:25.000Z</time>
      </trkpt>
      <trkpt lat="47.25484" lon="-2.30243">
        <ele>22.200000762939</ele>
        <time>2022-06-19T09:46:26.000Z</time>
      </trkpt>
      <trkpt lat="47.25481" lon="-2.30246">
        <ele>22.60000038147</ele>
        <time>2022-06-19T09:46:27.000Z</time>
      </trkpt>
      <trkpt lat="47.25478" lon="-2.30246">
        <ele>23</ele>
        <time>2022-06-19T09:46:28.000Z</time>
      </trkpt>
      <trkpt lat="47.25474" lon="-2.30245">
        <ele>23.39999961853</ele>
        <time>2022-06-19T09:46:29.000Z</time>
      </trkpt>
      <trkpt lat="47.25471" lon="-2.30244">
        <ele>23.799999237061</ele>
        <time>2022-06-19T09:46:30.000Z</time>
      </trkpt>
      <trkpt lat="47.25463" lon="-2.30243">
        <ele>23.799999237061</ele>
        <time>2022-06-19T09:46:32.000Z</time>
      </trkpt>
      <trkpt lat="47.25455" lon="-2.30241">
        <ele>23.799999237061</ele>
        <time>2022-06-19T09:46:34.000Z</time>
      </trkpt>
      <trkpt lat="47.25437" lon="-2.30236">
        <ele>23.799999237061</ele>
        <time>2022-06-19T09:46:38.000Z</time>
      </trkpt>
      <trkpt lat="47.25433" lon="-2.30234">
        <ele>23.799999237061</ele>
        <time>2022-06-19T09:46:39.000Z</time>
      </trkpt>
      <trkpt lat="47.25421" lon="-2.30231">
        <ele>23.799999237061</ele>
        <time>2022-06-19T09:46:41.000Z</time>
      </trkpt>
      <trkpt lat="47.254" lon="-2.3022">
        <ele>24.200000762939</ele>
        <time>2022-06-19T09:46:46.000Z</time>
      </trkpt>
      <trkpt lat="47.25395" lon="-2.30218">
        <ele>25</ele>
        <time>2022-06-19T09:46:47.000Z</time>
      </trkpt>
      <trkpt lat="47.2539" lon="-2.30217">
        <ele>25.39999961853</ele>
        <time>2022-06-19T09:46:48.000Z</time>
      </trkpt>
      <trkpt lat="47.25384" lon="-2.30217">
        <ele>25.799999237061</ele>
        <time>2022-06-19T09:46:49.000Z</time>
      </trkpt>
      <trkpt lat="47.25374" lon="-2.30216">
        <ele>25.799999237061</ele>
        <time>2022-06-19T09:46:51.000Z</time>
      </trkpt>
      <trkpt lat="47.25348" lon="-2.30212">
        <ele>25.799999237061</ele>
        <time>2022-06-19T09:46:56.000Z</time>
      </trkpt>
      <trkpt lat="47.25315" lon="-2.30207">
        <ele>25.799999237061</ele>
        <time>2022-06-19T09:47:03.000Z</time>
      </trkpt>
      <trkpt lat="47.25311" lon="-2.30208">
        <ele>25.799999237061</ele>
        <time>2022-06-19T09:47:04.000Z</time>
      </trkpt>
      <trkpt lat="47.25308" lon="-2.30215">
        <ele>25.799999237061</ele>
        <time>2022-06-19T09:47:06.000Z</time>
      </trkpt>
      <trkpt lat="47.25305" lon="-2.30216">
        <ele>25.799999237061</ele>
        <time>2022-06-19T09:47:07.000Z</time>
      </trkpt>
      <trkpt lat="47.25299" lon="-2.30215">
        <ele>25.799999237061</ele>
        <time>2022-06-19T09:47:09.000Z</time>
      </trkpt>
      <trkpt lat="47.25286" lon="-2.3021">
        <ele>26.200000762939</ele>
        <time>2022-06-19T09:47:13.000Z</time>
      </trkpt>
      <trkpt lat="47.25283" lon="-2.30208">
        <ele>26.799999237061</ele>
        <time>2022-06-19T09:47:14.000Z</time>
      </trkpt>
      <trkpt lat="47.25279" lon="-2.30207">
        <ele>27.200000762939</ele>
        <time>2022-06-19T09:47:15.000Z</time>
      </trkpt>
      <trkpt lat="47.25274" lon="-2.30205">
        <ele>27.60000038147</ele>
        <time>2022-06-19T09:47:16.000Z</time>
      </trkpt>
      <trkpt lat="47.2527" lon="-2.30202">
        <ele>28</ele>
        <time>2022-06-19T09:47:17.000Z</time>
      </trkpt>
      <trkpt lat="47.25257" lon="-2.30196">
        <ele>28</ele>
        <time>2022-06-19T09:47:21.000Z</time>
      </trkpt>
      <trkpt lat="47.25234" lon="-2.30187">
        <ele>28</ele>
        <time>2022-06-19T09:47:28.000Z</time>
      </trkpt>
      <trkpt lat="47.25221" lon="-2.30175">
        <ele>28</ele>
        <time>2022-06-19T09:47:34.000Z</time>
      </trkpt>
      <trkpt lat="47.25218" lon="-2.30172">
        <ele>28.39999961853</ele>
        <time>2022-06-19T09:47:35.000Z</time>
      </trkpt>
      <trkpt lat="47.25216" lon="-2.30168">
        <ele>29.200000762939</ele>
        <time>2022-06-19T09:47:36.000Z</time>
      </trkpt>
      <trkpt lat="47.25213" lon="-2.30165">
        <ele>29.60000038147</ele>
        <time>2022-06-19T09:47:37.000Z</time>
      </trkpt>
      <trkpt lat="47.25211" lon="-2.30163">
        <ele>30</ele>
        <time>2022-06-19T09:47:38.000Z</time>
      </trkpt>
      <trkpt lat="47.25205" lon="-2.30156">
        <ele>30</ele>
        <time>2022-06-19T09:47:40.000Z</time>
      </trkpt>
      <trkpt lat="47.25191" lon="-2.30129">
        <ele>30</ele>
        <time>2022-06-19T09:47:46.000Z</time>
      </trkpt>
      <trkpt lat="47.25184" lon="-2.30125">
        <ele>30</ele>
        <time>2022-06-19T09:47:48.000Z</time>
      </trkpt>
      <trkpt lat="47.2518" lon="-2.30124">
        <ele>30</ele>
        <time>2022-06-19T09:47:49.000Z</time>
      </trkpt>
      <trkpt lat="47.25163" lon="-2.30126">
        <ele>30</ele>
        <time>2022-06-19T09:47:53.000Z</time>
      </trkpt>
      <trkpt lat="47.25159" lon="-2.30127">
        <ele>30</ele>
        <time>2022-06-19T09:47:54.000Z</time>
      </trkpt>
      <trkpt lat="47.2514" lon="-2.30133">
        <ele>30.39999961853</ele>
        <time>2022-06-19T09:47:58.000Z</time>
      </trkpt>
      <trkpt lat="47.25135" lon="-2.30133">
        <ele>30.799999237061</ele>
        <time>2022-06-19T09:47:59.000Z</time>
      </trkpt>
      <trkpt lat="47.2513" lon="-2.30134">
        <ele>31.39999961853</ele>
        <time>2022-06-19T09:48:00.000Z</time>
      </trkpt>
      <trkpt lat="47.25125" lon="-2.30134">
        <ele>31.799999237061</ele>
        <time>2022-06-19T09:48:01.000Z</time>
      </trkpt>
      <trkpt lat="47.25121" lon="-2.30135">
        <ele>32.200000762939</ele>
        <time>2022-06-19T09:48:02.000Z</time>
      </trkpt>
      <trkpt lat="47.25093" lon="-2.30141">
        <ele>32.200000762939</ele>
        <time>2022-06-19T09:48:08.000Z</time>
      </trkpt>
      <trkpt lat="47.25083" lon="-2.30141">
        <ele>32.200000762939</ele>
        <time>2022-06-19T09:48:10.000Z</time>
      </trkpt>
      <trkpt lat="47.25074" lon="-2.30138">
        <ele>32.200000762939</ele>
        <time>2022-06-19T09:48:12.000Z</time>
      </trkpt>
      <trkpt lat="47.25071" lon="-2.3012">
        <ele>32.200000762939</ele>
        <time>2022-06-19T09:48:15.000Z</time>
      </trkpt>
      <trkpt lat="47.25071" lon="-2.301">
        <ele>32.200000762939</ele>
        <time>2022-06-19T09:48:18.000Z</time>
      </trkpt>
      <trkpt lat="47.25071" lon="-2.30089">
        <ele>32.200000762939</ele>
        <time>2022-06-19T09:48:20.000Z</time>
      </trkpt>
      <trkpt lat="47.25071" lon="-2.30061">
        <ele>32.200000762939</ele>
        <time>2022-06-19T09:48:25.000Z</time>
      </trkpt>
      <trkpt lat="47.25069" lon="-2.30059">
        <ele>32.200000762939</ele>
        <time>2022-06-19T09:48:26.000Z</time>
      </trkpt>
      <trkpt lat="47.2506" lon="-2.30057">
        <ele>32.200000762939</ele>
        <time>2022-06-19T09:48:29.000Z</time>
      </trkpt>
      <trkpt lat="47.25052" lon="-2.30055">
        <ele>32.200000762939</ele>
        <time>2022-06-19T09:48:31.000Z</time>
      </trkpt>
      <trkpt lat="47.25048" lon="-2.30055">
        <ele>32.599998474121</ele>
        <time>2022-06-19T09:48:32.000Z</time>
      </trkpt>
      <trkpt lat="47.25043" lon="-2.30055">
        <ele>33</ele>
        <time>2022-06-19T09:48:33.000Z</time>
      </trkpt>
      <trkpt lat="47.25039" lon="-2.30054">
        <ele>33.400001525879</ele>
        <time>2022-06-19T09:48:34.000Z</time>
      </trkpt>
      <trkpt lat="47.25034" lon="-2.30054">
        <ele>33.799999237061</ele>
        <time>2022-06-19T09:48:35.000Z</time>
      </trkpt>
      <trkpt lat="47.2503" lon="-2.30054">
        <ele>34.200000762939</ele>
        <time>2022-06-19T09:48:36.000Z</time>
      </trkpt>
      <trkpt lat="47.25025" lon="-2.30054">
        <ele>34.200000762939</ele>
        <time>2022-06-19T09:48:37.000Z</time>
      </trkpt>
      <trkpt lat="47.24998" lon="-2.30052">
        <ele>34.200000762939</ele>
        <time>2022-06-19T09:48:43.000Z</time>
      </trkpt>
      <trkpt lat="47.24958" lon="-2.30055">
        <ele>34.200000762939</ele>
        <time>2022-06-19T09:48:51.000Z</time>
      </trkpt>
      <trkpt lat="47.24925" lon="-2.30055">
        <ele>34.200000762939</ele>
        <time>2022-06-19T09:48:57.000Z</time>
      </trkpt>
      <trkpt lat="47.2491" lon="-2.30055">
        <ele>34.200000762939</ele>
        <time>2022-06-19T09:49:00.000Z</time>
      </trkpt>
      <trkpt lat="47.24905" lon="-2.30047">
        <ele>34.200000762939</ele>
        <time>2022-06-19T09:49:02.000Z</time>
      </trkpt>
      <trkpt lat="47.24903" lon="-2.30026">
        <ele>34.200000762939</ele>
        <time>2022-06-19T09:49:05.000Z</time>
      </trkpt>
      <trkpt lat="47.24902" lon="-2.30018">
        <ele>34.200000762939</ele>
        <time>2022-06-19T09:49:06.000Z</time>
      </trkpt>
      <trkpt lat="47.24891" lon="-2.2997">
        <ele>34.200000762939</ele>
        <time>2022-06-19T09:49:12.000Z</time>
      </trkpt>
      <trkpt lat="47.24888" lon="-2.29963">
        <ele>34.599998474121</ele>
        <time>2022-06-19T09:49:13.000Z</time>
      </trkpt>
      <trkpt lat="47.24886" lon="-2.29955">
        <ele>35.400001525879</ele>
        <time>2022-06-19T09:49:14.000Z</time>
      </trkpt>
      <trkpt lat="47.24885" lon="-2.29948">
        <ele>35.799999237061</ele>
        <time>2022-06-19T09:49:15.000Z</time>
      </trkpt>
      <trkpt lat="47.24883" lon="-2.2994">
        <ele>36.200000762939</ele>
        <time>2022-06-19T09:49:16.000Z</time>
      </trkpt>
      <trkpt lat="47.24879" lon="-2.29917">
        <ele>36.200000762939</ele>
        <time>2022-06-19T09:49:19.000Z</time>
      </trkpt>
      <trkpt lat="47.24873" lon="-2.29878">
        <ele>36.200000762939</ele>
        <time>2022-06-19T09:49:24.000Z</time>
      </trkpt>
      <trkpt lat="47.24871" lon="-2.29864">
        <ele>36.200000762939</ele>
        <time>2022-06-19T09:49:26.000Z</time>
      </trkpt>
      <trkpt lat="47.24867" lon="-2.29843">
        <ele>36.200000762939</ele>
        <time>2022-06-19T09:49:29.000Z</time>
      </trkpt>
      <trkpt lat="47.24865" lon="-2.29836">
        <ele>36.200000762939</ele>
        <time>2022-06-19T09:49:30.000Z</time>
      </trkpt>
      <trkpt lat="47.24859" lon="-2.29831">
        <ele>36.200000762939</ele>
        <time>2022-06-19T09:49:32.000Z</time>
      </trkpt>
      <trkpt lat="47.24846" lon="-2.29839">
        <ele>36.200000762939</ele>
        <time>2022-06-19T09:49:35.000Z</time>
      </trkpt>
      <trkpt lat="47.24842" lon="-2.29842">
        <ele>36.200000762939</ele>
        <time>2022-06-19T09:49:36.000Z</time>
      </trkpt>
      <trkpt lat="47.24817" lon="-2.29855">
        <ele>36.200000762939</ele>
        <time>2022-06-19T09:49:41.000Z</time>
      </trkpt>
      <trkpt lat="47.24811" lon="-2.29856">
        <ele>36.200000762939</ele>
        <time>2022-06-19T09:49:42.000Z</time>
      </trkpt>
      <trkpt lat="47.2478" lon="-2.29871">
        <ele>36.200000762939</ele>
        <time>2022-06-19T09:49:48.000Z</time>
      </trkpt>
      <trkpt lat="47.24756" lon="-2.2989">
        <ele>36.200000762939</ele>
        <time>2022-06-19T09:49:53.000Z</time>
      </trkpt>
      <trkpt lat="47.24751" lon="-2.29895">
        <ele>36.200000762939</ele>
        <time>2022-06-19T09:49:54.000Z</time>
      </trkpt>
      <trkpt lat="47.24745" lon="-2.29917">
        <ele>36.200000762939</ele>
        <time>2022-06-19T09:49:57.000Z</time>
      </trkpt>
      <trkpt lat="47.24745" lon="-2.29934">
        <ele>36.200000762939</ele>
        <time>2022-06-19T09:49:59.000Z</time>
      </trkpt>
      <trkpt lat="47.24744" lon="-2.29959">
        <ele>36.200000762939</ele>
        <time>2022-06-19T09:50:02.000Z</time>
      </trkpt>
      <trkpt lat="47.24743" lon="-2.29967">
        <ele>35.799999237061</ele>
        <time>2022-06-19T09:50:03.000Z</time>
      </trkpt>
      <trkpt lat="47.24743" lon="-2.29976">
        <ele>35.400001525879</ele>
        <time>2022-06-19T09:50:04.000Z</time>
      </trkpt>
      <trkpt lat="47.24741" lon="-2.29984">
        <ele>35</ele>
        <time>2022-06-19T09:50:05.000Z</time>
      </trkpt>
      <trkpt lat="47.24739" lon="-2.29991">
        <ele>34.599998474121</ele>
        <time>2022-06-19T09:50:06.000Z</time>
      </trkpt>
      <trkpt lat="47.24736" lon="-2.29998">
        <ele>34.200000762939</ele>
        <time>2022-06-19T09:50:07.000Z</time>
      </trkpt>
      <trkpt lat="47.24729" lon="-2.30011">
        <ele>34.200000762939</ele>
        <time>2022-06-19T09:50:09.000Z</time>
      </trkpt>
      <trkpt lat="47.24719" lon="-2.30024">
        <ele>34.200000762939</ele>
        <time>2022-06-19T09:50:11.000Z</time>
      </trkpt>
      <trkpt lat="47.24683" lon="-2.30056">
        <ele>34.200000762939</ele>
        <time>2022-06-19T09:50:17.000Z</time>
      </trkpt>
      <trkpt lat="47.24654" lon="-2.30078">
        <ele>34.200000762939</ele>
        <time>2022-06-19T09:50:22.000Z</time>
      </trkpt>
      <trkpt lat="47.2465" lon="-2.3008">
        <ele>34.200000762939</ele>
        <time>2022-06-19T09:50:23.000Z</time>
      </trkpt>
      <trkpt lat="47.24648" lon="-2.30081">
        <ele>33.799999237061</ele>
        <time>2022-06-19T09:50:24.000Z</time>
      </trkpt>
      <trkpt lat="47.24647" lon="-2.30081">
        <ele>33.400001525879</ele>
        <time>2022-06-19T09:50:25.000Z</time>
      </trkpt>
      <trkpt lat="47.24648" lon="-2.30081">
        <ele>33</ele>
        <time>2022-06-19T09:50:26.000Z</time>
      </trkpt>
      <trkpt lat="47.24647" lon="-2.30083">
        <ele>32</ele>
        <time>2022-06-19T09:50:28.000Z</time>
      </trkpt>
      <trkpt lat="47.24647" lon="-2.30088">
        <ele>32</ele>
        <time>2022-06-19T09:50:30.000Z</time>
      </trkpt>
      <trkpt lat="47.2464" lon="-2.30093">
        <ele>32</ele>
        <time>2022-06-19T09:50:33.000Z</time>
      </trkpt>
      <trkpt lat="47.24632" lon="-2.30097">
        <ele>32</ele>
        <time>2022-06-19T09:50:35.000Z</time>
      </trkpt>
      <trkpt lat="47.2462" lon="-2.30106">
        <ele>32</ele>
        <time>2022-06-19T09:50:38.000Z</time>
      </trkpt>
      <trkpt lat="47.24598" lon="-2.30128">
        <ele>32</ele>
        <time>2022-06-19T09:50:43.000Z</time>
      </trkpt>
      <trkpt lat="47.24594" lon="-2.30134">
        <ele>32</ele>
        <time>2022-06-19T09:50:44.000Z</time>
      </trkpt>
      <trkpt lat="47.24566" lon="-2.30182">
        <ele>32</ele>
        <time>2022-06-19T09:50:51.000Z</time>
      </trkpt>
      <trkpt lat="47.2454" lon="-2.30214">
        <ele>32</ele>
        <time>2022-06-19T09:50:57.000Z</time>
      </trkpt>
      <trkpt lat="47.24517" lon="-2.3024">
        <ele>31.60000038147</ele>
        <time>2022-06-19T09:51:02.000Z</time>
      </trkpt>
      <trkpt lat="47.24512" lon="-2.30244">
        <ele>31.200000762939</ele>
        <time>2022-06-19T09:51:03.000Z</time>
      </trkpt>
      <trkpt lat="47.24506" lon="-2.30248">
        <ele>30.799999237061</ele>
        <time>2022-06-19T09:51:04.000Z</time>
      </trkpt>
      <trkpt lat="47.245" lon="-2.3025">
        <ele>30.39999961853</ele>
        <time>2022-06-19T09:51:05.000Z</time>
      </trkpt>
      <trkpt lat="47.24494" lon="-2.30251">
        <ele>30</ele>
        <time>2022-06-19T09:51:06.000Z</time>
      </trkpt>
      <trkpt lat="47.24487" lon="-2.30251">
        <ele>30</ele>
        <time>2022-06-19T09:51:07.000Z</time>
      </trkpt>
      <trkpt lat="47.2447" lon="-2.30239">
        <ele>30</ele>
        <time>2022-06-19T09:51:10.000Z</time>
      </trkpt>
      <trkpt lat="47.24462" lon="-2.3022">
        <ele>30</ele>
        <time>2022-06-19T09:51:13.000Z</time>
      </trkpt>
      <trkpt lat="47.24461" lon="-2.30214">
        <ele>30</ele>
        <time>2022-06-19T09:51:14.000Z</time>
      </trkpt>
      <trkpt lat="47.24451" lon="-2.30197">
        <ele>30</ele>
        <time>2022-06-19T09:51:18.000Z</time>
      </trkpt>
      <trkpt lat="47.24448" lon="-2.30193">
        <ele>30</ele>
        <time>2022-06-19T09:51:19.000Z</time>
      </trkpt>
      <trkpt lat="47.2444" lon="-2.30175">
        <ele>30</ele>
        <time>2022-06-19T09:51:22.000Z</time>
      </trkpt>
      <trkpt lat="47.24431" lon="-2.30159">
        <ele>30</ele>
        <time>2022-06-19T09:51:25.000Z</time>
      </trkpt>
      <trkpt lat="47.24423" lon="-2.30151">
        <ele>30</ele>
        <time>2022-06-19T09:51:27.000Z</time>
      </trkpt>
      <trkpt lat="47.24414" lon="-2.30144">
        <ele>30</ele>
        <time>2022-06-19T09:51:29.000Z</time>
      </trkpt>
      <trkpt lat="47.24403" lon="-2.30128">
        <ele>30</ele>
        <time>2022-06-19T09:51:32.000Z</time>
      </trkpt>
      <trkpt lat="47.244" lon="-2.30121">
        <ele>30</ele>
        <time>2022-06-19T09:51:33.000Z</time>
      </trkpt>
      <trkpt lat="47.24387" lon="-2.30094">
        <ele>30</ele>
        <time>2022-06-19T09:51:37.000Z</time>
      </trkpt>
      <trkpt lat="47.24376" lon="-2.30089">
        <ele>30</ele>
        <time>2022-06-19T09:51:40.000Z</time>
      </trkpt>
      <trkpt lat="47.24362" lon="-2.301">
        <ele>30</ele>
        <time>2022-06-19T09:51:43.000Z</time>
      </trkpt>
      <trkpt lat="47.24354" lon="-2.3011">
        <ele>30</ele>
        <time>2022-06-19T09:51:45.000Z</time>
      </trkpt>
      <trkpt lat="47.24329" lon="-2.30132">
        <ele>30</ele>
        <time>2022-06-19T09:51:50.000Z</time>
      </trkpt>
      <trkpt lat="47.24323" lon="-2.30133">
        <ele>30</ele>
        <time>2022-06-19T09:51:51.000Z</time>
      </trkpt>
      <trkpt lat="47.24308" lon="-2.30123">
        <ele>30</ele>
        <time>2022-06-19T09:51:54.000Z</time>
      </trkpt>
      <trkpt lat="47.24292" lon="-2.30122">
        <ele>30</ele>
        <time>2022-06-19T09:51:57.000Z</time>
      </trkpt>
      <trkpt lat="47.24271" lon="-2.30139">
        <ele>30</ele>
        <time>2022-06-19T09:52:01.000Z</time>
      </trkpt>
      <trkpt lat="47.24265" lon="-2.30145">
        <ele>30</ele>
        <time>2022-06-19T09:52:02.000Z</time>
      </trkpt>
      <trkpt lat="47.2426" lon="-2.30151">
        <ele>29.60000038147</ele>
        <time>2022-06-19T09:52:03.000Z</time>
      </trkpt>
      <trkpt lat="47.24255" lon="-2.30157">
        <ele>29.200000762939</ele>
        <time>2022-06-19T09:52:04.000Z</time>
      </trkpt>
      <trkpt lat="47.2425" lon="-2.30165">
        <ele>28.60000038147</ele>
        <time>2022-06-19T09:52:05.000Z</time>
      </trkpt>
      <trkpt lat="47.24246" lon="-2.30174">
        <ele>28.200000762939</ele>
        <time>2022-06-19T09:52:06.000Z</time>
      </trkpt>
      <trkpt lat="47.24242" lon="-2.30183">
        <ele>27.799999237061</ele>
        <time>2022-06-19T09:52:07.000Z</time>
      </trkpt>
      <trkpt lat="47.24234" lon="-2.302">
        <ele>27.39999961853</ele>
        <time>2022-06-19T09:52:09.000Z</time>
      </trkpt>
      <trkpt lat="47.24229" lon="-2.30208">
        <ele>26.799999237061</ele>
        <time>2022-06-19T09:52:10.000Z</time>
      </trkpt>
      <trkpt lat="47.24223" lon="-2.30213">
        <ele>26.39999961853</ele>
        <time>2022-06-19T09:52:11.000Z</time>
      </trkpt>
      <trkpt lat="47.24216" lon="-2.30217">
        <ele>26</ele>
        <time>2022-06-19T09:52:12.000Z</time>
      </trkpt>
      <trkpt lat="47.24209" lon="-2.30221">
        <ele>25.60000038147</ele>
        <time>2022-06-19T09:52:13.000Z</time>
      </trkpt>
      <trkpt lat="47.24203" lon="-2.30224">
        <ele>25</ele>
        <time>2022-06-19T09:52:14.000Z</time>
      </trkpt>
      <trkpt lat="47.24196" lon="-2.30227">
        <ele>24.60000038147</ele>
        <time>2022-06-19T09:52:15.000Z</time>
      </trkpt>
      <trkpt lat="47.24193" lon="-2.30232">
        <ele>24.200000762939</ele>
        <time>2022-06-19T09:52:16.000Z</time>
      </trkpt>
      <trkpt lat="47.24191" lon="-2.30238">
        <ele>23.60000038147</ele>
        <time>2022-06-19T09:52:17.000Z</time>
      </trkpt>
      <trkpt lat="47.24192" lon="-2.30245">
        <ele>23</ele>
        <time>2022-06-19T09:52:18.000Z</time>
      </trkpt>
      <trkpt lat="47.24193" lon="-2.30253">
        <ele>22.39999961853</ele>
        <time>2022-06-19T09:52:19.000Z</time>
      </trkpt>
      <trkpt lat="47.24194" lon="-2.30261">
        <ele>21.799999237061</ele>
        <time>2022-06-19T09:52:20.000Z</time>
      </trkpt>
      <trkpt lat="47.24196" lon="-2.3027">
        <ele>21.200000762939</ele>
        <time>2022-06-19T09:52:21.000Z</time>
      </trkpt>
      <trkpt lat="47.242" lon="-2.30302">
        <ele>21.200000762939</ele>
        <time>2022-06-19T09:52:25.000Z</time>
      </trkpt>
      <trkpt lat="47.24205" lon="-2.30325">
        <ele>21.200000762939</ele>
        <time>2022-06-19T09:52:28.000Z</time>
      </trkpt>
      <trkpt lat="47.2421" lon="-2.30333">
        <ele>21.200000762939</ele>
        <time>2022-06-19T09:52:30.000Z</time>
      </trkpt>
      <trkpt lat="47.24218" lon="-2.30331">
        <ele>21.60000038147</ele>
        <time>2022-06-19T09:52:33.000Z</time>
      </trkpt>
      <trkpt lat="47.24221" lon="-2.30329">
        <ele>22</ele>
        <time>2022-06-19T09:52:34.000Z</time>
      </trkpt>
      <trkpt lat="47.24224" lon="-2.30327">
        <ele>22.39999961853</ele>
        <time>2022-06-19T09:52:35.000Z</time>
      </trkpt>
      <trkpt lat="47.24227" lon="-2.30325">
        <ele>22.799999237061</ele>
        <time>2022-06-19T09:52:36.000Z</time>
      </trkpt>
      <trkpt lat="47.2423" lon="-2.30325">
        <ele>23.200000762939</ele>
        <time>2022-06-19T09:52:37.000Z</time>
      </trkpt>
      <trkpt lat="47.24232" lon="-2.30325">
        <ele>23.60000038147</ele>
        <time>2022-06-19T09:52:38.000Z</time>
      </trkpt>
      <trkpt lat="47.24234" lon="-2.30327">
        <ele>24</ele>
        <time>2022-06-19T09:52:39.000Z</time>
      </trkpt>
      <trkpt lat="47.24237" lon="-2.30329">
        <ele>24.39999961853</ele>
        <time>2022-06-19T09:52:40.000Z</time>
      </trkpt>
      <trkpt lat="47.24239" lon="-2.30333">
        <ele>24.799999237061</ele>
        <time>2022-06-19T09:52:41.000Z</time>
      </trkpt>
      <trkpt lat="47.24242" lon="-2.30336">
        <ele>25.39999961853</ele>
        <time>2022-06-19T09:52:42.000Z</time>
      </trkpt>
      <trkpt lat="47.24247" lon="-2.30343">
        <ele>25.39999961853</ele>
        <time>2022-06-19T09:52:44.000Z</time>
      </trkpt>
      <trkpt lat="47.24258" lon="-2.30364">
        <ele>25.39999961853</ele>
        <time>2022-06-19T09:52:49.000Z</time>
      </trkpt>
      <trkpt lat="47.24269" lon="-2.30382">
        <ele>25.39999961853</ele>
        <time>2022-06-19T09:52:53.000Z</time>
      </trkpt>
      <trkpt lat="47.24276" lon="-2.30391">
        <ele>25.39999961853</ele>
        <time>2022-06-19T09:52:55.000Z</time>
      </trkpt>
      <trkpt lat="47.24286" lon="-2.30404">
        <ele>25.39999961853</ele>
        <time>2022-06-19T09:52:58.000Z</time>
      </trkpt>
      <trkpt lat="47.24298" lon="-2.30415">
        <ele>25.39999961853</ele>
        <time>2022-06-19T09:53:01.000Z</time>
      </trkpt>
      <trkpt lat="47.24318" lon="-2.3043">
        <ele>25.39999961853</ele>
        <time>2022-06-19T09:53:06.000Z</time>
      </trkpt>
      <trkpt lat="47.24347" lon="-2.30446">
        <ele>25.39999961853</ele>
        <time>2022-06-19T09:53:12.000Z</time>
      </trkpt>
      <trkpt lat="47.24351" lon="-2.30447">
        <ele>25.39999961853</ele>
        <time>2022-06-19T09:53:13.000Z</time>
      </trkpt>
      <trkpt lat="47.2436" lon="-2.30447">
        <ele>25.39999961853</ele>
        <time>2022-06-19T09:53:15.000Z</time>
      </trkpt>
      <trkpt lat="47.24364" lon="-2.30446">
        <ele>25.39999961853</ele>
        <time>2022-06-19T09:53:16.000Z</time>
      </trkpt>
      <trkpt lat="47.24375" lon="-2.30448">
        <ele>25.39999961853</ele>
        <time>2022-06-19T09:53:19.000Z</time>
      </trkpt>
      <trkpt lat="47.24378" lon="-2.30469">
        <ele>25.39999961853</ele>
        <time>2022-06-19T09:53:23.000Z</time>
      </trkpt>
      <trkpt lat="47.24377" lon="-2.30474">
        <ele>24.799999237061</ele>
        <time>2022-06-19T09:53:24.000Z</time>
      </trkpt>
      <trkpt lat="47.24376" lon="-2.30478">
        <ele>24.39999961853</ele>
        <time>2022-06-19T09:53:25.000Z</time>
      </trkpt>
      <trkpt lat="47.24375" lon="-2.30482">
        <ele>24</ele>
        <time>2022-06-19T09:53:26.000Z</time>
      </trkpt>
      <trkpt lat="47.24373" lon="-2.30486">
        <ele>23.60000038147</ele>
        <time>2022-06-19T09:53:27.000Z</time>
      </trkpt>
      <trkpt lat="47.24372" lon="-2.3049">
        <ele>23.200000762939</ele>
        <time>2022-06-19T09:53:28.000Z</time>
      </trkpt>
      <trkpt lat="47.24369" lon="-2.30498">
        <ele>23.200000762939</ele>
        <time>2022-06-19T09:53:30.000Z</time>
      </trkpt>
      <trkpt lat="47.24368" lon="-2.30505">
        <ele>22.799999237061</ele>
        <time>2022-06-19T09:53:32.000Z</time>
      </trkpt>
      <trkpt lat="47.24368" lon="-2.30509">
        <ele>22.39999961853</ele>
        <time>2022-06-19T09:53:33.000Z</time>
      </trkpt>
      <trkpt lat="47.24368" lon="-2.30512">
        <ele>21.799999237061</ele>
        <time>2022-06-19T09:53:34.000Z</time>
      </trkpt>
      <trkpt lat="47.24369" lon="-2.30517">
        <ele>21.39999961853</ele>
        <time>2022-06-19T09:53:35.000Z</time>
      </trkpt>
      <trkpt lat="47.2437" lon="-2.30522">
        <ele>21</ele>
        <time>2022-06-19T09:53:36.000Z</time>
      </trkpt>
      <trkpt lat="47.24371" lon="-2.30528">
        <ele>20.60000038147</ele>
        <time>2022-06-19T09:53:37.000Z</time>
      </trkpt>
      <trkpt lat="47.24373" lon="-2.30534">
        <ele>20.200000762939</ele>
        <time>2022-06-19T09:53:38.000Z</time>
      </trkpt>
      <trkpt lat="47.24375" lon="-2.3054">
        <ele>19.799999237061</ele>
        <time>2022-06-19T09:53:39.000Z</time>
      </trkpt>
      <trkpt lat="47.24378" lon="-2.30547">
        <ele>19.39999961853</ele>
        <time>2022-06-19T09:53:40.000Z</time>
      </trkpt>
      <trkpt lat="47.24381" lon="-2.30552">
        <ele>18.799999237061</ele>
        <time>2022-06-19T09:53:41.000Z</time>
      </trkpt>
      <trkpt lat="47.24385" lon="-2.30558">
        <ele>18.799999237061</ele>
        <time>2022-06-19T09:53:42.000Z</time>
      </trkpt>
      <trkpt lat="47.24393" lon="-2.30565">
        <ele>18.799999237061</ele>
        <time>2022-06-19T09:53:44.000Z</time>
      </trkpt>
      <trkpt lat="47.24401" lon="-2.3057">
        <ele>18.799999237061</ele>
        <time>2022-06-19T09:53:46.000Z</time>
      </trkpt>
      <trkpt lat="47.2441" lon="-2.30569">
        <ele>18.799999237061</ele>
        <time>2022-06-19T09:53:48.000Z</time>
      </trkpt>
      <trkpt lat="47.24443" lon="-2.30558">
        <ele>18.799999237061</ele>
        <time>2022-06-19T09:53:55.000Z</time>
      </trkpt>
      <trkpt lat="47.24463" lon="-2.30544">
        <ele>19.39999961853</ele>
        <time>2022-06-19T09:54:00.000Z</time>
      </trkpt>
      <trkpt lat="47.24468" lon="-2.30544">
        <ele>19.799999237061</ele>
        <time>2022-06-19T09:54:01.000Z</time>
      </trkpt>
      <trkpt lat="47.24472" lon="-2.30546">
        <ele>20.200000762939</ele>
        <time>2022-06-19T09:54:02.000Z</time>
      </trkpt>
      <trkpt lat="47.24474" lon="-2.30551">
        <ele>20.60000038147</ele>
        <time>2022-06-19T09:54:03.000Z</time>
      </trkpt>
      <trkpt lat="47.24476" lon="-2.30556">
        <ele>21</ele>
        <time>2022-06-19T09:54:04.000Z</time>
      </trkpt>
      <trkpt lat="47.24473" lon="-2.30571">
        <ele>21</ele>
        <time>2022-06-19T09:54:07.000Z</time>
      </trkpt>
      <trkpt lat="47.24472" lon="-2.30575">
        <ele>21</ele>
        <time>2022-06-19T09:54:08.000Z</time>
      </trkpt>
      <trkpt lat="47.24467" lon="-2.30596">
        <ele>21</ele>
        <time>2022-06-19T09:54:14.000Z</time>
      </trkpt>
      <trkpt lat="47.24465" lon="-2.30604">
        <ele>21.39999961853</ele>
        <time>2022-06-19T09:54:17.000Z</time>
      </trkpt>
      <trkpt lat="47.24465" lon="-2.30606">
        <ele>21.799999237061</ele>
        <time>2022-06-19T09:54:18.000Z</time>
      </trkpt>
      <trkpt lat="47.24465" lon="-2.30608">
        <ele>22.39999961853</ele>
        <time>2022-06-19T09:54:19.000Z</time>
      </trkpt>
      <trkpt lat="47.24465" lon="-2.3061">
        <ele>22.799999237061</ele>
        <time>2022-06-19T09:54:20.000Z</time>
      </trkpt>
      <trkpt lat="47.24465" lon="-2.30612">
        <ele>23.200000762939</ele>
        <time>2022-06-19T09:54:21.000Z</time>
      </trkpt>
      <trkpt lat="47.24465" lon="-2.30613">
        <ele>23.200000762939</ele>
        <time>2022-06-19T09:54:23.000Z</time>
      </trkpt>
      <trkpt lat="47.24464" lon="-2.30616">
        <ele>23.200000762939</ele>
        <time>2022-06-19T09:54:34.000Z</time>
      </trkpt>
      <trkpt lat="47.24463" lon="-2.3062">
        <ele>23.200000762939</ele>
        <time>2022-06-19T09:54:35.000Z</time>
      </trkpt>
      <trkpt lat="47.24458" lon="-2.30645">
        <ele>23.200000762939</ele>
        <time>2022-06-19T09:54:40.000Z</time>
      </trkpt>
      <trkpt lat="47.24453" lon="-2.30661">
        <ele>23.200000762939</ele>
        <time>2022-06-19T09:54:43.000Z</time>
      </trkpt>
      <trkpt lat="47.24451" lon="-2.30673">
        <ele>23.60000038147</ele>
        <time>2022-06-19T09:54:45.000Z</time>
      </trkpt>
      <trkpt lat="47.2445" lon="-2.3068">
        <ele>24</ele>
        <time>2022-06-19T09:54:46.000Z</time>
      </trkpt>
      <trkpt lat="47.24449" lon="-2.30686">
        <ele>24.39999961853</ele>
        <time>2022-06-19T09:54:47.000Z</time>
      </trkpt>
      <trkpt lat="47.24448" lon="-2.30693">
        <ele>24.799999237061</ele>
        <time>2022-06-19T09:54:48.000Z</time>
      </trkpt>
      <trkpt lat="47.24447" lon="-2.307">
        <ele>25.200000762939</ele>
        <time>2022-06-19T09:54:49.000Z</time>
      </trkpt>
      <trkpt lat="47.24445" lon="-2.30728">
        <ele>25.200000762939</ele>
        <time>2022-06-19T09:54:53.000Z</time>
      </trkpt>
      <trkpt lat="47.24443" lon="-2.30773">
        <ele>25.200000762939</ele>
        <time>2022-06-19T09:54:59.000Z</time>
      </trkpt>
      <trkpt lat="47.24442" lon="-2.30781">
        <ele>25.200000762939</ele>
        <time>2022-06-19T09:55:00.000Z</time>
      </trkpt>
      <trkpt lat="47.2444" lon="-2.30816">
        <ele>25.200000762939</ele>
        <time>2022-06-19T09:55:04.000Z</time>
      </trkpt>
      <trkpt lat="47.24437" lon="-2.30881">
        <ele>24.799999237061</ele>
        <time>2022-06-19T09:55:11.000Z</time>
      </trkpt>
      <trkpt lat="47.24437" lon="-2.3089">
        <ele>24.39999961853</ele>
        <time>2022-06-19T09:55:12.000Z</time>
      </trkpt>
      <trkpt lat="47.24437" lon="-2.30899">
        <ele>24</ele>
        <time>2022-06-19T09:55:13.000Z</time>
      </trkpt>
      <trkpt lat="47.24436" lon="-2.30908">
        <ele>23.60000038147</ele>
        <time>2022-06-19T09:55:14.000Z</time>
      </trkpt>
      <trkpt lat="47.24435" lon="-2.30917">
        <ele>23.200000762939</ele>
        <time>2022-06-19T09:55:15.000Z</time>
      </trkpt>
      <trkpt lat="47.24432" lon="-2.30925">
        <ele>23.200000762939</ele>
        <time>2022-06-19T09:55:16.000Z</time>
      </trkpt>
      <trkpt lat="47.24415" lon="-2.30953">
        <ele>23.200000762939</ele>
        <time>2022-06-19T09:55:20.000Z</time>
      </trkpt>
      <trkpt lat="47.24411" lon="-2.30961">
        <ele>22.60000038147</ele>
        <time>2022-06-19T09:55:21.000Z</time>
      </trkpt>
      <trkpt lat="47.24408" lon="-2.30971">
        <ele>22.200000762939</ele>
        <time>2022-06-19T09:55:22.000Z</time>
      </trkpt>
      <trkpt lat="47.24407" lon="-2.30982">
        <ele>21.799999237061</ele>
        <time>2022-06-19T09:55:23.000Z</time>
      </trkpt>
      <trkpt lat="47.24406" lon="-2.30994">
        <ele>21.39999961853</ele>
        <time>2022-06-19T09:55:24.000Z</time>
      </trkpt>
      <trkpt lat="47.24406" lon="-2.31005">
        <ele>21</ele>
        <time>2022-06-19T09:55:25.000Z</time>
      </trkpt>
      <trkpt lat="47.24407" lon="-2.31027">
        <ele>21</ele>
        <time>2022-06-19T09:55:27.000Z</time>
      </trkpt>
      <trkpt lat="47.24409" lon="-2.31087">
        <ele>21</ele>
        <time>2022-06-19T09:55:33.000Z</time>
      </trkpt>
      <trkpt lat="47.2441" lon="-2.31143">
        <ele>20.60000038147</ele>
        <time>2022-06-19T09:55:38.000Z</time>
      </trkpt>
      <trkpt lat="47.2441" lon="-2.31154">
        <ele>20.200000762939</ele>
        <time>2022-06-19T09:55:39.000Z</time>
      </trkpt>
      <trkpt lat="47.2441" lon="-2.31165">
        <ele>19.799999237061</ele>
        <time>2022-06-19T09:55:40.000Z</time>
      </trkpt>
      <trkpt lat="47.2441" lon="-2.31173">
        <ele>19</ele>
        <time>2022-06-19T09:55:41.000Z</time>
      </trkpt>
      <trkpt lat="47.24411" lon="-2.3118">
        <ele>18.39999961853</ele>
        <time>2022-06-19T09:55:42.000Z</time>
      </trkpt>
      <trkpt lat="47.24411" lon="-2.31186">
        <ele>17.799999237061</ele>
        <time>2022-06-19T09:55:43.000Z</time>
      </trkpt>
      <trkpt lat="47.2441" lon="-2.31191">
        <ele>17</ele>
        <time>2022-06-19T09:55:44.000Z</time>
      </trkpt>
      <trkpt lat="47.24411" lon="-2.31195">
        <ele>16.39999961853</ele>
        <time>2022-06-19T09:55:45.000Z</time>
      </trkpt>
      <trkpt lat="47.24411" lon="-2.312">
        <ele>15.60000038147</ele>
        <time>2022-06-19T09:55:46.000Z</time>
      </trkpt>
      <trkpt lat="47.24412" lon="-2.31206">
        <ele>15</ele>
        <time>2022-06-19T09:55:47.000Z</time>
      </trkpt>
      <trkpt lat="47.24414" lon="-2.31211">
        <ele>14.39999961853</ele>
        <time>2022-06-19T09:55:48.000Z</time>
      </trkpt>
      <trkpt lat="47.24416" lon="-2.31217">
        <ele>13.800000190735</ele>
        <time>2022-06-19T09:55:49.000Z</time>
      </trkpt>
      <trkpt lat="47.24419" lon="-2.31222">
        <ele>12.60000038147</ele>
        <time>2022-06-19T09:55:50.000Z</time>
      </trkpt>
      <trkpt lat="47.24422" lon="-2.31226">
        <ele>12</ele>
        <time>2022-06-19T09:55:51.000Z</time>
      </trkpt>
      <trkpt lat="47.24429" lon="-2.3123">
        <ele>12</ele>
        <time>2022-06-19T09:55:54.000Z</time>
      </trkpt>
      <trkpt lat="47.24432" lon="-2.31231">
        <ele>12</ele>
        <time>2022-06-19T09:55:56.000Z</time>
      </trkpt>
      <trkpt lat="47.24433" lon="-2.31231">
        <ele>12</ele>
        <time>2022-06-19T09:55:58.000Z</time>
      </trkpt>
      <trkpt lat="47.24436" lon="-2.31232">
        <ele>12</ele>
        <time>2022-06-19T09:56:14.000Z</time>
      </trkpt>
      <trkpt lat="47.2444" lon="-2.31237">
        <ele>12</ele>
        <time>2022-06-19T09:56:17.000Z</time>
      </trkpt>
      <trkpt lat="47.24442" lon="-2.3124">
        <ele>12.39999961853</ele>
        <time>2022-06-19T09:56:18.000Z</time>
      </trkpt>
      <trkpt lat="47.24444" lon="-2.31244">
        <ele>12.800000190735</ele>
        <time>2022-06-19T09:56:19.000Z</time>
      </trkpt>
      <trkpt lat="47.24447" lon="-2.31248">
        <ele>13.199999809265</ele>
        <time>2022-06-19T09:56:20.000Z</time>
      </trkpt>
      <trkpt lat="47.24451" lon="-2.31253">
        <ele>13.60000038147</ele>
        <time>2022-06-19T09:56:21.000Z</time>
      </trkpt>
      <trkpt lat="47.24454" lon="-2.31258">
        <ele>14</ele>
        <time>2022-06-19T09:56:22.000Z</time>
      </trkpt>
      <trkpt lat="47.24463" lon="-2.3128">
        <ele>14</ele>
        <time>2022-06-19T09:56:26.000Z</time>
      </trkpt>
      <trkpt lat="47.24477" lon="-2.31307">
        <ele>14</ele>
        <time>2022-06-19T09:56:31.000Z</time>
      </trkpt>
      <trkpt lat="47.24483" lon="-2.3132">
        <ele>14</ele>
        <time>2022-06-19T09:56:35.000Z</time>
      </trkpt>
      <trkpt lat="47.2449" lon="-2.31333">
        <ele>14.39999961853</ele>
        <time>2022-06-19T09:56:39.000Z</time>
      </trkpt>
      <trkpt lat="47.24492" lon="-2.31336">
        <ele>15.39999961853</ele>
        <time>2022-06-19T09:56:40.000Z</time>
      </trkpt>
      <trkpt lat="47.24494" lon="-2.31339">
        <ele>15.800000190735</ele>
        <time>2022-06-19T09:56:41.000Z</time>
      </trkpt>
      <trkpt lat="47.24496" lon="-2.31342">
        <ele>16.200000762939</ele>
        <time>2022-06-19T09:56:42.000Z</time>
      </trkpt>
      <trkpt lat="47.24507" lon="-2.31357">
        <ele>16.60000038147</ele>
        <time>2022-06-19T09:56:47.000Z</time>
      </trkpt>
      <trkpt lat="47.24509" lon="-2.3136">
        <ele>17</ele>
        <time>2022-06-19T09:56:48.000Z</time>
      </trkpt>
      <trkpt lat="47.24512" lon="-2.31363">
        <ele>17.39999961853</ele>
        <time>2022-06-19T09:56:49.000Z</time>
      </trkpt>
      <trkpt lat="47.24514" lon="-2.31367">
        <ele>18</ele>
        <time>2022-06-19T09:56:50.000Z</time>
      </trkpt>
      <trkpt lat="47.24517" lon="-2.3137">
        <ele>18.39999961853</ele>
        <time>2022-06-19T09:56:51.000Z</time>
      </trkpt>
      <trkpt lat="47.24527" lon="-2.31378">
        <ele>18.39999961853</ele>
        <time>2022-06-19T09:56:55.000Z</time>
      </trkpt>
      <trkpt lat="47.24545" lon="-2.31385">
        <ele>18.799999237061</ele>
        <time>2022-06-19T09:57:00.000Z</time>
      </trkpt>
      <trkpt lat="47.24549" lon="-2.31385">
        <ele>19.200000762939</ele>
        <time>2022-06-19T09:57:01.000Z</time>
      </trkpt>
      <trkpt lat="47.24553" lon="-2.31385">
        <ele>19.60000038147</ele>
        <time>2022-06-19T09:57:02.000Z</time>
      </trkpt>
      <trkpt lat="47.24557" lon="-2.31385">
        <ele>20</ele>
        <time>2022-06-19T09:57:03.000Z</time>
      </trkpt>
      <trkpt lat="47.24561" lon="-2.31384">
        <ele>20.39999961853</ele>
        <time>2022-06-19T09:57:04.000Z</time>
      </trkpt>
      <trkpt lat="47.24567" lon="-2.31385">
        <ele>20.39999961853</ele>
        <time>2022-06-19T09:57:06.000Z</time>
      </trkpt>
      <trkpt lat="47.24575" lon="-2.31401">
        <ele>20.39999961853</ele>
        <time>2022-06-19T09:57:10.000Z</time>
      </trkpt>
      <trkpt lat="47.24582" lon="-2.31437">
        <ele>20.39999961853</ele>
        <time>2022-06-19T09:57:16.000Z</time>
      </trkpt>
      <trkpt lat="47.24588" lon="-2.31488">
        <ele>20.39999961853</ele>
        <time>2022-06-19T09:57:23.000Z</time>
      </trkpt>
      <trkpt lat="47.24589" lon="-2.31495">
        <ele>20.39999961853</ele>
        <time>2022-06-19T09:57:24.000Z</time>
      </trkpt>
      <trkpt lat="47.24592" lon="-2.31516">
        <ele>20.39999961853</ele>
        <time>2022-06-19T09:57:27.000Z</time>
      </trkpt>
      <trkpt lat="47.24596" lon="-2.31543">
        <ele>20.39999961853</ele>
        <time>2022-06-19T09:57:31.000Z</time>
      </trkpt>
      <trkpt lat="47.24601" lon="-2.31562">
        <ele>20.39999961853</ele>
        <time>2022-06-19T09:57:34.000Z</time>
      </trkpt>
      <trkpt lat="47.24603" lon="-2.31568">
        <ele>20.39999961853</ele>
        <time>2022-06-19T09:57:35.000Z</time>
      </trkpt>
      <trkpt lat="47.24612" lon="-2.31584">
        <ele>20.39999961853</ele>
        <time>2022-06-19T09:57:38.000Z</time>
      </trkpt>
      <trkpt lat="47.24628" lon="-2.31606">
        <ele>20.39999961853</ele>
        <time>2022-06-19T09:57:42.000Z</time>
      </trkpt>
      <trkpt lat="47.24636" lon="-2.31617">
        <ele>20.39999961853</ele>
        <time>2022-06-19T09:57:44.000Z</time>
      </trkpt>
      <trkpt lat="47.2466" lon="-2.31652">
        <ele>20.39999961853</ele>
        <time>2022-06-19T09:57:50.000Z</time>
      </trkpt>
      <trkpt lat="47.24685" lon="-2.31689">
        <ele>20.39999961853</ele>
        <time>2022-06-19T09:57:56.000Z</time>
      </trkpt>
      <trkpt lat="47.24718" lon="-2.31739">
        <ele>20.39999961853</ele>
        <time>2022-06-19T09:58:04.000Z</time>
      </trkpt>
      <trkpt lat="47.24748" lon="-2.31785">
        <ele>20.39999961853</ele>
        <time>2022-06-19T09:58:11.000Z</time>
      </trkpt>
      <trkpt lat="47.2478" lon="-2.3184">
        <ele>20.39999961853</ele>
        <time>2022-06-19T09:58:19.000Z</time>
      </trkpt>
      <trkpt lat="47.24798" lon="-2.3187">
        <ele>20.39999961853</ele>
        <time>2022-06-19T09:58:25.000Z</time>
      </trkpt>
      <trkpt lat="47.24798" lon="-2.31873">
        <ele>20.39999961853</ele>
        <time>2022-06-19T09:58:26.000Z</time>
      </trkpt>
      <trkpt lat="47.24794" lon="-2.31881">
        <ele>20.39999961853</ele>
        <time>2022-06-19T09:58:28.000Z</time>
      </trkpt>
      <trkpt lat="47.24787" lon="-2.31887">
        <ele>20.39999961853</ele>
        <time>2022-06-19T09:58:30.000Z</time>
      </trkpt>
      <trkpt lat="47.24783" lon="-2.3189">
        <ele>20.39999961853</ele>
        <time>2022-06-19T09:58:31.000Z</time>
      </trkpt>
      <trkpt lat="47.24779" lon="-2.31893">
        <ele>20.39999961853</ele>
        <time>2022-06-19T09:58:32.000Z</time>
      </trkpt>
      <trkpt lat="47.24762" lon="-2.31909">
        <ele>20.39999961853</ele>
        <time>2022-06-19T09:58:36.000Z</time>
      </trkpt>
      <trkpt lat="47.24757" lon="-2.31921">
        <ele>20.39999961853</ele>
        <time>2022-06-19T09:58:38.000Z</time>
      </trkpt>
      <trkpt lat="47.24757" lon="-2.31927">
        <ele>20</ele>
        <time>2022-06-19T09:58:39.000Z</time>
      </trkpt>
      <trkpt lat="47.24759" lon="-2.31934">
        <ele>19.60000038147</ele>
        <time>2022-06-19T09:58:40.000Z</time>
      </trkpt>
      <trkpt lat="47.24762" lon="-2.3194">
        <ele>19.200000762939</ele>
        <time>2022-06-19T09:58:41.000Z</time>
      </trkpt>
      <trkpt lat="47.24765" lon="-2.31947">
        <ele>18.799999237061</ele>
        <time>2022-06-19T09:58:42.000Z</time>
      </trkpt>
      <trkpt lat="47.24768" lon="-2.31954">
        <ele>18.39999961853</ele>
        <time>2022-06-19T09:58:43.000Z</time>
      </trkpt>
      <trkpt lat="47.24777" lon="-2.31975">
        <ele>18.39999961853</ele>
        <time>2022-06-19T09:58:46.000Z</time>
      </trkpt>
      <trkpt lat="47.24783" lon="-2.3199">
        <ele>18.39999961853</ele>
        <time>2022-06-19T09:58:48.000Z</time>
      </trkpt>
      <trkpt lat="47.24801" lon="-2.32035">
        <ele>18.39999961853</ele>
        <time>2022-06-19T09:58:54.000Z</time>
      </trkpt>
      <trkpt lat="47.24824" lon="-2.32078">
        <ele>18.39999961853</ele>
        <time>2022-06-19T09:59:00.000Z</time>
      </trkpt>
      <trkpt lat="47.24847" lon="-2.32131">
        <ele>18.39999961853</ele>
        <time>2022-06-19T09:59:07.000Z</time>
      </trkpt>
      <trkpt lat="47.24869" lon="-2.32179">
        <ele>18.39999961853</ele>
        <time>2022-06-19T09:59:14.000Z</time>
      </trkpt>
      <trkpt lat="47.24875" lon="-2.32193">
        <ele>18.39999961853</ele>
        <time>2022-06-19T09:59:16.000Z</time>
      </trkpt>
      <trkpt lat="47.24877" lon="-2.32203">
        <ele>18.39999961853</ele>
        <time>2022-06-19T09:59:18.000Z</time>
      </trkpt>
      <trkpt lat="47.24875" lon="-2.32211">
        <ele>18</ele>
        <time>2022-06-19T09:59:20.000Z</time>
      </trkpt>
      <trkpt lat="47.24872" lon="-2.32213">
        <ele>17.39999961853</ele>
        <time>2022-06-19T09:59:21.000Z</time>
      </trkpt>
      <trkpt lat="47.24869" lon="-2.32216">
        <ele>17</ele>
        <time>2022-06-19T09:59:22.000Z</time>
      </trkpt>
      <trkpt lat="47.24865" lon="-2.3222">
        <ele>16.60000038147</ele>
        <time>2022-06-19T09:59:23.000Z</time>
      </trkpt>
      <trkpt lat="47.24859" lon="-2.32225">
        <ele>16.200000762939</ele>
        <time>2022-06-19T09:59:24.000Z</time>
      </trkpt>
      <trkpt lat="47.24849" lon="-2.32235">
        <ele>15.60000038147</ele>
        <time>2022-06-19T09:59:26.000Z</time>
      </trkpt>
      <trkpt lat="47.24843" lon="-2.32241">
        <ele>15.199999809265</ele>
        <time>2022-06-19T09:59:27.000Z</time>
      </trkpt>
      <trkpt lat="47.24837" lon="-2.32247">
        <ele>14.800000190735</ele>
        <time>2022-06-19T09:59:28.000Z</time>
      </trkpt>
      <trkpt lat="47.2483" lon="-2.32253">
        <ele>14.39999961853</ele>
        <time>2022-06-19T09:59:29.000Z</time>
      </trkpt>
      <trkpt lat="47.24824" lon="-2.32259">
        <ele>13.800000190735</ele>
        <time>2022-06-19T09:59:30.000Z</time>
      </trkpt>
      <trkpt lat="47.24817" lon="-2.32265">
        <ele>13.199999809265</ele>
        <time>2022-06-19T09:59:31.000Z</time>
      </trkpt>
      <trkpt lat="47.2481" lon="-2.32271">
        <ele>12.199999809265</ele>
        <time>2022-06-19T09:59:32.000Z</time>
      </trkpt>
      <trkpt lat="47.24804" lon="-2.32278">
        <ele>11.60000038147</ele>
        <time>2022-06-19T09:59:33.000Z</time>
      </trkpt>
      <trkpt lat="47.24798" lon="-2.32283">
        <ele>11</ele>
        <time>2022-06-19T09:59:34.000Z</time>
      </trkpt>
      <trkpt lat="47.24793" lon="-2.3229">
        <ele>10.39999961853</ele>
        <time>2022-06-19T09:59:35.000Z</time>
      </trkpt>
      <trkpt lat="47.24791" lon="-2.32297">
        <ele>9.8000001907349</ele>
        <time>2022-06-19T09:59:36.000Z</time>
      </trkpt>
      <trkpt lat="47.2479" lon="-2.32305">
        <ele>9.1999998092651</ele>
        <time>2022-06-19T09:59:37.000Z</time>
      </trkpt>
      <trkpt lat="47.24794" lon="-2.3232">
        <ele>9.1999998092651</ele>
        <time>2022-06-19T09:59:39.000Z</time>
      </trkpt>
      <trkpt lat="47.24803" lon="-2.3234">
        <ele>9.1999998092651</ele>
        <time>2022-06-19T09:59:42.000Z</time>
      </trkpt>
      <trkpt lat="47.2481" lon="-2.32353">
        <ele>9.1999998092651</ele>
        <time>2022-06-19T09:59:44.000Z</time>
      </trkpt>
      <trkpt lat="47.24839" lon="-2.32402">
        <ele>9.1999998092651</ele>
        <time>2022-06-19T09:59:51.000Z</time>
      </trkpt>
      <trkpt lat="47.24861" lon="-2.32448">
        <ele>9.1999998092651</ele>
        <time>2022-06-19T09:59:57.000Z</time>
      </trkpt>
      <trkpt lat="47.24879" lon="-2.32499">
        <ele>9.1999998092651</ele>
        <time>2022-06-19T10:00:03.000Z</time>
      </trkpt>
      <trkpt lat="47.24898" lon="-2.32548">
        <ele>9.1999998092651</ele>
        <time>2022-06-19T10:00:09.000Z</time>
      </trkpt>
      <trkpt lat="47.2491" lon="-2.32582">
        <ele>8.8000001907349</ele>
        <time>2022-06-19T10:00:13.000Z</time>
      </trkpt>
      <trkpt lat="47.24914" lon="-2.32591">
        <ele>8.3999996185303</ele>
        <time>2022-06-19T10:00:14.000Z</time>
      </trkpt>
      <trkpt lat="47.24917" lon="-2.32598">
        <ele>8</ele>
        <time>2022-06-19T10:00:15.000Z</time>
      </trkpt>
      <trkpt lat="47.24921" lon="-2.32606">
        <ele>7.5999999046326</ele>
        <time>2022-06-19T10:00:16.000Z</time>
      </trkpt>
      <trkpt lat="47.24924" lon="-2.32615">
        <ele>7.1999998092651</ele>
        <time>2022-06-19T10:00:17.000Z</time>
      </trkpt>
      <trkpt lat="47.2494" lon="-2.32661">
        <ele>6.8000001907349</ele>
        <time>2022-06-19T10:00:22.000Z</time>
      </trkpt>
      <trkpt lat="47.24943" lon="-2.3267">
        <ele>6.4000000953674</ele>
        <time>2022-06-19T10:00:23.000Z</time>
      </trkpt>
      <trkpt lat="47.24947" lon="-2.32679">
        <ele>6</ele>
        <time>2022-06-19T10:00:24.000Z</time>
      </trkpt>
      <trkpt lat="47.2495" lon="-2.32689">
        <ele>5.5999999046326</ele>
        <time>2022-06-19T10:00:25.000Z</time>
      </trkpt>
      <trkpt lat="47.24953" lon="-2.32698">
        <ele>5</ele>
        <time>2022-06-19T10:00:26.000Z</time>
      </trkpt>
      <trkpt lat="47.24969" lon="-2.32742">
        <ele>5</ele>
        <time>2022-06-19T10:00:31.000Z</time>
      </trkpt>
      <trkpt lat="47.24981" lon="-2.32774">
        <ele>5</ele>
        <time>2022-06-19T10:00:35.000Z</time>
      </trkpt>
      <trkpt lat="47.24987" lon="-2.32785">
        <ele>5</ele>
        <time>2022-06-19T10:00:37.000Z</time>
      </trkpt>
      <trkpt lat="47.24998" lon="-2.3278">
        <ele>5</ele>
        <time>2022-06-19T10:00:40.000Z</time>
      </trkpt>
      <trkpt lat="47.25003" lon="-2.32776">
        <ele>5</ele>
        <time>2022-06-19T10:00:41.000Z</time>
      </trkpt>
      <trkpt lat="47.25024" lon="-2.32758">
        <ele>5</ele>
        <time>2022-06-19T10:00:46.000Z</time>
      </trkpt>
      <trkpt lat="47.25033" lon="-2.32766">
        <ele>5</ele>
        <time>2022-06-19T10:00:49.000Z</time>
      </trkpt>
      <trkpt lat="47.25039" lon="-2.32778">
        <ele>5</ele>
        <time>2022-06-19T10:00:52.000Z</time>
      </trkpt>
      <trkpt lat="47.25041" lon="-2.32783">
        <ele>5</ele>
        <time>2022-06-19T10:00:53.000Z</time>
      </trkpt>
      <trkpt lat="47.25044" lon="-2.32788">
        <ele>5</ele>
        <time>2022-06-19T10:00:54.000Z</time>
      </trkpt>
      <trkpt lat="47.25046" lon="-2.32795">
        <ele>5</ele>
        <time>2022-06-19T10:00:55.000Z</time>
      </trkpt>
      <trkpt lat="47.25052" lon="-2.32814">
        <ele>5</ele>
        <time>2022-06-19T10:00:58.000Z</time>
      </trkpt>
      <trkpt lat="47.25055" lon="-2.3282">
        <ele>5</ele>
        <time>2022-06-19T10:00:59.000Z</time>
      </trkpt>
      <trkpt lat="47.25072" lon="-2.32838">
        <ele>5</ele>
        <time>2022-06-19T10:01:03.000Z</time>
      </trkpt>
      <trkpt lat="47.2508" lon="-2.32848">
        <ele>5</ele>
        <time>2022-06-19T10:01:06.000Z</time>
      </trkpt>
      <trkpt lat="47.25084" lon="-2.32861">
        <ele>4.5999999046326</ele>
        <time>2022-06-19T10:01:10.000Z</time>
      </trkpt>
      <trkpt lat="47.25085" lon="-2.32866">
        <ele>3.7999999523163</ele>
        <time>2022-06-19T10:01:11.000Z</time>
      </trkpt>
      <trkpt lat="47.25086" lon="-2.3287">
        <ele>3.2000000476837</ele>
        <time>2022-06-19T10:01:12.000Z</time>
      </trkpt>
      <trkpt lat="47.25089" lon="-2.32874">
        <ele>2.7999999523163</ele>
        <time>2022-06-19T10:01:13.000Z</time>
      </trkpt>
      <trkpt lat="47.25095" lon="-2.32884">
        <ele>2.7999999523163</ele>
        <time>2022-06-19T10:01:16.000Z</time>
      </trkpt>
      <trkpt lat="47.25101" lon="-2.32901">
        <ele>2.7999999523163</ele>
        <time>2022-06-19T10:01:20.000Z</time>
      </trkpt>
      <trkpt lat="47.25103" lon="-2.32907">
        <ele>2.7999999523163</ele>
        <time>2022-06-19T10:01:21.000Z</time>
      </trkpt>
      <trkpt lat="47.25116" lon="-2.32937">
        <ele>2.7999999523163</ele>
        <time>2022-06-19T10:01:26.000Z</time>
      </trkpt>
      <trkpt lat="47.2513" lon="-2.32976">
        <ele>2.7999999523163</ele>
        <time>2022-06-19T10:01:31.000Z</time>
      </trkpt>
      <trkpt lat="47.25139" lon="-2.32995">
        <ele>2.7999999523163</ele>
        <time>2022-06-19T10:01:34.000Z</time>
      </trkpt>
      <trkpt lat="47.2514" lon="-2.33009">
        <ele>2.7999999523163</ele>
        <time>2022-06-19T10:01:36.000Z</time>
      </trkpt>
      <trkpt lat="47.25134" lon="-2.33025">
        <ele>2.7999999523163</ele>
        <time>2022-06-19T10:01:39.000Z</time>
      </trkpt>
      <trkpt lat="47.25132" lon="-2.3303">
        <ele>3.2000000476837</ele>
        <time>2022-06-19T10:01:40.000Z</time>
      </trkpt>
      <trkpt lat="47.25131" lon="-2.33036">
        <ele>3.5999999046326</ele>
        <time>2022-06-19T10:01:41.000Z</time>
      </trkpt>
      <trkpt lat="47.25129" lon="-2.33041">
        <ele>4.1999998092651</ele>
        <time>2022-06-19T10:01:42.000Z</time>
      </trkpt>
      <trkpt lat="47.25126" lon="-2.33046">
        <ele>4.5999999046326</ele>
        <time>2022-06-19T10:01:43.000Z</time>
      </trkpt>
      <trkpt lat="47.25124" lon="-2.33051">
        <ele>5</ele>
        <time>2022-06-19T10:01:44.000Z</time>
      </trkpt>
      <trkpt lat="47.25119" lon="-2.33062">
        <ele>5</ele>
        <time>2022-06-19T10:01:46.000Z</time>
      </trkpt>
      <trkpt lat="47.25116" lon="-2.33077">
        <ele>5</ele>
        <time>2022-06-19T10:01:50.000Z</time>
      </trkpt>
      <trkpt lat="47.25126" lon="-2.33077">
        <ele>5</ele>
        <time>2022-06-19T10:01:53.000Z</time>
      </trkpt>
      <trkpt lat="47.25133" lon="-2.33073">
        <ele>5</ele>
        <time>2022-06-19T10:01:55.000Z</time>
      </trkpt>
      <trkpt lat="47.25142" lon="-2.33068">
        <ele>5</ele>
        <time>2022-06-19T10:01:57.000Z</time>
      </trkpt>
      <trkpt lat="47.25155" lon="-2.3306">
        <ele>5</ele>
        <time>2022-06-19T10:02:00.000Z</time>
      </trkpt>
      <trkpt lat="47.2517" lon="-2.33048">
        <ele>5</ele>
        <time>2022-06-19T10:02:03.000Z</time>
      </trkpt>
      <trkpt lat="47.25197" lon="-2.33024">
        <ele>5</ele>
        <time>2022-06-19T10:02:09.000Z</time>
      </trkpt>
      <trkpt lat="47.252" lon="-2.33025">
        <ele>5</ele>
        <time>2022-06-19T10:02:10.000Z</time>
      </trkpt>
      <trkpt lat="47.25206" lon="-2.33033">
        <ele>5</ele>
        <time>2022-06-19T10:02:12.000Z</time>
      </trkpt>
      <trkpt lat="47.25212" lon="-2.33043">
        <ele>5</ele>
        <time>2022-06-19T10:02:14.000Z</time>
      </trkpt>
      <trkpt lat="47.25224" lon="-2.33065">
        <ele>5</ele>
        <time>2022-06-19T10:02:18.000Z</time>
      </trkpt>
      <trkpt lat="47.25245" lon="-2.33104">
        <ele>5</ele>
        <time>2022-06-19T10:02:25.000Z</time>
      </trkpt>
      <trkpt lat="47.25266" lon="-2.33137">
        <ele>5</ele>
        <time>2022-06-19T10:02:32.000Z</time>
      </trkpt>
      <trkpt lat="47.25281" lon="-2.33163">
        <ele>5</ele>
        <time>2022-06-19T10:02:38.000Z</time>
      </trkpt>
      <trkpt lat="47.253" lon="-2.332">
        <ele>5</ele>
        <time>2022-06-19T10:02:46.000Z</time>
      </trkpt>
      <trkpt lat="47.25316" lon="-2.33225">
        <ele>5</ele>
        <time>2022-06-19T10:02:54.000Z</time>
      </trkpt>
      <trkpt lat="47.25323" lon="-2.33218">
        <ele>5</ele>
        <time>2022-06-19T10:02:58.000Z</time>
      </trkpt>
      <trkpt lat="47.25325" lon="-2.33214">
        <ele>5</ele>
        <time>2022-06-19T10:02:59.000Z</time>
      </trkpt>
      <trkpt lat="47.25336" lon="-2.33197">
        <ele>5</ele>
        <time>2022-06-19T10:03:03.000Z</time>
      </trkpt>
      <trkpt lat="47.25354" lon="-2.33173">
        <ele>5</ele>
        <time>2022-06-19T10:03:09.000Z</time>
      </trkpt>
      <trkpt lat="47.25366" lon="-2.3315">
        <ele>5</ele>
        <time>2022-06-19T10:03:14.000Z</time>
      </trkpt>
      <trkpt lat="47.25371" lon="-2.33128">
        <ele>5</ele>
        <time>2022-06-19T10:03:19.000Z</time>
      </trkpt>
      <trkpt lat="47.25369" lon="-2.33108">
        <ele>5</ele>
        <time>2022-06-19T10:03:25.000Z</time>
      </trkpt>
      <trkpt lat="47.25364" lon="-2.33095">
        <ele>5</ele>
        <time>2022-06-19T10:03:31.000Z</time>
      </trkpt>
      <trkpt lat="47.25364" lon="-2.33092">
        <ele>5</ele>
        <time>2022-06-19T10:03:33.000Z</time>
      </trkpt>
      <trkpt lat="47.25364" lon="-2.33091">
        <ele>5</ele>
        <time>2022-06-19T10:03:34.000Z</time>
      </trkpt>
      <trkpt lat="47.25363" lon="-2.33088">
        <ele>9</ele>
        <time>2022-06-19T10:27:56.000Z</time>
      </trkpt>
      <trkpt lat="47.25359" lon="-2.33074">
        <ele>9</ele>
        <time>2022-06-19T10:28:00.000Z</time>
      </trkpt>
      <trkpt lat="47.25357" lon="-2.33066">
        <ele>9</ele>
        <time>2022-06-19T10:28:02.000Z</time>
      </trkpt>
      <trkpt lat="47.25355" lon="-2.33058">
        <ele>9.3999996185303</ele>
        <time>2022-06-19T10:28:04.000Z</time>
      </trkpt>
      <trkpt lat="47.25354" lon="-2.33053">
        <ele>9.8000001907349</ele>
        <time>2022-06-19T10:28:05.000Z</time>
      </trkpt>
      <trkpt lat="47.25352" lon="-2.33049">
        <ele>10.199999809265</ele>
        <time>2022-06-19T10:28:06.000Z</time>
      </trkpt>
      <trkpt lat="47.2535" lon="-2.33044">
        <ele>10.60000038147</ele>
        <time>2022-06-19T10:28:07.000Z</time>
      </trkpt>
      <trkpt lat="47.25349" lon="-2.3304">
        <ele>11</ele>
        <time>2022-06-19T10:28:08.000Z</time>
      </trkpt>
      <trkpt lat="47.25336" lon="-2.33009">
        <ele>11</ele>
        <time>2022-06-19T10:28:14.000Z</time>
      </trkpt>
      <trkpt lat="47.25319" lon="-2.32964">
        <ele>11</ele>
        <time>2022-06-19T10:28:23.000Z</time>
      </trkpt>
      <trkpt lat="47.25309" lon="-2.32937">
        <ele>11</ele>
        <time>2022-06-19T10:28:29.000Z</time>
      </trkpt>
      <trkpt lat="47.25313" lon="-2.32919">
        <ele>11</ele>
        <time>2022-06-19T10:28:33.000Z</time>
      </trkpt>
      <trkpt lat="47.25331" lon="-2.32898">
        <ele>11</ele>
        <time>2022-06-19T10:28:39.000Z</time>
      </trkpt>
      <trkpt lat="47.25366" lon="-2.32865">
        <ele>11</ele>
        <time>2022-06-19T10:28:48.000Z</time>
      </trkpt>
      <trkpt lat="47.25395" lon="-2.32832">
        <ele>11</ele>
        <time>2022-06-19T10:28:56.000Z</time>
      </trkpt>
      <trkpt lat="47.25417" lon="-2.32803">
        <ele>11</ele>
        <time>2022-06-19T10:29:03.000Z</time>
      </trkpt>
      <trkpt lat="47.25425" lon="-2.32789">
        <ele>11</ele>
        <time>2022-06-19T10:29:06.000Z</time>
      </trkpt>
      <trkpt lat="47.25428" lon="-2.32778">
        <ele>11</ele>
        <time>2022-06-19T10:29:08.000Z</time>
      </trkpt>
      <trkpt lat="47.25429" lon="-2.32772">
        <ele>11.39999961853</ele>
        <time>2022-06-19T10:29:09.000Z</time>
      </trkpt>
      <trkpt lat="47.25431" lon="-2.32768">
        <ele>12</ele>
        <time>2022-06-19T10:29:10.000Z</time>
      </trkpt>
      <trkpt lat="47.25435" lon="-2.32764">
        <ele>12.39999961853</ele>
        <time>2022-06-19T10:29:11.000Z</time>
      </trkpt>
      <trkpt lat="47.25438" lon="-2.3276">
        <ele>12.800000190735</ele>
        <time>2022-06-19T10:29:12.000Z</time>
      </trkpt>
      <trkpt lat="47.25442" lon="-2.32755">
        <ele>13.199999809265</ele>
        <time>2022-06-19T10:29:13.000Z</time>
      </trkpt>
      <trkpt lat="47.25451" lon="-2.32741">
        <ele>13.199999809265</ele>
        <time>2022-06-19T10:29:16.000Z</time>
      </trkpt>
      <trkpt lat="47.25455" lon="-2.32737">
        <ele>13.199999809265</ele>
        <time>2022-06-19T10:29:17.000Z</time>
      </trkpt>
      <trkpt lat="47.25485" lon="-2.32694">
        <ele>13.199999809265</ele>
        <time>2022-06-19T10:29:26.000Z</time>
      </trkpt>
      <trkpt lat="47.25488" lon="-2.32667">
        <ele>13.199999809265</ele>
        <time>2022-06-19T10:29:30.000Z</time>
      </trkpt>
      <trkpt lat="47.25488" lon="-2.3266">
        <ele>13.199999809265</ele>
        <time>2022-06-19T10:29:31.000Z</time>
      </trkpt>
      <trkpt lat="47.25484" lon="-2.32633">
        <ele>13.199999809265</ele>
        <time>2022-06-19T10:29:35.000Z</time>
      </trkpt>
      <trkpt lat="47.25476" lon="-2.32593">
        <ele>13.199999809265</ele>
        <time>2022-06-19T10:29:41.000Z</time>
      </trkpt>
      <trkpt lat="47.25475" lon="-2.32573">
        <ele>13.199999809265</ele>
        <time>2022-06-19T10:29:44.000Z</time>
      </trkpt>
      <trkpt lat="47.25478" lon="-2.32562">
        <ele>13.199999809265</ele>
        <time>2022-06-19T10:29:46.000Z</time>
      </trkpt>
      <trkpt lat="47.25489" lon="-2.32551">
        <ele>13.199999809265</ele>
        <time>2022-06-19T10:29:49.000Z</time>
      </trkpt>
      <trkpt lat="47.25494" lon="-2.32547">
        <ele>13.199999809265</ele>
        <time>2022-06-19T10:29:50.000Z</time>
      </trkpt>
      <trkpt lat="47.25532" lon="-2.32511">
        <ele>13.199999809265</ele>
        <time>2022-06-19T10:29:59.000Z</time>
      </trkpt>
      <trkpt lat="47.25555" lon="-2.3249">
        <ele>13.199999809265</ele>
        <time>2022-06-19T10:30:04.000Z</time>
      </trkpt>
      <trkpt lat="47.2557" lon="-2.32475">
        <ele>12.800000190735</ele>
        <time>2022-06-19T10:30:07.000Z</time>
      </trkpt>
      <trkpt lat="47.25575" lon="-2.3247">
        <ele>12.39999961853</ele>
        <time>2022-06-19T10:30:08.000Z</time>
      </trkpt>
      <trkpt lat="47.2558" lon="-2.32464">
        <ele>11.800000190735</ele>
        <time>2022-06-19T10:30:09.000Z</time>
      </trkpt>
      <trkpt lat="47.25585" lon="-2.32459">
        <ele>11.39999961853</ele>
        <time>2022-06-19T10:30:10.000Z</time>
      </trkpt>
      <trkpt lat="47.25591" lon="-2.32454">
        <ele>10.800000190735</ele>
        <time>2022-06-19T10:30:11.000Z</time>
      </trkpt>
      <trkpt lat="47.25602" lon="-2.32443">
        <ele>10.800000190735</ele>
        <time>2022-06-19T10:30:13.000Z</time>
      </trkpt>
      <trkpt lat="47.25618" lon="-2.32425">
        <ele>10.39999961853</ele>
        <time>2022-06-19T10:30:16.000Z</time>
      </trkpt>
      <trkpt lat="47.25623" lon="-2.32419">
        <ele>10</ele>
        <time>2022-06-19T10:30:17.000Z</time>
      </trkpt>
      <trkpt lat="47.25628" lon="-2.32414">
        <ele>9.6000003814697</ele>
        <time>2022-06-19T10:30:18.000Z</time>
      </trkpt>
      <trkpt lat="47.25633" lon="-2.32408">
        <ele>9</ele>
        <time>2022-06-19T10:30:19.000Z</time>
      </trkpt>
      <trkpt lat="47.25639" lon="-2.32404">
        <ele>8.6000003814697</ele>
        <time>2022-06-19T10:30:20.000Z</time>
      </trkpt>
      <trkpt lat="47.25649" lon="-2.32402">
        <ele>8.6000003814697</ele>
        <time>2022-06-19T10:30:22.000Z</time>
      </trkpt>
      <trkpt lat="47.25659" lon="-2.32401">
        <ele>8.6000003814697</ele>
        <time>2022-06-19T10:30:24.000Z</time>
      </trkpt>
      <trkpt lat="47.25674" lon="-2.32408">
        <ele>8.6000003814697</ele>
        <time>2022-06-19T10:30:27.000Z</time>
      </trkpt>
      <trkpt lat="47.25684" lon="-2.32414">
        <ele>8.6000003814697</ele>
        <time>2022-06-19T10:30:29.000Z</time>
      </trkpt>
      <trkpt lat="47.25689" lon="-2.32416">
        <ele>8.1999998092651</ele>
        <time>2022-06-19T10:30:30.000Z</time>
      </trkpt>
      <trkpt lat="47.25694" lon="-2.32416">
        <ele>7.8000001907349</ele>
        <time>2022-06-19T10:30:31.000Z</time>
      </trkpt>
      <trkpt lat="47.257" lon="-2.32417">
        <ele>7.4000000953674</ele>
        <time>2022-06-19T10:30:32.000Z</time>
      </trkpt>
      <trkpt lat="47.25706" lon="-2.32418">
        <ele>6.8000001907349</ele>
        <time>2022-06-19T10:30:33.000Z</time>
      </trkpt>
      <trkpt lat="47.25712" lon="-2.32419">
        <ele>6.4000000953674</ele>
        <time>2022-06-19T10:30:34.000Z</time>
      </trkpt>
      <trkpt lat="47.25739" lon="-2.3242">
        <ele>6.4000000953674</ele>
        <time>2022-06-19T10:30:39.000Z</time>
      </trkpt>
      <trkpt lat="47.25759" lon="-2.32421">
        <ele>6.4000000953674</ele>
        <time>2022-06-19T10:30:43.000Z</time>
      </trkpt>
      <trkpt lat="47.25764" lon="-2.32419">
        <ele>6.4000000953674</ele>
        <time>2022-06-19T10:30:44.000Z</time>
      </trkpt>
      <trkpt lat="47.25782" lon="-2.32415">
        <ele>6.4000000953674</ele>
        <time>2022-06-19T10:30:49.000Z</time>
      </trkpt>
      <trkpt lat="47.25789" lon="-2.32421">
        <ele>6.4000000953674</ele>
        <time>2022-06-19T10:30:51.000Z</time>
      </trkpt>
      <trkpt lat="47.25795" lon="-2.32431">
        <ele>6.4000000953674</ele>
        <time>2022-06-19T10:30:53.000Z</time>
      </trkpt>
      <trkpt lat="47.25801" lon="-2.32443">
        <ele>6.4000000953674</ele>
        <time>2022-06-19T10:30:55.000Z</time>
      </trkpt>
      <trkpt lat="47.25814" lon="-2.32456">
        <ele>6.4000000953674</ele>
        <time>2022-06-19T10:30:58.000Z</time>
      </trkpt>
      <trkpt lat="47.25848" lon="-2.32472">
        <ele>6.4000000953674</ele>
        <time>2022-06-19T10:31:05.000Z</time>
      </trkpt>
      <trkpt lat="47.25871" lon="-2.32474">
        <ele>6.4000000953674</ele>
        <time>2022-06-19T10:31:10.000Z</time>
      </trkpt>
      <trkpt lat="47.25875" lon="-2.32472">
        <ele>6.4000000953674</ele>
        <time>2022-06-19T10:31:11.000Z</time>
      </trkpt>
      <trkpt lat="47.25894" lon="-2.32466">
        <ele>6.4000000953674</ele>
        <time>2022-06-19T10:31:16.000Z</time>
      </trkpt>
      <trkpt lat="47.25901" lon="-2.32458">
        <ele>6.4000000953674</ele>
        <time>2022-06-19T10:31:18.000Z</time>
      </trkpt>
      <trkpt lat="47.2593" lon="-2.32423">
        <ele>6.4000000953674</ele>
        <time>2022-06-19T10:31:26.000Z</time>
      </trkpt>
      <trkpt lat="47.25937" lon="-2.32414">
        <ele>6.4000000953674</ele>
        <time>2022-06-19T10:31:28.000Z</time>
      </trkpt>
      <trkpt lat="47.25951" lon="-2.32397">
        <ele>6.4000000953674</ele>
        <time>2022-06-19T10:31:32.000Z</time>
      </trkpt>
      <trkpt lat="47.25972" lon="-2.32368">
        <ele>6.4000000953674</ele>
        <time>2022-06-19T10:31:38.000Z</time>
      </trkpt>
      <trkpt lat="47.26" lon="-2.32331">
        <ele>6.4000000953674</ele>
        <time>2022-06-19T10:31:46.000Z</time>
      </trkpt>
      <trkpt lat="47.26024" lon="-2.32301">
        <ele>6.4000000953674</ele>
        <time>2022-06-19T10:31:53.000Z</time>
      </trkpt>
      <trkpt lat="47.26047" lon="-2.32275">
        <ele>6.4000000953674</ele>
        <time>2022-06-19T10:31:59.000Z</time>
      </trkpt>
      <trkpt lat="47.26051" lon="-2.32271">
        <ele>6.4000000953674</ele>
        <time>2022-06-19T10:32:00.000Z</time>
      </trkpt>
      <trkpt lat="47.26069" lon="-2.32251">
        <ele>6.4000000953674</ele>
        <time>2022-06-19T10:32:05.000Z</time>
      </trkpt>
      <trkpt lat="47.26072" lon="-2.32247">
        <ele>6.4000000953674</ele>
        <time>2022-06-19T10:32:06.000Z</time>
      </trkpt>
      <trkpt lat="47.26099" lon="-2.32207">
        <ele>6.4000000953674</ele>
        <time>2022-06-19T10:32:14.000Z</time>
      </trkpt>
      <trkpt lat="47.26116" lon="-2.32171">
        <ele>6.4000000953674</ele>
        <time>2022-06-19T10:32:20.000Z</time>
      </trkpt>
      <trkpt lat="47.26132" lon="-2.3212">
        <ele>6.4000000953674</ele>
        <time>2022-06-19T10:32:28.000Z</time>
      </trkpt>
      <trkpt lat="47.26143" lon="-2.32083">
        <ele>6.4000000953674</ele>
        <time>2022-06-19T10:32:34.000Z</time>
      </trkpt>
      <trkpt lat="47.26155" lon="-2.32044">
        <ele>6.4000000953674</ele>
        <time>2022-06-19T10:32:40.000Z</time>
      </trkpt>
      <trkpt lat="47.26158" lon="-2.32033">
        <ele>6.4000000953674</ele>
        <time>2022-06-19T10:32:42.000Z</time>
      </trkpt>
      <trkpt lat="47.26159" lon="-2.32026">
        <ele>6</ele>
        <time>2022-06-19T10:32:43.000Z</time>
      </trkpt>
      <trkpt lat="47.2616" lon="-2.3202">
        <ele>5.5999999046326</ele>
        <time>2022-06-19T10:32:44.000Z</time>
      </trkpt>
      <trkpt lat="47.2616" lon="-2.32013">
        <ele>5</ele>
        <time>2022-06-19T10:32:45.000Z</time>
      </trkpt>
      <trkpt lat="47.26161" lon="-2.32007">
        <ele>4.5999999046326</ele>
        <time>2022-06-19T10:32:46.000Z</time>
      </trkpt>
      <trkpt lat="47.26161" lon="-2.32">
        <ele>4.1999998092651</ele>
        <time>2022-06-19T10:32:47.000Z</time>
      </trkpt>
      <trkpt lat="47.2616" lon="-2.31993">
        <ele>4.1999998092651</ele>
        <time>2022-06-19T10:32:48.000Z</time>
      </trkpt>
      <trkpt lat="47.26157" lon="-2.31967">
        <ele>4.1999998092651</ele>
        <time>2022-06-19T10:32:52.000Z</time>
      </trkpt>
      <trkpt lat="47.26152" lon="-2.31937">
        <ele>4.1999998092651</ele>
        <time>2022-06-19T10:32:57.000Z</time>
      </trkpt>
      <trkpt lat="47.26147" lon="-2.31887">
        <ele>4.1999998092651</ele>
        <time>2022-06-19T10:33:04.000Z</time>
      </trkpt>
      <trkpt lat="47.2614" lon="-2.31851">
        <ele>4.1999998092651</ele>
        <time>2022-06-19T10:33:10.000Z</time>
      </trkpt>
      <trkpt lat="47.26135" lon="-2.31811">
        <ele>4.1999998092651</ele>
        <time>2022-06-19T10:33:16.000Z</time>
      </trkpt>
      <trkpt lat="47.26131" lon="-2.31765">
        <ele>4.1999998092651</ele>
        <time>2022-06-19T10:33:22.000Z</time>
      </trkpt>
      <trkpt lat="47.26127" lon="-2.31718">
        <ele>4.1999998092651</ele>
        <time>2022-06-19T10:33:29.000Z</time>
      </trkpt>
      <trkpt lat="47.26126" lon="-2.31704">
        <ele>4.1999998092651</ele>
        <time>2022-06-19T10:33:31.000Z</time>
      </trkpt>
      <trkpt lat="47.26123" lon="-2.31686">
        <ele>4.1999998092651</ele>
        <time>2022-06-19T10:33:34.000Z</time>
      </trkpt>
      <trkpt lat="47.26113" lon="-2.31637">
        <ele>4.1999998092651</ele>
        <time>2022-06-19T10:33:42.000Z</time>
      </trkpt>
      <trkpt lat="47.26116" lon="-2.31619">
        <ele>4.1999998092651</ele>
        <time>2022-06-19T10:33:45.000Z</time>
      </trkpt>
      <trkpt lat="47.26126" lon="-2.31612">
        <ele>4.1999998092651</ele>
        <time>2022-06-19T10:33:48.000Z</time>
      </trkpt>
      <trkpt lat="47.26135" lon="-2.31611">
        <ele>4.1999998092651</ele>
        <time>2022-06-19T10:33:50.000Z</time>
      </trkpt>
      <trkpt lat="47.26148" lon="-2.31608">
        <ele>4.1999998092651</ele>
        <time>2022-06-19T10:33:53.000Z</time>
      </trkpt>
      <trkpt lat="47.26153" lon="-2.31607">
        <ele>4.1999998092651</ele>
        <time>2022-06-19T10:33:54.000Z</time>
      </trkpt>
      <trkpt lat="47.26166" lon="-2.31602">
        <ele>4.1999998092651</ele>
        <time>2022-06-19T10:33:57.000Z</time>
      </trkpt>
      <trkpt lat="47.26179" lon="-2.31597">
        <ele>4.1999998092651</ele>
        <time>2022-06-19T10:34:00.000Z</time>
      </trkpt>
      <trkpt lat="47.26205" lon="-2.31587">
        <ele>4.1999998092651</ele>
        <time>2022-06-19T10:34:06.000Z</time>
      </trkpt>
      <trkpt lat="47.2621" lon="-2.31586">
        <ele>4.1999998092651</ele>
        <time>2022-06-19T10:34:07.000Z</time>
      </trkpt>
      <trkpt lat="47.26229" lon="-2.31588">
        <ele>4.1999998092651</ele>
        <time>2022-06-19T10:34:11.000Z</time>
      </trkpt>
      <trkpt lat="47.26233" lon="-2.3159">
        <ele>4.1999998092651</ele>
        <time>2022-06-19T10:34:12.000Z</time>
      </trkpt>
      <trkpt lat="47.26247" lon="-2.31601">
        <ele>4.1999998092651</ele>
        <time>2022-06-19T10:34:16.000Z</time>
      </trkpt>
      <trkpt lat="47.26254" lon="-2.31608">
        <ele>4.1999998092651</ele>
        <time>2022-06-19T10:34:18.000Z</time>
      </trkpt>
      <trkpt lat="47.2627" lon="-2.31633">
        <ele>4.1999998092651</ele>
        <time>2022-06-19T10:34:24.000Z</time>
      </trkpt>
      <trkpt lat="47.26286" lon="-2.31665">
        <ele>4.1999998092651</ele>
        <time>2022-06-19T10:34:31.000Z</time>
      </trkpt>
      <trkpt lat="47.26303" lon="-2.31701">
        <ele>4.1999998092651</ele>
        <time>2022-06-19T10:34:38.000Z</time>
      </trkpt>
      <trkpt lat="47.26304" lon="-2.31707">
        <ele>4.1999998092651</ele>
        <time>2022-06-19T10:34:41.000Z</time>
      </trkpt>
      <trkpt lat="47.26303" lon="-2.31709">
        <ele>4.1999998092651</ele>
        <time>2022-06-19T10:34:42.000Z</time>
      </trkpt>
      <trkpt lat="47.26303" lon="-2.3172">
        <ele>4.1999998092651</ele>
        <time>2022-06-19T10:34:45.000Z</time>
      </trkpt>
      <trkpt lat="47.26306" lon="-2.31738">
        <ele>4.1999998092651</ele>
        <time>2022-06-19T10:34:49.000Z</time>
      </trkpt>
      <trkpt lat="47.26306" lon="-2.31747">
        <ele>4.1999998092651</ele>
        <time>2022-06-19T10:34:52.000Z</time>
      </trkpt>
      <trkpt lat="47.26306" lon="-2.31748">
        <ele>4.1999998092651</ele>
        <time>2022-06-19T10:34:53.000Z</time>
      </trkpt>
      <trkpt lat="47.26303" lon="-2.31744">
        <ele>4.1999998092651</ele>
        <time>2022-06-19T10:34:58.000Z</time>
      </trkpt>
      <trkpt lat="47.26301" lon="-2.31726">
        <ele>4.1999998092651</ele>
        <time>2022-06-19T10:35:02.000Z</time>
      </trkpt>
      <trkpt lat="47.26307" lon="-2.31713">
        <ele>4.1999998092651</ele>
        <time>2022-06-19T10:35:05.000Z</time>
      </trkpt>
      <trkpt lat="47.26314" lon="-2.3171">
        <ele>4.1999998092651</ele>
        <time>2022-06-19T10:35:07.000Z</time>
      </trkpt>
      <trkpt lat="47.26324" lon="-2.31705">
        <ele>4.1999998092651</ele>
        <time>2022-06-19T10:35:10.000Z</time>
      </trkpt>
      <trkpt lat="47.2633" lon="-2.31701">
        <ele>4.5999999046326</ele>
        <time>2022-06-19T10:35:12.000Z</time>
      </trkpt>
      <trkpt lat="47.26332" lon="-2.31699">
        <ele>5</ele>
        <time>2022-06-19T10:35:13.000Z</time>
      </trkpt>
      <trkpt lat="47.26333" lon="-2.31696">
        <ele>5.4000000953674</ele>
        <time>2022-06-19T10:35:14.000Z</time>
      </trkpt>
      <trkpt lat="47.26334" lon="-2.31691">
        <ele>5.8000001907349</ele>
        <time>2022-06-19T10:35:15.000Z</time>
      </trkpt>
      <trkpt lat="47.26337" lon="-2.31688">
        <ele>6.1999998092651</ele>
        <time>2022-06-19T10:35:16.000Z</time>
      </trkpt>
      <trkpt lat="47.2634" lon="-2.31686">
        <ele>6.1999998092651</ele>
        <time>2022-06-19T10:35:17.000Z</time>
      </trkpt>
      <trkpt lat="47.26346" lon="-2.31683">
        <ele>6.1999998092651</ele>
        <time>2022-06-19T10:35:19.000Z</time>
      </trkpt>
      <trkpt lat="47.26352" lon="-2.31679">
        <ele>6.1999998092651</ele>
        <time>2022-06-19T10:35:22.000Z</time>
      </trkpt>
      <trkpt lat="47.26354" lon="-2.31678">
        <ele>6.5999999046326</ele>
        <time>2022-06-19T10:35:23.000Z</time>
      </trkpt>
      <trkpt lat="47.26357" lon="-2.31676">
        <ele>7.1999998092651</ele>
        <time>2022-06-19T10:35:24.000Z</time>
      </trkpt>
      <trkpt lat="47.2636" lon="-2.31675">
        <ele>7.5999999046326</ele>
        <time>2022-06-19T10:35:25.000Z</time>
      </trkpt>
      <trkpt lat="47.26363" lon="-2.31674">
        <ele>8</ele>
        <time>2022-06-19T10:35:26.000Z</time>
      </trkpt>
      <trkpt lat="47.26366" lon="-2.31672">
        <ele>8.3999996185303</ele>
        <time>2022-06-19T10:35:27.000Z</time>
      </trkpt>
      <trkpt lat="47.26369" lon="-2.31671">
        <ele>8.3999996185303</ele>
        <time>2022-06-19T10:35:28.000Z</time>
      </trkpt>
      <trkpt lat="47.26387" lon="-2.31663">
        <ele>8.3999996185303</ele>
        <time>2022-06-19T10:35:34.000Z</time>
      </trkpt>
      <trkpt lat="47.26404" lon="-2.31655">
        <ele>8.3999996185303</ele>
        <time>2022-06-19T10:35:40.000Z</time>
      </trkpt>
      <trkpt lat="47.26414" lon="-2.31644">
        <ele>8.3999996185303</ele>
        <time>2022-06-19T10:35:44.000Z</time>
      </trkpt>
      <trkpt lat="47.26412" lon="-2.3164">
        <ele>8.3999996185303</ele>
        <time>2022-06-19T10:35:45.000Z</time>
      </trkpt>
      <trkpt lat="47.26411" lon="-2.31626">
        <ele>8.3999996185303</ele>
        <time>2022-06-19T10:35:48.000Z</time>
      </trkpt>
      <trkpt lat="47.26411" lon="-2.31617">
        <ele>8.3999996185303</ele>
        <time>2022-06-19T10:35:50.000Z</time>
      </trkpt>
      <trkpt lat="47.26411" lon="-2.31589">
        <ele>8.3999996185303</ele>
        <time>2022-06-19T10:35:56.000Z</time>
      </trkpt>
      <trkpt lat="47.26412" lon="-2.31585">
        <ele>8.8000001907349</ele>
        <time>2022-06-19T10:35:57.000Z</time>
      </trkpt>
      <trkpt lat="47.26412" lon="-2.31581">
        <ele>9.1999998092651</ele>
        <time>2022-06-19T10:35:58.000Z</time>
      </trkpt>
      <trkpt lat="47.26412" lon="-2.31576">
        <ele>9.6000003814697</ele>
        <time>2022-06-19T10:35:59.000Z</time>
      </trkpt>
      <trkpt lat="47.26412" lon="-2.31572">
        <ele>10.199999809265</ele>
        <time>2022-06-19T10:36:00.000Z</time>
      </trkpt>
      <trkpt lat="47.26412" lon="-2.31568">
        <ele>10.60000038147</ele>
        <time>2022-06-19T10:36:01.000Z</time>
      </trkpt>
      <trkpt lat="47.26412" lon="-2.31564">
        <ele>10.60000038147</ele>
        <time>2022-06-19T10:36:02.000Z</time>
      </trkpt>
      <trkpt lat="47.26413" lon="-2.31553">
        <ele>10.60000038147</ele>
        <time>2022-06-19T10:36:05.000Z</time>
      </trkpt>
      <trkpt lat="47.26417" lon="-2.31552">
        <ele>10.60000038147</ele>
        <time>2022-06-19T10:36:07.000Z</time>
      </trkpt>
      <trkpt lat="47.26419" lon="-2.31553">
        <ele>10.60000038147</ele>
        <time>2022-06-19T10:36:10.000Z</time>
      </trkpt>
    </trkseg>
  </trk>
</gpx>